# Wetter Temperatur Luftdruck Luftfeuchtigkeit Sichtweite Windgeschwindigkeit Windrichtung Zeit
1 Clouds 14 1018 82 10000 3.6 280 08:58 14.07.2020
2 Clouds 14 1018 82 10000 3.6 280 08:40 14.07.2020
3 Clouds 13 1018 82 10000 2.1 300 08:22 14.07.2020
4 Clouds 13 1018 82 10000 2.6 290 07:50 14.07.2020
5 Clouds 13 1018 82 10000 2.1 290 07:20 14.07.2020
6 Clouds 13 1017 82 10000 3.1 300 06:59 14.07.2020
7 Clouds 13 1018 82 10000 2.6 300 06:27 14.07.2020
8 Clouds 13 1018 87 10000 2.6 310 05:54 14.07.2020
9 Clouds 13 1018 82 10000 2.1 320 04:54 14.07.2020
10 Clouds 14 1018 82 10000 2.1 320 04:33 14.07.2020
11 Rain 14 1018 93 10000 3.1 280 03:31 14.07.2020
12 Clouds 15 1018 87 10000 1.5 270 02:29 14.07.2020
13 Clouds 15 1018 82 10000 2.1 280 01:41 14.07.2020
14 Clouds 15 1018 82 10000 2.1 280 01:23 14.07.2020
15 Clouds 15 1018 82 10000 1.5 0 00:43 14.07.2020
16 Clouds 15 1018 82 10000 1 0 00:23 14.07.2020
17 Clouds 15 1018 82 10000 1.5 280 23:39 13.07.2020
18 Clouds 15 1018 77 10000 1.5 300 23:20 13.07.2020
19 Clouds 16 1018 72 10000 3.1 300 22:57 13.07.2020
20 Clouds 16 1018 72 10000 3.1 300 22:39 13.07.2020
21 Clouds 16 1018 72 10000 3.6 300 22:19 13.07.2020
22 Clouds 16 1018 77 10000 3.1 290 21:54 13.07.2020
23 Clouds 16 1018 77 10000 3.1 290 21:36 13.07.2020
24 Clouds 17 1018 72 10000 3.1 290 21:18 13.07.2020
25 Clouds 17 1018 72 10000 3.1 290 21:18 13.07.2020
26 Clouds 17 1018 72 10000 3.1 290 20:42 13.07.2020
27 Clouds 17 1018 67 10000 4.1 280 20:24 13.07.2020
28 Clouds 17 1019 72 10000 4.6 280 19:59 13.07.2020
29 Clouds 17 1019 72 10000 4.6 280 19:41 13.07.2020
30 Clouds 17 1019 77 10000 3.6 290 19:22 13.07.2020
31 Clouds 17 1019 82 10000 4.1 280 18:56 13.07.2020
32 Clouds 17 1019 82 10000 4.1 280 18:38 13.07.2020
33 Clouds 17 1019 82 10000 4.1 280 18:38 13.07.2020
34 Clouds 17 1019 82 10000 5.1 290 18:19 13.07.2020
35 Clouds 17 1019 88 10000 5.1 290 17:43 13.07.2020
36 Clouds 17 1019 77 10000 6.7 240 17:22 13.07.2020
37 Rain 17 1019 82 10000 6.2 240 16:59 13.07.2020
38 Rain 18 1019 82 10000 6.2 240 16:41 13.07.2020
39 Rain 18 1020 82 10000 3.6 250 16:20 13.07.2020
40 Rain 18 1020 82 10000 3.1 220 15:58 13.07.2020
41 Rain 17 1020 82 10000 3.1 220 15:38 13.07.2020
42 Clouds 17 1020 82 10000 3.6 220 15:20 13.07.2020
43 Clouds 17 1020 82 10000 3.6 220 15:20 13.07.2020
44 Clouds 17 1020 82 10000 4.1 210 14:57 13.07.2020
45 Clouds 17 1020 82 10000 4.1 210 14:57 13.07.2020
46 Clouds 17 1020 82 10000 4.1 210 14:39 13.07.2020
47 Clouds 17 1021 82 10000 4.6 210 14:20 13.07.2020
48 Clouds 17 1021 82 10000 4.6 210 13:43 13.07.2020
49 Clouds 17 1021 82 10000 4.1 210 13:22 13.07.2020
50 Clouds 17 1021 82 10000 3.6 190 12:57 13.07.2020
51 Clouds 17 1021 82 10000 3.6 190 12:39 13.07.2020
52 Clouds 16 1022 82 10000 4.1 210 12:21 13.07.2020
53 Clouds 16 1022 82 10000 3.6 200 11:46 13.07.2020
54 Clouds 16 1022 82 10000 3.1 210 11:27 13.07.2020
55 Clouds 16 1022 82 10000 3.1 210 10:59 13.07.2020
56 Clouds 16 1022 82 10000 3.6 210 10:37 13.07.2020
57 Clouds 14 1022 82 10000 2.6 200 10:19 13.07.2020
58 Clouds 15 1022 82 10000 3.1 200 09:41 13.07.2020
59 Clouds 15 1022 87 10000 2.1 190 09:23 13.07.2020
60 Rain 14 1023 82 10000 2.1 190 08:51 13.07.2020
61 Rain 14 1023 82 10000 2.1 190 08:32 13.07.2020
62 Clouds 14 1023 76 10000 2.1 180 07:34 13.07.2020
63 Clouds 14 1023 76 10000 1.5 0 06:55 13.07.2020
64 Clouds 14 1023 76 10000 1.5 0 06:37 13.07.2020
65 Clouds 14 1023 76 10000 2.1 190 06:19 13.07.2020
66 Clouds 14 1024 71 10000 1.5 0 04:34 13.07.2020
67 Clouds 15 1025 62 10000 2.1 230 01:52 13.07.2020
68 Clouds 15 1025 62 10000 2.1 230 01:26 13.07.2020
69 Clouds 16 1025 62 10000 2.1 230 00:55 13.07.2020
70 Clear 16 1026 67 10000 1.5 200 00:25 13.07.2020
71 Clear 16 1026 72 10000 1 190 23:57 12.07.2020
72 Clear 16 1026 72 10000 1 190 23:39 12.07.2020
73 Clouds 16 1026 67 10000 1 0 23:20 12.07.2020
74 Clouds 17 1026 63 10000 1.5 290 22:38 12.07.2020
75 Clouds 17 1026 59 10000 2.6 290 22:20 12.07.2020
76 Clouds 17 1026 59 10000 2.6 290 22:20 12.07.2020
77 Clouds 18 1026 55 10000 2.6 290 21:57 12.07.2020
78 Clouds 18 1026 55 10000 2.6 290 21:39 12.07.2020
79 Clouds 18 1026 55 10000 2.6 290 21:39 12.07.2020
80 Clouds 18 1026 55 10000 2.6 290 21:39 12.07.2020
81 Clouds 18 1026 55 10000 4.1 300 21:20 12.07.2020
82 Clouds 19 1026 55 10000 5.1 290 20:58 12.07.2020
83 Clouds 19 1026 55 10000 5.1 290 20:39 12.07.2020
84 Clouds 20 1026 52 10000 4.1 250 20:19 12.07.2020
85 Clouds 21 1026 49 10000 2.6 210 19:54 12.07.2020
86 Clouds 19 1026 49 10000 3.1 220 19:36 12.07.2020
87 Clouds 21 1026 49 10000 3.1 220 19:18 12.07.2020
88 Clouds 21 1026 45 10000 2.6 220 18:40 12.07.2020
89 Clouds 21 1026 42 10000 3.1 230 18:19 12.07.2020
90 Clouds 20 1027 45 10000 2.6 220 17:41 12.07.2020
91 Clouds 20 1027 45 10000 2.6 240 17:22 12.07.2020
92 Clouds 20 1027 45 10000 3.1 220 16:58 12.07.2020
93 Clouds 20 1027 45 10000 3.1 220 16:40 12.07.2020
94 Clouds 20 1027 48 10000 3.1 220 16:18 12.07.2020
95 Clouds 20 1028 48 10000 1.5 0 15:43 12.07.2020
96 Clouds 19 1028 45 10000 3.1 240 15:23 12.07.2020
97 Clouds 20 1028 48 10000 1.5 0 14:43 12.07.2020
98 Clouds 19 1028 55 10000 1.5 0 14:25 12.07.2020
99 Clouds 18 1028 51 10000 1.5 0 13:41 12.07.2020
100 Clouds 18 1029 51 10000 2.1 210 13:22 12.07.2020
101 Clouds 18 1029 55 10000 2.1 210 12:59 12.07.2020
102 Clouds 17 1029 55 10000 2.1 210 12:41 12.07.2020
103 Clouds 16 1029 55 10000 2.6 220 12:19 12.07.2020
104 Clouds 16 1029 58 10000 2.1 0 11:57 12.07.2020
105 Clouds 16 1029 58 10000 2.1 0 11:39 12.07.2020
106 Clouds 15 1029 62 10000 2.1 220 11:18 12.07.2020
107 Clouds 15 1029 62 10000 1.5 0 10:41 12.07.2020
108 Clouds 14 1029 71 10000 1.5 0 10:20 12.07.2020
109 Clouds 13 1029 76 10000 1.5 0 09:43 12.07.2020
110 Clouds 12 1029 76 10000 1.5 0 09:22 12.07.2020
111 Clouds 11 1029 81 10000 1 0 08:57 12.07.2020
112 Clouds 11 1029 81 10000 1 0 08:38 12.07.2020
113 Clouds 10 1029 93 10000 1 0 08:20 12.07.2020
114 Clouds 9 1029 93 10000 1 140 07:49 12.07.2020
115 Clouds 8 1029 100 10000 1 120 07:31 12.07.2020
116 Clear 7 1028 100 10000 0.5 0 06:53 12.07.2020
117 Clear 7 1028 100 10000 0.5 0 06:53 12.07.2020
118 Clear 7 1028 93 10000 0.5 150 06:22 12.07.2020
119 Clear 7 1028 100 10000 1 140 05:59 12.07.2020
120 Clear 7 1028 93 10000 0.5 0 04:58 12.07.2020
121 Clear 8 1028 100 10000 1 0 04:29 12.07.2020
122 Clear 8 1029 93 10000 2.1 160 03:45 12.07.2020
123 Clear 8 1029 93 10000 2.1 170 03:24 12.07.2020
124 Clear 8 1029 93 10000 2.1 170 03:24 12.07.2020
125 Clear 9 1029 93 10000 0.5 0 01:54 12.07.2020
126 Clear 10 1029 87 10000 0.5 0 01:18 12.07.2020
127 Clear 10 1029 87 10000 0.5 230 00:39 12.07.2020
128 Clear 11 1029 81 10000 0.5 0 00:20 12.07.2020
129 Clear 12 1029 76 10000 1 280 23:40 11.07.2020
130 Clear 12 1028 76 10000 1.5 290 23:21 11.07.2020
131 Clear 13 1028 71 10000 2.1 300 22:57 11.07.2020
132 Clear 13 1028 71 10000 2.1 300 22:37 11.07.2020
133 Clear 14 1028 67 10000 2.6 300 22:19 11.07.2020
134 Clouds 14 1028 67 10000 3.1 300 21:43 11.07.2020
135 Clouds 14 1028 62 10000 4.1 290 21:24 11.07.2020
136 Clouds 14 1028 62 10000 4.1 290 20:59 11.07.2020
137 Clouds 14 1028 67 10000 3.6 310 20:40 11.07.2020
138 Clouds 15 1028 62 10000 4.1 280 20:21 11.07.2020
139 Clouds 15 1028 62 10000 4.1 280 20:21 11.07.2020
140 Clouds 16 1028 55 10000 5.1 290 19:58 11.07.2020
141 Clouds 16 1028 55 10000 5.1 290 19:40 11.07.2020
142 Clouds 16 1028 55 10000 4.1 300 19:22 11.07.2020
143 Clouds 17 1028 48 10000 5.7 270 18:56 11.07.2020
144 Clouds 16 1028 48 10000 5.7 270 18:38 11.07.2020
145 Clouds 16 1028 51 10000 5.7 270 18:19 11.07.2020
146 Clouds 16 1028 51 10000 4.6 300 17:49 11.07.2020
147 Clouds 17 1027 51 10000 5.1 280 17:22 11.07.2020
148 Clouds 17 1027 51 10000 5.1 280 16:59 11.07.2020
149 Clouds 16 1027 51 10000 5.1 290 16:40 11.07.2020
150 Clouds 16 1028 58 10000 3.6 290 16:21 11.07.2020
151 Clouds 16 1028 58 10000 4.1 300 15:57 11.07.2020
152 Clouds 16 1028 58 10000 4.1 300 15:38 11.07.2020
153 Clouds 16 1028 58 10000 5.7 300 15:20 11.07.2020
154 Clouds 16 1028 54 10000 5.7 300 14:55 11.07.2020
155 Clouds 16 1028 54 10000 5.7 300 14:36 11.07.2020
156 Clouds 16 1027 55 10000 5.7 280 14:18 11.07.2020
157 Clouds 15 1027 62 10000 5.7 300 13:42 11.07.2020
158 Clouds 15 1027 67 10000 5.1 300 13:21 11.07.2020
159 Clouds 15 1027 62 10000 5.1 300 12:45 11.07.2020
160 Clouds 15 1027 67 10000 4.1 290 12:24 11.07.2020
161 Rain 15 1027 71 10000 5.1 290 11:59 11.07.2020
162 Rain 15 1027 71 10000 5.1 290 11:41 11.07.2020
163 Rain 14 1026 76 10000 3.1 300 11:20 11.07.2020
164 Clouds 14 1026 67 10000 4.6 300 10:55 11.07.2020
165 Clouds 14 1026 67 10000 4.6 300 10:36 11.07.2020
166 Clouds 14 1026 71 10000 3.6 300 10:18 11.07.2020
167 Clear 13 1026 76 10000 4.1 300 09:39 11.07.2020
168 Clouds 12 1026 87 10000 3.1 290 09:19 11.07.2020
169 Clouds 12 1025 87 10000 2.1 280 08:46 11.07.2020
170 Clouds 12 1025 87 10000 1.5 270 08:27 11.07.2020
171 Clouds 11 1025 87 10000 1.5 0 07:55 11.07.2020
172 Rain 11 1025 93 6000 2.1 310 07:36 11.07.2020
173 Rain 11 1025 93 6000 2.1 310 07:18 11.07.2020
174 Clouds 11 1024 87 10000 1 0 06:26 11.07.2020
175 Rain 11 1024 87 10000 2.1 300 05:54 11.07.2020
176 Rain 11 1024 87 10000 2.6 280 05:19 11.07.2020
177 Clouds 11 1024 87 10000 1.5 230 04:44 11.07.2020
178 Clouds 10 1024 93 10000 2.6 230 04:19 11.07.2020
179 Clouds 11 1024 87 10000 1.5 240 02:53 11.07.2020
180 Clouds 11 1024 87 10000 2.1 280 01:57 11.07.2020
181 Clouds 11 1023 87 10000 2.1 260 01:22 11.07.2020
182 Clouds 12 1023 87 10000 3.1 270 00:55 11.07.2020
183 Clouds 12 1023 87 10000 3.1 270 00:36 11.07.2020
184 Clouds 12 1023 87 10000 1.5 250 00:18 11.07.2020
185 Clouds 12 1023 87 10000 2.1 270 23:44 10.07.2020
186 Clear 12 1022 81 10000 3.1 280 23:26 10.07.2020
187 Clouds 13 1022 76 10000 3.6 280 22:55 10.07.2020
188 Clouds 13 1022 76 10000 3.6 280 22:36 10.07.2020
189 Clouds 14 1022 71 10000 5.1 280 22:18 10.07.2020
190 Clouds 14 1021 67 10000 5.1 290 21:38 10.07.2020
191 Clouds 15 1021 62 10000 6.7 290 21:20 10.07.2020
192 Clouds 15 1021 62 10000 7.2 290 20:55 10.07.2020
193 Clouds 15 1021 62 10000 7.2 290 20:36 10.07.2020
194 Clouds 16 1021 58 10000 6.7 300 20:18 10.07.2020
195 Clouds 16 1021 55 10000 7.7 290 19:43 10.07.2020
196 Clouds 17 1020 55 10000 6.7 300 19:22 10.07.2020
197 Clouds 17 1020 55 10000 8.2 280 18:58 10.07.2020
198 Clouds 17 1020 55 10000 8.2 280 18:58 10.07.2020
199 Clouds 17 1020 55 10000 8.2 280 18:37 10.07.2020
200 Clouds 17 1020 55 10000 8.2 300 18:18 10.07.2020
201 Clouds 17 1020 55 10000 8.2 280 17:43 10.07.2020
202 Clouds 16 1019 59 10000 7.2 300 17:24 10.07.2020
203 Clouds 16 1019 63 10000 8.2 280 16:57 10.07.2020
204 Clouds 16 1019 63 10000 8.2 280 16:39 10.07.2020
205 Clouds 16 1019 63 10000 7.7 290 16:18 10.07.2020
206 Clouds 16 1019 67 10000 7.2 290 15:44 10.07.2020
207 Clouds 16 1019 67 10000 6.2 290 15:21 10.07.2020
208 Clouds 15 1018 71 10000 6.7 300 14:54 10.07.2020
209 Clouds 15 1018 71 10000 6.7 300 14:36 10.07.2020
210 Rain 14 1018 71 10000 7.7 290 14:18 10.07.2020
211 Rain 14 1018 76 10000 5.7 280 13:54 10.07.2020
212 Rain 14 1018 76 10000 5.7 280 13:36 10.07.2020
213 Rain 14 1018 82 10000 6.2 300 13:18 10.07.2020
214 Rain 14 1018 82 10000 5.7 300 12:42 10.07.2020
215 Rain 13 1017 76 10000 6.7 280 12:23 10.07.2020
216 Clouds 13 1017 71 10000 6.7 280 11:58 10.07.2020
217 Rain 13 1017 76 10000 5.7 300 11:38 10.07.2020
218 Rain 13 1017 87 10000 5.1 290 11:18 10.07.2020
219 Clouds 13 1016 87 10000 5.1 290 10:41 10.07.2020
220 Clouds 13 1016 87 10000 5.1 290 10:21 10.07.2020
221 Rain 12 1016 87 10000 5.7 280 09:56 10.07.2020
222 Rain 12 1016 87 10000 5.7 280 09:36 10.07.2020
223 Clouds 12 1016 87 10000 4.1 290 09:18 10.07.2020
224 Clouds 12 1016 87 10000 3.6 280 08:54 10.07.2020
225 Clouds 11 1016 87 10000 3.6 280 08:36 10.07.2020
226 Clouds 11 1016 87 10000 4.1 290 08:18 10.07.2020
227 Clouds 10 1015 93 10000 3.1 280 07:41 10.07.2020
228 Clouds 10 1015 93 10000 3.1 270 07:20 10.07.2020
229 Clouds 10 1015 100 10000 4.1 270 06:45 10.07.2020
230 Clouds 10 1015 93 10000 3.6 290 05:54 10.07.2020
231 Clouds 11 1015 93 10000 2.6 280 04:31 10.07.2020
232 Rain 12 1014 100 8000 1 0 03:26 10.07.2020
233 Rain 12 1014 100 4800 1.5 230 02:48 10.07.2020
234 Rain 12 1015 100 10000 1 290 01:39 10.07.2020
235 Drizzle 12 1015 100 2200 2.1 310 00:40 10.07.2020
236 Drizzle 13 1015 100 2200 2.1 310 00:18 10.07.2020
237 Clouds 13 1014 87 10000 1.5 320 23:43 09.07.2020
238 Clouds 13 1014 87 10000 2.1 360 23:20 09.07.2020
239 Clouds 13 1014 87 10000 2.6 360 22:57 09.07.2020
240 Clouds 13 1014 87 10000 2.6 360 22:39 09.07.2020
241 Rain 13 1014 87 10000 2.1 10 22:20 09.07.2020
242 Rain 13 1014 93 10000 2.1 340 21:55 09.07.2020
243 Rain 13 1014 93 10000 2.1 340 21:37 09.07.2020
244 Rain 13 1014 87 10000 3.1 10 21:18 09.07.2020
245 Clouds 13 1014 87 10000 3.1 20 20:42 09.07.2020
246 Clouds 13 1013 87 10000 3.1 20 20:24 09.07.2020
247 Clouds 13 1013 87 10000 3.6 30 19:56 09.07.2020
248 Clouds 13 1013 87 10000 3.6 30 19:38 09.07.2020
249 Clouds 13 1013 87 10000 3.6 40 19:19 09.07.2020
250 Clouds 14 1013 76 10000 4.1 50 18:41 09.07.2020
251 Clouds 14 1013 82 10000 4.6 40 18:20 09.07.2020
252 Clouds 14 1013 82 10000 4.6 50 17:55 09.07.2020
253 Clouds 14 1013 82 10000 4.6 50 17:37 09.07.2020
254 Clouds 14 1013 82 10000 3.6 40 17:18 09.07.2020
255 Clouds 14 1013 82 10000 3.6 50 16:44 09.07.2020
256 Clouds 14 1013 82 10000 4.6 40 16:20 09.07.2020
257 Clouds 14 1013 82 10000 4.6 50 15:59 09.07.2020
258 Clouds 14 1013 82 10000 4.6 50 15:41 09.07.2020
259 Clouds 14 1013 82 10000 2.6 80 15:23 09.07.2020
260 Clouds 14 1013 82 10000 2.6 0 14:59 09.07.2020
261 Clouds 14 1013 82 10000 2.6 0 14:40 09.07.2020
262 Clouds 14 1012 77 10000 3.6 60 14:22 09.07.2020
263 Clouds 14 1012 82 10000 4.1 60 13:57 09.07.2020
264 Clouds 14 1012 82 10000 4.1 60 13:57 09.07.2020
265 Clouds 14 1012 82 10000 4.1 60 13:38 09.07.2020
266 Clouds 12 1013 85 0 3.58 71 13:19 09.07.2020
267 Clouds 14 1012 77 10000 3.6 60 12:43 09.07.2020
268 Clouds 14 1011 77 10000 4.1 60 12:24 09.07.2020
269 Clouds 14 1011 82 10000 3.6 70 11:59 09.07.2020
270 Clouds 14 1011 82 10000 3.6 70 11:41 09.07.2020
271 Clouds 14 1011 82 10000 3.6 70 11:21 09.07.2020
272 Clouds 13 1011 87 10000 4.6 50 10:57 09.07.2020
273 Clouds 13 1011 87 10000 4.6 50 10:57 09.07.2020
274 Clouds 13 1011 87 10000 4.6 50 10:38 09.07.2020
275 Clouds 13 1011 93 10000 3.6 60 10:20 09.07.2020
276 Clouds 12 1010 100 6000 3.6 60 09:43 09.07.2020
277 Drizzle 12 1010 93 3600 4.6 50 09:23 09.07.2020
278 Rain 12 1010 93 10000 3.6 60 08:52 09.07.2020
279 Rain 11 1009 100 2700 4.6 60 08:27 09.07.2020
280 Rain 11 1009 93 6000 5.7 40 07:58 09.07.2020
281 Rain 11 1009 93 6000 5.7 40 07:40 09.07.2020
282 Rain 11 1009 100 3000 4.6 50 07:21 09.07.2020
283 Rain 13 1009 100 1900 2.6 20 06:21 09.07.2020
284 Rain 12 1009 100 2900 0.5 0 05:57 09.07.2020
285 Rain 13 1009 93 2300 0.5 0 04:29 09.07.2020
286 Rain 13 1010 100 2400 1 0 03:22 09.07.2020
287 Drizzle 13 1011 100 4300 1.5 0 01:56 09.07.2020
288 Rain 13 1011 100 2100 2.1 90 00:59 09.07.2020
289 Rain 13 1011 100 2100 2.1 90 00:40 09.07.2020
290 Rain 13 1012 100 4000 2.1 80 00:21 09.07.2020
291 Rain 13 1012 100 2600 2.1 90 23:43 08.07.2020
292 Rain 13 1012 100 2900 2.1 110 23:25 08.07.2020
293 Rain 13 1013 100 2500 2.1 100 22:56 08.07.2020
294 Rain 13 1013 100 2500 2.1 100 22:38 08.07.2020
295 Rain 13 1013 100 1900 1.5 0 22:19 08.07.2020
296 Rain 13 1013 93 10000 1 0 21:55 08.07.2020
297 Rain 13 1013 93 10000 1 0 21:36 08.07.2020
298 Rain 14 1013 100 10000 1.5 0 21:18 08.07.2020
299 Rain 13 1013 93 5000 1.5 0 20:41 08.07.2020
300 Rain 14 1014 93 4000 1.5 0 20:23 08.07.2020
301 Rain 14 1014 87 10000 1.5 0 19:54 08.07.2020
302 Rain 14 1014 87 10000 1.5 0 19:36 08.07.2020
303 Rain 14 1014 87 10000 2.1 100 19:18 08.07.2020
304 Rain 15 1014 82 10000 2.1 90 18:40 08.07.2020
305 Clouds 15 1015 77 10000 2.1 100 18:21 08.07.2020
306 Clouds 15 1015 77 10000 2.1 120 17:57 08.07.2020
307 Clouds 15 1015 77 10000 2.1 120 17:38 08.07.2020
308 Clouds 15 1015 77 10000 2.6 0 17:20 08.07.2020
309 Clouds 15 1015 77 10000 2.6 80 16:57 08.07.2020
310 Clouds 15 1015 77 10000 2.6 80 16:38 08.07.2020
311 Clouds 15 1015 77 10000 2.6 90 16:18 08.07.2020
312 Clouds 15 1015 77 10000 2.6 90 15:56 08.07.2020
313 Clouds 15 1015 77 10000 2.6 90 15:38 08.07.2020
314 Clouds 15 1015 77 10000 2.6 80 15:18 08.07.2020
315 Clouds 15 1015 77 10000 3.1 80 14:42 08.07.2020
316 Clouds 15 1015 77 10000 3.1 90 14:21 08.07.2020
317 Clouds 15 1015 82 10000 3.1 90 13:46 08.07.2020
318 Clouds 15 1015 77 10000 3.1 100 13:27 08.07.2020
319 Clouds 15 1015 77 10000 3.1 90 12:58 08.07.2020
320 Clouds 15 1015 77 10000 3.1 90 12:40 08.07.2020
321 Clouds 14 1015 82 10000 3.1 80 12:19 08.07.2020
322 Clouds 14 1015 87 10000 2.1 80 11:39 08.07.2020
323 Clouds 14 1014 87 10000 1.5 0 11:20 08.07.2020
324 Clouds 13 1014 93 10000 3.6 60 10:56 08.07.2020
325 Clouds 13 1014 93 10000 3.6 60 10:38 08.07.2020
326 Clouds 13 1014 93 10000 3.6 60 10:19 08.07.2020
327 Rain 13 1014 93 8000 4.1 50 09:43 08.07.2020
328 Rain 13 1014 93 8000 4.1 50 09:43 08.07.2020
329 Clouds 13 1013 93 10000 3.1 60 09:23 08.07.2020
330 Clouds 13 1013 93 10000 3.1 50 08:43 08.07.2020
331 Clouds 13 1013 93 10000 3.1 50 08:43 08.07.2020
332 Clouds 12 1013 100 10000 3.1 60 08:24 08.07.2020
333 Clouds 12 1013 100 10000 3.6 50 07:48 08.07.2020
334 Rain 12 1012 100 6000 4.1 50 07:24 08.07.2020
335 Rain 12 1012 100 2500 3.6 50 06:55 08.07.2020
336 Rain 12 1012 100 2500 3.6 50 06:36 08.07.2020
337 Drizzle 12 1012 100 2400 2.6 60 05:55 08.07.2020
338 Clouds 12 1012 100 7000 2.6 60 05:24 08.07.2020
339 Rain 12 1012 93 3500 2.6 60 04:36 08.07.2020
340 Rain 13 1013 100 1500 0.5 0 02:42 08.07.2020
341 Rain 12 1013 93 2400 1 0 01:46 08.07.2020
342 Rain 12 1013 93 3000 1 0 01:23 08.07.2020
343 Rain 12 1014 93 9000 1 0 00:28 08.07.2020
344 Clouds 12 1014 100 10000 1.5 0 23:56 07.07.2020
345 Clouds 12 1014 100 10000 1.5 0 23:37 07.07.2020
346 Clouds 12 1014 100 10000 1 0 23:19 07.07.2020
347 Rain 12 1014 100 10000 1 0 22:43 07.07.2020
348 Rain 12 1015 100 10000 1 0 22:22 07.07.2020
349 Clouds 12 1015 100 7000 1 0 21:59 07.07.2020
350 Clouds 12 1015 100 7000 1 0 21:39 07.07.2020
351 Mist 12 1015 100 5000 1 0 21:21 07.07.2020
352 Clouds 12 1016 100 7000 1.5 0 20:57 07.07.2020
353 Clouds 12 1016 100 7000 1.5 0 20:38 07.07.2020
354 Clouds 12 1016 93 6000 1 0 20:20 07.07.2020
355 Clouds 12 1016 93 6000 1 0 20:20 07.07.2020
356 Drizzle 12 1016 93 3300 1 0 19:40 07.07.2020
357 Rain 13 1016 87 10000 1 0 19:21 07.07.2020
358 Rain 13 1017 87 10000 1.5 0 18:56 07.07.2020
359 Rain 13 1017 87 10000 1.5 0 18:38 07.07.2020
360 Rain 13 1017 87 10000 1.5 0 18:38 07.07.2020
361 Rain 13 1017 93 10000 2.1 230 18:20 07.07.2020
362 Rain 12 1018 93 10000 1.5 0 17:57 07.07.2020
363 Rain 12 1018 93 10000 1.5 0 17:38 07.07.2020
364 Rain 12 1018 93 7000 2.1 280 17:20 07.07.2020
365 Rain 13 1018 93 10000 3.6 260 16:43 07.07.2020
366 Rain 13 1018 87 10000 4.6 240 16:24 07.07.2020
367 Rain 13 1018 87 6000 4.1 230 15:58 07.07.2020
368 Rain 13 1018 87 6000 4.1 230 15:38 07.07.2020
369 Rain 13 1018 87 10000 4.1 230 15:19 07.07.2020
370 Rain 12 1018 93 10000 3.6 200 14:46 07.07.2020
371 Rain 12 1019 93 10000 2.6 200 14:25 07.07.2020
372 Rain 13 1019 93 6000 2.1 200 13:46 07.07.2020
373 Rain 13 1019 87 9000 2.6 240 13:22 07.07.2020
374 Rain 13 1019 87 9000 2.6 240 13:22 07.07.2020
375 Rain 13 1019 81 10000 2.6 240 12:58 07.07.2020
376 Rain 13 1019 81 10000 2.6 240 12:40 07.07.2020
377 Rain 13 1019 81 10000 3.1 230 12:21 07.07.2020
378 Rain 14 1019 82 10000 4.1 250 11:48 07.07.2020
379 Rain 14 1019 87 10000 2.6 240 11:24 07.07.2020
380 Rain 14 1019 82 10000 3.1 240 10:59 07.07.2020
381 Rain 14 1019 82 10000 3.1 240 10:41 07.07.2020
382 Rain 14 1019 87 10000 3.1 240 10:21 07.07.2020
383 Rain 14 1020 87 10000 3.1 240 09:55 07.07.2020
384 Rain 14 1020 87 10000 3.1 240 09:37 07.07.2020
385 Clouds 14 1020 87 10000 3.1 230 09:18 07.07.2020
386 Clouds 13 1020 87 10000 2.1 210 08:40 07.07.2020
387 Clouds 13 1020 87 10000 1.5 0 08:20 07.07.2020
388 Clouds 12 1020 87 10000 1.5 0 07:39 07.07.2020
389 Clouds 12 1020 93 10000 1.5 0 07:20 07.07.2020
390 Clouds 12 1020 93 10000 1.5 190 06:48 07.07.2020
391 Clouds 12 1020 87 10000 2.1 190 06:27 07.07.2020
392 Clouds 12 1020 93 10000 2.1 200 05:47 07.07.2020
393 Clouds 12 1021 87 10000 2.1 190 04:59 07.07.2020
394 Clouds 12 1021 87 10000 1.5 190 04:25 07.07.2020
395 Clouds 12 1022 87 10000 2.1 220 03:34 07.07.2020
396 Clouds 13 1022 87 10000 2.1 250 01:58 07.07.2020
397 Clouds 13 1022 81 10000 1.5 250 01:20 07.07.2020
398 Clouds 13 1022 81 10000 1.5 0 00:41 07.07.2020
399 Clouds 13 1022 81 10000 1 0 00:22 07.07.2020
400 Clouds 13 1022 81 10000 2.1 250 23:44 06.07.2020
401 Clouds 13 1022 81 10000 2.1 240 23:25 06.07.2020
402 Clouds 13 1022 71 10000 2.1 250 22:59 06.07.2020
403 Clouds 13 1022 71 10000 2.1 250 22:39 06.07.2020
404 Clear 14 1022 71 10000 2.1 240 22:19 06.07.2020
405 Clear 14 1022 67 10000 3.1 280 21:57 06.07.2020
406 Clear 14 1022 67 10000 3.1 280 21:37 06.07.2020
407 Clouds 15 1022 62 10000 4.1 270 21:18 06.07.2020
408 Clouds 15 1022 58 10000 4.6 280 20:41 06.07.2020
409 Clouds 16 1022 62 10000 6.7 290 20:22 06.07.2020
410 Clouds 16 1022 58 10000 6.7 290 19:59 06.07.2020
411 Clouds 16 1022 58 10000 6.7 290 19:41 06.07.2020
412 Clouds 16 1022 55 10000 7.2 290 19:23 06.07.2020
413 Clouds 16 1022 55 10000 7.7 280 18:58 06.07.2020
414 Clouds 16 1022 55 10000 7.7 280 18:40 06.07.2020
415 Clouds 17 1022 51 10000 7.7 280 18:22 06.07.2020
416 Clouds 17 1022 48 10000 8.2 290 17:56 06.07.2020
417 Clouds 16 1022 48 10000 8.2 290 17:38 06.07.2020
418 Clouds 16 1021 51 10000 8.2 270 17:19 06.07.2020
419 Clouds 17 1021 51 10000 7.2 280 16:43 06.07.2020
420 Clouds 17 1021 51 10000 8.2 290 16:23 06.07.2020
421 Clouds 17 1021 51 10000 7.7 300 15:55 06.07.2020
422 Clouds 17 1021 51 10000 7.7 300 15:37 06.07.2020
423 Clouds 17 1021 51 10000 7.7 300 15:37 06.07.2020
424 Clouds 17 1020 59 10000 8.7 300 15:18 06.07.2020
425 Clouds 16 1020 63 10000 8.2 290 14:40 06.07.2020
426 Clouds 16 1019 67 10000 7.7 290 14:22 06.07.2020
427 Clouds 15 1019 72 10000 6.7 300 13:59 06.07.2020
428 Clouds 15 1019 72 10000 6.7 300 13:40 06.07.2020
429 Clouds 15 1018 72 10000 6.7 300 13:20 06.07.2020
430 Clouds 15 1018 77 10000 7.7 290 12:43 06.07.2020
431 Clouds 15 1017 82 10000 6.7 290 12:20 06.07.2020
432 Clouds 15 1017 82 10000 7.2 290 11:58 06.07.2020
433 Clouds 14 1017 82 10000 7.2 290 11:39 06.07.2020
434 Clouds 14 1016 87 10000 7.7 280 11:21 06.07.2020
435 Clouds 13 1016 87 10000 5.7 280 10:57 06.07.2020
436 Clouds 13 1016 87 10000 5.7 280 10:39 06.07.2020
437 Rain 12 1016 87 10000 6.7 270 10:18 06.07.2020
438 Rain 12 1015 87 9000 5.7 280 09:42 06.07.2020
439 Rain 12 1015 87 10000 5.7 270 09:22 06.07.2020
440 Rain 12 1014 87 8000 7.2 270 08:58 06.07.2020
441 Rain 12 1014 87 8000 7.2 270 08:39 06.07.2020
442 Rain 12 1014 87 10000 6.2 270 08:20 06.07.2020
443 Rain 12 1013 81 9000 6.7 260 07:47 06.07.2020
444 Rain 12 1013 81 9000 6.7 260 07:47 06.07.2020
445 Rain 12 1013 93 10000 5.7 270 07:28 06.07.2020
446 Clouds 12 1013 81 10000 6.7 260 06:42 06.07.2020
447 Rain 12 1013 81 10000 6.2 270 06:24 06.07.2020
448 Clouds 12 1012 81 10000 8.2 260 05:42 06.07.2020
449 Clouds 12 1012 81 10000 7.7 270 05:19 06.07.2020
450 Clouds 12 1012 81 10000 6.7 270 03:52 06.07.2020
451 Rain 12 1011 87 4300 6.7 260 02:24 06.07.2020
452 Rain 12 1010 87 10000 8.2 260 01:42 06.07.2020
453 Rain 13 1010 76 10000 7.2 270 00:39 06.07.2020
454 Rain 13 1010 76 10000 8.7 260 00:20 06.07.2020
455 Rain 13 1010 76 10000 8.7 260 00:20 06.07.2020
456 Rain 13 1009 76 10000 9.3 250 23:44 05.07.2020
457 Rain 13 1009 87 10000 6.7 240 23:25 05.07.2020
458 Rain 12 1009 87 10000 7.7 240 22:59 05.07.2020
459 Rain 12 1009 87 10000 7.7 240 22:40 05.07.2020
460 Rain 12 1008 87 10000 6.2 240 22:20 05.07.2020
461 Rain 12 1008 87 10000 6.2 240 22:20 05.07.2020
462 Rain 12 1008 87 1500 6.2 280 21:57 05.07.2020
463 Rain 12 1008 87 1500 6.2 280 21:39 05.07.2020
464 Rain 14 1008 71 10000 10.3 240 21:18 05.07.2020
465 Rain 14 1007 62 10000 8.2 240 20:57 05.07.2020
466 Rain 15 1007 62 10000 8.2 240 20:39 05.07.2020
467 Rain 15 1007 58 10000 9.8 240 20:20 05.07.2020
468 Rain 15 1007 55 10000 11.8 240 19:43 05.07.2020
469 Rain 15 1007 55 10000 11.3 240 19:21 05.07.2020
470 Rain 16 1007 55 10000 9.3 240 18:57 05.07.2020
471 Rain 16 1007 55 10000 9.3 240 18:38 05.07.2020
472 Rain 16 1007 59 10000 10.3 240 18:20 05.07.2020
473 Rain 16 1007 63 10000 8.7 230 17:43 05.07.2020
474 Rain 16 1008 67 10000 8.7 230 17:20 05.07.2020
475 Rain 16 1008 67 10000 8.7 230 16:59 05.07.2020
476 Rain 15 1008 72 10000 8.2 240 16:41 05.07.2020
477 Rain 15 1008 58 10000 10.3 240 16:22 05.07.2020
478 Rain 16 1007 59 10000 8.7 230 15:41 05.07.2020
479 Rain 16 1007 59 10000 8.7 230 15:41 05.07.2020
480 Clouds 16 1007 62 10000 8.2 240 15:20 05.07.2020
481 Clouds 16 1008 62 10000 7.7 240 14:59 05.07.2020
482 Clouds 16 1008 62 10000 7.7 240 14:40 05.07.2020
483 Clouds 16 1008 62 10000 6.2 250 14:20 05.07.2020
484 Clouds 16 1008 58 10000 7.2 250 13:41 05.07.2020
485 Clouds 15 1008 58 10000 9.3 260 13:23 05.07.2020
486 Clouds 15 1007 55 10000 10.3 270 12:46 05.07.2020
487 Clouds 15 1007 58 10000 9.8 260 12:25 05.07.2020
488 Clouds 15 1007 62 10000 9.3 270 11:58 05.07.2020
489 Clouds 14 1007 62 10000 9.3 270 11:39 05.07.2020
490 Clouds 15 1007 58 10000 9.3 270 11:20 05.07.2020
491 Clouds 14 1007 62 10000 9.8 260 10:56 05.07.2020
492 Clouds 14 1007 62 10000 9.8 260 10:37 05.07.2020
493 Clouds 14 1006 67 10000 6.7 260 10:18 05.07.2020
494 Clouds 14 1006 67 10000 9.3 250 09:42 05.07.2020
495 Clouds 13 1006 67 10000 7.2 260 09:20 05.07.2020
496 Clouds 14 1005 71 10000 8.7 270 08:57 05.07.2020
497 Clouds 14 1005 71 10000 8.7 270 08:38 05.07.2020
498 Clouds 14 1005 72 10000 11.3 270 08:18 05.07.2020
499 Clouds 14 1004 72 10000 8.7 260 07:40 05.07.2020
500 Rain 15 1003 72 10000 9.8 260 07:22 05.07.2020
501 Rain 15 1003 82 10000 7.2 240 06:45 05.07.2020
502 Rain 16 1001 93 10000 7.2 220 04:27 05.07.2020
503 Clouds 15 1001 100 10000 6.2 220 03:18 05.07.2020
504 Clouds 15 1002 100 10000 5.7 210 02:40 05.07.2020
505 Rain 15 1002 100 7000 5.7 200 01:59 05.07.2020
506 Rain 16 1002 93 4200 5.7 200 01:28 05.07.2020
507 Rain 16 1003 82 10000 6.7 210 00:51 05.07.2020
508 Rain 16 1003 82 10000 6.2 200 00:30 05.07.2020
509 Clouds 16 1004 82 10000 5.1 210 23:56 04.07.2020
510 Clouds 16 1004 82 10000 5.1 210 23:32 04.07.2020
511 Clouds 16 1004 82 10000 4.1 210 22:59 04.07.2020
512 Clouds 16 1004 82 10000 4.1 210 22:40 04.07.2020
513 Clouds 17 1005 82 10000 4.1 200 22:22 04.07.2020
514 Clouds 17 1005 82 10000 5.1 210 21:58 04.07.2020
515 Clouds 17 1005 82 10000 5.1 210 21:40 04.07.2020
516 Clouds 17 1005 88 10000 3.6 220 21:22 04.07.2020
517 Clouds 17 1005 88 10000 3.6 220 20:42 04.07.2020
518 Clouds 17 1005 88 10000 2.1 220 20:21 04.07.2020
519 Clouds 17 1006 82 10000 4.1 230 19:56 04.07.2020
520 Clouds 17 1006 82 10000 4.1 230 19:38 04.07.2020
521 Clouds 17 1006 82 10000 5.1 240 19:20 04.07.2020
522 Clouds 16 1006 82 10000 4.6 230 18:43 04.07.2020
523 Rain 17 1006 82 10000 4.6 240 18:23 04.07.2020
524 Rain 16 1006 82 10000 2.6 220 17:46 04.07.2020
525 Rain 17 1007 88 10000 4.1 230 17:28 04.07.2020
526 Clouds 17 1007 88 10000 4.1 230 16:59 04.07.2020
527 Clouds 16 1007 88 10000 5.1 240 16:40 04.07.2020
528 Rain 16 1007 88 9000 3.1 200 16:21 04.07.2020
529 Rain 16 1007 93 10000 2.6 210 15:58 04.07.2020
530 Rain 16 1007 93 10000 2.6 210 15:40 04.07.2020
531 Rain 16 1007 93 10000 3.6 210 15:21 04.07.2020
532 Rain 16 1007 93 10000 3.1 220 14:56 04.07.2020
533 Rain 16 1007 93 10000 3.1 220 14:37 04.07.2020
534 Rain 16 1007 88 6000 3.6 220 14:18 04.07.2020
535 Rain 17 1007 88 10000 3.6 220 13:41 04.07.2020
536 Clouds 17 1006 88 10000 3.6 220 13:19 04.07.2020
537 Clouds 17 1006 93 10000 3.6 220 12:55 04.07.2020
538 Clouds 16 1006 93 10000 3.6 220 12:37 04.07.2020
539 Rain 16 1007 93 9000 3.6 220 12:18 04.07.2020
540 Rain 16 1006 93 10000 4.1 230 11:42 04.07.2020
541 Rain 16 1006 87 5000 5.7 220 11:22 04.07.2020
542 Clouds 16 1006 87 10000 6.7 240 10:55 04.07.2020
543 Clouds 16 1006 87 10000 6.7 240 10:36 04.07.2020
544 Clouds 16 1006 87 10000 6.7 240 10:36 04.07.2020
545 Clouds 16 1006 93 10000 4.6 230 10:18 04.07.2020
546 Clouds 16 1006 93 10000 3.1 210 09:40 04.07.2020
547 Rain 16 1006 93 10000 3.6 210 09:21 04.07.2020
548 Rain 16 1006 93 10000 3.1 200 08:51 04.07.2020
549 Rain 15 1006 100 10000 2.1 200 08:32 04.07.2020
550 Rain 15 1006 100 10000 3.6 210 07:56 04.07.2020
551 Rain 15 1006 100 10000 3.6 210 07:38 04.07.2020
552 Clouds 15 1006 87 10000 4.1 220 06:57 04.07.2020
553 Clouds 15 1005 87 10000 4.1 210 06:23 04.07.2020
554 Clouds 15 1005 87 10000 4.6 200 05:41 04.07.2020
555 Rain 15 1005 87 10000 4.1 200 05:19 04.07.2020
556 Rain 15 1006 93 10000 3.1 190 03:47 04.07.2020
557 Rain 15 1006 100 4200 3.1 190 02:39 04.07.2020
558 Rain 15 1007 87 10000 3.6 200 01:38 04.07.2020
559 Rain 16 1007 82 10000 4.1 190 00:47 04.07.2020
560 Clouds 16 1007 82 10000 4.1 200 00:29 04.07.2020
561 Rain 15 1007 82 10000 4.6 190 23:41 03.07.2020
562 Clouds 16 1007 82 10000 4.6 200 23:19 03.07.2020
563 Rain 16 1007 82 10000 4.1 200 22:59 03.07.2020
564 Rain 16 1007 82 10000 4.1 200 22:39 03.07.2020
565 Rain 16 1007 82 10000 4.1 200 22:39 03.07.2020
566 Rain 16 1007 82 10000 4.6 200 22:21 03.07.2020
567 Clouds 16 1008 82 10000 5.1 200 21:54 03.07.2020
568 Clouds 16 1008 82 10000 5.1 200 21:36 03.07.2020
569 Clouds 16 1008 82 10000 5.1 200 21:18 03.07.2020
570 Rain 16 1008 82 10000 6.2 210 20:42 03.07.2020
571 Clouds 16 1008 82 10000 5.7 200 20:23 03.07.2020
572 Clouds 16 1008 82 10000 6.2 210 19:42 03.07.2020
573 Clouds 16 1008 82 10000 5.7 200 19:21 03.07.2020
574 Clouds 16 1008 82 10000 5.7 200 19:21 03.07.2020
575 Rain 16 1009 82 10000 5.7 200 18:57 03.07.2020
576 Rain 16 1009 82 10000 5.7 200 18:39 03.07.2020
577 Rain 16 1009 82 10000 5.7 200 18:21 03.07.2020
578 Rain 15 1009 93 10000 5.1 200 17:44 03.07.2020
579 Rain 16 1009 87 6000 5.1 210 17:23 03.07.2020
580 Clouds 16 1009 72 10000 7.7 210 16:51 03.07.2020
581 Clouds 16 1010 82 10000 6.2 210 16:31 03.07.2020
582 Clouds 16 1010 82 10000 6.2 210 15:57 03.07.2020
583 Clouds 16 1010 82 10000 6.2 210 15:39 03.07.2020
584 Rain 16 1010 82 10000 6.2 210 15:20 03.07.2020
585 Clouds 15 1010 87 10000 6.7 210 14:41 03.07.2020
586 Rain 15 1011 87 7000 5.1 210 14:23 03.07.2020
587 Rain 15 1011 87 10000 5.7 210 13:59 03.07.2020
588 Rain 15 1011 87 10000 5.7 210 13:40 03.07.2020
589 Clouds 15 1010 82 10000 7.2 210 13:22 03.07.2020
590 Rain 14 1011 77 10000 6.2 210 12:41 03.07.2020
591 Rain 14 1011 82 10000 6.2 210 12:22 03.07.2020
592 Rain 13 1011 82 10000 4.6 210 11:44 03.07.2020
593 Rain 13 1011 87 10000 4.1 210 11:25 03.07.2020
594 Rain 13 1011 87 10000 4.1 210 10:59 03.07.2020
595 Rain 13 1011 87 10000 3.6 200 10:41 03.07.2020
596 Rain 13 1011 87 10000 4.6 200 10:21 03.07.2020
597 Rain 13 1011 87 10000 4.6 200 10:21 03.07.2020
598 Rain 13 1011 82 10000 4.1 200 09:58 03.07.2020
599 Rain 13 1011 82 10000 4.1 200 09:39 03.07.2020
600 Clouds 13 1011 82 10000 4.6 200 09:19 03.07.2020
601 Clouds 13 1011 82 10000 4.1 200 08:56 03.07.2020
602 Clouds 13 1011 82 10000 4.1 200 08:37 03.07.2020
603 Clouds 12 1012 93 10000 3.6 200 08:18 03.07.2020
604 Clouds 12 1012 93 10000 4.1 200 07:43 03.07.2020
605 Clouds 12 1012 93 10000 3.6 200 07:21 03.07.2020
606 Rain 12 1012 87 10000 4.1 200 06:30 03.07.2020
607 Rain 12 1013 87 10000 2.6 190 05:34 03.07.2020
608 Clouds 12 1014 93 10000 2.1 180 03:59 03.07.2020
609 Clouds 12 1014 93 10000 1.5 180 02:52 03.07.2020
610 Clouds 12 1014 87 10000 2.1 190 02:30 03.07.2020
611 Clouds 13 1014 87 10000 2.1 180 01:41 03.07.2020
612 Clouds 13 1014 87 10000 1.5 170 01:20 03.07.2020
613 Clouds 13 1014 87 10000 1.5 200 00:40 03.07.2020
614 Clouds 13 1014 87 10000 1 200 23:54 02.07.2020
615 Clouds 13 1014 87 10000 1 200 23:54 02.07.2020
616 Clouds 14 1014 76 10000 1.5 0 23:22 02.07.2020
617 Clouds 14 1014 76 10000 3.1 290 22:59 02.07.2020
618 Clouds 14 1014 76 10000 3.1 290 22:41 02.07.2020
619 Clouds 14 1014 76 10000 3.6 260 22:21 02.07.2020
620 Clouds 15 1014 72 10000 3.6 290 22:00 02.07.2020
621 Clouds 15 1014 72 10000 3.6 290 21:41 02.07.2020
622 Clouds 16 1013 67 10000 3.6 290 21:19 02.07.2020
623 Clouds 16 1013 67 10000 4.1 280 20:58 02.07.2020
624 Clouds 16 1013 67 10000 4.1 280 20:39 02.07.2020
625 Clouds 17 1013 67 10000 4.1 290 20:19 02.07.2020
626 Clouds 18 1013 67 10000 5.1 280 19:42 02.07.2020
627 Rain 18 1013 63 10000 4.1 300 19:24 02.07.2020
628 Rain 17 1013 77 10000 3.6 290 18:58 02.07.2020
629 Rain 16 1013 77 10000 3.6 290 18:40 02.07.2020
630 Rain 16 1012 77 10000 3.1 270 18:21 02.07.2020
631 Clouds 17 1012 77 10000 2.6 310 17:57 02.07.2020
632 Clouds 17 1012 77 10000 2.6 310 17:38 02.07.2020
633 Clouds 17 1012 77 10000 2.1 260 17:18 02.07.2020
634 Clouds 17 1012 82 10000 2.1 300 16:42 02.07.2020
635 Clouds 16 1012 82 10000 3.1 280 16:20 02.07.2020
636 Clouds 16 1012 82 10000 1.5 0 15:57 02.07.2020
637 Clouds 16 1012 82 10000 1.5 0 15:38 02.07.2020
638 Clouds 16 1012 82 10000 1.5 0 15:38 02.07.2020
639 Clouds 16 1011 82 10000 2.1 340 15:19 02.07.2020
640 Clouds 16 1011 87 10000 1.5 0 14:45 02.07.2020
641 Clouds 15 1011 87 10000 1.5 0 14:22 02.07.2020
642 Clouds 15 1011 87 10000 1.5 0 13:57 02.07.2020
643 Clouds 15 1010 93 10000 2.1 70 13:38 02.07.2020
644 Clouds 15 1010 93 10000 2.1 70 13:18 02.07.2020
645 Clouds 14 1010 93 10000 1.5 0 12:41 02.07.2020
646 Clouds 14 1010 93 10000 1.5 0 12:22 02.07.2020
647 Rain 14 1009 100 10000 2.6 70 11:59 02.07.2020
648 Rain 14 1009 100 10000 2.6 70 11:40 02.07.2020
649 Rain 14 1009 100 10000 2.6 70 11:22 02.07.2020
650 Rain 13 1009 100 10000 2.6 60 10:43 02.07.2020
651 Drizzle 13 1008 100 3500 2.6 30 10:25 02.07.2020
652 Mist 13 1008 100 3000 1.5 0 09:55 02.07.2020
653 Mist 13 1008 100 3000 1.5 0 09:36 02.07.2020
654 Mist 13 1008 100 3000 1 0 09:18 02.07.2020
655 Drizzle 13 1007 93 3200 1.5 220 08:42 02.07.2020
656 Drizzle 13 1007 93 4600 1 0 08:21 02.07.2020
657 Rain 13 1007 93 10000 1.5 210 07:43 02.07.2020
658 Rain 13 1007 93 10000 1.5 0 07:23 02.07.2020
659 Rain 13 1007 93 10000 1.5 0 06:53 02.07.2020
660 Rain 13 1007 93 10000 1.5 0 06:34 02.07.2020
661 Rain 13 1007 93 10000 1.5 0 05:50 02.07.2020
662 Rain 13 1007 93 10000 2.1 210 05:19 02.07.2020
663 Rain 13 1007 100 6000 0.5 0 03:35 02.07.2020
664 Rain 13 1007 100 1600 1 0 01:53 02.07.2020
665 Rain 14 1007 100 2000 1.5 330 00:45 02.07.2020
666 Rain 14 1006 100 5000 0.5 0 00:21 02.07.2020
667 Rain 14 1006 100 1600 0.5 0 23:45 01.07.2020
668 Rain 14 1006 93 3900 1.5 250 23:26 01.07.2020
669 Rain 14 1006 93 7000 2.1 240 22:55 01.07.2020
670 Rain 14 1006 93 7000 2.1 240 22:37 01.07.2020
671 Rain 15 1006 82 10000 1.5 270 22:18 01.07.2020
672 Rain 16 1005 82 10000 1.5 210 21:56 01.07.2020
673 Rain 16 1005 82 10000 1.5 210 21:38 01.07.2020
674 Clouds 16 1005 93 10000 1.5 0 21:19 01.07.2020
675 Rain 17 1005 67 10000 4.6 240 20:46 01.07.2020
676 Clouds 18 1005 67 10000 3.6 260 20:26 01.07.2020
677 Clouds 18 1005 63 10000 3.1 260 19:57 01.07.2020
678 Clouds 18 1005 63 10000 3.1 260 19:39 01.07.2020
679 Clouds 18 1005 63 10000 3.6 280 19:20 01.07.2020
680 Clouds 18 1005 63 10000 3.6 280 19:20 01.07.2020
681 Rain 19 1005 68 10000 3.6 300 18:55 01.07.2020
682 Rain 19 1005 68 10000 3.6 300 18:37 01.07.2020
683 Rain 19 1005 68 10000 4.1 280 18:19 01.07.2020
684 Clouds 19 1004 59 10000 4.1 260 17:41 01.07.2020
685 Clouds 19 1004 63 10000 2.6 250 17:20 01.07.2020
686 Clouds 20 1004 63 10000 4.6 250 16:49 01.07.2020
687 Clouds 20 1004 63 10000 3.1 270 16:29 01.07.2020
688 Clouds 19 1004 68 10000 1.5 0 15:59 01.07.2020
689 Clouds 18 1004 68 10000 1.5 0 15:40 01.07.2020
690 Clouds 18 1004 72 10000 3.1 260 15:21 01.07.2020
691 Rain 17 1004 82 10000 3.1 290 14:47 01.07.2020
692 Clouds 17 1004 87 10000 1.5 0 14:22 01.07.2020
693 Rain 16 1004 87 10000 2.1 290 13:59 01.07.2020
694 Rain 16 1004 87 10000 2.1 290 13:40 01.07.2020
695 Rain 15 1003 87 10000 4.6 290 13:21 01.07.2020
696 Rain 15 1003 87 10000 4.6 290 13:21 01.07.2020
697 Clouds 16 1003 82 10000 2.1 220 12:58 01.07.2020
698 Clouds 16 1003 82 10000 2.1 220 12:39 01.07.2020
699 Clouds 16 1003 82 9000 1.5 0 12:21 01.07.2020
700 Clouds 15 1003 87 10000 1.5 0 11:55 01.07.2020
701 Rain 15 1003 93 10000 1.5 260 11:37 01.07.2020
702 Rain 15 1003 93 10000 1.5 260 11:18 01.07.2020
703 Rain 15 1003 93 8000 2.6 270 10:41 01.07.2020
704 Rain 15 1003 93 10000 1.5 0 10:23 01.07.2020
705 Rain 14 1002 93 7000 1.5 240 09:58 01.07.2020
706 Rain 14 1002 93 7000 1.5 240 09:37 01.07.2020
707 Clouds 14 1002 100 10000 2.6 230 09:18 01.07.2020
708 Clouds 14 1002 93 10000 2.1 220 08:41 01.07.2020
709 Clouds 14 1002 100 10000 1.5 0 08:23 01.07.2020
710 Clouds 14 1002 100 10000 1.5 0 07:58 01.07.2020
711 Clouds 13 1002 100 10000 1.5 0 07:38 01.07.2020
712 Clouds 13 1002 100 10000 1.5 0 07:20 01.07.2020
713 Clouds 13 1002 100 10000 2.1 180 06:49 01.07.2020
714 Clouds 13 1002 100 10000 2.1 180 06:27 01.07.2020
715 Mist 13 1002 100 5000 1 0 04:32 01.07.2020
716 Rain 13 1002 93 7000 1 0 03:47 01.07.2020
717 Rain 13 1002 93 6000 2.1 230 03:27 01.07.2020
718 Rain 14 1002 100 2400 3.1 260 02:41 01.07.2020
719 Clouds 14 1002 93 10000 1 0 01:47 01.07.2020
720 Clouds 14 1003 87 10000 0.5 0 00:42 01.07.2020
721 Clouds 14 1003 93 10000 0.5 0 00:23 01.07.2020
722 Clouds 15 1003 93 10000 1 180 23:41 30.06.2020
723 Clouds 15 1003 82 10000 0.5 0 23:22 30.06.2020
724 Clouds 15 1003 82 10000 0.5 0 23:22 30.06.2020
725 Clouds 15 1003 82 10000 1 0 22:56 30.06.2020
726 Clouds 15 1003 82 10000 1 0 22:38 30.06.2020
727 Clouds 15 1003 77 10000 1 0 22:18 30.06.2020
728 Clouds 16 1003 72 10000 1 330 21:40 30.06.2020
729 Clouds 16 1003 77 10000 1 0 21:19 30.06.2020
730 Clouds 16 1003 72 10000 1.5 0 20:43 30.06.2020
731 Clouds 16 1003 63 10000 2.1 210 20:21 30.06.2020
732 Clouds 16 1003 63 10000 1 0 19:59 30.06.2020
733 Clouds 16 1003 63 10000 1 0 19:59 30.06.2020
734 Clouds 17 1003 63 10000 1 0 19:39 30.06.2020
735 Clouds 17 1004 63 10000 1.5 290 19:19 30.06.2020
736 Clouds 17 1004 63 10000 2.1 270 18:42 30.06.2020
737 Clouds 17 1004 63 10000 2.1 270 18:20 30.06.2020
738 Clouds 17 1004 63 10000 2.6 270 17:54 30.06.2020
739 Clouds 17 1004 63 10000 2.6 270 17:36 30.06.2020
740 Clouds 18 1004 59 10000 2.1 210 17:18 30.06.2020
741 Clouds 17 1004 59 10000 3.1 240 16:41 30.06.2020
742 Clouds 17 1004 63 10000 2.6 240 16:21 30.06.2020
743 Clouds 17 1004 63 10000 1.5 0 15:57 30.06.2020
744 Rain 17 1004 63 10000 1.5 0 15:38 30.06.2020
745 Rain 15 1005 67 10000 2.1 260 15:20 30.06.2020
746 Clouds 15 1005 77 10000 3.1 260 14:44 30.06.2020
747 Clouds 15 1005 77 10000 4.6 230 14:22 30.06.2020
748 Clouds 14 1005 76 10000 3.6 230 13:59 30.06.2020
749 Clouds 14 1005 76 10000 3.6 230 13:38 30.06.2020
750 Clouds 14 1005 76 10000 4.6 230 13:19 30.06.2020
751 Clouds 14 1005 76 10000 4.1 230 12:57 30.06.2020
752 Clouds 14 1005 76 10000 4.1 230 12:39 30.06.2020
753 Clouds 13 1005 82 10000 4.6 250 12:20 30.06.2020
754 Clouds 13 1005 87 10000 3.6 240 11:56 30.06.2020
755 Clouds 13 1005 87 10000 3.6 240 11:38 30.06.2020
756 Rain 13 1005 87 10000 3.6 220 11:18 30.06.2020
757 Rain 15 1004 59 10000 10.8 230 16:48 28.06.2020
758 Rain 15 1004 67 10000 8.7 220 16:28 28.06.2020
759 Rain 15 1004 67 10000 8.7 220 15:59 28.06.2020
760 Rain 15 1004 67 10000 7.7 210 15:41 28.06.2020
761 Rain 16 1004 67 10000 7.7 220 15:20 28.06.2020
762 Rain 16 1004 72 10000 6.7 230 14:58 28.06.2020
763 Rain 15 1004 72 10000 6.7 230 14:39 28.06.2020
764 Rain 14 1004 71 10000 10.3 230 14:21 28.06.2020
765 Rain 16 1004 67 10000 8.7 230 13:40 28.06.2020
766 Clouds 15 1004 67 10000 10.8 230 13:21 28.06.2020
767 Clouds 15 1004 62 10000 9.8 230 12:58 28.06.2020
768 Clouds 15 1004 62 10000 9.8 230 12:38 28.06.2020
769 Rain 14 1004 71 10000 9.3 230 12:19 28.06.2020
770 Rain 14 1004 76 10000 8.2 230 11:58 28.06.2020
771 Rain 13 1004 76 10000 8.2 230 11:39 28.06.2020
772 Clouds 14 1004 71 10000 8.7 230 11:20 28.06.2020
773 Clouds 13 1003 76 10000 9.8 230 10:57 28.06.2020
774 Clouds 13 1003 76 10000 9.8 230 10:39 28.06.2020
775 Clouds 13 1003 76 10000 8.2 220 10:21 28.06.2020
776 Clouds 13 1003 76 10000 6.2 220 09:40 28.06.2020
777 Clouds 13 1002 76 10000 6.2 220 09:21 28.06.2020
778 Clouds 12 1002 81 10000 5.1 210 08:53 28.06.2020
779 Clouds 12 1002 81 10000 5.1 210 08:34 28.06.2020
780 Clouds 12 1002 81 10000 5.1 210 07:53 28.06.2020
781 Clouds 12 1001 81 10000 5.1 210 07:31 28.06.2020
782 Rain 11 1001 93 10000 4.1 200 06:53 28.06.2020
783 Clouds 11 1001 93 10000 4.6 210 06:31 28.06.2020
784 Clouds 11 1001 93 10000 4.6 200 05:27 28.06.2020
785 Rain 12 1001 87 10000 5.1 200 03:45 28.06.2020
786 Clouds 12 1001 87 10000 4.6 200 02:49 28.06.2020
787 Rain 12 1001 93 10000 4.6 200 02:18 28.06.2020
788 Rain 12 1001 93 10000 4.1 200 01:27 28.06.2020
789 Rain 13 1001 87 10000 4.1 200 00:51 28.06.2020
790 Rain 13 1001 87 10000 4.6 200 00:27 28.06.2020
791 Rain 13 1001 87 10000 3.1 210 23:43 27.06.2020
792 Rain 13 1000 76 10000 4.1 220 23:24 27.06.2020
793 Rain 13 1000 71 10000 5.7 220 22:59 27.06.2020
794 Rain 13 1000 71 10000 5.7 220 22:40 27.06.2020
795 Rain 14 1000 76 10000 5.1 220 22:21 27.06.2020
796 Rain 14 999 82 10000 7.7 240 21:55 27.06.2020
797 Rain 14 999 82 10000 7.7 240 21:37 27.06.2020
798 Rain 14 999 87 10000 4.6 210 21:19 27.06.2020
799 Rain 15 998 82 10000 5.1 210 20:43 27.06.2020
800 Rain 15 998 82 10000 5.7 220 20:19 27.06.2020
801 Rain 16 998 82 10000 4.6 220 19:55 27.06.2020
802 Rain 16 998 82 10000 4.6 220 19:36 27.06.2020
803 Rain 16 998 87 10000 4.6 210 19:18 27.06.2020
804 Rain 16 998 87 10000 4.6 210 19:18 27.06.2020
805 Rain 16 998 87 10000 5.7 210 18:45 27.06.2020
806 Rain 16 998 93 10000 4.1 210 18:25 27.06.2020
807 Rain 15 998 93 1200 7.2 220 17:57 27.06.2020
808 Rain 15 998 93 1200 7.2 220 17:38 27.06.2020
809 Rain 18 997 63 10000 6.2 210 17:19 27.06.2020
810 Rain 19 997 63 10000 5.1 200 16:46 27.06.2020
811 Rain 19 998 68 10000 5.1 200 16:27 27.06.2020
812 Rain 19 998 59 10000 5.1 200 15:55 27.06.2020
813 Rain 19 998 59 10000 5.1 200 15:55 27.06.2020
814 Rain 19 998 63 10000 5.7 210 15:37 27.06.2020
815 Rain 19 998 63 10000 5.7 210 15:18 27.06.2020
816 Rain 19 998 60 10000 6.7 210 14:42 27.06.2020
817 Rain 19 998 77 10000 2.6 190 14:24 27.06.2020
818 Rain 18 998 72 10000 4.1 180 13:57 27.06.2020
819 Rain 18 998 72 10000 4.1 180 13:37 27.06.2020
820 Rain 18 999 77 10000 4.6 190 13:19 27.06.2020
821 Rain 17 999 82 10000 3.6 0 12:56 27.06.2020
822 Rain 16 999 87 10000 3.6 180 12:37 27.06.2020
823 Rain 16 999 87 10000 3.6 180 12:19 27.06.2020
824 Rain 17 999 82 10000 2.6 0 11:42 27.06.2020
825 Rain 16 1000 93 2000 2.6 180 11:23 27.06.2020
826 Rain 16 1000 87 10000 2.6 150 10:57 27.06.2020
827 Clouds 16 1000 87 10000 2.6 150 10:38 27.06.2020
828 Clouds 16 1000 93 10000 2.6 140 10:18 27.06.2020
829 Clouds 15 1001 93 10000 2.6 140 09:41 27.06.2020
830 Clouds 15 1001 93 10000 2.1 150 09:21 27.06.2020
831 Clouds 15 1001 93 10000 2.1 0 08:56 27.06.2020
832 Clouds 15 1001 93 10000 2.1 0 08:37 27.06.2020
833 Rain 15 1001 93 10000 1.5 0 08:19 27.06.2020
834 Rain 14 1001 93 10000 1.5 0 07:38 27.06.2020
835 Rain 14 1002 93 4900 2.1 160 07:19 27.06.2020
836 Rain 15 1002 87 5000 2.6 180 06:37 27.06.2020
837 Rain 16 1003 82 10000 3.6 180 05:46 27.06.2020
838 Clouds 16 1003 93 10000 0.5 0 04:21 27.06.2020
839 Clouds 16 1004 93 10000 0.5 0 03:51 27.06.2020
840 Clouds 16 1005 93 10000 0.5 0 02:48 27.06.2020
841 Clouds 16 1005 93 10000 1 0 02:27 27.06.2020
842 Clouds 16 1005 93 10000 1 0 01:40 27.06.2020
843 Clouds 16 1005 87 10000 1.5 0 00:52 27.06.2020
844 Clouds 17 1006 93 10000 3.1 260 23:58 26.06.2020
845 Clouds 17 1006 93 10000 3.1 260 23:40 26.06.2020
846 Clear 17 1006 88 10000 2.1 280 23:21 26.06.2020
847 Clear 18 1006 77 10000 1.5 0 22:45 26.06.2020
848 Clear 18 1006 82 10000 2.6 340 22:26 26.06.2020
849 Clear 18 1006 82 10000 3.1 320 21:58 26.06.2020
850 Clear 19 1006 82 10000 3.1 320 21:40 26.06.2020
851 Clear 20 1006 77 10000 4.6 300 21:21 26.06.2020
852 Clouds 21 1005 77 10000 4.6 300 20:58 26.06.2020
853 Clouds 22 1005 77 10000 4.6 300 20:39 26.06.2020
854 Clear 22 1005 77 10000 5.1 280 20:18 26.06.2020
855 Thunderstorm 24 1004 64 10000 5.1 270 19:40 26.06.2020
856 Thunderstorm 24 1004 64 10000 5.1 270 19:20 26.06.2020
857 Rain 26 1004 47 10000 5.1 200 18:43 26.06.2020
858 Rain 27 1005 50 10000 3.6 190 18:25 26.06.2020
859 Rain 27 1005 51 10000 3.1 180 17:54 26.06.2020
860 Rain 27 1005 51 10000 3.1 180 17:36 26.06.2020
861 Rain 27 1005 51 10000 4.1 200 17:18 26.06.2020
862 Rain 27 1006 51 10000 2.6 190 16:42 26.06.2020
863 Clouds 27 1006 57 10000 3.6 200 16:23 26.06.2020
864 Clouds 27 1006 57 10000 3.6 200 16:23 26.06.2020
865 Clouds 27 1006 54 10000 2.6 200 15:41 26.06.2020
866 Clouds 27 1006 54 10000 2.6 200 15:41 26.06.2020
867 Clear 26 1006 54 10000 2.6 0 15:22 26.06.2020
868 Clear 25 1006 61 10000 1 0 14:58 26.06.2020
869 Rain 26 1006 61 10000 1 0 14:39 26.06.2020
870 Rain 25 1007 64 10000 3.1 90 14:21 26.06.2020
871 Clouds 24 1007 78 10000 3.1 90 13:46 26.06.2020
872 Clouds 21 1007 88 10000 2.1 80 13:25 26.06.2020
873 Clouds 20 1008 82 10000 2.1 60 12:57 26.06.2020
874 Rain 19 1008 88 10000 1.5 0 12:38 26.06.2020
875 Rain 20 1008 88 10000 1.5 0 12:19 26.06.2020
876 Rain 20 1009 82 10000 2.6 210 11:56 26.06.2020
877 Rain 21 1009 82 10000 2.6 210 11:38 26.06.2020
878 Clouds 22 1008 73 10000 4.6 240 11:19 26.06.2020
879 Clouds 22 1008 73 10000 2.6 280 10:56 26.06.2020
880 Clouds 22 1008 73 10000 2.6 280 10:37 26.06.2020
881 Clouds 22 1008 73 10000 2.6 280 10:37 26.06.2020
882 Clouds 22 1008 73 10000 3.1 240 10:18 26.06.2020
883 Clouds 22 1008 73 10000 2.1 50 09:42 26.06.2020
884 Clouds 22 1008 68 10000 0.5 0 09:22 26.06.2020
885 Clouds 22 1008 68 10000 1.5 60 08:48 26.06.2020
886 Clouds 22 1008 64 10000 1 0 08:27 26.06.2020
887 Clouds 22 1008 60 10000 1 0 07:48 26.06.2020
888 Clouds 21 1008 60 10000 1 0 07:24 26.06.2020
889 Clouds 21 1009 56 10000 1 0 06:54 26.06.2020
890 Clouds 21 1009 56 10000 1 0 06:33 26.06.2020
891 Clouds 20 1009 56 10000 1 0 05:55 26.06.2020
892 Clouds 21 1009 53 10000 2.1 120 05:29 26.06.2020
893 Clouds 22 1011 53 10000 2.1 0 02:40 26.06.2020
894 Clouds 22 1011 60 10000 1.5 0 01:39 26.06.2020
895 Rain 23 1012 60 10000 3.1 100 00:52 26.06.2020
896 Rain 23 1012 56 10000 2.1 100 00:31 26.06.2020
897 Clouds 23 1012 53 10000 2.6 80 23:48 25.06.2020
898 Clouds 24 1012 53 10000 2.1 90 23:22 25.06.2020
899 Clouds 24 1012 50 10000 2.6 90 22:58 25.06.2020
900 Clouds 25 1012 50 10000 2.6 90 22:39 25.06.2020
901 Clouds 25 1012 47 10000 2.1 90 22:20 25.06.2020
902 Clouds 26 1012 44 10000 2.1 90 21:57 25.06.2020
903 Clouds 26 1012 44 10000 2.1 90 21:57 25.06.2020
904 Clouds 26 1012 44 10000 2.1 90 21:39 25.06.2020
905 Clouds 27 1012 39 10000 2.6 90 21:20 25.06.2020
906 Clouds 27 1013 39 10000 2.6 90 20:57 25.06.2020
907 Clouds 27 1013 39 10000 2.6 90 20:39 25.06.2020
908 Clouds 29 1013 34 10000 2.6 100 20:21 25.06.2020
909 Clouds 28 1013 37 10000 2.1 0 19:41 25.06.2020
910 Clear 29 1013 35 10000 1.5 0 19:20 25.06.2020
911 Clear 29 1013 35 10000 1.5 0 18:59 25.06.2020
912 Clear 28 1013 35 10000 1.5 0 18:39 25.06.2020
913 Clear 30 1014 35 10000 3.1 90 18:20 25.06.2020
914 Clear 29 1014 37 10000 3.1 0 17:44 25.06.2020
915 Clear 30 1014 39 10000 3.1 110 17:20 25.06.2020
916 Clear 30 1014 39 10000 3.1 110 17:20 25.06.2020
917 Clear 29 1015 39 10000 3.1 100 16:58 25.06.2020
918 Clear 30 1015 39 10000 3.1 100 16:37 25.06.2020
919 Clear 30 1015 42 10000 3.1 0 16:19 25.06.2020
920 Clear 29 1015 42 10000 3.1 0 15:43 25.06.2020
921 Clear 29 1016 39 10000 3.1 0 15:24 25.06.2020
922 Clear 29 1016 42 10000 3.6 0 14:46 25.06.2020
923 Clouds 29 1016 45 10000 3.6 100 14:25 25.06.2020
924 Clouds 29 1016 44 10000 3.6 130 13:59 25.06.2020
925 Clouds 29 1016 44 10000 3.6 130 13:41 25.06.2020
926 Clouds 28 1017 44 10000 3.1 0 13:19 25.06.2020
927 Clouds 28 1017 47 10000 3.6 0 12:55 25.06.2020
928 Clouds 28 1017 47 10000 3.6 0 12:37 25.06.2020
929 Clouds 26 1017 47 10000 2.6 0 12:18 25.06.2020
930 Clouds 26 1017 50 10000 2.6 0 11:42 25.06.2020
931 Clear 26 1017 50 10000 2.1 0 11:21 25.06.2020
932 Clear 25 1017 53 10000 3.1 90 10:44 25.06.2020
933 Clear 24 1017 57 10000 2.1 110 10:25 25.06.2020
934 Clear 23 1017 56 10000 2.1 100 09:55 25.06.2020
935 Clear 20 1017 60 10000 2.6 90 09:37 25.06.2020
936 Clear 21 1017 60 10000 2.6 90 09:18 25.06.2020
937 Clear 22 1017 60 10000 2.1 80 08:42 25.06.2020
938 Clear 21 1017 64 10000 1.5 0 08:18 25.06.2020
939 Clear 21 1017 64 10000 1.5 0 08:18 25.06.2020
940 Clear 21 1017 64 10000 1.5 0 08:18 25.06.2020
941 Clear 20 1018 72 10000 1.5 70 07:43 25.06.2020
942 Clear 19 1018 72 10000 0.5 0 07:24 25.06.2020
943 Clear 18 1018 77 10000 2.1 60 06:45 25.06.2020
944 Clear 18 1018 77 10000 3.1 40 06:25 25.06.2020
945 Clear 18 1018 77 10000 2.6 50 05:38 25.06.2020
946 Clear 20 1019 72 10000 1 0 03:49 25.06.2020
947 Clear 20 1019 68 10000 1.5 0 02:58 25.06.2020
948 Clear 21 1019 68 10000 1.5 0 02:40 25.06.2020
949 Clear 22 1020 64 10000 1.5 0 01:43 25.06.2020
950 Clear 23 1019 64 10000 1.5 0 00:51 25.06.2020
951 Clear 23 1019 64 10000 1.5 0 00:51 25.06.2020
952 Clear 23 1019 64 10000 2.1 90 00:24 25.06.2020
953 Clear 24 1019 60 10000 3.1 90 23:58 24.06.2020
954 Clear 24 1019 60 10000 3.1 90 23:38 24.06.2020
955 Clear 25 1019 60 10000 2.6 80 23:19 24.06.2020
956 Clear 26 1019 53 10000 2.1 80 22:42 24.06.2020
957 Clear 26 1019 53 10000 2.1 80 22:42 24.06.2020
958 Clear 26 1019 50 10000 1.5 0 22:21 24.06.2020
959 Clear 27 1019 47 10000 1 0 21:57 24.06.2020
960 Clear 27 1019 47 10000 1 0 21:37 24.06.2020
961 Clear 28 1019 44 10000 1.5 0 21:19 24.06.2020
962 Clear 28 1019 45 10000 1 0 20:59 24.06.2020
963 Clear 28 1019 45 10000 1 0 20:40 24.06.2020
964 Clear 28 1019 42 10000 1.5 0 20:21 24.06.2020
965 Clear 28 1019 42 10000 2.1 180 19:59 24.06.2020
966 Clear 28 1019 42 10000 2.1 180 19:38 24.06.2020
967 Clear 28 1019 42 10000 2.1 170 19:20 24.06.2020
968 Clear 28 1019 39 10000 2.6 190 18:58 24.06.2020
969 Clear 29 1019 39 10000 2.6 190 18:39 24.06.2020
970 Clear 29 1019 42 10000 2.1 0 18:20 24.06.2020
971 Clear 29 1020 42 10000 2.1 170 17:55 24.06.2020
972 Clear 29 1020 42 10000 2.1 170 17:37 24.06.2020
973 Clear 28 1020 42 10000 2.1 170 17:18 24.06.2020
974 Clear 28 1020 42 10000 2.1 170 17:18 24.06.2020
975 Clear 29 1020 45 10000 2.1 170 16:55 24.06.2020
976 Clear 29 1020 45 10000 2.1 170 16:37 24.06.2020
977 Clear 29 1020 45 10000 2.1 170 16:37 24.06.2020
978 Clear 29 1020 45 10000 2.1 160 16:19 24.06.2020
979 Clear 29 1020 45 10000 2.1 160 16:19 24.06.2020
980 Clear 29 1020 42 10000 2.6 180 15:55 24.06.2020
981 Clear 28 1020 42 10000 2.6 180 15:37 24.06.2020
982 Clear 28 1020 44 10000 2.1 0 15:18 24.06.2020
983 Clear 28 1020 44 10000 2.1 170 14:40 24.06.2020
984 Clear 27 1020 50 10000 1.5 0 14:22 24.06.2020
985 Clear 27 1021 50 10000 2.6 200 13:42 24.06.2020
986 Clear 26 1021 50 10000 1.5 0 13:21 24.06.2020
987 Clear 27 1021 53 10000 2.1 200 12:46 24.06.2020
988 Clear 25 1021 57 10000 2.6 220 12:22 24.06.2020
989 Clear 25 1021 57 9000 1 0 11:58 24.06.2020
990 Clear 24 1021 56 10000 1.5 0 11:40 24.06.2020
991 Clear 24 1021 56 10000 1.5 0 11:22 24.06.2020
992 Clear 22 1021 60 10000 2.1 160 10:48 24.06.2020
993 Clear 23 1021 56 10000 1.5 0 10:20 24.06.2020
994 Clear 23 1021 56 10000 1.5 0 10:20 24.06.2020
995 Clear 22 1021 60 10000 1.5 0 09:57 24.06.2020
996 Clear 22 1021 60 10000 1.5 0 09:39 24.06.2020
997 Clear 21 1021 56 10000 1.5 0 09:20 24.06.2020
998 Clear 20 1021 64 10000 1.5 0 08:40 24.06.2020
999 Clear 19 1021 68 10000 1.5 0 08:19 24.06.2020
1000 Clear 18 1021 72 10000 1.5 0 07:50 24.06.2020
1001 Clear 18 1021 72 10000 1.5 0 07:26 24.06.2020
1002 Clear 16 1021 77 10000 1.5 0 06:46 24.06.2020
1003 Clear 16 1021 82 10000 1.5 0 06:24 24.06.2020
1004 Clear 16 1021 77 10000 1.5 120 05:46 24.06.2020
1005 Clear 17 1021 82 10000 1.5 0 04:40 24.06.2020
1006 Clear 17 1021 77 10000 1.5 0 03:40 24.06.2020
1007 Clear 17 1021 88 10000 1.5 130 03:18 24.06.2020
1008 Clear 18 1021 82 10000 0.5 0 02:36 24.06.2020
1009 Clear 20 1021 72 10000 1.5 0 00:54 24.06.2020
1010 Clear 20 1021 72 10000 1.5 0 00:34 24.06.2020
1011 Clear 21 1021 68 10000 1 130 23:49 23.06.2020
1012 Clear 21 1021 68 10000 1.5 120 23:24 23.06.2020
1013 Clear 22 1020 64 10000 1 170 22:59 23.06.2020
1014 Clear 22 1020 64 10000 1 170 22:41 23.06.2020
1015 Clear 23 1020 60 10000 1.5 190 22:19 23.06.2020
1016 Clear 24 1020 57 10000 2.1 200 21:57 23.06.2020
1017 Clear 24 1020 57 10000 2.1 200 21:38 23.06.2020
1018 Clear 24 1020 53 10000 2.1 180 21:18 23.06.2020
1019 Clear 24 1020 50 10000 2.1 190 20:55 23.06.2020
1020 Clear 24 1020 50 10000 2.1 190 20:36 23.06.2020
1021 Clear 24 1020 50 10000 2.1 190 20:36 23.06.2020
1022 Clouds 25 1021 47 10000 3.1 190 20:18 23.06.2020
1023 Clouds 25 1021 41 10000 3.1 200 19:42 23.06.2020
1024 Clouds 25 1021 41 10000 3.1 200 19:23 23.06.2020
1025 Clouds 25 1021 38 10000 3.1 190 18:39 23.06.2020
1026 Clouds 25 1021 44 10000 2.6 0 18:19 23.06.2020
1027 Clouds 24 1021 38 10000 3.1 190 17:44 23.06.2020
1028 Clouds 24 1022 38 10000 3.6 190 17:25 23.06.2020
1029 Clouds 24 1022 41 10000 4.1 200 16:57 23.06.2020
1030 Clouds 24 1022 41 10000 4.1 200 16:39 23.06.2020
1031 Clouds 24 1022 56 10000 3.1 180 16:20 23.06.2020
1032 Clouds 23 1022 64 10000 3.6 210 15:59 23.06.2020
1033 Clouds 22 1022 64 10000 3.6 210 15:41 23.06.2020
1034 Clouds 22 1022 64 10000 3.6 210 15:22 23.06.2020
1035 Clouds 21 1022 64 10000 4.1 200 14:43 23.06.2020
1036 Clouds 21 1023 68 10000 3.1 200 14:20 23.06.2020
1037 Clouds 21 1023 68 10000 3.1 190 13:59 23.06.2020
1038 Clouds 21 1023 68 10000 3.1 190 13:40 23.06.2020
1039 Clouds 20 1023 68 10000 4.1 200 13:22 23.06.2020
1040 Clouds 20 1023 68 10000 4.6 210 12:45 23.06.2020
1041 Clouds 19 1023 72 10000 3.6 200 12:23 23.06.2020
1042 Clouds 19 1023 72 10000 3.1 200 11:59 23.06.2020
1043 Clouds 19 1023 72 10000 3.1 200 11:40 23.06.2020
1044 Clouds 18 1023 72 10000 3.1 200 11:19 23.06.2020
1045 Clouds 18 1022 72 10000 3.6 200 10:58 23.06.2020
1046 Clouds 18 1022 72 10000 3.6 200 10:39 23.06.2020
1047 Clouds 18 1022 77 10000 3.6 200 10:21 23.06.2020
1048 Clouds 18 1022 77 10000 3.6 200 10:21 23.06.2020
1049 Clouds 17 1022 77 10000 3.6 190 09:43 23.06.2020
1050 Clouds 17 1022 77 10000 3.6 190 09:21 23.06.2020
1051 Clouds 16 1022 77 10000 2.6 190 08:59 23.06.2020
1052 Clouds 16 1022 77 10000 2.6 190 08:41 23.06.2020
1053 Clouds 16 1021 77 10000 2.1 190 08:21 23.06.2020
1054 Clouds 16 1021 77 10000 2.1 180 07:41 23.06.2020
1055 Clouds 16 1021 77 10000 2.6 180 07:22 23.06.2020
1056 Clouds 16 1021 77 10000 2.6 180 06:50 23.06.2020
1057 Clouds 16 1021 72 10000 2.6 180 06:31 23.06.2020
1058 Clouds 16 1021 72 10000 3.1 180 05:45 23.06.2020
1059 Clouds 17 1021 67 10000 3.6 190 03:55 23.06.2020
1060 Clouds 17 1021 72 10000 3.6 190 02:57 23.06.2020
1061 Clouds 17 1021 72 10000 3.6 190 02:38 23.06.2020
1062 Clouds 17 1021 77 10000 2.6 190 02:20 23.06.2020
1063 Clouds 17 1021 77 10000 2.6 200 01:43 23.06.2020
1064 Clouds 18 1021 72 10000 3.1 200 01:19 23.06.2020
1065 Clouds 18 1020 72 10000 3.6 200 00:24 23.06.2020
1066 Clouds 18 1020 68 10000 3.1 200 23:57 22.06.2020
1067 Clouds 19 1020 68 10000 3.1 200 23:39 22.06.2020
1068 Clouds 19 1020 63 10000 3.1 200 23:19 22.06.2020
1069 Clouds 19 1020 59 10000 4.1 190 22:57 22.06.2020
1070 Clouds 19 1020 59 10000 4.1 190 22:38 22.06.2020
1071 Clouds 19 1019 59 10000 3.6 190 22:19 22.06.2020
1072 Clouds 19 1019 59 10000 3.6 190 22:19 22.06.2020
1073 Clouds 20 1019 56 10000 3.6 180 21:57 22.06.2020
1074 Clouds 20 1019 56 10000 3.6 180 21:38 22.06.2020
1075 Clouds 20 1019 60 10000 3.6 190 21:20 22.06.2020
1076 Clouds 20 1019 60 10000 3.6 190 21:20 22.06.2020
1077 Clouds 20 1019 60 10000 4.1 180 20:41 22.06.2020
1078 Clouds 20 1019 60 10000 2.6 180 20:23 22.06.2020
1079 Clouds 20 1020 56 10000 3.6 190 19:56 22.06.2020
1080 Clouds 20 1020 52 10000 4.6 200 19:37 22.06.2020
1081 Clouds 21 1020 52 10000 4.6 200 19:18 22.06.2020
1082 Clouds 21 1020 49 10000 5.1 200 18:40 22.06.2020
1083 Clouds 20 1020 49 10000 5.1 200 18:22 22.06.2020
1084 Clouds 20 1020 56 10000 5.1 200 17:57 22.06.2020
1085 Clouds 20 1021 52 10000 4.6 200 17:38 22.06.2020
1086 Clouds 20 1021 52 10000 4.6 200 17:19 22.06.2020
1087 Clouds 20 1021 52 10000 4.1 190 16:55 22.06.2020
1088 Clouds 20 1021 52 10000 4.1 190 16:37 22.06.2020
1089 Clouds 20 1021 52 10000 4.1 190 16:18 22.06.2020
1090 Clouds 20 1022 52 10000 4.6 190 15:42 22.06.2020
1091 Clouds 20 1022 52 10000 4.6 190 15:24 22.06.2020
1092 Clouds 20 1022 55 10000 4.1 200 14:56 22.06.2020
1093 Clouds 20 1022 59 10000 4.6 190 14:36 22.06.2020
1094 Clouds 19 1022 59 10000 4.6 190 14:18 22.06.2020
1095 Clouds 18 1022 63 10000 4.6 190 13:39 22.06.2020
1096 Clouds 18 1022 63 10000 4.6 190 13:39 22.06.2020
1097 Clouds 18 1022 63 10000 4.6 190 13:21 22.06.2020
1098 Clouds 17 1022 63 10000 3.6 200 12:57 22.06.2020
1099 Clouds 17 1022 63 10000 5.7 210 12:39 22.06.2020
1100 Clouds 17 1022 63 10000 5.7 210 12:39 22.06.2020
1101 Clouds 15 1022 63 10000 5.7 210 12:21 22.06.2020
1102 Clouds 15 1022 63 10000 4.1 200 11:37 22.06.2020
1103 Clouds 16 1022 63 10000 4.1 200 11:19 22.06.2020
1104 Clouds 15 1022 67 10000 3.6 200 10:57 22.06.2020
1105 Clouds 15 1022 71 10000 3.6 200 10:38 22.06.2020
1106 Clouds 14 1022 71 10000 3.6 200 10:19 22.06.2020
1107 Clouds 14 1022 71 10000 3.1 190 09:56 22.06.2020
1108 Clouds 14 1022 71 10000 4.1 200 09:38 22.06.2020
1109 Clouds 13 1022 71 10000 4.1 200 09:18 22.06.2020
1110 Clouds 12 1022 76 10000 3.1 200 08:54 22.06.2020
1111 Clouds 12 1022 81 10000 3.1 180 08:36 22.06.2020
1112 Clouds 12 1022 81 10000 3.1 180 08:18 22.06.2020
1113 Clouds 11 1021 87 10000 2.6 190 07:44 22.06.2020
1114 Clouds 11 1021 87 10000 2.6 190 07:23 22.06.2020
1115 Clouds 10 1021 87 10000 2.1 180 06:38 22.06.2020
1116 Clouds 10 1021 87 10000 2.1 170 06:19 22.06.2020
1117 Clouds 10 1021 87 10000 1.5 0 05:41 22.06.2020
1118 Clouds 11 1021 81 10000 1 0 03:22 22.06.2020
1119 Clouds 12 1020 81 10000 1 0 01:39 22.06.2020
1120 Clouds 12 1020 71 10000 2.6 200 00:44 22.06.2020
1121 Clouds 13 1020 71 10000 2.6 200 00:25 22.06.2020
1122 Clouds 14 1020 76 10000 2.1 200 23:55 21.06.2020
1123 Clouds 14 1019 76 10000 4.1 230 23:36 21.06.2020
1124 Clouds 14 1019 76 10000 4.1 230 23:18 21.06.2020
1125 Clouds 14 1018 71 10000 4.1 230 22:55 21.06.2020
1126 Clouds 14 1018 62 10000 4.1 230 22:36 21.06.2020
1127 Clouds 15 1018 62 10000 4.1 230 22:18 21.06.2020
1128 Clouds 15 1018 59 10000 6.7 240 21:54 21.06.2020
1129 Rain 16 1017 59 10000 7.2 240 21:36 21.06.2020
1130 Clouds 17 1017 59 10000 7.2 240 21:18 21.06.2020
1131 Clouds 18 1016 52 10000 7.7 250 20:39 21.06.2020
1132 Clouds 18 1016 52 10000 7.7 250 20:19 21.06.2020
1133 Rain 17 1016 52 10000 7.2 250 19:57 21.06.2020
1134 Rain 18 1016 52 10000 8.2 250 19:39 21.06.2020
1135 Clouds 18 1016 52 10000 8.2 250 19:20 21.06.2020
1136 Rain 17 1015 52 10000 9.3 260 18:55 21.06.2020
1137 Clouds 17 1015 52 10000 8.2 250 18:37 21.06.2020
1138 Clouds 17 1015 52 10000 8.2 250 18:37 21.06.2020
1139 Rain 19 1015 52 10000 8.2 250 18:19 21.06.2020
1140 Rain 19 1015 52 10000 8.2 250 18:19 21.06.2020
1141 Rain 19 1014 52 10000 8.7 260 17:40 21.06.2020
1142 Rain 19 1014 52 10000 8.7 260 17:21 21.06.2020
1143 Rain 20 1014 52 10000 8.7 240 16:57 21.06.2020
1144 Rain 19 1013 55 10000 9.8 240 16:38 21.06.2020
1145 Rain 19 1013 55 10000 9.8 240 16:20 21.06.2020
1146 Clouds 19 1013 63 10000 7.2 240 15:39 21.06.2020
1147 Clouds 19 1013 63 10000 7.2 240 15:21 21.06.2020
1148 Clouds 19 1013 72 10000 7.2 240 14:55 21.06.2020
1149 Clouds 19 1013 59 10000 6.2 220 14:36 21.06.2020
1150 Clouds 18 1013 59 10000 6.2 220 14:18 21.06.2020
1151 Clouds 18 1012 67 10000 4.6 210 13:42 21.06.2020
1152 Clouds 18 1012 67 10000 4.6 210 13:23 21.06.2020
1153 Clouds 18 1012 72 10000 6.2 210 12:57 21.06.2020
1154 Clouds 17 1012 72 10000 5.1 210 12:39 21.06.2020
1155 Clouds 17 1012 72 10000 5.1 210 12:20 21.06.2020
1156 Clouds 16 1011 72 10000 5.7 210 11:42 21.06.2020
1157 Clouds 16 1011 72 10000 5.7 210 11:24 21.06.2020
1158 Clouds 16 1011 72 10000 4.6 210 10:58 21.06.2020
1159 Rain 15 1011 82 10000 4.6 210 10:39 21.06.2020
1160 Rain 15 1011 82 10000 4.6 210 10:21 21.06.2020
1161 Rain 14 1011 87 10000 4.1 210 09:44 21.06.2020
1162 Clouds 14 1011 87 10000 4.1 210 09:24 21.06.2020
1163 Clouds 14 1010 93 10000 3.6 190 08:58 21.06.2020
1164 Rain 13 1010 93 7000 3.6 190 08:40 21.06.2020
1165 Rain 13 1010 93 7000 3.6 190 08:20 21.06.2020
1166 Rain 13 1010 93 10000 3.1 170 07:42 21.06.2020
1167 Rain 12 1010 93 10000 3.1 170 07:24 21.06.2020
1168 Rain 12 1010 87 10000 3.1 0 06:51 21.06.2020
1169 Rain 12 1010 87 6000 3.6 0 06:28 21.06.2020
1170 Rain 12 1010 87 6000 3.6 150 05:57 21.06.2020
1171 Rain 13 1012 82 10000 4.1 180 04:36 21.06.2020
1172 Rain 15 1012 67 10000 4.1 170 03:19 21.06.2020
1173 Clouds 16 1013 72 10000 3.6 170 02:36 21.06.2020
1174 Clouds 16 1013 72 10000 2.6 180 01:39 21.06.2020
1175 Clouds 16 1013 72 10000 2.6 180 01:19 21.06.2020
1176 Clouds 17 1014 67 10000 2.6 0 00:45 21.06.2020
1177 Clouds 17 1014 67 10000 2.6 0 00:25 21.06.2020
1178 Clouds 17 1014 72 10000 1.5 0 23:45 20.06.2020
1179 Clouds 18 1014 68 10000 3.1 180 23:22 20.06.2020
1180 Clouds 18 1014 68 10000 3.1 180 22:57 20.06.2020
1181 Clouds 18 1014 72 10000 2.1 0 22:39 20.06.2020
1182 Clouds 18 1014 72 10000 2.1 0 22:20 20.06.2020
1183 Clouds 19 1014 63 10000 2.6 180 21:58 20.06.2020
1184 Clouds 19 1014 63 10000 3.1 180 21:40 20.06.2020
1185 Rain 19 1014 63 10000 3.1 180 21:20 20.06.2020
1186 Rain 19 1014 63 10000 3.1 180 21:20 20.06.2020
1187 Rain 20 1014 60 10000 2.6 180 20:58 20.06.2020
1188 Rain 20 1015 56 10000 2.6 180 20:40 20.06.2020
1189 Clouds 20 1015 56 10000 2.6 180 20:20 20.06.2020
1190 Clouds 21 1015 56 10000 2.6 190 19:55 20.06.2020
1191 Clouds 21 1015 49 10000 3.1 190 19:37 20.06.2020
1192 Rain 21 1015 49 10000 3.1 190 19:19 20.06.2020
1193 Clouds 21 1016 52 10000 3.1 180 18:42 20.06.2020
1194 Clouds 21 1016 52 10000 3.1 180 18:20 20.06.2020
1195 Clouds 21 1016 52 10000 4.1 190 17:57 20.06.2020
1196 Clouds 21 1016 56 10000 2.6 170 17:39 20.06.2020
1197 Clouds 21 1016 56 10000 2.6 170 17:20 20.06.2020
1198 Clouds 21 1017 56 10000 3.1 210 16:42 20.06.2020
1199 Rain 21 1017 56 10000 3.1 210 16:19 20.06.2020
1200 Rain 20 1017 56 10000 3.1 200 15:57 20.06.2020
1201 Clouds 20 1017 63 10000 3.1 200 15:39 20.06.2020
1202 Clouds 19 1017 63 10000 3.1 200 15:18 20.06.2020
1203 Clouds 19 1017 63 10000 3.6 180 14:42 20.06.2020
1204 Clouds 19 1017 63 10000 3.6 180 14:21 20.06.2020
1205 Clouds 18 1018 72 10000 3.1 190 13:42 20.06.2020
1206 Clouds 18 1018 72 10000 3.1 190 13:23 20.06.2020
1207 Clouds 17 1018 77 10000 3.6 200 12:57 20.06.2020
1208 Clouds 17 1018 77 10000 3.6 210 12:38 20.06.2020
1209 Clouds 17 1018 77 10000 3.6 210 12:38 20.06.2020
1210 Clouds 16 1018 77 10000 3.6 210 12:19 20.06.2020
1211 Clouds 16 1018 77 10000 3.6 190 11:55 20.06.2020
1212 Clouds 16 1018 77 10000 3.1 200 11:36 20.06.2020
1213 Clouds 15 1018 82 10000 2.1 0 11:18 20.06.2020
1214 Clouds 15 1017 77 10000 3.6 210 10:42 20.06.2020
1215 Clouds 15 1017 77 10000 3.6 210 10:20 20.06.2020
1216 Clouds 14 1017 87 10000 2.1 180 09:54 20.06.2020
1217 Clouds 13 1017 82 10000 2.1 180 09:36 20.06.2020
1218 Clouds 13 1017 87 10000 2.1 190 09:18 20.06.2020
1219 Clouds 13 1017 87 10000 2.6 180 08:43 20.06.2020
1220 Clouds 12 1017 87 10000 2.6 180 08:25 20.06.2020
1221 Clouds 11 1017 87 10000 2.1 180 07:51 20.06.2020
1222 Clouds 11 1017 87 10000 1.5 0 07:26 20.06.2020
1223 Clouds 10 1017 93 10000 1.5 0 06:51 20.06.2020
1224 Clouds 10 1016 93 10000 1 0 06:23 20.06.2020
1225 Clouds 10 1016 93 10000 1.5 0 05:49 20.06.2020
1226 Clouds 10 1016 93 10000 1.5 0 04:49 20.06.2020
1227 Clouds 12 1016 87 10000 2.6 190 02:20 20.06.2020
1228 Clouds 13 1015 82 10000 2.6 200 01:45 20.06.2020
1229 Clouds 13 1015 87 10000 1.5 190 00:50 20.06.2020
1230 Clouds 13 1015 87 10000 1.5 190 00:20 20.06.2020
1231 Rain 13 1015 87 10000 2.1 190 23:48 19.06.2020
1232 Rain 13 1015 87 10000 2.1 190 23:21 19.06.2020
1233 Rain 13 1014 87 10000 2.1 190 22:57 19.06.2020
1234 Clouds 13 1014 82 10000 2.1 200 22:38 19.06.2020
1235 Clouds 13 1014 82 10000 2.1 200 22:20 19.06.2020
1236 Clouds 13 1014 82 10000 2.6 210 21:55 19.06.2020
1237 Clouds 13 1014 82 10000 3.6 230 21:37 19.06.2020
1238 Clouds 13 1014 82 10000 3.6 230 21:18 19.06.2020
1239 Clouds 13 1013 82 10000 4.1 210 20:56 19.06.2020
1240 Clouds 13 1013 82 10000 4.6 210 20:38 19.06.2020
1241 Clouds 13 1013 82 10000 4.6 210 20:20 19.06.2020
1242 Clouds 14 1013 76 10000 5.1 210 19:54 19.06.2020
1243 Clouds 13 1012 82 10000 5.1 210 19:36 19.06.2020
1244 Clouds 13 1012 82 10000 5.1 210 19:18 19.06.2020
1245 Rain 13 1012 87 10000 4.1 210 18:40 19.06.2020
1246 Rain 13 1012 87 10000 4.1 210 18:21 19.06.2020
1247 Rain 13 1012 82 10000 4.6 210 17:43 19.06.2020
1248 Rain 14 1012 82 10000 4.6 210 17:23 19.06.2020
1249 Rain 14 1011 82 10000 5.1 210 16:59 19.06.2020
1250 Rain 14 1011 82 10000 5.1 210 16:59 19.06.2020
1251 Rain 14 1011 76 10000 5.7 210 16:41 19.06.2020
1252 Rain 14 1011 76 10000 5.7 210 16:22 19.06.2020
1253 Rain 15 1010 82 10000 5.1 210 15:49 19.06.2020
1254 Rain 15 1010 77 10000 5.7 210 15:49 19.06.2020
1255 Rain 15 1010 82 10000 5.1 210 15:27 19.06.2020
1256 Rain 15 1010 82 10000 5.1 200 14:59 19.06.2020
1257 Rain 15 1009 93 10000 3.1 200 14:40 19.06.2020
1258 Rain 16 1009 93 10000 3.1 200 14:21 19.06.2020
1259 Rain 16 1009 87 4900 2.1 200 13:58 19.06.2020
1260 Rain 16 1009 87 3100 2.1 190 13:40 19.06.2020
1261 Rain 16 1009 87 3100 2.1 190 13:22 19.06.2020
1262 Rain 15 1009 93 1700 1.5 0 12:45 19.06.2020
1263 Rain 15 1009 93 1700 1.5 0 12:22 19.06.2020
1264 Rain 15 1008 93 1800 1.5 0 11:56 19.06.2020
1265 Rain 15 1008 93 2200 2.1 140 11:36 19.06.2020
1266 Rain 15 1008 87 10000 1.5 0 11:18 19.06.2020
1267 Clouds 15 1008 87 10000 1 0 10:41 19.06.2020
1268 Clouds 15 1008 87 8000 2.1 0 10:21 19.06.2020
1269 Clouds 15 1008 87 8000 2.1 0 09:55 19.06.2020
1270 Clouds 15 1008 93 10000 1 0 09:37 19.06.2020
1271 Clouds 14 1008 93 10000 1 0 09:18 19.06.2020
1272 Clouds 14 1008 100 10000 1 0 08:41 19.06.2020
1273 Clouds 14 1008 100 10000 1 0 08:23 19.06.2020
1274 Clouds 13 1009 93 10000 1 0 07:41 19.06.2020
1275 Clouds 13 1009 93 10000 1 0 07:22 19.06.2020
1276 Clouds 13 1009 93 10000 1.5 0 06:52 19.06.2020
1277 Clouds 13 1009 93 10000 1 0 06:22 19.06.2020
1278 Clouds 13 1009 93 10000 2.1 70 05:32 19.06.2020
1279 Clouds 13 1009 93 10000 2.6 70 03:50 19.06.2020
1280 Clouds 13 1009 93 10000 2.6 70 02:22 19.06.2020
1281 Clouds 13 1009 100 10000 2.1 90 00:45 19.06.2020
1282 Clouds 13 1009 100 10000 2.1 90 00:22 19.06.2020
1283 Clouds 13 1009 100 10000 2.1 90 00:22 19.06.2020
1284 Clouds 13 1009 100 10000 1 0 23:58 18.06.2020
1285 Clouds 13 1009 93 10000 2.1 80 23:39 18.06.2020
1286 Clouds 13 1009 93 10000 2.1 80 23:21 18.06.2020
1287 Clouds 14 1009 100 10000 0.5 0 22:41 18.06.2020
1288 Clouds 14 1009 100 10000 0.5 0 22:21 18.06.2020
1289 Clouds 14 1008 93 10000 1 70 21:57 18.06.2020
1290 Clouds 14 1008 93 10000 1 0 21:38 18.06.2020
1291 Clouds 14 1008 93 10000 1 0 21:19 18.06.2020
1292 Clouds 14 1008 93 10000 3.1 10 20:41 18.06.2020
1293 Clouds 14 1008 93 10000 3.1 10 20:22 18.06.2020
1294 Rain 14 1008 100 10000 2.6 350 19:58 18.06.2020
1295 Rain 14 1009 100 8000 3.1 340 19:40 18.06.2020
1296 Rain 13 1009 100 8000 3.1 340 19:20 18.06.2020
1297 Rain 13 1009 100 9000 2.6 10 18:41 18.06.2020
1298 Rain 13 1009 100 9000 2.6 10 18:23 18.06.2020
1299 Drizzle 13 1009 100 3200 2.1 350 17:55 18.06.2020
1300 Rain 13 1009 100 3500 1.5 0 17:37 18.06.2020
1301 Rain 13 1009 100 3500 1.5 0 17:19 18.06.2020
1302 Rain 13 1009 100 2700 1 0 16:43 18.06.2020
1303 Rain 13 1009 100 2700 1 0 16:25 18.06.2020
1304 Rain 13 1009 100 2700 1 0 16:25 18.06.2020
1305 Rain 13 1010 100 10000 2.1 330 15:58 18.06.2020
1306 Rain 13 1010 100 8000 2.6 330 15:39 18.06.2020
1307 Rain 13 1010 100 8000 2.6 330 15:20 18.06.2020
1308 Rain 13 1010 93 6000 3.1 350 14:56 18.06.2020
1309 Rain 13 1010 93 4300 3.6 20 14:38 18.06.2020
1310 Rain 13 1010 93 4300 3.6 20 14:20 18.06.2020
1311 Rain 13 1010 93 4300 3.6 20 14:20 18.06.2020
1312 Rain 13 1010 93 6000 4.6 20 13:47 18.06.2020
1313 Rain 13 1010 93 10000 4.1 360 13:28 18.06.2020
1314 Rain 13 1010 93 10000 4.1 10 12:57 18.06.2020
1315 Rain 13 1011 93 10000 4.6 30 12:39 18.06.2020
1316 Rain 14 1011 93 10000 4.6 30 12:20 18.06.2020
1317 Rain 14 1011 93 9000 5.1 20 11:57 18.06.2020
1318 Rain 13 1011 100 7000 4.1 30 11:37 18.06.2020
1319 Rain 13 1011 100 7000 4.1 30 11:18 18.06.2020
1320 Rain 14 1012 93 8000 4.6 40 10:39 18.06.2020
1321 Rain 14 1012 93 8000 4.6 40 10:18 18.06.2020
1322 Rain 13 1012 93 6000 2.1 70 09:45 18.06.2020
1323 Rain 14 1012 93 6000 2.1 70 09:27 18.06.2020
1324 Rain 14 1011 93 9000 2.1 50 08:57 18.06.2020
1325 Rain 14 1011 93 10000 4.1 30 08:36 18.06.2020
1326 Rain 14 1011 93 10000 4.1 30 08:18 18.06.2020
1327 Clouds 14 1012 93 10000 4.1 60 07:44 18.06.2020
1328 Clouds 14 1012 93 10000 4.1 60 07:23 18.06.2020
1329 Clouds 13 1012 93 8000 3.6 40 06:37 18.06.2020
1330 Mist 14 1012 93 4100 2.1 40 04:27 18.06.2020
1331 Clouds 14 1013 93 6000 2.6 20 03:31 18.06.2020
1332 Clouds 14 1013 100 8000 1.5 350 01:43 18.06.2020
1333 Fog 15 1013 100 750 1 50 01:18 18.06.2020
1334 Fog 15 1013 100 750 1 50 00:49 18.06.2020
1335 Mist 14 1013 100 3500 0.5 0 00:26 18.06.2020
1336 Rain 15 1013 93 10000 1 0 23:54 17.06.2020
1337 Rain 15 1013 93 10000 1.5 0 23:36 17.06.2020
1338 Rain 15 1013 93 10000 1.5 0 23:18 17.06.2020
1339 Rain 15 1013 93 10000 2.1 50 22:40 17.06.2020
1340 Rain 15 1013 93 10000 2.1 50 22:21 17.06.2020
1341 Rain 15 1013 93 8000 1 0 21:59 17.06.2020
1342 Rain 16 1013 87 10000 1.5 0 21:39 17.06.2020
1343 Rain 17 1013 87 10000 1.5 0 21:20 17.06.2020
1344 Rain 19 1013 77 10000 3.1 130 20:55 17.06.2020
1345 Rain 19 1013 68 10000 1.5 0 20:36 17.06.2020
1346 Rain 19 1013 68 10000 1.5 0 20:18 17.06.2020
1347 Clouds 20 1012 68 10000 1.5 0 19:41 17.06.2020
1348 Clouds 21 1012 68 10000 1.5 0 19:19 17.06.2020
1349 Clouds 22 1012 64 10000 2.1 320 18:46 17.06.2020
1350 Clouds 22 1012 64 10000 1.5 0 18:27 17.06.2020
1351 Rain 21 1012 64 10000 2.1 250 17:47 17.06.2020
1352 Rain 21 1013 64 10000 1 0 17:23 17.06.2020
1353 Rain 21 1013 68 10000 2.6 290 16:59 17.06.2020
1354 Rain 21 1013 72 10000 3.1 230 16:40 17.06.2020
1355 Rain 21 1013 72 10000 3.1 230 16:21 17.06.2020
1356 Rain 21 1013 88 10000 3.1 210 15:58 17.06.2020
1357 Rain 22 1013 77 10000 1 0 15:39 17.06.2020
1358 Rain 21 1013 77 10000 1 0 15:20 17.06.2020
1359 Rain 20 1013 77 10000 0.5 0 14:58 17.06.2020
1360 Rain 20 1013 77 10000 1.5 0 14:39 17.06.2020
1361 Rain 20 1013 77 10000 1.5 0 14:19 17.06.2020
1362 Clouds 20 1013 77 10000 1 0 13:56 17.06.2020
1363 Clouds 21 1013 77 10000 1.5 0 13:38 17.06.2020
1364 Clouds 21 1013 77 10000 1.5 0 13:19 17.06.2020
1365 Clouds 19 1013 82 10000 1.5 0 12:42 17.06.2020
1366 Clouds 18 1014 82 10000 1 0 12:23 17.06.2020
1367 Clouds 18 1014 82 10000 1 0 11:57 17.06.2020
1368 Clouds 18 1014 82 10000 1 0 11:57 17.06.2020
1369 Clouds 17 1014 87 10000 1 0 11:38 17.06.2020
1370 Clouds 17 1014 87 10000 1 0 11:20 17.06.2020
1371 Clouds 16 1014 93 9000 2.1 50 10:38 17.06.2020
1372 Clouds 16 1014 93 7000 2.1 50 10:19 17.06.2020
1373 Clouds 15 1014 93 7000 2.1 50 09:57 17.06.2020
1374 Clouds 15 1014 93 6000 2.6 70 09:39 17.06.2020
1375 Clouds 15 1014 93 6000 2.6 70 09:20 17.06.2020
1376 Clouds 14 1013 100 9000 1 0 08:45 17.06.2020
1377 Clouds 14 1013 100 9000 1 0 08:20 17.06.2020
1378 Clouds 13 1013 100 7000 1 0 07:55 17.06.2020
1379 Mist 13 1013 100 4500 1.5 80 07:37 17.06.2020
1380 Rain 13 1013 100 4500 1.5 80 07:18 17.06.2020
1381 Rain 13 1013 100 2900 1.5 0 06:41 17.06.2020
1382 Mist 13 1013 100 2900 1.5 0 06:22 17.06.2020
1383 Clouds 13 1013 100 10000 1.5 170 05:56 17.06.2020
1384 Clouds 13 1012 100 10000 1 0 04:39 17.06.2020
1385 Rain 15 1013 93 10000 1.5 70 02:41 17.06.2020
1386 Clouds 15 1014 93 10000 2.1 60 00:53 17.06.2020
1387 Clouds 15 1014 93 10000 2.6 10 00:30 17.06.2020
1388 Thunderstorm 15 1014 93 10000 2.1 40 00:00 17.06.2020
1389 Rain 15 1014 93 6000 2.6 20 23:41 16.06.2020
1390 Rain 15 1014 93 6000 2.6 20 23:22 16.06.2020
1391 Rain 16 1014 93 5000 3.6 30 22:57 16.06.2020
1392 Rain 16 1013 93 10000 0.5 0 22:39 16.06.2020
1393 Rain 17 1013 93 10000 0.5 0 22:19 16.06.2020
1394 Rain 17 1013 93 5000 1.5 0 21:58 16.06.2020
1395 Rain 17 1013 93 5000 1.5 0 21:58 16.06.2020
1396 Rain 17 1013 88 10000 2.6 300 21:40 16.06.2020
1397 Rain 18 1013 88 10000 2.6 300 21:21 16.06.2020
1398 Rain 18 1013 82 9000 2.1 290 20:43 16.06.2020
1399 Rain 18 1013 82 9000 2.1 290 20:23 16.06.2020
1400 Rain 19 1013 77 10000 1 0 19:58 16.06.2020
1401 Rain 18 1013 77 10000 1.5 0 19:40 16.06.2020
1402 Rain 18 1013 77 10000 1.5 0 19:22 16.06.2020
1403 Thunderstorm 18 1013 82 10000 3.6 30 18:59 16.06.2020
1404 Thunderstorm 18 1013 82 10000 3.6 10 18:40 16.06.2020
1405 Thunderstorm 19 1013 82 10000 3.6 10 18:21 16.06.2020
1406 Thunderstorm 18 1013 82 10000 3.6 10 17:56 16.06.2020
1407 Thunderstorm 18 1014 82 10000 2.6 10 17:37 16.06.2020
1408 Thunderstorm 19 1014 93 10000 2.1 310 17:19 16.06.2020
1409 Thunderstorm 19 1014 93 10000 2.1 310 16:55 16.06.2020
1410 Rain 19 1014 100 10000 0.5 0 16:37 16.06.2020
1411 Rain 18 1014 100 10000 0.5 0 16:18 16.06.2020
1412 Rain 18 1014 93 1000 4.1 260 15:56 16.06.2020
1413 Rain 18 1014 93 1000 4.1 260 15:56 16.06.2020
1414 Rain 19 1014 82 10000 4.1 250 15:37 16.06.2020
1415 Rain 19 1014 82 10000 4.1 250 15:19 16.06.2020
1416 Rain 21 1014 88 10000 2.1 270 14:43 16.06.2020
1417 Rain 20 1014 88 10000 2.1 270 14:25 16.06.2020
1418 Rain 20 1015 82 9000 2.1 290 13:55 16.06.2020
1419 Thunderstorm 19 1015 82 7000 1.5 0 13:37 16.06.2020
1420 Thunderstorm 19 1015 82 7000 1.5 0 13:18 16.06.2020
1421 Rain 18 1015 82 7000 1 0 12:41 16.06.2020
1422 Rain 17 1015 88 6000 1 0 12:21 16.06.2020
1423 Rain 17 1015 88 6000 1 0 11:56 16.06.2020
1424 Rain 17 1015 93 5000 1 0 11:37 16.06.2020
1425 Rain 17 1015 93 5000 1 0 11:37 16.06.2020
1426 Rain 17 1015 93 5000 1 0 11:19 16.06.2020
1427 Haze 17 1015 93 5000 1 220 10:43 16.06.2020
1428 Haze 17 1015 93 5000 1 220 10:21 16.06.2020
1429 Mist 17 1015 100 4200 1 0 09:58 16.06.2020
1430 Mist 16 1015 100 3200 1 0 09:40 16.06.2020
1431 Mist 16 1015 100 3200 1 0 09:21 16.06.2020
1432 Mist 15 1015 100 2200 2.1 300 08:45 16.06.2020
1433 Mist 15 1015 100 2200 2.1 300 08:26 16.06.2020
1434 Mist 15 1014 93 1400 2.1 260 07:50 16.06.2020
1435 Mist 15 1014 93 1400 2.1 260 07:27 16.06.2020
1436 Mist 15 1014 100 3100 0.5 0 06:54 16.06.2020
1437 Rain 15 1014 93 3300 0.5 0 06:27 16.06.2020
1438 Mist 15 1014 93 2900 1.5 70 05:39 16.06.2020
1439 Mist 15 1015 100 3000 2.1 40 04:39 16.06.2020
1440 Mist 15 1016 100 2600 2.1 200 02:59 16.06.2020
1441 Mist 15 1016 100 2500 2.1 230 01:59 16.06.2020
1442 Clouds 15 1016 100 7000 0.5 220 01:27 16.06.2020
1443 Rain 16 1016 93 10000 1 160 00:43 16.06.2020
1444 Rain 16 1016 93 10000 1 160 00:19 16.06.2020
1445 Rain 17 1016 87 10000 2.1 0 23:42 15.06.2020
1446 Rain 17 1016 87 10000 2.1 0 23:22 15.06.2020
1447 Thunderstorm 16 1016 87 10000 4.1 300 22:55 15.06.2020
1448 Rain 17 1015 87 10000 3.6 280 22:37 15.06.2020
1449 Thunderstorm 17 1015 87 10000 3.6 280 22:18 15.06.2020
1450 Rain 19 1015 77 10000 4.6 230 21:55 15.06.2020
1451 Clouds 20 1014 60 10000 1 0 21:36 15.06.2020
1452 Rain 21 1014 56 10000 2.6 20 21:18 15.06.2020
1453 Rain 21 1014 56 10000 2.6 20 20:55 15.06.2020
1454 Rain 21 1015 60 10000 3.1 10 20:36 15.06.2020
1455 Clouds 22 1015 56 10000 3.1 350 20:18 15.06.2020
1456 Clouds 22 1015 60 10000 3.6 10 19:41 15.06.2020
1457 Clouds 22 1015 60 10000 3.6 10 19:22 15.06.2020
1458 Clouds 22 1015 60 10000 3.6 10 19:22 15.06.2020
1459 Rain 21 1015 64 10000 4.1 10 18:59 15.06.2020
1460 Rain 22 1015 56 10000 1 0 18:41 15.06.2020
1461 Rain 22 1015 56 10000 1 0 18:21 15.06.2020
1462 Thunderstorm 23 1015 53 10000 2.1 260 18:21 15.06.2020
1463 Thunderstorm 22 1015 53 10000 2.1 260 17:58 15.06.2020
1464 Thunderstorm 22 1015 56 10000 3.1 210 17:40 15.06.2020
1465 Rain 21 1015 60 10000 3.1 230 17:19 15.06.2020
1466 Rain 21 1015 60 10000 3.1 230 16:56 15.06.2020
1467 Thunderstorm 23 1015 60 10000 3.6 220 16:38 15.06.2020
1468 Thunderstorm 21 1015 60 10000 3.6 220 16:18 15.06.2020
1469 Rain 22 1015 68 10000 3.6 230 15:41 15.06.2020
1470 Rain 20 1015 68 10000 3.6 230 15:20 15.06.2020
1471 Rain 20 1015 68 10000 3.6 230 15:20 15.06.2020
1472 Rain 21 1016 68 10000 4.1 220 14:57 15.06.2020
1473 Rain 22 1016 68 10000 3.1 210 14:39 15.06.2020
1474 Rain 22 1016 68 10000 3.1 210 14:19 15.06.2020
1475 Rain 22 1016 68 10000 2.6 230 13:56 15.06.2020
1476 Clouds 22 1016 68 10000 2.6 200 13:37 15.06.2020
1477 Clouds 22 1016 68 10000 2.6 200 13:37 15.06.2020
1478 Clouds 22 1016 68 10000 2.6 200 13:18 15.06.2020
1479 Clouds 22 1016 72 10000 2.1 210 12:41 15.06.2020
1480 Clouds 21 1016 72 10000 2.1 210 12:21 15.06.2020
1481 Clouds 20 1016 82 10000 1.5 0 11:46 15.06.2020
1482 Clouds 20 1016 82 10000 1.5 0 11:26 15.06.2020
1483 Haze 20 1016 77 5000 1.5 0 10:58 15.06.2020
1484 Clouds 19 1016 82 10000 1.5 0 10:39 15.06.2020
1485 Clouds 18 1016 82 10000 1.5 0 10:19 15.06.2020
1486 Clouds 18 1016 87 10000 0.5 0 09:42 15.06.2020
1487 Clouds 17 1016 87 10000 0.5 0 09:22 15.06.2020
1488 Clouds 15 1016 93 10000 0.5 0 08:45 15.06.2020
1489 Clouds 15 1016 93 10000 0.5 0 08:26 15.06.2020
1490 Clouds 14 1014 83 0 0.44 67 07:52 15.06.2020
1491 Clouds 14 1015 93 10000 0.5 0 07:34 15.06.2020
1492 Clouds 13 1015 93 10000 1 90 06:57 15.06.2020
1493 Clouds 13 1015 93 10000 0.5 0 06:27 15.06.2020
1494 Clouds 14 1015 87 10000 1 0 05:50 15.06.2020
1495 Clouds 13 1015 93 10000 0.5 0 05:28 15.06.2020
1496 Clouds 14 1015 93 10000 1.54 68 04:22 15.06.2020
1497 Clouds 14 1015 93 10000 0.5 0 03:48 15.06.2020
1498 Clouds 15 1015 87 10000 1 0 02:56 15.06.2020
1499 Clouds 15 1015 82 10000 1.5 140 02:24 15.06.2020
1500 Clouds 16 1015 87 10000 1 0 01:41 15.06.2020
1501 Clouds 16 1015 87 10000 1 0 01:23 15.06.2020
1502 Clouds 16 1015 87 10000 1 150 00:43 15.06.2020
1503 Clouds 16 1015 87 10000 1 150 00:23 15.06.2020
1504 Clouds 17 1015 87 10000 0.5 0 23:56 14.06.2020
1505 Clouds 17 1015 82 10000 1 0 23:38 14.06.2020
1506 Clouds 17 1015 82 10000 1 0 23:20 14.06.2020
1507 Clouds 17 1015 77 10000 1.5 0 22:56 14.06.2020
1508 Clouds 18 1015 77 10000 2.6 350 22:37 14.06.2020
1509 Rain 18 1015 77 10000 2.6 350 22:18 14.06.2020
1510 Rain 19 1015 77 10000 1.5 300 21:55 14.06.2020
1511 Rain 19 1015 72 10000 2.1 270 21:37 14.06.2020
1512 Rain 19 1015 72 10000 2.1 270 21:18 14.06.2020
1513 Rain 19 1014 77 10000 2.6 260 20:55 14.06.2020
1514 Rain 19 1014 77 10000 2.6 260 20:55 14.06.2020
1515 Rain 20 1014 77 10000 3.6 250 20:36 14.06.2020
1516 Rain 20 1014 63 10000 3.1 200 20:18 14.06.2020
1517 Rain 20 1014 63 10000 3.1 200 19:54 14.06.2020
1518 Clouds 21 1014 56 10000 1 0 19:36 14.06.2020
1519 Clouds 22 1014 56 10000 1 0 19:18 14.06.2020
1520 Clouds 21 1014 56 10000 2.6 130 18:55 14.06.2020
1521 Rain 22 1013 53 10000 2.6 110 18:36 14.06.2020
1522 Rain 22 1013 53 10000 2.6 110 18:18 14.06.2020
1523 Clouds 23 1013 60 10000 2.1 100 17:40 14.06.2020
1524 Clouds 23 1013 60 10000 2.1 100 17:20 14.06.2020
1525 Rain 22 1013 60 10000 2.6 110 16:57 14.06.2020
1526 Rain 23 1014 56 10000 2.6 80 16:38 14.06.2020
1527 Rain 22 1014 56 10000 2.6 80 16:19 14.06.2020
1528 Rain 22 1014 49 10000 2.6 120 15:41 14.06.2020
1529 Rain 22 1014 49 10000 2.6 120 15:20 14.06.2020
1530 Rain 22 1014 56 10000 2.6 80 14:59 14.06.2020
1531 Rain 22 1014 52 10000 3.1 80 14:41 14.06.2020
1532 Clouds 21 1014 52 10000 3.1 80 14:22 14.06.2020
1533 Rain 21 1014 52 10000 2.6 0 13:58 14.06.2020
1534 Rain 20 1014 56 10000 2.6 0 13:40 14.06.2020
1535 Clouds 19 1014 56 10000 2.6 0 13:21 14.06.2020
1536 Clouds 18 1014 63 10000 1.5 0 12:57 14.06.2020
1537 Clouds 19 1014 63 10000 2.6 20 12:38 14.06.2020
1538 Clouds 20 1014 63 10000 2.6 20 12:18 14.06.2020
1539 Clouds 19 1014 72 10000 3.1 10 11:56 14.06.2020
1540 Clouds 18 1014 72 10000 2.1 90 11:38 14.06.2020
1541 Rain 18 1014 72 10000 2.1 90 11:18 14.06.2020
1542 Rain 17 1014 77 10000 1.5 0 10:42 14.06.2020
1543 Clouds 16 1014 77 10000 1.5 0 10:19 14.06.2020
1544 Clouds 16 1014 77 10000 1 0 09:48 14.06.2020
1545 Clouds 15 1014 77 10000 0.5 0 09:25 14.06.2020
1546 Clear 15 1013 82 10000 3.1 40 08:57 14.06.2020
1547 Clear 15 1013 82 10000 2.1 40 08:39 14.06.2020
1548 Clouds 15 1013 82 10000 2.1 40 08:18 14.06.2020
1549 Clouds 14 1013 82 10000 0.5 0 07:48 14.06.2020
1550 Clouds 14 1013 87 10000 2.1 50 07:30 14.06.2020
1551 Clouds 13 1013 93 10000 2.1 60 06:26 14.06.2020
1552 Clouds 13 1013 87 10000 2.6 60 05:40 14.06.2020
1553 Clouds 14 1013 87 10000 2.6 50 04:53 14.06.2020
1554 Clouds 14 1012 82 10000 2.1 60 04:28 14.06.2020
1555 Clouds 15 1012 77 10000 1 0 02:56 14.06.2020
1556 Clouds 16 1013 72 10000 2.1 120 02:27 14.06.2020
1557 Clouds 17 1012 72 10000 2.6 0 01:36 14.06.2020
1558 Clouds 17 1012 72 10000 2.6 90 00:56 14.06.2020
1559 Clouds 17 1012 72 10000 1 0 00:36 14.06.2020
1560 Clouds 18 1012 72 10000 1 0 00:18 14.06.2020
1561 Clouds 18 1012 68 10000 2.1 90 23:42 13.06.2020
1562 Clouds 19 1012 68 10000 2.1 90 23:23 13.06.2020
1563 Clouds 19 1011 63 10000 2.6 80 22:56 13.06.2020
1564 Clouds 20 1011 60 10000 2.6 90 22:36 13.06.2020
1565 Rain 20 1011 60 10000 2.6 90 22:18 13.06.2020
1566 Rain 20 1010 49 10000 1 0 21:43 13.06.2020
1567 Rain 21 1010 49 10000 1 0 21:24 13.06.2020
1568 Rain 22 1010 43 10000 2.6 120 20:59 13.06.2020
1569 Rain 22 1010 43 10000 2.6 120 20:41 13.06.2020
1570 Rain 22 1010 43 10000 2.6 120 20:19 13.06.2020
1571 Rain 22 1010 49 10000 2.6 0 19:42 13.06.2020
1572 Rain 23 1010 49 10000 2.6 0 19:21 13.06.2020
1573 Rain 23 1009 43 10000 3.1 100 18:59 13.06.2020
1574 Rain 23 1009 46 10000 2.6 0 18:40 13.06.2020
1575 Clouds 23 1009 46 10000 2.6 0 18:20 13.06.2020
1576 Clouds 23 1009 53 10000 2.1 0 17:58 13.06.2020
1577 Clouds 23 1009 53 10000 3.1 80 17:40 13.06.2020
1578 Clouds 23 1009 53 10000 3.1 80 17:22 13.06.2020
1579 Clouds 23 1009 53 10000 2.6 0 16:55 13.06.2020
1580 Clouds 23 1010 56 10000 3.1 90 16:37 13.06.2020
1581 Clouds 23 1010 56 10000 3.1 90 16:37 13.06.2020
1582 Clouds 23 1010 56 10000 3.1 90 16:18 13.06.2020
1583 Clouds 22 1010 56 10000 3.6 80 15:44 13.06.2020
1584 Clouds 22 1010 56 10000 3.6 80 15:25 13.06.2020
1585 Clouds 21 1009 64 10000 4.1 80 14:45 13.06.2020
1586 Clouds 21 1009 64 10000 4.1 80 14:26 13.06.2020
1587 Clouds 21 1009 64 10000 3.6 110 13:58 13.06.2020
1588 Rain 21 1009 64 10000 3.6 120 13:40 13.06.2020
1589 Rain 21 1009 64 10000 3.6 120 13:21 13.06.2020
1590 Clouds 20 1009 68 10000 3.6 90 12:44 13.06.2020
1591 Clouds 19 1009 68 10000 3.6 90 12:26 13.06.2020
1592 Clouds 19 1009 68 10000 4.1 80 11:57 13.06.2020
1593 Clouds 18 1009 77 10000 2.6 90 11:38 13.06.2020
1594 Clouds 17 1008 72 10000 3.1 70 11:19 13.06.2020
1595 Clouds 18 1009 77 10000 2.6 90 11:19 13.06.2020
1596 Clouds 17 1008 72 10000 3.1 70 10:56 13.06.2020
1597 Clouds 17 1008 77 10000 2.6 90 10:37 13.06.2020
1598 Clouds 16 1008 87 10000 1.5 0 10:18 13.06.2020
1599 Clouds 16 1008 87 10000 2.1 60 09:42 13.06.2020
1600 Clouds 15 1008 87 10000 2.1 60 09:21 13.06.2020
1601 Clouds 14 1008 87 10000 2.1 40 08:48 13.06.2020
1602 Clouds 14 1008 87 10000 2.1 40 08:30 13.06.2020
1603 Clouds 14 1008 87 10000 3.1 70 07:50 13.06.2020
1604 Clouds 14 1007 87 10000 3.1 80 07:27 13.06.2020
1605 Clouds 14 1007 93 10000 2.1 80 06:47 13.06.2020
1606 Clouds 14 1007 93 9000 2.1 80 06:27 13.06.2020
1607 Clouds 14 1007 93 10000 2.6 70 05:36 13.06.2020
1608 Clouds 14 1007 87 10000 3.1 50 04:59 13.06.2020
1609 Clouds 14 1007 87 10000 1 0 03:46 13.06.2020
1610 Clouds 14 1007 87 10000 4.1 50 02:53 13.06.2020
1611 Clouds 13 1007 93 10000 3.1 50 02:25 13.06.2020
1612 Rain 13 1007 93 10000 6.2 40 01:26 13.06.2020
1613 Rain 13 1007 93 10000 6.2 50 00:58 13.06.2020
1614 Rain 13 1007 93 10000 5.7 60 00:38 13.06.2020
1615 Rain 13 1007 93 10000 5.7 60 00:19 13.06.2020
1616 Clouds 14 1007 82 10000 5.7 60 23:40 12.06.2020
1617 Clouds 14 1007 82 10000 5.7 60 23:19 12.06.2020
1618 Clouds 14 1007 82 10000 5.7 60 22:56 12.06.2020
1619 Clouds 14 1007 82 10000 6.2 60 22:37 12.06.2020
1620 Clouds 14 1007 82 10000 6.2 60 22:18 12.06.2020
1621 Clouds 14 1007 77 10000 5.7 60 21:44 12.06.2020
1622 Clouds 14 1007 77 10000 6.2 60 21:24 12.06.2020
1623 Clouds 15 1007 77 10000 6.2 60 20:57 12.06.2020
1624 Clouds 15 1006 77 10000 8.2 60 20:38 12.06.2020
1625 Clouds 15 1006 77 10000 7.7 60 20:20 12.06.2020
1626 Clouds 15 1007 82 10000 7.7 60 19:44 12.06.2020
1627 Clouds 15 1007 82 10000 7.7 60 19:22 12.06.2020
1628 Clouds 16 1007 77 10000 6.7 60 18:59 12.06.2020
1629 Clouds 15 1007 77 10000 7.7 60 18:37 12.06.2020
1630 Clouds 16 1007 77 10000 8.7 60 18:18 12.06.2020
1631 Clouds 16 1007 77 10000 7.2 60 17:44 12.06.2020
1632 Clouds 16 1007 77 10000 7.2 60 17:26 12.06.2020
1633 Rain 16 1007 87 10000 8.2 60 16:47 12.06.2020
1634 Clouds 16 1008 77 10000 7.7 60 16:24 12.06.2020
1635 Rain 16 1008 87 10000 6.2 60 15:56 12.06.2020
1636 Clouds 16 1008 77 10000 7.7 60 15:37 12.06.2020
1637 Clouds 16 1008 77 10000 7.7 60 15:18 12.06.2020
1638 Clouds 16 1008 72 10000 7.2 60 14:41 12.06.2020
1639 Clouds 16 1008 72 10000 7.2 60 14:22 12.06.2020
1640 Clouds 17 1008 72 10000 8.2 50 13:56 12.06.2020
1641 Clouds 17 1008 72 10000 8.2 50 13:56 12.06.2020
1642 Rain 17 1008 77 10000 8.2 50 13:38 12.06.2020
1643 Rain 16 1008 77 10000 8.2 50 13:18 12.06.2020
1644 Clouds 16 1009 77 10000 3.6 30 12:39 12.06.2020
1645 Rain 15 1010 77 10000 6.2 30 12:19 12.06.2020
1646 Rain 15 1010 77 10000 6.2 30 12:19 12.06.2020
1647 Clouds 15 1010 77 10000 5.1 60 11:44 12.06.2020
1648 Rain 15 1010 77 10000 5.1 60 11:23 12.06.2020
1649 Clouds 15 1010 82 10000 6.2 50 10:56 12.06.2020
1650 Clouds 15 1010 82 10000 5.7 50 10:38 12.06.2020
1651 Clouds 14 1010 82 10000 5.7 50 10:19 12.06.2020
1652 Clouds 14 1011 93 10000 5.7 40 09:44 12.06.2020
1653 Clouds 14 1011 93 10000 5.7 40 09:20 12.06.2020
1654 Clouds 14 1010 93 10000 6.2 40 08:41 12.06.2020
1655 Clouds 13 1010 93 10000 6.2 40 08:23 12.06.2020
1656 Clouds 13 1011 93 10000 3.6 30 07:42 12.06.2020
1657 Clouds 13 1011 93 10000 3.6 30 07:24 12.06.2020
1658 Clouds 13 1011 87 10000 5.1 50 06:43 12.06.2020
1659 Clouds 13 1011 87 10000 5.1 50 06:22 12.06.2020
1660 Clouds 13 1011 87 10000 5.1 50 05:49 12.06.2020
1661 Clouds 12 1011 93 10000 3.6 60 05:24 12.06.2020
1662 Clouds 12 1012 87 10000 3.1 40 03:55 12.06.2020
1663 Clouds 12 1013 87 10000 5.7 40 02:43 12.06.2020
1664 Clouds 12 1013 81 10000 5.7 40 01:47 12.06.2020
1665 -273 0 0 0 0 0 01:19 12.06.2020
1666 Rain 11 1014 87 10000 6.7 30 00:39 12.06.2020
1667 Rain 11 1014 87 10000 6.7 30 00:39 12.06.2020
1668 Rain 11 1014 87 10000 6.7 30 00:20 12.06.2020
1669 Rain 11 1014 87 10000 7.7 30 23:57 11.06.2020
1670 Clouds 11 1014 81 10000 7.7 30 23:38 11.06.2020
1671 Clouds 11 1014 81 10000 7.7 30 23:19 11.06.2020
1672 Clouds 11 1015 81 10000 7.2 30 22:54 11.06.2020
1673 Clouds 12 1015 87 10000 6.7 30 22:36 11.06.2020
1674 Clouds 12 1015 87 10000 6.7 30 22:18 11.06.2020
1675 Rain 12 1015 87 8000 7.2 40 21:42 11.06.2020
1676 Rain 12 1015 87 8000 7.2 40 21:20 11.06.2020
1677 Rain 12 1015 87 10000 8.2 30 20:57 11.06.2020
1678 Rain 12 1016 87 10000 7.7 30 20:38 11.06.2020
1679 Rain 12 1016 87 10000 7.7 30 20:20 11.06.2020
1680 Rain 12 1016 82 9000 8.7 40 19:43 11.06.2020
1681 Rain 13 1016 82 9000 8.7 40 19:22 11.06.2020
1682 Rain 13 1017 82 10000 8.7 40 18:45 11.06.2020
1683 Rain 14 1017 82 10000 8.2 30 18:26 11.06.2020
1684 Rain 15 1017 72 10000 8.7 50 17:59 11.06.2020
1685 Rain 15 1017 72 10000 8.7 50 17:39 11.06.2020
1686 Clouds 15 1017 72 10000 9.3 50 17:20 11.06.2020
1687 Clouds 15 1017 63 10000 7.7 50 16:59 11.06.2020
1688 Clouds 16 1017 63 10000 7.7 50 16:41 11.06.2020
1689 Clouds 15 1017 67 10000 9.3 50 16:23 11.06.2020
1690 Clouds 15 1017 72 10000 8.7 50 15:57 11.06.2020
1691 Clouds 16 1017 72 10000 8.7 50 15:38 11.06.2020
1692 Clouds 15 1017 76 10000 9.3 40 15:19 11.06.2020
1693 Clouds 15 1018 76 10000 8.7 40 14:43 11.06.2020
1694 Clouds 14 1018 71 10000 9.3 50 14:21 11.06.2020
1695 Clouds 14 1018 76 10000 6.7 50 13:56 11.06.2020
1696 Clouds 13 1018 76 10000 6.7 50 13:38 11.06.2020
1697 Clouds 13 1018 76 10000 6.7 50 13:38 11.06.2020
1698 Clouds 13 1018 81 10000 6.7 60 13:19 11.06.2020
1699 Clouds 13 1018 81 10000 6.7 50 12:56 11.06.2020
1700 Clouds 12 1018 81 10000 6.7 50 12:37 11.06.2020
1701 Rain 12 1018 81 6000 7.7 50 12:19 11.06.2020
1702 Clouds 12 1017 71 10000 8.7 60 11:56 11.06.2020
1703 Clouds 13 1017 71 10000 8.7 60 11:37 11.06.2020
1704 Clouds 13 1017 71 10000 7.2 70 11:18 11.06.2020
1705 Clouds 13 1017 76 10000 7.7 60 10:43 11.06.2020
1706 Clouds 13 1016 76 10000 6.2 60 10:20 11.06.2020
1707 Clouds 13 1016 81 10000 7.2 50 09:59 11.06.2020
1708 Clouds 13 1016 81 10000 7.2 50 09:40 11.06.2020
1709 Clouds 13 1016 87 10000 6.2 60 09:21 11.06.2020
1710 Clouds 12 1016 76 10000 4.6 70 08:42 11.06.2020
1711 Clouds 12 1016 71 10000 4.6 70 08:19 11.06.2020
1712 Clouds 12 1015 76 10000 4.6 70 07:42 11.06.2020
1713 Clouds 12 1015 81 10000 4.6 70 07:24 11.06.2020
1714 Clouds 11 1015 87 10000 3.6 70 06:38 11.06.2020
1715 Clouds 11 1015 87 10000 3.6 80 05:58 11.06.2020
1716 Rain 11 1014 87 4900 3.6 80 04:49 11.06.2020
1717 Clouds 11 1013 81 10000 4.1 80 03:25 11.06.2020
1718 Clouds 12 1013 81 10000 3.1 80 02:49 11.06.2020
1719 Clouds 12 1013 76 10000 3.6 90 01:57 11.06.2020
1720 Clouds 12 1013 76 10000 3.6 90 01:35 11.06.2020
1721 Clouds 12 1012 81 10000 2.6 90 00:59 11.06.2020
1722 Clouds 12 1012 81 10000 2.1 0 00:39 11.06.2020
1723 Clouds 12 1012 81 10000 2.1 0 00:20 11.06.2020
1724 Clouds 13 1012 76 10000 3.6 100 23:43 10.06.2020
1725 Rain 13 1011 76 10000 2.1 0 23:23 10.06.2020
1726 Clouds 13 1011 76 10000 2.6 90 22:55 10.06.2020
1727 Clouds 13 1011 76 10000 2.6 90 22:37 10.06.2020
1728 Rain 13 1011 76 10000 2.6 100 22:18 10.06.2020
1729 Rain 13 1011 76 10000 2.6 100 22:18 10.06.2020
1730 Clouds 13 1011 76 10000 2.6 100 21:55 10.06.2020
1731 Clouds 13 1011 76 10000 2.6 100 21:37 10.06.2020
1732 Clouds 14 1011 71 10000 2.6 100 21:18 10.06.2020
1733 Clouds 14 1011 71 10000 2.6 90 20:55 10.06.2020
1734 Clouds 14 1011 71 10000 2.6 90 20:37 10.06.2020
1735 Clouds 14 1011 62 10000 2.1 110 20:18 10.06.2020
1736 Clouds 15 1011 67 10000 2.1 0 19:38 10.06.2020
1737 Clouds 15 1011 67 10000 2.1 130 19:18 10.06.2020
1738 Clouds 15 1012 67 10000 2.1 0 18:56 10.06.2020
1739 Rain 15 1012 76 10000 1 0 18:37 10.06.2020
1740 Rain 15 1012 76 10000 1 0 18:19 10.06.2020
1741 Rain 15 1012 76 10000 1.5 0 17:54 10.06.2020
1742 Rain 15 1012 76 10000 1.5 0 17:36 10.06.2020
1743 Clouds 15 1013 76 10000 1.5 0 17:18 10.06.2020
1744 Clouds 15 1013 76 10000 1.5 0 16:41 10.06.2020
1745 Clouds 15 1013 76 10000 1.5 0 16:22 10.06.2020
1746 Clouds 14 1013 82 10000 1.5 0 15:59 10.06.2020
1747 Clouds 14 1013 82 10000 1.5 0 15:38 10.06.2020
1748 Rain 14 1014 82 10000 1.5 0 15:20 10.06.2020
1749 Rain 14 1014 82 10000 0.5 0 14:41 10.06.2020
1750 Rain 14 1014 82 10000 1 0 14:22 10.06.2020
1751 Rain 13 1014 81 10000 1.5 0 13:58 10.06.2020
1752 Rain 13 1014 87 10000 2.6 240 13:39 10.06.2020
1753 Rain 13 1014 87 10000 2.6 240 13:21 10.06.2020
1754 Clouds 13 1014 76 10000 2.1 230 12:42 10.06.2020
1755 Clouds 13 1014 76 10000 1.5 0 12:20 10.06.2020
1756 Clouds 13 1015 76 10000 2.1 220 11:56 10.06.2020
1757 Clouds 13 1015 76 10000 2.1 220 11:56 10.06.2020
1758 Clouds 13 1015 76 10000 2.1 220 11:38 10.06.2020
1759 Clouds 13 1015 76 10000 2.1 220 11:19 10.06.2020
1760 Rain 12 1015 87 10000 1.5 0 10:44 10.06.2020
1761 Rain 12 1015 87 10000 1 0 10:25 10.06.2020
1762 Rain 11 1015 93 10000 1 0 09:58 10.06.2020
1763 Rain 11 1015 93 10000 1 0 09:39 10.06.2020
1764 Rain 11 1015 93 10000 1 0 09:20 10.06.2020
1765 Rain 11 1016 93 10000 1 0 08:42 10.06.2020
1766 Rain 10 1016 100 10000 0.5 0 08:23 10.06.2020
1767 Rain 10 1016 100 9000 0.5 0 07:43 10.06.2020
1768 Clouds 10 1016 100 10000 1 0 07:23 10.06.2020
1769 Rain 10 1016 93 10000 0.5 0 06:59 10.06.2020
1770 Rain 10 1016 100 10000 1 0 06:38 10.06.2020
1771 Rain 10 1016 100 10000 1 0 06:18 10.06.2020
1772 Rain 10 1016 93 10000 1.5 80 05:49 10.06.2020
1773 Rain 10 1017 93 8000 1.5 90 05:18 10.06.2020
1774 Rain 10 1017 87 9000 1 0 04:29 10.06.2020
1775 Clouds 12 1018 76 10000 1.5 280 02:34 10.06.2020
1776 Clouds 12 1018 76 10000 0.5 0 01:47 10.06.2020
1777 Clouds 12 1018 71 10000 1 270 01:21 10.06.2020
1778 Clouds 13 1018 66 10000 1 280 00:38 10.06.2020
1779 Clouds 13 1019 66 10000 1 0 00:20 10.06.2020
1780 Clouds 13 1019 66 10000 1.5 310 23:41 09.06.2020
1781 Clouds 13 1018 66 10000 2.1 290 23:23 09.06.2020
1782 Clouds 13 1018 62 10000 1.5 290 22:57 09.06.2020
1783 Clouds 13 1018 62 10000 1.5 290 22:39 09.06.2020
1784 Clouds 13 1018 62 10000 2.6 290 22:20 09.06.2020
1785 Clouds 14 1018 54 10000 3.6 290 21:57 09.06.2020
1786 Clouds 14 1018 54 10000 3.6 290 21:39 09.06.2020
1787 Clouds 14 1018 62 10000 2.6 300 21:21 09.06.2020
1788 Clouds 14 1018 67 10000 4.1 290 20:57 09.06.2020
1789 Clouds 14 1018 67 10000 4.1 290 20:39 09.06.2020
1790 Clouds 15 1018 58 10000 4.6 300 20:20 09.06.2020
1791 Clouds 16 1018 55 10000 3.6 270 19:58 09.06.2020
1792 Clouds 16 1018 55 10000 3.6 270 19:39 09.06.2020
1793 Clouds 16 1018 51 10000 4.1 280 19:20 09.06.2020
1794 Clouds 16 1018 51 10000 4.1 280 19:20 09.06.2020
1795 Clouds 16 1018 55 10000 3.6 260 18:57 09.06.2020
1796 Clouds 17 1018 51 10000 3.1 270 18:38 09.06.2020
1797 Rain 17 1018 51 10000 3.1 270 18:19 09.06.2020
1798 Clouds 16 1019 55 10000 4.1 270 17:55 09.06.2020
1799 Clouds 16 1019 55 10000 4.1 270 17:55 09.06.2020
1800 Clouds 16 1019 55 10000 4.1 270 17:36 09.06.2020
1801 Clouds 17 1019 51 10000 4.1 240 17:18 09.06.2020
1802 Clouds 17 1019 48 10000 2.1 220 16:42 09.06.2020
1803 Clouds 17 1019 48 10000 2.1 180 16:23 09.06.2020
1804 Clouds 16 1019 51 10000 2.6 170 15:55 09.06.2020
1805 Clouds 16 1019 51 10000 2.6 170 15:37 09.06.2020
1806 Clouds 16 1019 59 10000 3.1 230 15:19 09.06.2020
1807 Clouds 16 1019 62 10000 2.1 190 14:41 09.06.2020
1808 Clouds 16 1020 58 10000 2.6 200 14:21 09.06.2020
1809 Clouds 16 1020 58 10000 2.1 0 13:58 09.06.2020
1810 Clouds 16 1020 58 10000 2.1 0 13:40 09.06.2020
1811 Clouds 15 1020 62 10000 3.1 220 13:21 09.06.2020
1812 Clouds 15 1020 62 10000 2.6 240 12:44 09.06.2020
1813 Clouds 15 1020 58 10000 2.1 0 12:21 09.06.2020
1814 Clouds 15 1020 58 10000 1.5 0 11:59 09.06.2020
1815 Clouds 14 1020 58 10000 1.5 0 11:41 09.06.2020
1816 Clouds 14 1020 58 10000 1.5 0 11:41 09.06.2020
1817 Clouds 14 1020 62 10000 2.1 140 11:20 09.06.2020
1818 Clouds 14 1020 62 10000 2.1 140 11:20 09.06.2020
1819 Clouds 13 1021 66 10000 1.5 0 10:58 09.06.2020
1820 Clouds 13 1021 66 10000 1.5 0 10:40 09.06.2020
1821 Clouds 12 1021 62 10000 2.1 170 10:22 09.06.2020
1822 Clouds 12 1021 66 10000 1.5 0 09:44 09.06.2020
1823 Clouds 12 1020 71 10000 1.5 0 09:24 09.06.2020
1824 Clouds 11 1020 71 10000 1.5 0 08:56 09.06.2020
1825 Clouds 11 1020 71 10000 1.5 0 08:38 09.06.2020
1826 Clouds 11 1020 76 10000 1.5 0 08:19 09.06.2020
1827 Clouds 10 1020 76 10000 1 0 07:38 09.06.2020
1828 Clouds 10 1021 76 10000 1.5 0 07:19 09.06.2020
1829 Clouds 10 1021 87 10000 1 0 06:53 09.06.2020
1830 Clouds 10 1021 87 10000 1 0 06:53 09.06.2020
1831 Clouds 10 1020 81 10000 1 210 06:33 09.06.2020
1832 Clouds 10 1020 81 10000 0.5 0 05:34 09.06.2020
1833 Clouds 11 1021 71 10000 1 0 03:19 09.06.2020
1834 Clouds 11 1021 66 10000 1 0 01:42 09.06.2020
1835 Clouds 12 1021 66 10000 1.5 70 01:19 09.06.2020
1836 Clouds 12 1021 66 10000 0.5 0 00:49 09.06.2020
1837 Clouds 12 1021 66 10000 1 0 00:20 09.06.2020
1838 Clouds 12 1021 66 10000 2.1 80 23:58 08.06.2020
1839 Clouds 12 1021 66 10000 2.1 80 23:37 08.06.2020
1840 Clouds 12 1020 66 10000 1.5 0 23:19 08.06.2020
1841 Clouds 13 1020 66 10000 2.1 80 22:42 08.06.2020
1842 Clouds 13 1020 66 10000 2.6 90 22:22 08.06.2020
1843 Clouds 14 1020 58 10000 1 110 21:58 08.06.2020
1844 Clouds 14 1020 58 10000 1 110 21:40 08.06.2020
1845 Clouds 14 1020 58 10000 1 110 21:40 08.06.2020
1846 Clouds 15 1019 54 10000 1 0 21:21 08.06.2020
1847 Clouds 15 1019 58 10000 1 90 20:57 08.06.2020
1848 Clouds 15 1019 58 10000 1 90 20:39 08.06.2020
1849 Clouds 16 1019 54 10000 2.6 50 20:20 08.06.2020
1850 Clouds 16 1019 51 10000 4.1 50 19:44 08.06.2020
1851 Clouds 17 1019 48 10000 2.1 340 19:22 08.06.2020
1852 Clouds 16 1019 54 10000 2.1 320 18:59 08.06.2020
1853 Clouds 16 1020 54 10000 1.5 0 18:40 08.06.2020
1854 Clouds 16 1020 54 10000 1.5 0 18:18 08.06.2020
1855 Clouds 16 1020 54 10000 1.5 0 17:55 08.06.2020
1856 Clouds 16 1020 54 10000 1.5 0 17:37 08.06.2020
1857 Clouds 16 1020 54 10000 1.5 0 17:37 08.06.2020
1858 Clouds 16 1020 54 10000 2.1 10 17:18 08.06.2020
1859 Clouds 16 1020 54 10000 1 0 16:44 08.06.2020
1860 Clouds 15 1020 58 10000 2.1 20 16:23 08.06.2020
1861 Clouds 15 1020 58 10000 1 0 15:46 08.06.2020
1862 Clouds 15 1020 62 10000 1 0 15:23 08.06.2020
1863 Clouds 15 1020 62 10000 1 0 14:59 08.06.2020
1864 Clouds 14 1020 62 10000 1 0 14:41 08.06.2020
1865 Clouds 14 1020 66 10000 1 0 14:21 08.06.2020
1866 Clouds 13 1020 66 10000 1.5 0 13:44 08.06.2020
1867 Clouds 12 1020 66 10000 1 0 13:26 08.06.2020
1868 Clouds 12 1020 71 10000 1 0 12:54 08.06.2020
1869 Clouds 12 1020 66 10000 0.5 0 12:36 08.06.2020
1870 Clouds 12 1020 66 10000 0.5 0 12:18 08.06.2020
1871 Clouds 11 1020 71 10000 1 0 11:41 08.06.2020
1872 Clouds 11 1020 66 10000 1 0 11:23 08.06.2020
1873 Clouds 11 1020 76 10000 1 0 10:58 08.06.2020
1874 Clouds 10 1020 76 10000 1 0 10:39 08.06.2020
1875 Clouds 10 1020 76 10000 1 0 10:20 08.06.2020
1876 Clouds 10 1019 81 10000 1 0 09:58 08.06.2020
1877 Clouds 10 1019 81 10000 1 0 09:40 08.06.2020
1878 Clouds 9 1019 87 10000 0.5 0 09:21 08.06.2020
1879 Clouds 10 1019 87 10000 1 0 08:47 08.06.2020
1880 Clouds 10 1019 87 10000 0.5 0 08:22 08.06.2020
1881 Clouds 9 1019 81 10000 1 90 07:46 08.06.2020
1882 Clouds 9 1018 81 10000 1 70 07:23 08.06.2020
1883 Clouds 9 1018 87 10000 0.5 0 06:50 08.06.2020
1884 Clouds 9 1018 87 10000 0.5 0 06:30 08.06.2020
1885 Clouds 9 1018 81 10000 1 0 05:51 08.06.2020
1886 Clouds 9 1017 81 10000 1 70 04:29 08.06.2020
1887 Clouds 8 1017 81 10000 1 0 02:32 08.06.2020
1888 Clouds 8 1017 81 10000 1.5 80 01:49 08.06.2020
1889 Clouds 8 1017 87 10000 1 0 01:30 08.06.2020
1890 Clouds 10 1016 81 10000 3.1 50 00:30 08.06.2020
1891 Clouds 10 1016 76 10000 1.5 0 23:42 07.06.2020
1892 Clouds 11 1016 76 10000 3.6 70 23:20 07.06.2020
1893 Clouds 11 1015 76 10000 3.1 80 22:59 07.06.2020
1894 Clouds 11 1015 76 10000 3.1 80 22:39 07.06.2020
1895 Clouds 12 1015 71 10000 3.1 80 22:19 07.06.2020
1896 Clouds 13 1015 71 10000 3.1 70 21:59 07.06.2020
1897 Clouds 13 1015 71 10000 3.1 70 21:39 07.06.2020
1898 Clouds 13 1014 66 10000 4.1 50 21:20 07.06.2020
1899 Clouds 13 1014 66 10000 4.1 50 21:20 07.06.2020
1900 Clouds 13 1014 66 10000 4.1 50 21:20 07.06.2020
1901 Clouds 13 1014 66 10000 4.1 50 21:20 07.06.2020
1902 Clouds 13 1014 66 10000 4.1 50 21:20 07.06.2020
1903 Clouds 14 1014 67 10000 4.6 50 20:56 07.06.2020
1904 Rain 14 1014 67 10000 4.6 50 20:38 07.06.2020
1905 Rain 14 1014 67 10000 4.6 50 20:38 07.06.2020
1906 Rain 15 1014 67 10000 3.1 50 20:18 07.06.2020
1907 Rain 15 1013 67 10000 5.1 40 19:55 07.06.2020
1908 Clouds 15 1013 71 10000 5.7 50 19:37 07.06.2020
1909 Clouds 15 1013 71 10000 5.7 50 19:18 07.06.2020
1910 Clouds 15 1013 71 10000 6.2 50 18:42 07.06.2020
1911 Rain 15 1012 76 10000 5.7 50 18:23 07.06.2020
1912 Rain 14 1012 62 10000 3.1 350 17:59 07.06.2020
1913 Rain 15 1012 62 10000 3.1 350 17:40 07.06.2020
1914 Clouds 15 1011 59 10000 2.6 350 17:22 07.06.2020
1915 Clouds 16 1011 62 10000 3.1 350 16:44 07.06.2020
1916 Clouds 16 1011 62 10000 2.1 350 16:22 07.06.2020
1917 Clouds 16 1011 62 10000 3.6 330 15:45 07.06.2020
1918 Clouds 15 1010 62 10000 3.6 330 15:24 07.06.2020
1919 Clouds 15 1010 62 10000 4.1 20 14:59 07.06.2020
1920 Clouds 15 1010 62 10000 4.1 20 14:37 07.06.2020
1921 Clouds 15 1010 67 10000 3.6 10 14:18 07.06.2020
1922 Clouds 15 1010 67 10000 4.1 10 13:44 07.06.2020
1923 Clouds 15 1010 67 10000 4.1 10 13:44 07.06.2020
1924 Clouds 15 1010 67 10000 4.1 10 13:44 07.06.2020
1925 Clouds 15 1010 67 10000 4.1 10 13:44 07.06.2020
1926 Clouds 14 1009 76 10000 4.1 360 13:19 07.06.2020
1927 Rain 14 1009 87 10000 4.1 340 12:44 07.06.2020
1928 Rain 14 1008 87 10000 3.6 330 12:25 07.06.2020
1929 Rain 13 1008 93 10000 2.6 330 11:55 07.06.2020
1930 Rain 12 1008 93 10000 2.6 330 11:37 07.06.2020
1931 Rain 12 1008 93 10000 2.6 310 11:19 07.06.2020
1932 Rain 12 1007 100 10000 2.6 290 10:54 07.06.2020
1933 Rain 12 1007 100 10000 2.6 290 10:36 07.06.2020
1934 Clouds 12 1007 93 10000 2.6 290 10:18 07.06.2020
1935 Rain 12 1006 93 10000 3.6 290 09:54 07.06.2020
1936 Rain 12 1006 93 10000 3.6 290 09:36 07.06.2020
1937 Rain 12 1006 93 10000 3.1 300 09:18 07.06.2020
1938 Rain 12 1005 100 8000 3.1 290 08:41 07.06.2020
1939 Rain 12 1005 100 8000 3.1 290 08:41 07.06.2020
1940 Rain 11 1005 100 8000 4.1 280 08:23 07.06.2020
1941 Rain 11 1005 93 7000 4.1 260 07:43 07.06.2020
1942 Rain 11 1004 93 10000 4.6 260 07:24 07.06.2020
1943 Clouds 11 1004 87 10000 4.6 270 06:22 07.06.2020
1944 Clouds 11 1004 87 10000 5.1 270 05:28 07.06.2020
1945 Rain 11 1004 93 10000 3.6 250 04:19 07.06.2020
1946 Clouds 11 1003 93 10000 3.1 240 02:26 07.06.2020
1947 Clouds 11 1003 93 10000 3.1 280 01:40 07.06.2020
1948 Clouds 11 1003 93 10000 3.1 270 01:22 07.06.2020
1949 Clouds 11 1002 93 10000 2.6 250 00:40 07.06.2020
1950 Clear 11 1002 87 10000 2.6 240 00:18 07.06.2020
1951 Clear 11 1002 76 10000 2.6 260 23:55 06.06.2020
1952 Clear 12 1002 76 10000 2.6 260 23:36 06.06.2020
1953 Clouds 12 1002 71 10000 3.6 300 23:18 06.06.2020
1954 Clouds 12 1001 58 10000 3.6 290 22:55 06.06.2020
1955 Clouds 13 1001 58 10000 3.6 290 22:36 06.06.2020
1956 Clouds 14 1001 50 10000 3.1 340 22:18 06.06.2020
1957 Clouds 14 1000 50 10000 4.6 330 21:42 06.06.2020
1958 Clouds 14 1000 50 10000 6.2 330 21:20 06.06.2020
1959 Clouds 15 1000 44 10000 6.7 340 20:41 06.06.2020
1960 Clouds 15 999 51 10000 6.2 350 20:21 06.06.2020
1961 Clouds 15 999 44 10000 4.6 350 19:59 06.06.2020
1962 Clouds 15 998 47 10000 7.2 350 19:41 06.06.2020
1963 Rain 15 998 47 10000 7.2 350 19:22 06.06.2020
1964 Clouds 15 998 58 10000 6.2 340 18:57 06.06.2020
1965 Clouds 15 998 58 10000 6.2 340 18:39 06.06.2020
1966 Rain 15 998 58 10000 6.7 340 18:20 06.06.2020
1967 Rain 14 997 71 10000 4.6 320 17:44 06.06.2020
1968 Rain 14 997 76 4900 8.2 340 17:21 06.06.2020
1969 Rain 13 997 76 10000 6.7 310 16:57 06.06.2020
1970 Rain 13 997 76 10000 6.7 310 16:39 06.06.2020
1971 Rain 13 996 62 10000 7.7 310 16:20 06.06.2020
1972 Rain 14 996 71 10000 6.7 300 15:45 06.06.2020
1973 Rain 14 995 71 10000 7.2 290 15:21 06.06.2020
1974 Rain 14 995 82 10000 5.1 300 14:59 06.06.2020
1975 Rain 14 995 82 10000 5.1 300 14:38 06.06.2020
1976 Rain 14 995 71 10000 7.2 300 14:19 06.06.2020
1977 Clouds 14 994 76 10000 7.2 310 13:47 06.06.2020
1978 Rain 13 994 87 10000 3.6 350 13:19 06.06.2020
1979 Rain 13 994 71 10000 8.2 300 12:57 06.06.2020
1980 Rain 13 994 71 10000 8.2 300 12:57 06.06.2020
1981 Rain 13 994 71 10000 8.2 300 12:39 06.06.2020
1982 Clouds 13 993 71 10000 8.7 310 12:19 06.06.2020
1983 Rain 13 993 81 10000 7.2 300 11:54 06.06.2020
1984 Rain 12 993 81 10000 7.2 300 11:36 06.06.2020
1985 Rain 12 993 81 10000 7.2 300 11:36 06.06.2020
1986 Rain 11 993 93 10000 5.1 300 11:18 06.06.2020
1987 Rain 11 992 93 10000 5.1 300 10:55 06.06.2020
1988 Rain 11 992 93 10000 5.1 300 10:36 06.06.2020
1989 Rain 10 992 100 1500 5.7 270 10:18 06.06.2020
1990 Rain 9 992 93 10000 5.7 240 09:41 06.06.2020
1991 Rain 9 992 100 5000 6.7 240 09:22 06.06.2020
1992 Rain 9 992 93 5000 8.2 240 08:47 06.06.2020
1993 Rain 8 992 93 6000 7.7 240 08:24 06.06.2020
1994 Rain 8 991 96 0 3.13 209 07:56 06.06.2020
1995 Rain 8 992 93 5000 8.2 260 07:56 06.06.2020
1996 Rain 8 991 95 0 1.79 54 07:37 06.06.2020
1997 Rain 8 993 100 6000 8.2 260 07:19 06.06.2020
1998 Rain 8 993 100 6000 8.2 260 06:43 06.06.2020
1999 Rain 7 993 100 5000 7.7 260 06:24 06.06.2020
2000 Rain 7 994 93 4900 7.2 260 05:32 06.06.2020
2001 Rain 7 994 93 10000 9.3 260 04:49 06.06.2020
2002 Rain 8 995 75 10000 8.2 270 03:29 06.06.2020
2003 Rain 8 995 70 10000 8.7 280 01:59 06.06.2020
2004 Rain 8 996 70 10000 8.7 270 01:21 06.06.2020
2005 Clouds 8 996 75 10000 6.7 280 00:56 06.06.2020
2006 Clouds 8 996 75 10000 6.7 280 00:37 06.06.2020
2007 Rain 8 996 81 9000 7.2 290 00:19 06.06.2020
2008 Rain 8 995 71 0 2.68 134 23:39 05.06.2020
2009 Rain 8 996 81 10000 7.2 300 23:19 05.06.2020
2010 Rain 9 996 57 10000 9.3 290 22:56 05.06.2020
2011 Rain 9 996 57 10000 9.3 290 22:37 05.06.2020
2012 Clouds 9 996 53 10000 7.7 290 22:19 05.06.2020
2013 Clouds 10 996 57 10000 7.2 290 21:42 05.06.2020
2014 Clouds 11 996 50 10000 10.3 290 21:22 05.06.2020
2015 Clouds 11 996 53 10000 10.3 290 20:58 05.06.2020
2016 Clouds 11 996 53 10000 10.3 290 20:39 05.06.2020
2017 Clouds 12 996 54 10000 11.3 280 20:21 05.06.2020
2018 Clouds 12 996 54 10000 10.3 280 19:43 05.06.2020
2019 Clouds 12 996 50 10000 10.3 290 19:23 05.06.2020
2020 Clouds 13 996 47 10000 9.8 280 18:57 05.06.2020
2021 Clouds 13 996 47 10000 9.8 280 18:38 05.06.2020
2022 Clouds 13 996 50 10000 9.8 280 18:19 05.06.2020
2023 Clouds 13 996 50 10000 9.3 280 17:57 05.06.2020
2024 Clouds 13 996 50 10000 9.3 280 17:39 05.06.2020
2025 Clouds 13 996 47 10000 9.8 290 17:19 05.06.2020
2026 Rain 13 996 47 10000 9.3 290 16:39 05.06.2020
2027 Rain 13 996 47 10000 9.3 290 16:39 05.06.2020
2028 Rain 12 996 50 10000 9.8 290 16:20 05.06.2020
2029 Clouds 13 996 50 10000 11.3 280 15:55 05.06.2020
2030 Clouds 13 996 50 10000 11.3 280 15:55 05.06.2020
2031 Clouds 13 996 50 10000 11.3 280 15:36 05.06.2020
2032 Clouds 13 996 44 10000 10.3 280 15:18 05.06.2020
2033 Rain 13 996 50 10000 9.8 290 14:40 05.06.2020
2034 Rain 12 996 54 10000 8.2 290 14:22 05.06.2020
2035 Rain 12 996 58 10000 7.7 300 13:58 05.06.2020
2036 Rain 11 996 58 10000 7.7 300 13:39 05.06.2020
2037 Rain 11 996 66 10000 6.2 290 13:20 05.06.2020
2038 Rain 10 996 81 10000 4.1 310 12:42 05.06.2020
2039 Rain 9 996 81 2500 8.7 330 12:20 05.06.2020
2040 Rain 10 996 81 10000 3.6 310 11:56 05.06.2020
2041 Rain 10 996 81 10000 3.6 310 11:37 05.06.2020
2042 Clouds 10 996 81 10000 4.1 290 11:19 05.06.2020
2043 Rain 9 996 87 10000 6.2 280 10:42 05.06.2020
2044 Rain 9 996 81 10000 4.1 290 10:21 05.06.2020
2045 Rain 9 996 81 10000 3.6 320 09:58 05.06.2020
2046 Rain 9 996 81 10000 3.6 320 09:40 05.06.2020
2047 Rain 9 996 81 10000 3.1 320 09:21 05.06.2020
2048 Clouds 9 996 81 10000 3.1 320 08:59 05.06.2020
2049 Clouds 9 996 81 10000 3.1 320 08:58 05.06.2020
2050 Clouds 9 996 81 10000 3.1 320 08:40 05.06.2020
2051 Clouds 8 996 87 10000 2.6 350 08:19 05.06.2020
2052 Clouds 8 996 87 10000 4.1 10 07:53 05.06.2020
2053 Clouds 8 995 93 10000 4.6 360 07:33 05.06.2020
2054 Rain 8 995 87 10000 7.2 350 06:50 05.06.2020
2055 Rain 10 995 81 10000 5.1 270 05:23 05.06.2020
2056 Clouds 10 996 76 10000 6.2 280 04:28 05.06.2020
2057 Clouds 10 996 81 10000 6.2 280 03:32 05.06.2020
2058 Clouds 10 997 76 10000 5.7 270 02:30 05.06.2020
2059 Clouds 10 998 76 10000 3.6 270 01:59 05.06.2020
2060 Clouds 10 998 76 10000 3.6 270 01:33 05.06.2020
2061 Clouds 11 998 76 10000 4.6 260 00:46 05.06.2020
2062 Clouds 11 998 76 10000 5.7 270 00:22 05.06.2020
2063 Clouds 11 999 87 10000 4.1 260 23:55 04.06.2020
2064 Clouds 11 999 87 10000 4.1 260 23:37 04.06.2020
2065 Clouds 11 999 87 10000 2.6 230 23:18 04.06.2020
2066 Clouds 11 999 87 10000 2.6 240 22:42 04.06.2020
2067 Clouds 11 999 87 10000 3.1 250 22:21 04.06.2020
2068 Clouds 11 999 81 10000 3.1 270 21:58 04.06.2020
2069 Clouds 11 999 81 10000 3.1 270 21:38 04.06.2020
2070 Clouds 11 999 81 10000 3.1 270 21:38 04.06.2020
2071 Clouds 12 1000 76 10000 4.6 270 21:20 04.06.2020
2072 Rain 12 1000 81 10000 4.1 280 20:56 04.06.2020
2073 Rain 12 1000 81 10000 4.1 280 20:56 04.06.2020
2074 Rain 12 1000 81 10000 4.1 280 20:38 04.06.2020
2075 Rain 12 1000 76 10000 6.2 280 20:19 04.06.2020
2076 Rain 12 1000 76 10000 6.2 280 20:19 04.06.2020
2077 Rain 13 1000 66 10000 5.7 280 19:43 04.06.2020
2078 Rain 13 1000 66 10000 5.7 280 19:21 04.06.2020
2079 Clouds 14 1001 62 10000 5.1 280 18:58 04.06.2020
2080 Clouds 14 1001 66 10000 6.7 280 18:38 04.06.2020
2081 Clouds 14 1001 62 10000 5.1 280 18:38 04.06.2020
2082 Clouds 14 1001 66 10000 6.7 280 18:20 04.06.2020
2083 Clouds 14 1001 66 10000 6.7 280 18:20 04.06.2020
2084 Clouds 14 1001 66 10000 6.7 280 18:20 04.06.2020
2085 Clouds 14 1001 62 10000 6.7 280 17:44 04.06.2020
2086 Clouds 14 1001 62 10000 6.7 280 17:23 04.06.2020
2087 Clouds 14 1002 66 10000 6.2 290 16:58 04.06.2020
2088 Clouds 14 1002 76 10000 6.2 270 16:40 04.06.2020
2089 Clouds 13 1002 76 10000 6.2 270 16:20 04.06.2020
2090 Clouds 13 1002 76 10000 6.2 280 15:44 04.06.2020
2091 Clouds 13 1002 71 10000 5.1 280 15:26 04.06.2020
2092 Clouds 12 1001 61 0 1.34 105 14:42 04.06.2020
2093 Clouds 12 1003 66 10000 5.1 290 14:22 04.06.2020
2094 Clouds 12 1003 71 10000 4.6 290 13:58 04.06.2020
2095 Clouds 12 1003 71 10000 4.6 290 13:40 04.06.2020
2096 Clouds 12 1004 87 10000 2.6 250 13:20 04.06.2020
2097 Rain 11 1004 93 10000 2.1 200 12:59 04.06.2020
2098 Rain 10 1004 93 7000 1.5 0 12:40 04.06.2020
2099 Rain 10 1004 93 7000 1.5 0 12:22 04.06.2020
2100 Rain 10 1005 81 10000 2.1 210 11:54 04.06.2020
2101 Rain 10 1005 81 10000 2.1 210 11:36 04.06.2020
2102 Rain 10 1005 87 10000 2.1 230 11:18 04.06.2020
2103 Clouds 10 1005 87 10000 2.1 220 10:41 04.06.2020
2104 Clouds 10 1005 81 10000 2.1 210 10:22 04.06.2020
2105 Clouds 10 1006 81 10000 1.5 0 09:57 04.06.2020
2106 Clouds 10 1006 81 10000 1.5 0 09:38 04.06.2020
2107 Clouds 10 1006 81 10000 1 0 09:20 04.06.2020
2108 Clouds 9 1006 87 10000 0.5 0 08:41 04.06.2020
2109 Clouds 9 1006 87 10000 0.5 0 08:23 04.06.2020
2110 Clouds 8 1007 93 10000 1.5 230 07:42 04.06.2020
2111 Clouds 8 1007 93 10000 1.5 230 07:21 04.06.2020
2112 Clouds 8 1008 87 10000 1.5 290 06:40 04.06.2020
2113 Clouds 8 1008 87 10000 1.5 290 06:40 04.06.2020
2114 Clouds 8 1008 87 10000 1.5 290 06:20 04.06.2020
2115 Clouds 8 1008 87 10000 2.1 310 05:33 04.06.2020
2116 Clouds 9 1009 81 10000 2.1 310 03:50 04.06.2020
2117 Clouds 10 1010 81 10000 3.6 360 02:22 04.06.2020
2118 Clouds 10 1010 76 10000 3.6 350 01:39 04.06.2020
2119 Clouds 10 1010 71 10000 3.6 360 01:18 04.06.2020
2120 Clouds 10 1011 76 10000 2.1 340 00:19 04.06.2020
2121 Clouds 10 1011 76 10000 2.6 330 23:38 03.06.2020
2122 Clouds 10 1011 76 10000 2.6 330 23:19 03.06.2020
2123 Clouds 11 1011 66 10000 3.6 20 22:54 03.06.2020
2124 Clouds 12 1011 62 10000 4.1 10 22:36 03.06.2020
2125 Clouds 12 1011 62 10000 4.1 10 22:18 03.06.2020
2126 Clouds 12 1011 66 10000 4.6 20 21:55 03.06.2020
2127 Clouds 12 1011 66 10000 4.6 20 21:36 03.06.2020
2128 Clouds 12 1011 66 10000 6.7 20 21:18 03.06.2020
2129 Clouds 12 1011 66 10000 5.1 20 20:41 03.06.2020
2130 Clouds 12 1012 71 10000 6.2 20 20:21 03.06.2020
2131 Clouds 12 1012 76 10000 4.6 10 19:57 03.06.2020
2132 Clouds 12 1012 76 10000 4.6 10 19:38 03.06.2020
2133 Clouds 12 1012 76 10000 5.1 20 19:20 03.06.2020
2134 Clouds 11 1012 76 10000 5.7 30 18:57 03.06.2020
2135 Clouds 11 1012 76 10000 5.7 30 18:39 03.06.2020
2136 Clouds 11 1012 76 10000 6.2 20 18:19 03.06.2020
2137 Clouds 12 1012 81 10000 7.7 30 17:44 03.06.2020
2138 Clouds 12 1012 76 10000 7.7 30 17:22 03.06.2020
2139 Clouds 12 1012 76 10000 8.2 40 16:58 03.06.2020
2140 Clouds 12 1012 76 10000 8.2 40 16:39 03.06.2020
2141 Clouds 12 1012 76 10000 9.3 40 16:19 03.06.2020
2142 Clouds 12 1012 76 10000 6.2 40 15:42 03.06.2020
2143 Clouds 12 1012 76 10000 6.7 50 15:21 03.06.2020
2144 Clouds 13 1012 76 10000 8.7 40 14:59 03.06.2020
2145 Clouds 13 1012 76 10000 8.7 40 14:40 03.06.2020
2146 Clouds 13 1012 76 10000 7.2 40 14:21 03.06.2020
2147 Clouds 13 1012 82 10000 7.7 40 13:40 03.06.2020
2148 Clouds 13 1011 82 10000 6.2 50 13:20 03.06.2020
2149 Clouds 13 1011 82 10000 6.7 50 12:44 03.06.2020
2150 Clouds 13 1011 82 10000 6.2 40 12:24 03.06.2020
2151 Rain 13 1011 87 10000 5.7 50 11:59 03.06.2020
2152 Rain 13 1011 87 10000 5.7 50 11:40 03.06.2020
2153 Rain 13 1011 93 10000 5.1 40 11:22 03.06.2020
2154 Rain 13 1011 87 10000 3.1 70 10:42 03.06.2020
2155 Rain 12 1011 87 10000 3.1 60 10:24 03.06.2020
2156 Rain 12 1011 87 10000 4.1 70 09:47 03.06.2020
2157 Rain 12 1011 87 10000 4.1 70 09:47 03.06.2020
2158 Rain 12 1011 93 10000 4.1 70 09:23 03.06.2020
2159 Rain 12 1011 93 8000 3.6 60 08:59 03.06.2020
2160 Rain 13 1011 93 8000 3.6 60 08:40 03.06.2020
2161 Rain 13 1011 100 6000 2.1 60 08:20 03.06.2020
2162 Rain 13 1011 87 8000 1.5 0 07:43 03.06.2020
2163 Rain 14 1011 87 10000 1.5 350 07:22 03.06.2020
2164 Rain 14 1011 87 10000 2.1 330 06:54 03.06.2020
2165 Rain 14 1011 87 10000 1.5 50 06:33 03.06.2020
2166 Rain 14 1011 87 10000 1.5 50 06:33 03.06.2020
2167 Rain 14 1011 87 10000 2.1 360 05:48 03.06.2020
2168 Rain 14 1012 82 10000 1 0 04:59 03.06.2020
2169 Rain 15 1012 71 10000 2.6 260 03:51 03.06.2020
2170 Clouds 16 1013 62 10000 1 280 03:21 03.06.2020
2171 Clouds 16 1013 62 10000 2.1 270 02:23 03.06.2020
2172 Clouds 18 1014 51 10000 1 0 00:47 03.06.2020
2173 Clouds 18 1015 51 10000 2.1 280 00:25 03.06.2020
2174 Clouds 18 1015 51 10000 2.1 290 23:52 02.06.2020
2175 Clouds 18 1015 48 10000 1.5 300 23:28 02.06.2020
2176 Clouds 18 1015 48 10000 1.5 300 23:28 02.06.2020
2177 Clouds 18 1015 48 10000 2.1 290 22:58 02.06.2020
2178 Clouds 19 1015 48 10000 2.1 290 22:39 02.06.2020
2179 Clouds 19 1015 48 10000 3.1 290 22:19 02.06.2020
2180 Clouds 20 1015 48 10000 3.1 290 22:19 02.06.2020
2181 Clouds 20 1015 45 10000 3.1 300 21:56 02.06.2020
2182 Clouds 20 1015 45 10000 3.1 300 21:38 02.06.2020
2183 Clouds 21 1015 42 10000 4.6 290 21:19 02.06.2020
2184 Clouds 21 1016 40 10000 4.1 300 20:57 02.06.2020
2185 Clouds 21 1016 40 10000 4.1 300 20:39 02.06.2020
2186 Clouds 21 1016 43 10000 4.1 290 20:20 02.06.2020
2187 Clouds 22 1016 43 10000 5.1 290 19:43 02.06.2020
2188 Clouds 23 1016 35 10000 5.7 290 19:25 02.06.2020
2189 Clouds 23 1016 35 10000 5.7 290 19:25 02.06.2020
2190 Clouds 23 1017 35 10000 5.7 300 18:57 02.06.2020
2191 Clouds 23 1017 35 10000 5.7 300 18:57 02.06.2020
2192 Clouds 23 1017 31 10000 6.2 300 18:39 02.06.2020
2193 Clouds 23 1017 31 10000 6.2 300 18:20 02.06.2020
2194 Clouds 23 1017 31 10000 4.1 300 17:55 02.06.2020
2195 Clouds 23 1017 31 10000 4.1 300 17:37 02.06.2020
2196 Clear 23 1017 29 10000 4.1 290 17:18 02.06.2020
2197 Clear 23 1018 29 10000 4.1 330 16:41 02.06.2020
2198 Clear 24 1018 29 10000 3.1 340 16:21 02.06.2020
2199 Clear 23 1019 28 10000 3.6 320 15:58 02.06.2020
2200 Clear 23 1019 28 10000 3.6 320 15:38 02.06.2020
2201 Clear 23 1019 31 10000 2.6 0 15:20 02.06.2020
2202 Clear 23 1019 33 10000 3.1 320 14:45 02.06.2020
2203 Clouds 22 1020 30 10000 3.1 300 14:27 02.06.2020
2204 Clouds 21 1020 32 10000 2.1 360 13:55 02.06.2020
2205 Clouds 21 1020 32 10000 2.1 360 13:36 02.06.2020
2206 Clouds 21 1021 34 10000 2.1 10 13:18 02.06.2020
2207 Clouds 21 1021 37 10000 2.1 0 12:40 02.06.2020
2208 Clouds 20 1021 34 10000 2.6 320 12:22 02.06.2020
2209 Clouds 19 1022 39 10000 1 0 11:59 02.06.2020
2210 Clouds 18 1022 39 10000 1 0 11:39 02.06.2020
2211 Clouds 18 1022 45 10000 1.5 0 11:20 02.06.2020
2212 Clouds 18 1022 42 10000 0.5 0 10:50 02.06.2020
2213 Clouds 17 1022 44 10000 1 0 10:28 02.06.2020
2214 Clouds 16 1022 47 10000 0.5 0 09:59 02.06.2020
2215 Clouds 15 1022 47 10000 0.5 0 09:40 02.06.2020
2216 Clouds 15 1023 54 10000 0.5 0 09:20 02.06.2020
2217 Clouds 14 1023 62 10000 1 0 08:48 02.06.2020
2218 Clouds 12 1023 76 10000 1 0 08:22 02.06.2020
2219 Clouds 11 1023 76 10000 0.5 0 07:53 02.06.2020
2220 Clouds 10 1023 76 10000 1 90 07:28 02.06.2020
2221 Clouds 10 1023 81 10000 1 100 06:47 02.06.2020
2222 Clouds 10 1023 71 10000 1.5 40 06:24 02.06.2020
2223 Clouds 10 1023 81 10000 1 120 05:21 02.06.2020
2224 Clouds 13 1024 58 10000 2.1 60 03:29 02.06.2020
2225 Clouds 13 1024 58 10000 3.1 50 02:30 02.06.2020
2226 Clouds 14 1024 50 10000 2.6 50 01:33 02.06.2020
2227 Clouds 16 1024 54 10000 2.6 70 00:26 02.06.2020
2228 Clouds 17 1024 51 10000 2.6 60 23:58 01.06.2020
2229 Clouds 17 1024 51 10000 2.6 60 23:37 01.06.2020
2230 Clouds 18 1024 48 10000 3.1 70 23:18 01.06.2020
2231 Clouds 19 1024 48 10000 3.6 70 22:42 01.06.2020
2232 Clear 20 1023 45 10000 3.1 80 22:21 01.06.2020
2233 Clear 20 1023 45 10000 2.6 80 21:58 01.06.2020
2234 Clear 21 1023 45 10000 2.6 80 21:40 01.06.2020
2235 Clear 21 1023 45 10000 2.6 80 21:40 01.06.2020
2236 Clear 21 1023 40 10000 2.6 90 21:20 01.06.2020
2237 Clear 22 1023 37 10000 2.1 80 20:56 01.06.2020
2238 Clear 23 1023 37 10000 1.5 0 20:38 01.06.2020
2239 Clear 22 1023 37 10000 1.5 0 20:19 01.06.2020
2240 Clear 22 1023 37 10000 1.5 0 19:43 01.06.2020
2241 Clear 23 1023 33 10000 3.1 70 19:21 01.06.2020
2242 Clear 22 1023 33 10000 2.6 0 18:59 01.06.2020
2243 Clear 22 1023 33 10000 2.6 0 18:39 01.06.2020
2244 Clear 22 1023 37 10000 1.5 0 18:20 01.06.2020
2245 Clear 22 1024 33 10000 2.6 80 17:58 01.06.2020
2246 Clear 22 1024 33 10000 2.6 80 17:40 01.06.2020
2247 Clear 22 1024 33 10000 3.1 0 17:19 01.06.2020
2248 Clear 22 1024 37 10000 3.6 70 16:42 01.06.2020
2249 Clear 22 1024 35 10000 2.6 0 16:22 01.06.2020
2250 Clear 22 1024 37 10000 3.1 110 15:57 01.06.2020
2251 Clear 22 1024 37 10000 3.1 110 15:39 01.06.2020
2252 Clear 22 1024 37 10000 3.1 120 15:19 01.06.2020
2253 Clear 22 1025 37 10000 3.1 0 14:57 01.06.2020
2254 Clear 21 1025 37 10000 3.1 0 14:38 01.06.2020
2255 Clear 21 1025 40 10000 4.1 90 14:20 01.06.2020
2256 Clear 21 1025 37 10000 5.1 40 13:44 01.06.2020
2257 Clear 21 1025 37 10000 5.1 40 13:22 01.06.2020
2258 Clear 20 1025 40 10000 5.1 50 12:59 01.06.2020
2259 Clear 20 1025 40 10000 5.1 50 12:40 01.06.2020
2260 Clear 20 1025 40 10000 5.1 50 12:40 01.06.2020
2261 Clear 20 1025 40 10000 5.1 50 12:40 01.06.2020
2262 Clear 20 1025 40 10000 5.1 50 12:40 01.06.2020
2263 Clear 20 1025 40 10000 5.1 50 12:22 01.06.2020
2264 Clear 20 1026 40 10000 4.6 50 11:58 01.06.2020
2265 Clear 19 1026 39 10000 4.1 50 11:37 01.06.2020
2266 Clear 19 1026 39 10000 4.1 50 11:19 01.06.2020
2267 Clear 19 1026 39 10000 4.1 50 11:19 01.06.2020
2268 Clear 18 1026 42 10000 4.6 40 10:56 01.06.2020
2269 Clear 17 1026 48 10000 3.1 40 10:36 01.06.2020
2270 Clear 17 1026 48 10000 3.1 40 10:18 01.06.2020
2271 Clear 16 1026 51 10000 2.6 40 09:44 01.06.2020
2272 Clear 15 1026 54 10000 2.6 50 09:25 01.06.2020
2273 Clear 15 1026 54 10000 2.6 50 08:57 01.06.2020
2274 Clear 14 1026 58 10000 2.6 50 08:34 01.06.2020
2275 Clear 13 1026 58 10000 1.5 0 07:59 01.06.2020
2276 Clear 12 1026 66 10000 1.5 50 07:40 01.06.2020
2277 Clear 12 1026 58 10000 1.5 80 07:22 01.06.2020
2278 Clear 11 1026 58 10000 1.5 80 06:49 01.06.2020
2279 Clear 11 1026 66 10000 1.5 70 05:57 01.06.2020
2280 Clear 12 1025 62 10000 2.1 90 04:56 01.06.2020
2281 Clear 13 1025 58 10000 2.1 100 03:56 01.06.2020
2282 Clear 13 1026 58 10000 2.1 80 03:37 01.06.2020
2283 Clear 13 1026 58 10000 2.1 70 02:42 01.06.2020
2284 Clear 15 1025 51 10000 2.6 80 01:38 01.06.2020
2285 Clear 15 1025 51 10000 2.6 80 01:18 01.06.2020
2286 Clear 16 1025 45 10000 3.6 80 00:40 01.06.2020
2287 Clear 16 1025 45 10000 3.6 80 00:21 01.06.2020
2288 Clear 16 1025 45 10000 3.6 80 00:21 01.06.2020
2289 Clear 17 1025 45 10000 3.1 80 23:59 31.05.2020
2290 Clear 17 1025 42 10000 3.6 90 23:40 31.05.2020
2291 Clear 18 1024 39 10000 3.6 90 23:22 31.05.2020
2292 Clear 18 1024 39 10000 3.6 90 22:58 31.05.2020
2293 Clear 18 1024 39 10000 3.6 90 22:58 31.05.2020
2294 Clear 18 1024 39 10000 3.6 90 22:58 31.05.2020
2295 Clear 19 1024 37 10000 3.1 90 22:40 31.05.2020
2296 Clear 20 1024 37 10000 3.1 90 22:21 31.05.2020
2297 Clear 20 1024 35 10000 4.1 90 21:56 31.05.2020
2298 Clear 20 1023 35 10000 3.1 100 21:38 31.05.2020
2299 Clear 21 1023 35 10000 3.1 100 21:19 31.05.2020
2300 Clear 22 1023 31 10000 3.1 100 20:42 31.05.2020
2301 Clouds 23 1023 31 10000 3.1 100 20:23 31.05.2020
2302 Clouds 23 1023 33 10000 3.6 90 19:56 31.05.2020
2303 Clouds 23 1023 33 10000 4.1 70 19:37 31.05.2020
2304 Clouds 23 1023 33 10000 4.1 70 19:19 31.05.2020
2305 Clouds 23 1023 31 10000 3.1 90 18:44 31.05.2020
2306 Clouds 23 1023 31 10000 3.1 90 18:44 31.05.2020
2307 Clouds 23 1023 31 10000 3.1 90 18:25 31.05.2020
2308 Clouds 24 1023 31 10000 2.1 0 17:54 31.05.2020
2309 Clouds 24 1023 31 10000 2.6 0 17:36 31.05.2020
2310 Clear 24 1023 31 10000 2.6 0 17:18 31.05.2020
2311 Clear 24 1023 33 10000 3.1 80 16:40 31.05.2020
2312 Clear 24 1023 33 10000 3.1 80 16:21 31.05.2020
2313 Clear 23 1024 33 10000 3.1 130 15:40 31.05.2020
2314 Clear 22 1024 33 10000 3.1 130 15:22 31.05.2020
2315 Clear 22 1024 31 10000 4.1 100 14:56 31.05.2020
2316 Clear 23 1024 28 10000 3.6 110 14:38 31.05.2020
2317 Clear 23 1024 28 10000 3.6 110 14:18 31.05.2020
2318 Clear 22 1024 35 10000 4.6 80 13:54 31.05.2020
2319 Clear 22 1024 35 10000 4.1 90 13:36 31.05.2020
2320 Clear 22 1024 35 10000 4.1 90 13:18 31.05.2020
2321 Clear 21 1024 34 10000 5.1 70 12:41 31.05.2020
2322 Clear 19 1024 34 10000 5.1 70 12:22 31.05.2020
2323 Clear 20 1024 34 10000 3.6 80 11:49 31.05.2020
2324 Clear 18 1024 36 10000 4.6 80 11:24 31.05.2020
2325 Clear 18 1024 36 10000 3.1 80 10:58 31.05.2020
2326 Clear 17 1024 36 10000 3.1 80 10:58 31.05.2020
2327 Clear 17 1024 39 10000 3.6 70 10:39 31.05.2020
2328 Clear 17 1024 39 10000 3.6 70 10:21 31.05.2020
2329 Clear 15 1025 47 10000 3.1 70 09:45 31.05.2020
2330 Clear 14 1025 54 10000 4.6 70 09:24 31.05.2020
2331 Clear 13 1025 62 10000 4.1 60 08:59 31.05.2020
2332 Clear 13 1024 71 10000 4.1 60 08:40 31.05.2020
2333 Clear 13 1024 71 10000 4.1 60 08:22 31.05.2020
2334 Clear 12 1024 76 10000 3.1 60 07:46 31.05.2020
2335 Clear 11 1024 81 10000 2.6 60 07:21 31.05.2020
2336 Clear 11 1024 81 10000 3.1 70 06:55 31.05.2020
2337 Clear 11 1024 81 10000 2.6 70 06:34 31.05.2020
2338 Clear 11 1024 76 10000 3.1 50 05:46 31.05.2020
2339 Clear 11 1024 76 10000 2.1 80 05:27 31.05.2020
2340 Clear 13 1024 62 10000 0.5 0 03:56 31.05.2020
2341 Clear 14 1024 54 10000 1.5 0 02:59 31.05.2020
2342 Clear 14 1024 51 10000 2.1 0 01:51 31.05.2020
2343 Clear 15 1024 51 10000 2.6 90 01:30 31.05.2020
2344 Clear 15 1024 48 10000 4.6 80 00:31 31.05.2020
2345 Clear 16 1023 45 10000 4.1 80 23:59 30.05.2020
2346 Clear 16 1023 48 10000 4.1 80 23:41 30.05.2020
2347 Clear 17 1023 48 10000 4.1 80 23:22 30.05.2020
2348 Clear 18 1022 42 10000 3.6 90 22:42 30.05.2020
2349 Clear 19 1022 42 10000 3.6 90 22:23 30.05.2020
2350 Clear 19 1022 42 10000 3.1 90 21:56 30.05.2020
2351 Clear 20 1022 43 10000 3.6 90 21:38 30.05.2020
2352 Clear 21 1022 43 10000 3.6 90 21:20 30.05.2020
2353 Clear 21 1022 40 10000 4.1 100 20:57 30.05.2020
2354 Clear 21 1022 37 10000 3.1 90 20:38 30.05.2020
2355 Clear 21 1022 37 10000 3.1 90 20:20 30.05.2020
2356 Clear 22 1022 40 10000 3.6 90 19:43 30.05.2020
2357 Clear 23 1022 40 10000 3.6 90 19:22 30.05.2020
2358 Clear 23 1022 35 10000 2.6 0 18:54 30.05.2020
2359 Clear 22 1022 35 10000 3.1 0 18:36 30.05.2020
2360 Clear 23 1022 35 10000 3.1 0 18:18 30.05.2020
2361 Clear 23 1023 35 10000 2.1 0 17:38 30.05.2020
2362 Clear 24 1023 35 10000 2.1 0 17:19 30.05.2020
2363 Clear 23 1023 35 10000 2.6 0 16:43 30.05.2020
2364 Clear 23 1023 35 10000 2.6 0 16:23 30.05.2020
2365 Clear 23 1023 37 10000 4.1 90 15:56 30.05.2020
2366 Clear 22 1024 37 10000 2.1 0 15:38 30.05.2020
2367 Clear 22 1024 37 10000 2.1 0 15:19 30.05.2020
2368 Clear 22 1024 37 10000 3.6 100 14:42 30.05.2020
2369 Clouds 22 1024 37 10000 3.6 100 14:21 30.05.2020
2370 Clouds 21 1025 40 10000 3.6 0 13:42 30.05.2020
2371 Clouds 21 1025 40 10000 3.6 0 13:20 30.05.2020
2372 Clouds 20 1025 34 10000 3.1 110 12:40 30.05.2020
2373 Clouds 19 1025 34 10000 3.1 110 12:20 30.05.2020
2374 Clouds 19 1025 36 10000 3.1 100 11:56 30.05.2020
2375 Clouds 18 1025 42 10000 2.1 0 11:38 30.05.2020
2376 Clouds 17 1025 42 10000 2.1 0 11:20 30.05.2020
2377 Clouds 16 1025 44 10000 2.1 90 10:39 30.05.2020
2378 Clouds 16 1025 44 10000 2.1 90 10:39 30.05.2020
2379 Clouds 16 1025 44 10000 2.1 90 10:39 30.05.2020
2380 Clouds 16 1025 44 10000 2.1 90 10:21 30.05.2020
2381 Clouds 15 1025 41 10000 2.1 0 09:47 30.05.2020
2382 Clouds 14 1026 47 10000 2.6 70 09:29 30.05.2020
2383 Clouds 13 1026 47 10000 2.1 70 08:46 30.05.2020
2384 Clouds 13 1026 54 10000 0.5 0 08:28 30.05.2020
2385 Clouds 12 1026 57 10000 1 0 07:44 30.05.2020
2386 Clouds 10 1025 61 10000 1 30 07:21 30.05.2020
2387 Clouds 10 1025 61 10000 0.5 0 06:33 30.05.2020
2388 Clouds 9 1025 65 10000 1 90 05:58 30.05.2020
2389 Clear 10 1026 61 10000 2.1 50 05:34 30.05.2020
2390 Clear 12 1026 57 10000 1 0 03:39 30.05.2020
2391 Clouds 13 1026 50 10000 2.6 90 02:30 30.05.2020
2392 Clouds 14 1026 50 10000 2.1 0 01:45 30.05.2020
2393 Clouds 16 1026 44 10000 3.6 90 00:38 30.05.2020
2394 Clouds 16 1026 44 10000 3.6 90 00:18 30.05.2020
2395 Clouds 17 1025 45 10000 3.6 90 23:42 29.05.2020
2396 Clouds 18 1025 45 10000 3.6 90 23:21 29.05.2020
2397 Clouds 19 1025 42 10000 2.6 90 22:58 29.05.2020
2398 Clouds 19 1025 40 10000 2.6 90 22:40 29.05.2020
2399 Clouds 20 1025 40 10000 2.6 90 22:19 29.05.2020
2400 Clouds 21 1025 40 10000 2.1 90 21:55 29.05.2020
2401 Clouds 21 1025 37 10000 2.6 0 21:36 29.05.2020
2402 Clouds 22 1025 37 10000 2.6 0 21:18 29.05.2020
2403 Clear 23 1025 35 10000 3.6 90 20:40 29.05.2020
2404 Clear 23 1025 35 10000 3.6 90 20:19 29.05.2020
2405 Clear 23 1025 35 10000 2.1 0 19:44 29.05.2020
2406 Clear 24 1025 35 10000 2.1 0 19:26 29.05.2020
2407 Clear 23 1025 33 10000 3.1 0 18:55 29.05.2020
2408 Clear 23 1025 31 10000 2.1 0 18:37 29.05.2020
2409 Clear 23 1025 31 10000 2.1 0 18:18 29.05.2020
2410 Clear 24 1026 29 10000 3.1 150 17:40 29.05.2020
2411 Clear 24 1026 29 10000 3.1 150 17:21 29.05.2020
2412 Clear 24 1026 31 10000 3.1 140 16:58 29.05.2020
2413 Clear 24 1027 31 10000 3.1 0 16:40 29.05.2020
2414 Clear 24 1027 31 10000 3.1 0 16:21 29.05.2020
2415 Clear 24 1027 28 10000 3.1 0 15:42 29.05.2020
2416 Clouds 23 1027 28 10000 3.1 0 15:22 29.05.2020
2417 Clouds 24 1028 26 10000 2.1 0 14:59 29.05.2020
2418 Clouds 23 1028 26 10000 2.1 150 14:39 29.05.2020
2419 Clouds 23 1028 26 10000 2.1 150 14:39 29.05.2020
2420 Clouds 23 1028 26 10000 2.1 150 14:20 29.05.2020
2421 Clouds 23 1029 28 10000 2.6 160 13:43 29.05.2020
2422 Clouds 22 1029 28 10000 2.6 160 13:23 29.05.2020
2423 Clouds 23 1029 28 10000 2.1 0 12:58 29.05.2020
2424 Clouds 22 1029 32 10000 2.6 0 12:39 29.05.2020
2425 Clouds 22 1029 32 10000 2.6 0 12:39 29.05.2020
2426 Clouds 20 1029 32 10000 2.6 0 12:20 29.05.2020
2427 Clouds 20 1029 34 10000 1.5 0 11:44 29.05.2020
2428 Clouds 20 1029 34 10000 1.5 0 11:25 29.05.2020
2429 Clouds 18 1029 36 10000 2.6 0 10:55 29.05.2020
2430 Clouds 17 1030 36 10000 2.1 0 10:36 29.05.2020
2431 Clouds 17 1030 48 10000 1 0 10:18 29.05.2020
2432 Clouds 16 1030 47 10000 0.5 0 09:41 29.05.2020
2433 Clouds 15 1030 50 10000 1 0 09:19 29.05.2020
2434 Clouds 15 1030 50 10000 1 0 08:48 29.05.2020
2435 Clouds 15 1030 47 10000 1 0 08:25 29.05.2020
2436 Clouds 13 1030 50 10000 1 90 07:48 29.05.2020
2437 Clouds 13 1030 54 10000 1 0 07:30 29.05.2020
2438 Clouds 12 1030 54 10000 1 0 06:58 29.05.2020
2439 Clouds 12 1030 54 10000 2.1 120 06:39 29.05.2020
2440 Clouds 12 1030 54 10000 2.1 120 06:21 29.05.2020
2441 Clouds 12 1030 54 10000 1.5 0 05:40 29.05.2020
2442 Clouds 15 1030 54 10000 1.5 0 02:18 29.05.2020
2443 Clouds 16 1030 54 10000 1.5 80 01:27 29.05.2020
2444 Clouds 16 1030 54 10000 1.5 80 01:27 29.05.2020
2445 Clouds 16 1030 51 10000 1.5 110 00:53 29.05.2020
2446 Clouds 17 1030 51 10000 1.5 110 00:32 29.05.2020
2447 Clouds 18 1030 51 10000 1.5 110 23:57 28.05.2020
2448 Clouds 18 1030 48 10000 1.5 120 23:38 28.05.2020
2449 Clear 19 1030 48 10000 1 0 23:18 28.05.2020
2450 Clear 20 1030 45 10000 1 0 22:42 28.05.2020
2451 Clear 21 1030 45 10000 1 0 22:23 28.05.2020
2452 Clear 22 1030 43 10000 1.5 0 21:56 28.05.2020
2453 Clear 22 1030 40 10000 1.5 0 21:37 28.05.2020
2454 Clear 22 1030 40 10000 1.5 0 21:19 28.05.2020
2455 Clear 23 1030 40 10000 1.5 0 20:56 28.05.2020
2456 Clear 24 1030 40 10000 2.6 190 20:37 28.05.2020
2457 Clouds 23 1030 38 10000 2.1 190 20:18 28.05.2020
2458 Clouds 23 1030 40 10000 2.6 190 20:18 28.05.2020
2459 Clouds 23 1030 40 10000 2.1 210 19:43 28.05.2020
2460 Clouds 23 1030 40 10000 2.1 210 19:20 28.05.2020
2461 Clouds 23 1031 40 10000 2.1 180 18:57 28.05.2020
2462 Clouds 24 1031 38 10000 1.5 0 18:39 28.05.2020
2463 Clouds 24 1031 38 10000 1.5 0 18:39 28.05.2020
2464 Clouds 24 1031 38 10000 2.1 190 18:20 28.05.2020
2465 Clouds 24 1032 38 10000 2.1 180 17:40 28.05.2020
2466 Clouds 24 1032 38 10000 2.1 180 17:22 28.05.2020
2467 Clouds 23 1032 38 10000 2.1 250 16:55 28.05.2020
2468 Clouds 23 1032 37 10000 2.1 220 16:36 28.05.2020
2469 Clouds 22 1032 37 10000 2.1 220 16:18 28.05.2020
2470 Clouds 23 1033 40 10000 1.5 0 15:40 28.05.2020
2471 Clouds 22 1033 40 10000 1.5 0 15:22 28.05.2020
2472 Clouds 21 1033 43 10000 2.1 0 14:43 28.05.2020
2473 Clear 22 1033 43 10000 2.1 0 14:24 28.05.2020
2474 Clear 22 1034 42 10000 3.1 0 13:48 28.05.2020
2475 Clear 23 1034 42 10000 2.1 200 13:30 28.05.2020
2476 Clear 22 1034 48 10000 2.6 170 12:59 28.05.2020
2477 Clear 21 1034 52 10000 2.6 180 12:38 28.05.2020
2478 Clear 20 1034 52 10000 2.6 180 12:18 28.05.2020
2479 Clear 19 1035 63 10000 2.1 0 11:41 28.05.2020
2480 Clear 18 1035 63 10000 2.1 0 11:23 28.05.2020
2481 Clear 17 1035 63 10000 2.6 170 10:56 28.05.2020
2482 Clear 16 1035 67 10000 1.5 0 10:37 28.05.2020
2483 Clear 16 1035 72 10000 1.5 0 10:18 28.05.2020
2484 Clear 15 1035 71 10000 1 0 09:39 28.05.2020
2485 Clear 15 1035 71 10000 1 0 09:19 28.05.2020
2486 Clear 14 1036 81 10000 1 70 08:45 28.05.2020
2487 Clouds 13 1036 81 10000 1 70 08:26 28.05.2020
2488 Clouds 11 1036 87 10000 0.5 0 07:45 28.05.2020
2489 Clouds 11 1036 87 10000 0.5 0 07:25 28.05.2020
2490 Clouds 11 1036 87 10000 0.92 87 06:55 28.05.2020
2491 Clouds 11 1036 87 10000 0.5 0 06:36 28.05.2020
2492 Clouds 12 1036 66 10000 0.5 0 05:40 28.05.2020
2493 Clouds 12 1036 62 10000 1 290 04:46 28.05.2020
2494 Clouds 12 1036 66 10000 1 0 04:25 28.05.2020
2495 Clouds 12 1036 66 10000 0.5 0 03:45 28.05.2020
2496 Clouds 12 1036 62 10000 1 0 02:45 28.05.2020
2497 Clouds 13 1036 71 10000 1 100 01:49 28.05.2020
2498 Clouds 14 1036 67 10000 1.5 80 00:54 28.05.2020
2499 Clouds 15 1037 67 10000 2.1 80 00:23 28.05.2020
2500 Clouds 15 1037 62 10000 2.1 80 23:57 27.05.2020
2501 Clouds 16 1037 59 10000 2.1 90 23:38 27.05.2020
2502 Clouds 16 1036 55 10000 4.6 80 23:20 27.05.2020
2503 Clouds 17 1036 52 10000 3.1 70 22:43 27.05.2020
2504 Clouds 17 1036 52 10000 3.1 70 22:43 27.05.2020
2505 Clouds 17 1036 52 10000 3.1 70 22:43 27.05.2020
2506 Clouds 18 1036 52 10000 3.1 70 22:24 27.05.2020
2507 Clouds 18 1035 52 10000 2.6 90 21:58 27.05.2020
2508 Clouds 19 1035 37 10000 2.1 0 21:40 27.05.2020
2509 Clouds 20 1035 37 10000 2.1 0 21:21 27.05.2020
2510 Clouds 21 1035 43 10000 5.1 290 20:58 27.05.2020
2511 Clouds 21 1035 46 10000 4.6 280 20:40 27.05.2020
2512 Clouds 21 1035 46 10000 4.6 280 20:40 27.05.2020
2513 Clouds 22 1035 40 10000 4.1 300 20:20 27.05.2020
2514 Clouds 21 1035 40 10000 4.1 300 19:46 27.05.2020
2515 Clouds 22 1035 37 10000 4.1 250 19:21 27.05.2020
2516 Clouds 22 1035 33 10000 2.6 350 18:58 27.05.2020
2517 Clouds 22 1035 33 10000 3.1 340 18:39 27.05.2020
2518 Clouds 22 1035 33 10000 3.1 340 18:19 27.05.2020
2519 Clouds 21 1035 33 10000 2.6 330 17:43 27.05.2020
2520 Clouds 23 1035 33 10000 2.6 330 17:24 27.05.2020
2521 Clouds 22 1035 33 10000 1 0 16:57 27.05.2020
2522 Clouds 22 1036 30 10000 2.1 280 16:38 27.05.2020
2523 Clouds 22 1036 30 10000 2.1 280 16:38 27.05.2020
2524 Clear 22 1036 30 10000 2.1 280 16:20 27.05.2020
2525 Clear 22 1036 28 10000 3.1 350 15:49 27.05.2020
2526 Clear 22 1036 35 10000 1.5 0 15:23 27.05.2020
2527 Clear 22 1036 37 10000 1.5 0 14:57 27.05.2020
2528 Clear 22 1037 37 10000 1.5 0 14:39 27.05.2020
2529 Clouds 22 1037 37 10000 1.5 0 14:20 27.05.2020
2530 Clouds 22 1037 37 10000 2.1 0 13:42 27.05.2020
2531 Clouds 21 1037 37 10000 2.1 0 13:23 27.05.2020
2532 Clouds 20 1037 48 10000 1 0 12:42 27.05.2020
2533 Clouds 19 1037 48 10000 1 0 12:24 27.05.2020
2534 Clouds 19 1037 59 10000 2.1 290 11:59 27.05.2020
2535 Clouds 17 1037 67 10000 1.5 0 11:37 27.05.2020
2536 Clouds 17 1037 67 10000 1.5 0 11:19 27.05.2020
2537 Clouds 15 1037 71 10000 0.5 0 10:44 27.05.2020
2538 Clouds 14 1037 71 10000 0.5 0 10:24 27.05.2020
2539 Clouds 13 1037 76 10000 1 0 09:58 27.05.2020
2540 Clouds 13 1037 81 10000 0.5 0 09:39 27.05.2020
2541 Clouds 12 1037 81 10000 0.5 0 09:20 27.05.2020
2542 Clouds 11 1037 93 10000 0.5 0 08:42 27.05.2020
2543 Clouds 11 1037 93 10000 0.5 0 08:24 27.05.2020
2544 Clouds 9 1037 93 10000 0.5 0 07:54 27.05.2020
2545 Clouds 8 1037 93 10000 1 120 07:35 27.05.2020
2546 Clouds 9 1037 93 10000 1 120 07:35 27.05.2020
2547 Clouds 7 1037 93 10000 1 110 06:56 27.05.2020
2548 Clouds 7 1037 93 10000 1 120 06:31 27.05.2020
2549 Clouds 7 1037 93 10000 1 0 05:50 27.05.2020
2550 Clouds 7 1037 93 10000 1 140 05:30 27.05.2020
2551 Clear 8 1037 87 10000 0.5 0 04:18 27.05.2020
2552 Clear 10 1037 71 10000 2.1 320 02:30 27.05.2020
2553 Clouds 11 1037 71 10000 2.1 300 01:45 27.05.2020
2554 Clouds 12 1037 71 10000 2.1 290 00:59 27.05.2020
2555 Clouds 12 1037 76 10000 1.5 0 00:41 27.05.2020
2556 Clouds 13 1037 71 10000 2.6 300 00:19 27.05.2020
2557 Clouds 13 1037 67 10000 2.1 290 23:42 26.05.2020
2558 Clouds 14 1037 67 10000 2.1 290 23:23 26.05.2020
2559 Clouds 14 1037 62 10000 2.6 310 22:58 26.05.2020
2560 Clouds 15 1037 59 10000 2.6 310 22:38 26.05.2020
2561 Clouds 15 1037 59 10000 2.6 310 22:19 26.05.2020
2562 Clouds 16 1037 51 10000 4.1 310 21:56 26.05.2020
2563 Clouds 16 1037 51 10000 4.1 310 21:56 26.05.2020
2564 Clouds 16 1037 51 10000 4.1 310 21:56 26.05.2020
2565 Clouds 17 1036 51 10000 3.1 300 21:38 26.05.2020
2566 Clouds 17 1036 51 10000 3.1 300 21:19 26.05.2020
2567 Clouds 18 1036 55 10000 4.6 300 20:42 26.05.2020
2568 Clouds 18 1036 55 10000 4.6 300 20:21 26.05.2020
2569 Clouds 19 1036 55 10000 4.6 290 19:55 26.05.2020
2570 Clouds 19 1037 59 10000 4.6 290 19:37 26.05.2020
2571 Clouds 19 1037 59 10000 4.6 290 19:18 26.05.2020
2572 Clouds 19 1037 59 10000 4.1 290 18:41 26.05.2020
2573 Clouds 19 1037 59 10000 4.1 290 18:21 26.05.2020
2574 Clouds 18 1037 67 10000 3.1 300 17:43 26.05.2020
2575 Clouds 18 1037 67 10000 3.1 300 17:24 26.05.2020
2576 Clouds 18 1037 67 10000 3.6 290 16:59 26.05.2020
2577 Clouds 18 1037 67 10000 4.1 290 16:41 26.05.2020
2578 Clouds 18 1037 67 10000 4.1 290 16:19 26.05.2020
2579 Clouds 18 1037 67 10000 4.6 300 15:43 26.05.2020
2580 Clouds 18 1037 67 10000 4.1 300 15:21 26.05.2020
2581 Clouds 18 1037 67 10000 4.1 300 14:56 26.05.2020
2582 Clouds 18 1037 63 10000 3.6 310 14:38 26.05.2020
2583 Clouds 18 1037 63 10000 3.6 310 14:20 26.05.2020
2584 Clouds 18 1036 67 10000 3.1 290 13:41 26.05.2020
2585 Clouds 18 1036 67 10000 3.1 290 13:23 26.05.2020
2586 Clouds 18 1036 72 10000 3.1 260 12:57 26.05.2020
2587 Clouds 18 1036 67 10000 2.6 270 12:38 26.05.2020
2588 Clouds 18 1036 67 10000 2.6 270 12:19 26.05.2020
2589 Clouds 17 1036 67 10000 3.1 290 11:41 26.05.2020
2590 Clouds 17 1036 67 10000 3.1 290 11:21 26.05.2020
2591 Clouds 17 1036 63 10000 2.1 290 10:57 26.05.2020
2592 Clouds 16 1036 62 10000 2.6 260 10:37 26.05.2020
2593 Clouds 15 1036 62 10000 2.6 260 10:18 26.05.2020
2594 Clouds 15 1036 62 10000 1 0 09:38 26.05.2020
2595 Clouds 14 1036 62 10000 1 0 09:19 26.05.2020
2596 Clouds 14 1035 71 10000 1.5 0 08:41 26.05.2020
2597 Clouds 13 1035 71 10000 1.5 0 08:22 26.05.2020
2598 Clouds 12 1035 76 10000 1 0 07:43 26.05.2020
2599 Clouds 12 1035 76 10000 1 0 07:23 26.05.2020
2600 Clouds 12 1035 81 10000 1 150 06:53 26.05.2020
2601 Clouds 12 1035 71 10000 0.5 0 06:31 26.05.2020
2602 Clouds 12 1035 71 10000 1.5 180 05:43 26.05.2020
2603 Clouds 12 1035 71 10000 1.5 180 05:20 26.05.2020
2604 Clouds 12 1034 71 10000 1 190 04:48 26.05.2020
2605 Clouds 12 1034 66 10000 1 0 04:29 26.05.2020
2606 Clouds 12 1034 66 10000 1 0 04:29 26.05.2020
2607 Clouds 12 1034 76 10000 2.1 210 03:46 26.05.2020
2608 Clouds 12 1034 62 10000 1.5 250 02:35 26.05.2020
2609 Clouds 13 1034 62 10000 2.6 220 01:47 26.05.2020
2610 Clouds 14 1034 58 10000 3.1 250 00:43 26.05.2020
2611 Clouds 14 1034 58 10000 3.1 250 00:23 26.05.2020
2612 Clouds 15 1034 50 10000 3.6 250 23:59 25.05.2020
2613 Clouds 15 1034 47 10000 3.1 250 23:39 25.05.2020
2614 Clouds 15 1034 47 10000 3.1 250 23:20 25.05.2020
2615 Clouds 16 1034 44 10000 3.6 240 22:56 25.05.2020
2616 Clouds 16 1034 44 10000 3.6 240 22:56 25.05.2020
2617 Clouds 17 1033 39 10000 3.1 260 22:37 25.05.2020
2618 Clouds 17 1033 39 10000 3.1 260 22:19 25.05.2020
2619 Clouds 18 1033 36 10000 4.1 260 21:58 25.05.2020
2620 Clouds 19 1033 34 10000 4.6 250 21:38 25.05.2020
2621 Clouds 19 1033 34 10000 4.6 250 21:19 25.05.2020
2622 Clouds 19 1033 34 10000 4.6 250 21:19 25.05.2020
2623 Clouds 19 1033 32 10000 5.7 270 20:58 25.05.2020
2624 Clouds 19 1033 32 10000 5.1 260 20:40 25.05.2020
2625 Clouds 20 1033 32 10000 5.1 260 20:20 25.05.2020
2626 Clouds 20 1033 30 10000 4.6 270 19:55 25.05.2020
2627 Clouds 20 1033 30 10000 5.1 270 19:37 25.05.2020
2628 Clouds 21 1033 30 10000 5.1 270 19:18 25.05.2020
2629 Clouds 21 1032 24 10000 6.2 240 18:42 25.05.2020
2630 Clouds 21 1032 24 10000 6.2 240 18:21 25.05.2020
2631 Clouds 22 1032 24 10000 4.6 230 17:54 25.05.2020
2632 Clouds 22 1033 30 10000 4.1 230 17:36 25.05.2020
2633 Clear 22 1033 30 10000 4.1 230 17:18 25.05.2020
2634 Clear 22 1033 32 10000 2.6 0 16:41 25.05.2020
2635 Clear 22 1033 32 10000 2.6 0 16:22 25.05.2020
2636 Clear 22 1033 30 10000 3.6 220 15:58 25.05.2020
2637 Clear 22 1033 30 10000 3.6 220 15:58 25.05.2020
2638 Clear 21 1033 32 10000 4.1 240 15:40 25.05.2020
2639 Clear 21 1033 32 10000 4.1 240 15:18 25.05.2020
2640 Clear 20 1034 29 10000 4.1 240 14:43 25.05.2020
2641 Clear 19 1034 29 10000 4.1 240 14:24 25.05.2020
2642 Clear 20 1034 32 10000 4.6 240 13:57 25.05.2020
2643 Clear 21 1034 37 10000 3.6 210 13:37 25.05.2020
2644 Clear 20 1034 37 10000 3.6 210 13:19 25.05.2020
2645 Clear 19 1034 48 10000 4.1 220 12:40 25.05.2020
2646 Clear 16 1034 48 10000 4.1 220 12:21 25.05.2020
2647 Clear 17 1034 51 10000 2.6 210 11:58 25.05.2020
2648 Clear 17 1034 54 10000 2.1 180 11:38 25.05.2020
2649 Clear 15 1034 58 10000 2.1 160 11:18 25.05.2020
2650 Clear 14 1034 62 10000 2.6 190 10:43 25.05.2020
2651 Clear 13 1034 62 10000 2.6 190 10:21 25.05.2020
2652 Clear 12 1034 66 10000 2.1 200 09:57 25.05.2020
2653 Clear 12 1034 66 10000 2.1 200 09:57 25.05.2020
2654 Clear 11 1034 71 10000 2.6 180 09:38 25.05.2020
2655 Clear 11 1034 71 10000 2.6 180 09:19 25.05.2020
2656 Clear 10 1034 81 10000 1 0 08:44 25.05.2020
2657 Clear 10 1034 81 10000 1 0 08:25 25.05.2020
2658 Clear 9 1034 81 10000 1 0 07:59 25.05.2020
2659 Clear 9 1034 81 10000 1 0 07:59 25.05.2020
2660 Clear 8 1034 93 10000 0.5 140 07:41 25.05.2020
2661 Clear 7 1034 93 10000 0.5 140 07:20 25.05.2020
2662 Clear 6 1034 93 10000 1.5 120 06:46 25.05.2020
2663 Clear 7 1034 87 10000 1.5 0 06:27 25.05.2020
2664 Clear 8 1033 93 10000 1.5 140 03:40 25.05.2020
2665 Clear 8 1033 93 10000 1.5 140 03:22 25.05.2020
2666 Clear 9 1033 93 10000 1.5 110 02:44 25.05.2020
2667 Clouds 10 1033 93 10000 1 90 01:42 25.05.2020
2668 Clouds 10 1033 87 10000 1.5 140 00:58 25.05.2020
2669 Clouds 11 1033 87 10000 1 0 00:32 25.05.2020
2670 Clear 12 1033 81 10000 1 230 23:59 24.05.2020
2671 Clouds 13 1033 71 10000 1 0 23:39 24.05.2020
2672 Clouds 13 1033 71 10000 1 0 23:39 24.05.2020
2673 Clouds 13 1033 71 10000 1 0 23:21 24.05.2020
2674 Clear 13 1032 67 10000 1 0 22:58 24.05.2020
2675 Clouds 14 1032 62 10000 2.1 330 22:39 24.05.2020
2676 Clouds 15 1032 62 10000 2.1 330 22:18 24.05.2020
2677 Clouds 15 1032 62 10000 1 0 21:55 24.05.2020
2678 Clear 15 1032 59 10000 4.1 300 21:36 24.05.2020
2679 Clear 16 1032 59 10000 4.1 300 21:18 24.05.2020
2680 Clear 16 1032 59 10000 4.6 300 20:43 24.05.2020
2681 Clouds 17 1032 59 10000 4.6 300 20:21 24.05.2020
2682 Clouds 17 1032 59 10000 4.1 290 19:56 24.05.2020
2683 Clouds 17 1031 59 10000 6.2 300 19:38 24.05.2020
2684 Clouds 17 1031 63 10000 6.2 290 19:18 24.05.2020
2685 Clouds 17 1031 59 10000 6.2 300 18:42 24.05.2020
2686 Clouds 17 1031 59 10000 6.2 300 18:23 24.05.2020
2687 Clouds 17 1031 55 10000 6.7 310 17:58 24.05.2020
2688 Clouds 17 1031 55 10000 7.2 290 17:40 24.05.2020
2689 Clouds 17 1031 55 10000 7.2 290 17:21 24.05.2020
2690 Clouds 17 1031 59 10000 5.7 300 16:56 24.05.2020
2691 Clouds 15 1031 67 10000 6.2 300 16:37 24.05.2020
2692 Clouds 15 1031 67 10000 6.2 300 16:19 24.05.2020
2693 Clouds 14 1031 71 10000 5.1 290 15:55 24.05.2020
2694 Clouds 14 1031 76 10000 5.1 270 15:37 24.05.2020
2695 Clouds 14 1031 76 10000 5.1 270 15:18 24.05.2020
2696 Clouds 14 1030 71 10000 6.7 270 14:42 24.05.2020
2697 Clouds 14 1030 71 10000 6.7 270 14:22 24.05.2020
2698 Clouds 14 1030 71 10000 7.7 280 13:56 24.05.2020
2699 Clouds 14 1029 71 10000 7.7 270 13:38 24.05.2020
2700 Clouds 13 1029 71 10000 7.7 270 13:20 24.05.2020
2701 Clouds 13 1029 71 10000 8.2 260 12:57 24.05.2020
2702 Clouds 13 1028 71 10000 10.3 260 12:38 24.05.2020
2703 Clouds 13 1028 71 10000 10.3 260 12:19 24.05.2020
2704 Clouds 13 1028 76 10000 9.3 270 11:55 24.05.2020
2705 Clouds 13 1028 76 10000 8.2 260 11:37 24.05.2020
2706 Clouds 13 1028 76 10000 8.2 260 11:19 24.05.2020
2707 Clouds 13 1028 76 10000 8.2 260 11:19 24.05.2020
2708 Clouds 13 1027 76 10000 8.2 260 10:43 24.05.2020
2709 Clouds 13 1027 76 10000 8.2 260 10:23 24.05.2020
2710 Rain 13 1027 76 10000 8.7 260 09:58 24.05.2020
2711 Clouds 13 1026 76 10000 8.2 260 09:40 24.05.2020
2712 Clouds 13 1026 76 10000 8.2 260 09:18 24.05.2020
2713 Clouds 13 1025 76 10000 8.2 260 08:42 24.05.2020
2714 Clouds 13 1025 76 10000 8.2 260 08:24 24.05.2020
2715 Clouds 13 1025 76 10000 7.7 260 07:59 24.05.2020
2716 Clouds 13 1025 76 10000 9.3 260 07:40 24.05.2020
2717 Clouds 13 1025 76 10000 9.3 260 07:21 24.05.2020
2718 Clouds 13 1024 76 10000 8.2 260 06:45 24.05.2020
2719 Clouds 13 1024 76 10000 8.7 260 05:50 24.05.2020
2720 Clouds 13 1023 71 10000 4.1 230 03:58 24.05.2020
2721 Clouds 13 1023 76 10000 5.1 230 03:39 24.05.2020
2722 Clouds 13 1022 66 10000 5.7 240 02:26 24.05.2020
2723 Clouds 12 1022 66 10000 5.7 240 01:21 24.05.2020
2724 Clouds 12 1022 66 10000 5.1 240 00:38 24.05.2020
2725 Clouds 12 1022 66 10000 5.1 240 00:20 24.05.2020
2726 Clouds 13 1022 66 10000 4.6 230 23:40 23.05.2020
2727 Clouds 12 1022 66 10000 4.6 230 23:20 23.05.2020
2728 Clouds 12 1021 62 10000 4.6 230 22:56 23.05.2020
2729 Clouds 13 1021 54 10000 5.7 250 22:37 23.05.2020
2730 Clouds 13 1021 54 10000 5.7 250 22:19 23.05.2020
2731 Clouds 13 1021 50 10000 7.2 250 21:56 23.05.2020
2732 Clouds 13 1021 44 10000 10.8 260 21:37 23.05.2020
2733 Clouds 14 1021 44 10000 10.8 260 21:18 23.05.2020
2734 Clouds 14 1020 44 10000 9.8 260 20:41 23.05.2020
2735 Clouds 14 1020 44 10000 9.8 260 20:20 23.05.2020
2736 Clouds 14 1019 51 10000 10.3 250 19:59 23.05.2020
2737 Clouds 15 1019 51 10000 8.2 250 19:40 23.05.2020
2738 Clouds 15 1019 51 10000 8.2 250 19:19 23.05.2020
2739 Clouds 15 1019 51 10000 8.2 250 19:19 23.05.2020
2740 Clouds 15 1019 51 10000 10.8 250 18:42 23.05.2020
2741 Clouds 15 1019 51 10000 10.8 250 18:23 23.05.2020
2742 Clouds 15 1018 51 10000 10.3 230 17:58 23.05.2020
2743 Clouds 15 1018 51 10000 11.3 230 17:40 23.05.2020
2744 Clouds 15 1018 51 10000 11.3 230 17:21 23.05.2020
2745 Clouds 16 1018 44 10000 10.3 250 16:59 23.05.2020
2746 Clouds 15 1018 47 10000 10.8 250 16:41 23.05.2020
2747 Clouds 15 1018 47 10000 10.8 250 16:41 23.05.2020
2748 Clouds 15 1018 47 10000 10.8 250 16:20 23.05.2020
2749 Clouds 15 1017 50 10000 10.3 240 15:57 23.05.2020
2750 Clouds 15 1017 50 10000 10.3 240 15:57 23.05.2020
2751 Clouds 16 1017 48 10000 10.8 230 15:39 23.05.2020
2752 Clouds 16 1017 48 10000 10.8 230 15:20 23.05.2020
2753 Rain 15 1016 47 10000 10.8 240 14:42 23.05.2020
2754 Rain 14 1016 47 10000 10.8 240 14:23 23.05.2020
2755 Rain 14 1016 44 10000 11.3 240 13:55 23.05.2020
2756 Clouds 15 1016 47 10000 12.3 250 13:37 23.05.2020
2757 Clouds 15 1016 44 10000 10.8 250 13:18 23.05.2020
2758 Clouds 15 1015 47 10000 12.3 230 12:41 23.05.2020
2759 Clouds 15 1015 47 10000 12.3 230 12:19 23.05.2020
2760 Clouds 15 1015 50 10000 11.3 240 11:57 23.05.2020
2761 Clouds 14 1015 50 10000 10.8 240 11:37 23.05.2020
2762 Clouds 14 1015 50 10000 10.8 240 11:18 23.05.2020
2763 Clouds 14 1015 50 10000 10.8 240 10:54 23.05.2020
2764 Clouds 13 1015 58 10000 7.7 230 10:36 23.05.2020
2765 Clouds 13 1015 58 10000 7.7 230 10:18 23.05.2020
2766 Rain 12 1015 71 10000 5.1 220 09:41 23.05.2020
2767 Rain 12 1015 71 10000 5.1 220 09:23 23.05.2020
2768 Clouds 12 1014 71 10000 5.1 210 08:56 23.05.2020
2769 Clouds 12 1014 71 10000 4.1 210 08:37 23.05.2020
2770 Clouds 11 1014 76 10000 4.1 210 08:18 23.05.2020
2771 Rain 10 1014 76 10000 3.6 200 07:41 23.05.2020
2772 Rain 10 1014 76 10000 3.6 200 07:21 23.05.2020
2773 Clouds 10 1014 76 10000 4.6 220 06:42 23.05.2020
2774 Clouds 10 1014 76 10000 5.1 220 05:51 23.05.2020
2775 Clouds 11 1014 71 10000 4.1 210 03:52 23.05.2020
2776 Clouds 11 1014 71 10000 4.1 210 03:21 23.05.2020
2777 Clouds 11 1014 71 10000 4.6 210 02:24 23.05.2020
2778 Clouds 12 1013 66 10000 5.7 210 01:27 23.05.2020
2779 Clouds 12 1013 62 10000 5.7 210 00:49 23.05.2020
2780 Clouds 12 1013 62 10000 5.7 210 00:30 23.05.2020
2781 Clouds 12 1013 62 10000 6.2 210 23:59 22.05.2020
2782 Clouds 12 1013 62 10000 6.2 210 23:40 22.05.2020
2783 Clouds 13 1013 62 10000 6.2 210 23:20 22.05.2020
2784 Clouds 13 1013 58 10000 7.2 220 22:56 22.05.2020
2785 Clouds 13 1013 54 10000 6.2 210 22:38 22.05.2020
2786 Clouds 14 1012 50 10000 7.7 220 22:18 22.05.2020
2787 Clouds 14 1012 50 10000 6.7 220 21:44 22.05.2020
2788 Clouds 14 1012 50 10000 6.7 220 21:21 22.05.2020
2789 Clouds 15 1012 47 10000 9.8 230 20:54 22.05.2020
2790 Clouds 15 1011 44 10000 9.8 220 20:36 22.05.2020
2791 Clouds 16 1011 44 10000 9.8 220 20:18 22.05.2020
2792 Clouds 16 1011 41 10000 10.3 230 19:41 22.05.2020
2793 Clouds 16 1011 41 10000 10.3 230 19:41 22.05.2020
2794 Clouds 16 1011 41 10000 10.3 230 19:23 22.05.2020
2795 Clouds 17 1011 39 10000 11.3 230 18:40 22.05.2020
2796 Clouds 17 1011 39 10000 11.3 230 18:40 22.05.2020
2797 Clouds 17 1011 39 10000 11.3 230 18:21 22.05.2020
2798 Clouds 17 1011 41 10000 11.3 220 17:59 22.05.2020
2799 Clouds 17 1011 39 10000 11.3 230 17:38 22.05.2020
2800 Clouds 18 1011 39 10000 11.3 230 17:18 22.05.2020
2801 Clouds 18 1010 42 10000 11.8 230 16:45 22.05.2020
2802 Clouds 18 1010 42 10000 11.8 230 16:21 22.05.2020
2803 Clouds 18 1010 36 10000 10.8 220 15:59 22.05.2020
2804 Clouds 18 1010 36 10000 10.3 220 15:41 22.05.2020
2805 Clouds 18 1010 36 10000 10.3 220 15:20 22.05.2020
2806 Clouds 18 1010 42 10000 12.3 230 14:44 22.05.2020
2807 Clouds 18 1010 42 10000 12.3 230 14:24 22.05.2020
2808 Clouds 17 1010 42 10000 11.3 230 13:46 22.05.2020
2809 Clouds 17 1010 42 10000 10.3 220 13:21 22.05.2020
2810 Clouds 17 1009 42 10000 10.8 220 12:55 22.05.2020
2811 Clouds 17 1009 48 10000 9.8 220 12:37 22.05.2020
2812 Clouds 16 1009 48 10000 9.8 220 12:19 22.05.2020
2813 Rain 16 1009 54 10000 6.2 220 11:44 22.05.2020
2814 Rain 15 1009 54 10000 6.2 220 11:21 22.05.2020
2815 Clouds 15 1009 58 10000 6.7 220 10:55 22.05.2020
2816 Clouds 15 1009 62 10000 8.2 220 10:37 22.05.2020
2817 Clouds 15 1009 62 10000 8.2 220 10:37 22.05.2020
2818 Clouds 14 1009 62 10000 8.2 220 10:18 22.05.2020
2819 Clouds 14 1008 71 10000 6.7 210 09:42 22.05.2020
2820 Clouds 14 1008 71 10000 6.7 210 09:19 22.05.2020
2821 Clouds 14 1008 82 10000 5.7 210 08:44 22.05.2020
2822 Clouds 14 1008 82 10000 5.7 210 08:44 22.05.2020
2823 Rain 13 1008 82 10000 5.7 210 08:21 22.05.2020
2824 Rain 13 1008 82 10000 5.7 210 08:21 22.05.2020
2825 Rain 13 1007 87 10000 5.7 210 07:57 22.05.2020
2826 Rain 14 1007 82 10000 4.6 180 07:27 22.05.2020
2827 Rain 13 1006 93 10000 3.1 0 06:58 22.05.2020
2828 Rain 13 1007 87 10000 2.6 150 06:40 22.05.2020
2829 Rain 14 1008 72 10000 5.7 210 05:40 22.05.2020
2830 Rain 17 1008 59 10000 2.6 0 04:51 22.05.2020
2831 Rain 17 1008 55 10000 2.1 0 04:32 22.05.2020
2832 Rain 17 1009 52 10000 3.6 130 03:48 22.05.2020
2833 Rain 18 1009 48 10000 3.1 120 02:59 22.05.2020
2834 Rain 19 1011 42 10000 3.6 130 01:57 22.05.2020
2835 Clouds 19 1012 45 10000 3.1 130 01:28 22.05.2020
2836 Clouds 18 1013 45 10000 2.6 0 00:49 22.05.2020
2837 Clouds 18 1014 52 10000 1.5 0 00:28 22.05.2020
2838 Clouds 18 1014 52 10000 1.5 0 23:45 21.05.2020
2839 Clouds 18 1015 52 10000 1.5 0 23:25 21.05.2020
2840 Clouds 18 1015 48 10000 1 0 22:58 21.05.2020
2841 Clouds 18 1015 48 10000 1 0 22:58 21.05.2020
2842 Clouds 18 1015 48 10000 2.1 90 22:40 21.05.2020
2843 Clouds 18 1015 48 10000 2.1 90 22:40 21.05.2020
2844 Clouds 19 1015 48 10000 2.1 90 22:21 21.05.2020
2845 Clouds 19 1016 45 10000 2.6 90 21:59 21.05.2020
2846 Clouds 19 1016 45 10000 2.1 90 21:40 21.05.2020
2847 Clouds 19 1016 45 10000 2.1 90 21:22 21.05.2020
2848 Clouds 20 1017 48 10000 2.1 90 20:45 21.05.2020
2849 Clouds 20 1017 48 10000 2.1 90 20:22 21.05.2020
2850 Clouds 20 1017 42 10000 1.5 0 19:55 21.05.2020
2851 Clouds 20 1018 42 10000 1.5 0 19:36 21.05.2020
2852 Clouds 20 1018 42 10000 1.5 0 19:18 21.05.2020
2853 Clouds 20 1019 42 10000 1 0 18:39 21.05.2020
2854 Clouds 20 1019 42 10000 1 0 18:19 21.05.2020
2855 Clouds 20 1019 45 10000 2.1 210 17:58 21.05.2020
2856 Clouds 20 1019 48 10000 1.5 0 17:39 21.05.2020
2857 Clouds 20 1019 48 10000 1.5 0 17:21 21.05.2020
2858 Clouds 19 1020 48 10000 2.6 260 16:46 21.05.2020
2859 Clouds 20 1020 48 10000 2.6 260 16:24 21.05.2020
2860 Clouds 20 1020 48 10000 3.1 290 15:47 21.05.2020
2861 Clouds 19 1020 52 10000 3.6 280 15:24 21.05.2020
2862 Clouds 19 1021 55 10000 4.6 270 14:56 21.05.2020
2863 Clouds 18 1021 59 10000 5.1 310 14:37 21.05.2020
2864 Clouds 18 1021 59 10000 5.1 310 14:18 21.05.2020
2865 Clouds 18 1020 59 10000 4.6 270 13:40 21.05.2020
2866 Clouds 18 1020 59 10000 4.6 270 13:22 21.05.2020
2867 Clouds 18 1020 63 10000 4.1 280 12:55 21.05.2020
2868 Clouds 18 1020 63 10000 5.1 290 12:36 21.05.2020
2869 Clouds 16 1020 63 10000 5.1 290 12:18 21.05.2020
2870 Clouds 16 1020 67 10000 4.1 240 11:41 21.05.2020
2871 Clouds 16 1020 67 10000 4.1 240 11:23 21.05.2020
2872 Clouds 16 1020 72 10000 2.6 210 10:55 21.05.2020
2873 Clouds 15 1019 76 10000 2.1 200 10:37 21.05.2020
2874 Clouds 15 1019 76 10000 2.1 200 10:18 21.05.2020
2875 Clouds 14 1018 76 10000 1 0 09:42 21.05.2020
2876 Clouds 13 1018 76 10000 1 0 09:24 21.05.2020
2877 Rain 13 1018 76 10000 2.6 230 08:58 21.05.2020
2878 Clouds 13 1018 71 10000 2.6 230 08:40 21.05.2020
2879 Clouds 13 1018 71 10000 2.6 230 08:22 21.05.2020
2880 Clouds 13 1018 71 10000 1.5 0 07:43 21.05.2020
2881 Clouds 13 1018 71 10000 1.5 0 07:24 21.05.2020
2882 Clouds 11 1018 76 10000 2.1 190 06:45 21.05.2020
2883 Clouds 11 1017 76 10000 2.1 190 05:52 21.05.2020
2884 Clear 12 1017 76 10000 1.5 0 04:53 21.05.2020
2885 Clear 12 1018 93 10000 2.6 180 03:21 21.05.2020
2886 Clear 12 1018 93 10000 2.6 180 03:21 21.05.2020
2887 Clear 13 1018 93 10000 1.5 140 02:33 21.05.2020
2888 Clear 14 1018 93 10000 0.5 0 01:58 21.05.2020
2889 Clear 15 1018 87 10000 1 130 01:39 21.05.2020
2890 Clear 15 1018 87 10000 1 130 01:18 21.05.2020
2891 Clear 16 1018 77 10000 0.5 0 00:41 21.05.2020
2892 Clear 16 1018 77 10000 0.5 0 00:19 21.05.2020
2893 Clear 17 1018 67 10000 0.5 0 23:40 20.05.2020
2894 Clear 17 1018 67 10000 0.5 0 23:19 20.05.2020
2895 Clear 18 1018 63 10000 2.1 250 22:55 20.05.2020
2896 Clear 19 1018 63 10000 2.1 250 22:55 20.05.2020
2897 Clear 19 1018 60 10000 1 0 22:36 20.05.2020
2898 Clear 20 1018 60 10000 1 0 22:18 20.05.2020
2899 Clear 22 1017 44 10000 2.6 190 21:39 20.05.2020
2900 Clear 23 1017 44 10000 2.6 190 21:20 20.05.2020
2901 Clear 24 1017 36 10000 2.6 200 20:44 20.05.2020
2902 Clear 24 1017 36 10000 2.6 200 20:44 20.05.2020
2903 Clear 24 1017 36 10000 2.6 200 20:24 20.05.2020
2904 Clear 25 1018 36 10000 3.1 190 19:44 20.05.2020
2905 Clear 25 1018 36 10000 3.1 190 19:25 20.05.2020
2906 Clear 25 1018 33 10000 3.1 190 18:59 20.05.2020
2907 Clear 25 1018 33 10000 3.1 200 18:41 20.05.2020
2908 Clear 25 1018 33 10000 3.1 200 18:21 20.05.2020
2909 Clear 25 1019 27 10000 3.6 200 17:40 20.05.2020
2910 Clear 26 1019 27 10000 3.6 200 17:22 20.05.2020
2911 Clear 25 1019 31 10000 3.6 210 16:55 20.05.2020
2912 Clear 25 1019 33 10000 3.6 210 16:37 20.05.2020
2913 Clear 25 1019 33 10000 3.6 210 16:18 20.05.2020
2914 Clear 24 1019 41 10000 4.1 220 15:42 20.05.2020
2915 Clear 24 1019 41 10000 4.1 220 15:23 20.05.2020
2916 Clear 23 1020 46 10000 3.1 190 14:44 20.05.2020
2917 Clouds 23 1020 46 10000 3.1 190 14:22 20.05.2020
2918 Clouds 23 1020 46 10000 3.1 200 13:55 20.05.2020
2919 Clouds 22 1020 56 10000 2.6 170 13:36 20.05.2020
2920 Clouds 22 1020 56 10000 2.6 170 13:18 20.05.2020
2921 Clouds 22 1021 68 10000 2.1 160 12:41 20.05.2020
2922 Clouds 20 1021 68 10000 2.1 160 12:20 20.05.2020
2923 Clouds 19 1021 77 10000 1.5 0 11:37 20.05.2020
2924 Clouds 18 1021 77 10000 1.5 0 11:19 20.05.2020
2925 Clouds 16 1022 77 10000 1 0 10:44 20.05.2020
2926 Clouds 16 1022 77 10000 1 0 10:22 20.05.2020
2927 Clouds 14 1022 87 10000 1 0 09:46 20.05.2020
2928 Clouds 14 1022 93 10000 1 0 09:23 20.05.2020
2929 Clouds 13 1022 93 10000 1 0 08:59 20.05.2020
2930 Clouds 12 1022 100 9000 1 0 08:41 20.05.2020
2931 Clouds 11 1022 100 9000 1 0 08:19 20.05.2020
2932 Clouds 10 1022 100 6000 0.5 0 07:49 20.05.2020
2933 Mist 9 1022 93 4700 1 150 07:22 20.05.2020
2934 Fog 9 1022 100 200 0.5 0 06:45 20.05.2020
2935 Fog 10 1022 100 400 0.5 0 05:39 20.05.2020
2936 Fog 10 1022 93 300 0.5 0 04:34 20.05.2020
2937 Clouds 11 1023 100 6000 0.5 130 03:53 20.05.2020
2938 Clouds 12 1023 93 10000 1 0 02:32 20.05.2020
2939 Clouds 13 1023 87 10000 2.1 310 01:31 20.05.2020
2940 Clouds 13 1023 87 10000 1.5 330 00:45 20.05.2020
2941 Clouds 13 1023 82 10000 1.5 340 00:24 20.05.2020
2942 Clouds 14 1023 82 10000 1 290 23:45 19.05.2020
2943 Clouds 14 1023 77 10000 1.5 0 23:20 19.05.2020
2944 Clouds 15 1023 72 10000 1.5 330 22:56 19.05.2020
2945 Clouds 16 1023 77 10000 2.1 330 22:38 19.05.2020
2946 Clouds 16 1023 77 10000 2.1 330 22:20 19.05.2020
2947 Clouds 16 1022 72 10000 2.6 340 21:58 19.05.2020
2948 Clouds 17 1022 68 10000 3.1 340 21:38 19.05.2020
2949 Clouds 17 1022 68 10000 3.1 340 21:20 19.05.2020
2950 Clouds 18 1022 68 10000 3.1 310 20:57 19.05.2020
2951 Clouds 18 1023 63 10000 4.1 310 20:39 19.05.2020
2952 Clouds 18 1023 63 10000 4.1 310 20:21 19.05.2020
2953 Clouds 18 1023 63 10000 4.1 310 20:21 19.05.2020
2954 Clouds 19 1023 63 10000 3.6 320 19:55 19.05.2020
2955 Clouds 19 1023 63 10000 4.1 330 19:37 19.05.2020
2956 Clouds 19 1023 63 10000 4.1 330 19:18 19.05.2020
2957 Clouds 18 1022 63 10000 4.6 320 18:42 19.05.2020
2958 Clouds 19 1022 63 10000 4.6 320 18:20 19.05.2020
2959 Clouds 19 1022 63 10000 3.6 280 17:43 19.05.2020
2960 Clouds 18 1022 63 10000 3.6 280 17:21 19.05.2020
2961 Clouds 19 1022 60 10000 3.6 300 16:59 19.05.2020
2962 Clouds 19 1022 63 10000 4.1 320 16:38 19.05.2020
2963 Clouds 19 1022 63 10000 4.1 290 16:20 19.05.2020
2964 Clouds 18 1022 63 10000 4.1 290 15:47 19.05.2020
2965 Clouds 18 1022 63 10000 3.6 280 15:23 19.05.2020
2966 Clouds 17 1023 72 10000 3.6 270 14:58 19.05.2020
2967 Clouds 16 1023 72 10000 4.6 270 14:40 19.05.2020
2968 Clouds 17 1023 72 10000 4.6 270 14:21 19.05.2020
2969 Clouds 17 1023 72 10000 4.1 280 13:58 19.05.2020
2970 Clouds 16 1023 72 10000 3.1 280 13:39 19.05.2020
2971 Clouds 16 1023 72 10000 3.1 280 13:20 19.05.2020
2972 Clouds 16 1023 72 10000 3.6 260 12:57 19.05.2020
2973 Clouds 16 1023 72 10000 4.1 250 12:38 19.05.2020
2974 Clouds 15 1023 72 10000 4.1 250 12:20 19.05.2020
2975 Clouds 15 1022 72 10000 3.6 230 11:54 19.05.2020
2976 Clouds 15 1022 72 10000 3.1 230 11:36 19.05.2020
2977 Clouds 15 1022 72 10000 3.1 230 11:36 19.05.2020
2978 Clouds 15 1022 72 10000 3.1 230 11:18 19.05.2020
2979 Clouds 14 1022 76 10000 2.1 220 10:42 19.05.2020
2980 Clouds 14 1022 76 10000 2.1 220 10:23 19.05.2020
2981 Clouds 14 1022 82 10000 2.1 200 09:47 19.05.2020
2982 Clouds 13 1022 87 10000 2.1 190 09:25 19.05.2020
2983 Rain 13 1022 87 10000 1.5 0 08:59 19.05.2020
2984 Rain 13 1021 87 10000 2.1 180 08:41 19.05.2020
2985 Rain 13 1021 87 10000 2.1 180 08:23 19.05.2020
2986 Clouds 13 1021 87 10000 1.5 0 07:42 19.05.2020
2987 Clouds 13 1021 87 10000 1.5 0 07:42 19.05.2020
2988 Clouds 13 1021 87 10000 1.5 0 07:24 19.05.2020
2989 Clouds 13 1021 87 10000 1.5 0 06:41 19.05.2020
2990 Clouds 13 1021 87 10000 1.5 0 06:22 19.05.2020
2991 Clouds 13 1021 93 10000 2.1 190 05:39 19.05.2020
2992 Clouds 13 1021 82 10000 2.1 190 04:54 19.05.2020
2993 Clouds 13 1022 87 10000 3.1 220 02:59 19.05.2020
2994 Clouds 13 1022 87 10000 3.1 210 01:21 19.05.2020
2995 Clouds 14 1022 82 10000 2.6 210 00:41 19.05.2020
2996 Clouds 14 1022 82 10000 2.6 210 00:19 19.05.2020
2997 Clouds 14 1022 76 10000 2.6 210 23:40 18.05.2020
2998 Clouds 14 1022 76 10000 2.6 210 23:20 18.05.2020
2999 Clouds 14 1022 76 10000 3.6 210 22:57 18.05.2020
3000 Clouds 14 1022 72 10000 2.1 200 22:39 18.05.2020
3001 Clouds 15 1022 72 10000 3.1 220 22:20 18.05.2020
3002 Clouds 15 1022 72 10000 5.1 230 21:42 18.05.2020
3003 Clouds 15 1022 72 10000 5.1 230 21:22 18.05.2020
3004 Clouds 15 1022 72 10000 6.2 230 20:57 18.05.2020
3005 Clouds 15 1022 72 10000 6.7 240 20:38 18.05.2020
3006 Clouds 15 1022 72 10000 6.2 240 20:20 18.05.2020
3007 Clouds 15 1022 72 10000 6.2 240 19:55 18.05.2020
3008 Clouds 15 1022 72 10000 7.2 230 19:37 18.05.2020
3009 Clouds 15 1022 72 10000 7.2 230 19:18 18.05.2020
3010 Clouds 15 1022 67 10000 7.2 250 18:43 18.05.2020
3011 Clouds 15 1022 67 10000 7.2 250 18:21 18.05.2020
3012 Clouds 16 1022 63 10000 5.7 250 17:39 18.05.2020
3013 Clouds 16 1022 63 10000 5.7 250 17:39 18.05.2020
3014 Clouds 16 1022 63 10000 5.7 250 17:18 18.05.2020
3015 Clouds 16 1022 67 10000 6.7 240 16:56 18.05.2020
3016 Clouds 16 1022 63 10000 4.1 220 16:37 18.05.2020
3017 Clouds 16 1022 63 10000 4.1 220 16:18 18.05.2020
3018 Clouds 16 1022 63 10000 6.7 240 15:54 18.05.2020
3019 Clouds 16 1022 63 10000 6.2 230 15:36 18.05.2020
3020 Clouds 15 1022 63 10000 6.2 230 15:18 18.05.2020
3021 Clouds 15 1022 63 10000 5.7 230 14:41 18.05.2020
3022 Clouds 16 1022 63 10000 5.7 230 14:23 18.05.2020
3023 Clouds 16 1022 55 10000 6.2 250 13:54 18.05.2020
3024 Clouds 15 1022 59 10000 5.7 240 13:36 18.05.2020
3025 Clouds 16 1022 59 10000 5.7 240 13:18 18.05.2020
3026 Clouds 16 1022 62 10000 4.1 220 12:55 18.05.2020
3027 Clouds 15 1022 62 10000 2.6 210 12:37 18.05.2020
3028 Clouds 15 1022 62 10000 2.6 210 12:18 18.05.2020
3029 Clouds 14 1022 67 10000 3.6 220 11:46 18.05.2020
3030 Clouds 14 1022 62 10000 2.6 200 11:26 18.05.2020
3031 Clouds 13 1022 66 10000 3.1 210 10:47 18.05.2020
3032 Clouds 13 1022 71 10000 2.6 200 10:28 18.05.2020
3033 Clouds 12 1022 71 10000 2.6 210 09:57 18.05.2020
3034 Clouds 12 1021 71 10000 1.5 0 09:39 18.05.2020
3035 Clouds 12 1021 71 10000 1.5 0 09:20 18.05.2020
3036 Clouds 11 1022 81 10000 1.5 0 08:42 18.05.2020
3037 Clouds 11 1022 81 10000 1.5 0 08:23 18.05.2020
3038 Clouds 10 1021 87 10000 2.1 180 07:50 18.05.2020
3039 Clouds 9 1021 87 10000 1 0 07:26 18.05.2020
3040 Clouds 9 1021 87 10000 2.1 180 06:48 18.05.2020
3041 Clouds 10 1021 87 10000 3.1 190 06:25 18.05.2020
3042 Clouds 10 1021 81 10000 2.6 180 05:46 18.05.2020
3043 Clouds 10 1021 87 10000 2.1 180 04:26 18.05.2020
3044 Clouds 10 1021 87 10000 2.1 180 03:30 18.05.2020
3045 Clouds 11 1022 87 10000 2.1 210 01:57 18.05.2020
3046 Clouds 12 1022 76 10000 4.1 230 00:50 18.05.2020
3047 Clouds 13 1022 71 10000 5.7 250 00:19 18.05.2020
3048 Clouds 13 1022 71 10000 3.1 220 23:56 17.05.2020
3049 Clouds 13 1022 71 10000 3.6 240 23:38 17.05.2020
3050 Clouds 14 1022 71 10000 3.6 240 23:19 17.05.2020
3051 Clouds 14 1022 67 10000 4.1 230 22:54 17.05.2020
3052 Clouds 14 1021 67 10000 4.1 230 22:36 17.05.2020
3053 Clouds 14 1021 67 10000 4.1 230 22:18 17.05.2020
3054 Clouds 15 1021 62 10000 4.6 250 21:41 17.05.2020
3055 Clouds 15 1021 62 10000 4.6 250 21:20 17.05.2020
3056 Clouds 15 1021 62 10000 5.1 250 20:56 17.05.2020
3057 Clouds 16 1021 59 10000 5.1 260 20:38 17.05.2020
3058 Clouds 16 1021 59 10000 5.1 260 20:19 17.05.2020
3059 Clouds 16 1021 55 10000 5.7 250 19:47 17.05.2020
3060 Clouds 17 1021 55 10000 5.7 250 19:28 17.05.2020
3061 Clouds 17 1021 51 10000 5.1 270 18:57 17.05.2020
3062 Clouds 17 1022 51 10000 5.1 260 18:38 17.05.2020
3063 Clouds 17 1022 51 10000 5.1 260 18:20 17.05.2020
3064 Clouds 17 1022 55 10000 4.6 260 17:41 17.05.2020
3065 Clouds 17 1022 55 10000 4.6 260 17:23 17.05.2020
3066 Clouds 17 1022 55 10000 4.1 270 16:57 17.05.2020
3067 Clouds 17 1022 55 10000 5.7 290 16:39 17.05.2020
3068 Clouds 17 1022 55 10000 5.7 290 16:39 17.05.2020
3069 Clouds 16 1022 55 10000 5.7 290 16:20 17.05.2020
3070 Clouds 16 1022 55 10000 4.6 260 15:46 17.05.2020
3071 Clouds 15 1022 58 10000 5.1 240 15:24 17.05.2020
3072 Clouds 15 1022 58 10000 5.1 250 14:58 17.05.2020
3073 Clouds 15 1023 58 10000 3.6 260 14:39 17.05.2020
3074 Clouds 15 1023 58 10000 3.6 260 14:19 17.05.2020
3075 Clouds 14 1023 62 10000 3.6 240 13:41 17.05.2020
3076 Clouds 14 1023 62 10000 3.6 240 13:20 17.05.2020
3077 Clouds 10 1023 81 10000 1.5 0 05:22 17.05.2020
3078 Clouds 10 1023 76 10000 2.1 180 03:31 17.05.2020
3079 Clouds 10 1023 81 10000 1.5 160 02:26 17.05.2020
3080 Clouds 10 1024 81 10000 1.5 150 01:54 17.05.2020
3081 Clouds 11 1024 71 10000 1 240 00:48 17.05.2020
3082 Clouds 11 1024 66 10000 0.5 0 00:30 17.05.2020
3083 Clouds 11 1024 62 10000 2.6 280 23:42 16.05.2020
3084 Clouds 11 1024 62 10000 2.6 280 23:24 16.05.2020
3085 Clouds 12 1023 58 10000 1.5 290 22:59 16.05.2020
3086 Clouds 12 1023 54 10000 2.6 300 22:41 16.05.2020
3087 Clouds 12 1023 54 10000 2.6 300 22:22 16.05.2020
3088 Clouds 12 1023 50 10000 3.1 300 21:56 16.05.2020
3089 Clouds 12 1023 46 10000 4.1 300 21:37 16.05.2020
3090 Clouds 12 1023 46 10000 4.1 300 21:19 16.05.2020
3091 Clouds 13 1023 43 10000 5.1 300 20:55 16.05.2020
3092 Clouds 13 1023 47 10000 4.6 290 20:36 16.05.2020
3093 Clouds 13 1023 47 10000 4.6 290 20:18 16.05.2020
3094 Clouds 14 1023 41 10000 5.7 290 19:41 16.05.2020
3095 Clouds 14 1023 41 10000 5.7 290 19:23 16.05.2020
3096 Clouds 14 1023 44 10000 5.7 290 18:57 16.05.2020
3097 Clouds 14 1023 47 10000 5.7 280 18:37 16.05.2020
3098 Clouds 14 1023 47 10000 5.7 280 18:18 16.05.2020
3099 Clouds 14 1023 47 10000 5.7 290 17:41 16.05.2020
3100 Clouds 14 1023 47 10000 5.7 290 17:21 16.05.2020
3101 Clouds 15 1024 44 10000 6.2 280 16:44 16.05.2020
3102 Clouds 14 1024 44 10000 6.2 280 16:25 16.05.2020
3103 Clouds 14 1024 47 10000 6.2 290 15:59 16.05.2020
3104 Clouds 15 1024 41 10000 7.2 280 15:41 16.05.2020
3105 Clouds 15 1024 41 10000 7.2 280 15:21 16.05.2020
3106 Clouds 14 1024 50 10000 7.2 280 14:56 16.05.2020
3107 Clouds 14 1024 50 10000 5.7 280 14:37 16.05.2020
3108 Clouds 14 1024 50 10000 5.7 280 14:37 16.05.2020
3109 Clouds 14 1024 50 10000 5.7 280 14:19 16.05.2020
3110 Clouds 13 1024 58 10000 4.6 300 13:42 16.05.2020
3111 Clouds 13 1024 58 10000 4.6 300 13:23 16.05.2020
3112 Clouds 12 1024 62 10000 5.1 270 12:57 16.05.2020
3113 Clouds 12 1024 62 10000 4.6 280 12:39 16.05.2020
3114 Clouds 12 1024 58 10000 5.1 290 12:18 16.05.2020
3115 Clouds 12 1024 66 10000 4.1 260 11:41 16.05.2020
3116 Clouds 12 1024 66 10000 4.1 260 11:41 16.05.2020
3117 Clouds 11 1024 66 10000 4.1 260 11:22 16.05.2020
3118 Clouds 11 1024 71 10000 3.1 270 10:57 16.05.2020
3119 Clouds 11 1024 76 10000 2.1 230 10:38 16.05.2020
3120 Clouds 11 1024 76 10000 2.1 230 10:19 16.05.2020
3121 Clouds 10 1024 81 10000 1.5 0 09:45 16.05.2020
3122 Clouds 10 1024 87 10000 1.5 0 09:27 16.05.2020
3123 Clouds 9 1024 93 10000 1 0 08:46 16.05.2020
3124 Clouds 8 1024 87 10000 1 0 08:23 16.05.2020
3125 Clouds 8 1024 87 10000 1 0 08:23 16.05.2020
3126 Clouds 8 1024 87 10000 1.5 170 07:56 16.05.2020
3127 Clouds 8 1024 93 10000 1 180 07:38 16.05.2020
3128 Clouds 7 1024 93 10000 2.1 170 07:19 16.05.2020
3129 Clouds 7 1024 93 10000 2.1 170 06:45 16.05.2020
3130 Clouds 6 1024 93 10000 1.5 0 06:19 16.05.2020
3131 Clouds 6 1024 100 10000 1.5 170 05:41 16.05.2020
3132 Clouds 6 1024 93 10000 1.5 160 04:51 16.05.2020
3133 Clouds 6 1024 93 10000 1.5 160 03:25 16.05.2020
3134 Clouds 6 1025 93 10000 1 0 02:38 16.05.2020
3135 Clouds 6 1025 93 10000 0.5 0 01:56 16.05.2020
3136 Clouds 6 1025 93 10000 1.5 200 01:35 16.05.2020
3137 Clouds 7 1025 93 10000 1 220 00:55 16.05.2020
3138 Clouds 8 1025 87 10000 2.1 240 00:37 16.05.2020
3139 Clouds 8 1025 87 10000 2.1 240 00:18 16.05.2020
3140 Clouds 9 1025 81 10000 2.6 270 23:37 15.05.2020
3141 Clouds 9 1025 81 10000 2.6 270 23:18 15.05.2020
3142 Clouds 10 1025 71 10000 4.6 300 22:40 15.05.2020
3143 Clouds 10 1025 71 10000 4.6 300 22:20 15.05.2020
3144 Clouds 11 1025 62 10000 5.1 300 21:55 15.05.2020
3145 Clouds 11 1025 62 10000 5.1 300 21:55 15.05.2020
3146 Clouds 11 1025 62 10000 6.2 290 21:36 15.05.2020
3147 Clouds 11 1025 57 10000 5.1 300 21:18 15.05.2020
3148 Clouds 11 1025 57 10000 5.1 300 20:43 15.05.2020
3149 Clouds 11 1025 57 10000 5.1 300 20:25 15.05.2020
3150 Clouds 12 1025 57 10000 4.6 290 19:59 15.05.2020
3151 Clouds 12 1025 57 10000 5.7 290 19:40 15.05.2020
3152 Clouds 12 1025 57 10000 5.7 290 19:22 15.05.2020
3153 Clouds 12 1025 50 10000 5.7 290 18:46 15.05.2020
3154 Clouds 12 1025 58 10000 4.6 270 18:27 15.05.2020
3155 Clouds 13 1025 50 10000 6.7 290 17:41 15.05.2020
3156 Clouds 13 1025 50 10000 6.7 290 17:20 15.05.2020
3157 Clouds 13 1025 54 10000 7.7 290 16:58 15.05.2020
3158 Clouds 13 1025 47 10000 6.2 300 16:39 15.05.2020
3159 Clouds 13 1025 47 10000 6.2 300 16:19 15.05.2020
3160 Clouds 14 1025 44 10000 5.1 290 15:58 15.05.2020
3161 Clouds 13 1025 47 10000 6.2 290 15:39 15.05.2020
3162 Clouds 14 1025 47 10000 6.2 290 15:19 15.05.2020
3163 Clouds 13 1025 47 10000 5.1 300 14:42 15.05.2020
3164 Clouds 13 1025 47 10000 5.1 300 14:24 15.05.2020
3165 Clouds 14 1025 50 10000 4.1 270 13:59 15.05.2020
3166 Clouds 13 1025 54 10000 6.2 280 13:39 15.05.2020
3167 Clouds 13 1025 54 10000 6.2 280 13:20 15.05.2020
3168 Clouds 13 1025 54 10000 4.1 300 12:40 15.05.2020
3169 Clouds 12 1025 54 10000 4.1 300 12:19 15.05.2020
3170 Clouds 12 1025 57 10000 5.1 310 11:57 15.05.2020
3171 Clouds 12 1025 66 10000 4.6 290 11:39 15.05.2020
3172 Clouds 11 1025 66 10000 4.6 290 11:21 15.05.2020
3173 -273 0 0 0 0 0 10:59 15.05.2020
3174 Clouds 11 1023 70 0 0.45 45 10:40 15.05.2020
3175 Clouds 11 1023 70 0 0.45 45 10:40 15.05.2020
3176 Clouds 10 1025 87 10000 1.5 0 10:21 15.05.2020
3177 Clouds 9 1025 100 10000 1 0 09:58 15.05.2020
3178 Clouds 9 1025 100 10000 1 0 09:58 15.05.2020
3179 Clouds 8 1025 93 10000 1.5 0 09:37 15.05.2020
3180 Clouds 8 1025 93 10000 1.5 0 09:18 15.05.2020
3181 Clouds 7 1025 100 10000 0.5 0 08:54 15.05.2020
3182 Clouds 6 1025 100 10000 0.5 0 08:36 15.05.2020
3183 Clouds 6 1023 90 0 1.13 298 08:18 15.05.2020
3184 Clouds 4 1024 93 10000 1 140 07:42 15.05.2020
3185 Clouds 4 1024 93 10000 1 140 07:42 15.05.2020
3186 Clear 4 1024 100 7000 1 0 07:23 15.05.2020
3187 Mist 3 1024 93 2800 0.5 0 06:35 15.05.2020
3188 Clear 4 1024 93 7000 1.5 170 05:38 15.05.2020
3189 Clear 5 1024 93 10000 1.5 150 03:52 15.05.2020
3190 Clear 5 1024 93 10000 0.5 0 03:31 15.05.2020
3191 Clear 6 1024 86 10000 1.5 170 01:37 15.05.2020
3192 Clear 7 1024 86 10000 1.5 170 01:19 15.05.2020
3193 Clear 7 1024 87 10000 1.5 190 00:43 15.05.2020
3194 Clear 8 1024 87 10000 1.5 190 00:22 15.05.2020
3195 Clear 9 1024 70 10000 2.1 290 23:41 14.05.2020
3196 Clear 9 1024 70 10000 2.1 290 23:19 14.05.2020
3197 Clear 10 1024 70 10000 2.6 290 22:55 14.05.2020
3198 Clear 10 1023 61 10000 3.6 290 22:37 14.05.2020
3199 Clear 10 1023 61 10000 3.6 290 22:18 14.05.2020
3200 Clear 11 1023 57 10000 4.1 300 21:41 14.05.2020
3201 Clear 11 1023 57 10000 4.1 300 21:20 14.05.2020
3202 Clear 11 1023 50 10000 5.1 290 20:57 14.05.2020
3203 Clear 12 1023 50 10000 4.6 290 20:39 14.05.2020
3204 Clear 12 1023 50 10000 4.6 290 20:19 14.05.2020
3205 Clear 12 1023 46 10000 5.7 300 19:57 14.05.2020
3206 Clear 12 1023 62 10000 5.1 290 19:38 14.05.2020
3207 Clear 12 1023 51 10000 5.1 290 19:19 14.05.2020
3208 Clouds 12 1023 43 10000 5.7 290 18:56 14.05.2020
3209 Clouds 12 1023 43 10000 5.1 310 18:38 14.05.2020
3210 Clouds 13 1023 43 10000 5.1 310 18:19 14.05.2020
3211 Clear 13 1023 44 10000 4.6 300 17:56 14.05.2020
3212 Clear 13 1023 44 10000 3.6 280 17:36 14.05.2020
3213 Clear 13 1023 41 10000 3.6 280 17:18 14.05.2020
3214 Clear 14 1024 33 10000 4.1 320 16:39 14.05.2020
3215 Clear 14 1024 33 10000 4.1 320 16:20 14.05.2020
3216 Clear 14 1024 37 10000 3.6 290 15:57 14.05.2020
3217 Clear 14 1024 35 10000 3.6 270 15:39 14.05.2020
3218 Clear 13 1024 35 10000 3.6 270 15:19 14.05.2020
3219 Clear 13 1024 35 10000 3.1 280 14:56 14.05.2020
3220 Clear 12 1024 40 10000 3.6 310 14:38 14.05.2020
3221 Clear 13 1024 40 10000 3.6 310 14:19 14.05.2020
3222 Clear 13 1025 40 10000 1.5 0 13:55 14.05.2020
3223 Clear 12 1025 40 10000 3.1 350 13:37 14.05.2020
3224 Clear 12 1025 40 10000 3.1 350 13:18 14.05.2020
3225 Clear 12 1025 40 10000 2.6 0 12:56 14.05.2020
3226 Clear 11 1025 39 10000 1.5 0 12:37 14.05.2020
3227 Clear 11 1025 39 10000 1.5 0 12:18 14.05.2020
3228 Clear 10 1025 39 10000 1 0 11:42 14.05.2020
3229 Clear 8 1025 56 10000 1 0 11:24 14.05.2020
3230 Clear 8 1025 56 10000 1 0 10:58 14.05.2020
3231 Clear 7 1025 60 10000 1 0 10:40 14.05.2020
3232 Clear 7 1025 60 10000 1 0 10:21 14.05.2020
3233 Clear 5 1025 69 10000 1 0 09:43 14.05.2020
3234 Clear 5 1025 69 10000 1 0 09:23 14.05.2020
3235 Clear 4 1025 80 10000 1 250 08:56 14.05.2020
3236 Clear 4 1025 86 10000 0.5 0 08:36 14.05.2020
3237 Clear 3 1025 86 10000 0.5 0 08:18 14.05.2020
3238 Clear 1 1025 64 10000 0.5 0 07:43 14.05.2020
3239 Clear 0 1025 71 10000 0.5 0 07:20 14.05.2020
3240 Clear 0 1024 92 10000 1 120 06:43 14.05.2020
3241 Clear 0 1024 92 10000 1 120 06:23 14.05.2020
3242 Clear 0 1024 92 10000 0.5 0 05:37 14.05.2020
3243 Clear 0 1024 73 10000 0.5 0 04:43 14.05.2020
3244 Clear 2 1024 80 10000 1.5 80 03:32 14.05.2020
3245 Clear 2 1024 74 10000 1.5 60 02:57 14.05.2020
3246 Clear 3 1024 69 10000 1.5 70 02:34 14.05.2020
3247 Clear 3 1024 69 10000 2.1 70 01:47 14.05.2020
3248 Clear 5 1023 69 10000 2.1 80 00:51 14.05.2020
3249 Clear 5 1023 69 10000 2.1 80 00:51 14.05.2020
3250 Clear 5 1023 64 10000 2.1 70 00:26 14.05.2020
3251 Clear 6 1023 65 10000 2.6 70 23:45 13.05.2020
3252 Clear 6 1023 65 10000 2.6 70 23:45 13.05.2020
3253 Clear 6 1023 65 10000 2.1 70 23:22 13.05.2020
3254 Clear 7 1022 60 10000 3.1 70 22:58 13.05.2020
3255 Clear 7 1022 52 10000 3.6 70 22:39 13.05.2020
3256 Clear 7 1022 52 10000 3.6 70 22:21 13.05.2020
3257 Clear 8 1021 52 10000 3.6 60 21:57 13.05.2020
3258 Clouds 8 1021 45 10000 4.1 70 21:38 13.05.2020
3259 Clouds 8 1021 45 10000 4.1 70 21:38 13.05.2020
3260 Clouds 9 1021 45 10000 4.1 70 21:19 13.05.2020
3261 Clear 9 1020 39 10000 6.7 30 20:41 13.05.2020
3262 Clouds 10 1020 39 10000 6.7 30 20:23 13.05.2020
3263 Clouds 10 1020 37 10000 5.1 40 19:44 13.05.2020
3264 Clouds 10 1020 37 10000 5.1 40 19:25 13.05.2020
3265 Clouds 10 1020 37 10000 5.1 40 19:25 13.05.2020
3266 Clouds 11 1020 39 10000 6.7 50 18:58 13.05.2020
3267 Clouds 11 1020 32 10000 5.7 40 18:40 13.05.2020
3268 Clouds 11 1020 32 10000 5.7 40 18:21 13.05.2020
3269 Clouds 12 1020 39 10000 5.1 50 17:39 13.05.2020
3270 Clouds 12 1020 39 10000 5.1 50 17:20 13.05.2020
3271 Clouds 12 1020 40 10000 4.1 50 16:56 13.05.2020
3272 Clouds 12 1020 39 10000 5.1 40 16:38 13.05.2020
3273 Clouds 11 1020 39 10000 5.1 40 16:19 13.05.2020
3274 Clouds 11 1020 39 10000 3.6 20 15:42 13.05.2020
3275 Clouds 11 1020 39 10000 3.6 20 15:20 13.05.2020
3276 Clouds 11 1020 39 10000 3.1 70 14:57 13.05.2020
3277 Clouds 11 1020 37 10000 3.6 50 14:39 13.05.2020
3278 Clouds 11 1020 37 10000 3.6 50 14:21 13.05.2020
3279 Clouds 11 1020 42 10000 5.1 30 13:57 13.05.2020
3280 Clouds 11 1020 42 10000 5.1 30 13:57 13.05.2020
3281 Clouds 10 1020 39 10000 4.1 0 13:39 13.05.2020
3282 Clouds 10 1020 39 10000 4.1 0 13:20 13.05.2020
3283 Clouds 9 1020 45 10000 4.1 60 12:43 13.05.2020
3284 Clouds 9 1020 49 10000 4.6 30 12:23 13.05.2020
3285 Clouds 9 1020 49 10000 4.6 30 11:58 13.05.2020
3286 Clouds 9 1020 52 10000 2.6 40 11:40 13.05.2020
3287 Clouds 9 1020 52 10000 2.6 40 11:21 13.05.2020
3288 Clouds 8 1020 56 10000 5.1 40 10:59 13.05.2020
3289 Clouds 8 1020 53 10000 4.6 40 10:40 13.05.2020
3290 Clouds 8 1020 57 10000 4.6 40 10:21 13.05.2020
3291 Clouds 7 1020 57 10000 4.6 40 09:59 13.05.2020
3292 Clouds 7 1019 70 10000 4.6 60 09:40 13.05.2020
3293 Clouds 6 1019 70 10000 4.6 60 09:22 13.05.2020
3294 Clouds 5 1019 75 10000 2.1 50 08:42 13.05.2020
3295 Clouds 5 1019 75 10000 2.1 50 08:22 13.05.2020
3296 Clouds 5 1019 75 10000 2.1 50 07:59 13.05.2020
3297 Clouds 5 1018 75 10000 3.1 60 07:36 13.05.2020
3298 Clouds 5 1018 75 10000 3.6 50 06:59 13.05.2020
3299 Clouds 4 1018 75 10000 3.1 40 06:41 13.05.2020
3300 Clouds 5 1018 75 10000 2.6 60 05:51 13.05.2020
3301 Clouds 5 1018 70 10000 3.6 50 04:41 13.05.2020
3302 Rain 6 1017 81 10000 3.6 60 02:59 13.05.2020
3303 Clouds 6 1017 87 10000 1.5 290 02:22 13.05.2020
3304 Clouds 7 1017 93 10000 1.5 0 01:22 13.05.2020
3305 Clouds 7 1017 81 10000 3.1 280 00:41 13.05.2020
3306 Clouds 7 1017 81 10000 3.1 280 00:19 13.05.2020
3307 Clouds 8 1017 75 10000 2.6 300 23:40 12.05.2020
3308 Clear 8 1017 75 10000 2.6 300 23:21 12.05.2020
3309 Clear 8 1017 70 10000 1.5 270 22:57 12.05.2020
3310 Clear 9 1017 66 10000 5.7 290 22:38 12.05.2020
3311 Clear 9 1017 66 10000 5.7 290 22:20 12.05.2020
3312 Clear 10 1017 61 10000 4.6 290 21:54 12.05.2020
3313 Clouds 10 1017 61 10000 6.2 300 21:36 12.05.2020
3314 Clouds 10 1017 61 10000 6.2 300 21:18 12.05.2020
3315 Clouds 11 1017 57 10000 6.7 310 20:55 12.05.2020
3316 Clouds 11 1017 57 10000 6.2 290 20:36 12.05.2020
3317 Clouds 11 1017 57 10000 6.2 290 20:18 12.05.2020
3318 Clouds 11 1017 62 10000 6.2 280 19:41 12.05.2020
3319 Clouds 11 1017 62 10000 6.2 280 19:23 12.05.2020
3320 Clouds 11 1016 57 0 1.34 168 18:58 12.05.2020
3321 Clouds 11 1018 66 10000 5.7 280 18:40 12.05.2020
3322 Clouds 11 1018 66 10000 5.7 280 18:21 12.05.2020
3323 Clouds 11 1019 61 10000 5.1 280 17:43 12.05.2020
3324 Clouds 11 1019 61 10000 5.1 280 17:24 12.05.2020
3325 Clouds 11 1019 53 10000 6.7 280 16:47 12.05.2020
3326 Clouds 11 1019 53 10000 6.7 280 16:26 12.05.2020
3327 Clouds 10 1019 53 10000 6.2 290 15:57 12.05.2020
3328 Clouds 10 1019 61 10000 5.1 290 15:39 12.05.2020
3329 Clouds 10 1019 61 10000 5.1 290 15:20 12.05.2020
3330 Clouds 10 1020 61 10000 5.1 300 14:58 12.05.2020
3331 Clouds 9 1020 66 10000 5.1 310 14:39 12.05.2020
3332 Clouds 9 1020 66 10000 5.1 310 14:21 12.05.2020
3333 Clouds 9 1021 66 10000 5.1 300 13:59 12.05.2020
3334 Clouds 9 1021 70 10000 2.6 290 13:41 12.05.2020
3335 Clouds 9 1021 70 10000 2.6 290 13:20 12.05.2020
3336 Rain 9 1021 75 10000 4.1 300 12:58 12.05.2020
3337 Clouds 9 1021 81 10000 2.6 320 12:40 12.05.2020
3338 Clouds 9 1021 81 10000 2.6 320 12:40 12.05.2020
3339 Clouds 9 1021 81 10000 2.6 320 12:40 12.05.2020
3340 Clouds 9 1021 81 10000 2.6 320 12:22 12.05.2020
3341 Rain 9 1022 81 10000 4.1 280 11:58 12.05.2020
3342 Rain 9 1022 87 10000 4.1 290 11:39 12.05.2020
3343 Rain 8 1022 87 10000 4.1 290 11:21 12.05.2020
3344 Rain 8 1022 75 7000 4.6 290 10:59 12.05.2020
3345 Rain 7 1022 75 10000 3.6 280 10:40 12.05.2020
3346 Rain 7 1022 75 10000 3.6 280 10:22 12.05.2020
3347 Rain 6 1022 75 10000 1.5 0 09:59 12.05.2020
3348 Rain 7 1022 81 10000 1.5 0 09:39 12.05.2020
3349 Clear 6 1022 81 10000 1.5 0 09:20 12.05.2020
3350 Clouds 5 1023 86 10000 1.5 0 08:54 12.05.2020
3351 Clouds 4 1023 86 10000 1 0 08:36 12.05.2020
3352 Clouds 4 1023 86 10000 1 0 08:18 12.05.2020
3353 Clear 2 1023 68 7000 2.1 180 07:41 12.05.2020
3354 Clear 2 1023 72 7000 2.1 180 07:22 12.05.2020
3355 Clear 1 1023 72 10000 2.1 170 06:47 12.05.2020
3356 Clear 1 1024 86 10000 1.5 0 06:27 12.05.2020
3357 Clear 1 1024 86 10000 2.1 180 05:50 12.05.2020
3358 Clouds 1 1024 86 10000 2.1 160 05:30 12.05.2020
3359 Clear 2 1024 86 10000 2.1 160 03:26 12.05.2020
3360 Clear 2 1025 86 10000 1.5 150 02:29 12.05.2020
3361 Clear 3 1025 80 10000 1 170 01:59 12.05.2020
3362 Clear 4 1025 80 10000 1 170 01:24 12.05.2020
3363 Clear 4 1025 69 10000 1 0 00:26 12.05.2020
3364 Clear 5 1025 69 10000 1 260 23:58 11.05.2020
3365 Clear 6 1025 69 10000 1.5 100 23:40 11.05.2020
3366 Clear 6 1025 69 10000 1.5 100 23:20 11.05.2020
3367 Clear 6 1025 48 10000 1.5 70 22:58 11.05.2020
3368 Clear 7 1025 48 10000 1.5 80 22:40 11.05.2020
3369 Clear 7 1025 48 10000 1.5 80 22:20 11.05.2020
3370 Clear 8 1025 45 10000 3.1 40 21:57 11.05.2020
3371 Clear 9 1025 39 10000 4.1 40 21:38 11.05.2020
3372 Clear 9 1025 39 10000 4.1 40 21:19 11.05.2020
3373 Clouds 9 1025 39 10000 4.1 40 21:19 11.05.2020
3374 Clouds 10 1025 39 10000 4.6 50 20:57 11.05.2020
3375 Clouds 10 1025 39 10000 5.7 40 20:38 11.05.2020
3376 Clouds 11 1025 39 10000 6.2 40 20:19 11.05.2020
3377 Clouds 10 1025 39 10000 6.2 40 19:54 11.05.2020
3378 Clouds 11 1025 37 10000 6.2 30 19:36 11.05.2020
3379 Clouds 11 1025 37 10000 6.2 30 19:18 11.05.2020
3380 Clouds 11 1025 39 10000 7.2 30 18:54 11.05.2020
3381 Clouds 11 1025 34 10000 5.1 20 18:36 11.05.2020
3382 Clouds 11 1024 37 10000 7.2 10 18:18 11.05.2020
3383 Clouds 11 1024 39 10000 7.7 10 17:40 11.05.2020
3384 Clouds 11 1024 39 10000 7.7 10 17:22 11.05.2020
3385 Clouds 10 1024 39 10000 7.2 30 16:58 11.05.2020
3386 Clouds 11 1024 40 10000 6.7 30 16:38 11.05.2020
3387 Clouds 11 1024 40 10000 6.7 30 16:20 11.05.2020
3388 Clouds 10 1025 45 10000 6.7 30 15:54 11.05.2020
3389 Clouds 10 1025 49 10000 7.7 40 15:36 11.05.2020
3390 Clouds 10 1025 49 10000 7.7 40 15:18 11.05.2020
3391 Clouds 9 1025 49 10000 6.7 30 14:41 11.05.2020
3392 Clouds 9 1025 52 10000 7.7 20 14:22 11.05.2020
3393 Clouds 9 1025 52 10000 7.7 20 13:58 11.05.2020
3394 Clouds 9 1024 49 10000 6.7 10 13:39 11.05.2020
3395 Clouds 8 1024 49 10000 6.7 10 13:18 11.05.2020
3396 Clouds 8 1024 49 10000 6.7 10 13:18 11.05.2020
3397 Clouds 8 1024 49 10000 6.7 10 13:18 11.05.2020
3398 Clouds 9 1025 49 10000 7.2 40 12:56 11.05.2020
3399 Clouds 8 1025 52 10000 8.2 30 12:38 11.05.2020
3400 Clouds 7 1025 52 10000 8.2 30 12:19 11.05.2020
3401 Clouds 8 1025 56 10000 5.7 40 11:42 11.05.2020
3402 Clouds 7 1025 56 10000 5.7 40 11:22 11.05.2020
3403 Clouds 7 1024 56 10000 6.7 30 10:59 11.05.2020
3404 Clouds 6 1024 54 10000 5.1 30 10:40 11.05.2020
3405 Clouds 6 1024 65 10000 6.7 30 10:22 11.05.2020
3406 Clouds 6 1024 65 10000 6.7 30 09:59 11.05.2020
3407 Clouds 5 1024 65 10000 6.7 20 09:41 11.05.2020
3408 Clouds 5 1024 65 10000 6.7 20 09:19 11.05.2020
3409 Clear 5 1024 69 10000 6.2 20 08:56 11.05.2020
3410 Clear 5 1023 61 10000 5.7 20 08:37 11.05.2020
3411 Clear 4 1023 67 10000 5.7 20 08:18 11.05.2020
3412 Clouds 3 1023 74 10000 5.7 20 07:42 11.05.2020
3413 Clouds 3 1023 74 10000 5.7 20 07:23 11.05.2020
3414 Clouds 3 1023 74 10000 4.6 30 06:41 11.05.2020
3415 Clear 3 1023 74 10000 4.6 30 05:56 11.05.2020
3416 Clear 3 1023 74 10000 4.6 20 05:24 11.05.2020
3417 Clear 3 1022 74 10000 5.1 30 04:24 11.05.2020
3418 Clear 3 1023 64 10000 5.1 30 02:47 11.05.2020
3419 Clear 4 1023 60 10000 3.6 20 02:29 11.05.2020
3420 Clear 4 1022 60 10000 5.1 30 01:31 11.05.2020
3421 Clouds 5 1022 52 10000 5.1 50 00:44 11.05.2020
3422 Clouds 5 1022 52 10000 5.1 50 00:19 11.05.2020
3423 Clouds 5 1022 48 10000 6.2 50 23:43 10.05.2020
3424 Clouds 5 1022 48 10000 6.2 50 23:20 10.05.2020
3425 Clouds 6 1021 45 10000 5.7 50 22:55 10.05.2020
3426 Clouds 6 1021 45 10000 5.7 50 22:55 10.05.2020
3427 Clouds 6 1021 48 10000 7.2 50 22:37 10.05.2020
3428 Clouds 6 1020 45 10000 10.3 50 22:18 10.05.2020
3429 Clear 6 1020 42 10000 7.7 50 21:43 10.05.2020
3430 Clear 7 1020 42 10000 7.7 50 21:19 10.05.2020
3431 Clear 7 1019 42 10000 11.8 40 20:43 10.05.2020
3432 Clouds 7 1019 42 10000 11.8 40 20:25 10.05.2020
3433 Clouds 8 1019 45 10000 9.3 40 19:59 10.05.2020
3434 Clouds 8 1019 49 10000 7.7 60 19:39 10.05.2020
3435 Clouds 8 1019 49 10000 7.7 60 19:21 10.05.2020
3436 Clouds 8 1019 49 10000 8.2 50 18:56 10.05.2020
3437 Clouds 8 1018 52 10000 9.8 40 18:37 10.05.2020
3438 Clouds 9 1018 52 10000 9.8 40 18:18 10.05.2020
3439 Clouds 9 1018 50 10000 9.3 50 17:58 10.05.2020
3440 Clouds 9 1018 61 10000 10.3 50 17:39 10.05.2020
3441 Clouds 9 1018 61 10000 10.3 50 17:20 10.05.2020
3442 Clouds 9 1018 61 10000 10.3 50 17:20 10.05.2020
3443 Clouds 9 1018 61 10000 8.7 50 16:54 10.05.2020
3444 Clouds 9 1017 57 10000 7.2 60 16:36 10.05.2020
3445 Clouds 9 1017 61 10000 9.3 60 16:18 10.05.2020
3446 Clouds 9 1016 70 10000 8.2 60 15:41 10.05.2020
3447 Clouds 9 1016 70 10000 8.2 60 15:22 10.05.2020
3448 Clouds 9 1016 70 10000 8.7 60 14:56 10.05.2020
3449 Clouds 9 1015 66 10000 8.2 60 14:38 10.05.2020
3450 Clouds 9 1015 66 10000 8.2 60 14:19 10.05.2020
3451 Clouds 9 1015 70 10000 7.2 50 13:58 10.05.2020
3452 Clouds 10 1014 66 10000 8.2 50 13:37 10.05.2020
3453 Clouds 10 1014 66 10000 8.2 50 13:19 10.05.2020
3454 Clouds 10 1014 66 10000 7.2 60 12:56 10.05.2020
3455 Clouds 10 1013 66 10000 8.2 60 12:37 10.05.2020
3456 Clouds 10 1013 66 10000 8.2 60 12:19 10.05.2020
3457 Clouds 10 1013 66 10000 8.2 60 12:19 10.05.2020
3458 Clouds 11 1013 66 10000 6.7 60 11:54 10.05.2020
3459 Clouds 11 1013 71 10000 9.3 50 11:36 10.05.2020
3460 Clouds 11 1013 71 10000 9.3 50 11:18 10.05.2020
3461 Clouds 11 1012 81 10000 8.7 50 10:42 10.05.2020
3462 Clouds 10 1012 81 10000 8.7 50 10:24 10.05.2020
3463 Clouds 10 1012 81 10000 7.7 50 09:42 10.05.2020
3464 Clouds 10 1012 81 10000 7.7 50 09:23 10.05.2020
3465 Clouds 10 1011 81 10000 9.3 50 08:59 10.05.2020
3466 Clouds 10 1011 87 10000 6.2 50 08:40 10.05.2020
3467 Clouds 10 1011 87 10000 6.2 50 08:22 10.05.2020
3468 Clouds 10 1010 93 10000 5.1 50 07:42 10.05.2020
3469 Clouds 10 1010 93 10000 5.1 50 07:19 10.05.2020
3470 Clouds 11 1009 100 10000 3.6 50 06:50 10.05.2020
3471 Clouds 11 1009 93 10000 2.6 300 06:26 10.05.2020
3472 Clouds 11 1009 93 10000 1.5 0 05:46 10.05.2020
3473 Clouds 12 1009 93 10000 0.5 0 04:48 10.05.2020
3474 Clouds 12 1009 87 10000 1 0 04:29 10.05.2020
3475 Clouds 12 1009 87 10000 1.5 0 03:51 10.05.2020
3476 Clouds 13 1010 93 10000 2.6 330 02:59 10.05.2020
3477 Clouds 14 1010 87 10000 1.52 347 02:25 10.05.2020
3478 Clouds 14 1010 82 10000 0.5 0 01:58 10.05.2020
3479 Rain 15 1010 82 1400 0.5 0 01:39 10.05.2020
3480 Rain 15 1010 82 1400 0.5 0 01:18 10.05.2020
3481 Rain 16 1011 82 10000 1.5 0 00:52 10.05.2020
3482 Rain 16 1011 82 10000 3.1 220 00:21 10.05.2020
3483 Clouds 17 1011 63 10000 3.1 200 23:40 09.05.2020
3484 Clouds 17 1011 63 10000 3.1 200 23:40 09.05.2020
3485 Clouds 18 1011 63 10000 3.1 200 23:22 09.05.2020
3486 Clouds 19 1010 52 10000 2.1 300 22:58 09.05.2020
3487 Clouds 19 1010 52 10000 3.6 300 22:39 09.05.2020
3488 Clouds 19 1010 52 10000 3.6 300 22:21 09.05.2020
3489 Clouds 19 1010 49 10000 3.6 290 21:56 09.05.2020
3490 Clouds 20 1010 49 10000 4.1 320 21:37 09.05.2020
3491 Clouds 20 1010 49 10000 4.1 320 21:37 09.05.2020
3492 Clouds 20 1010 49 10000 3.1 300 21:19 09.05.2020
3493 Clouds 21 1010 49 10000 3.1 300 20:56 09.05.2020
3494 Clouds 21 1010 46 10000 3.1 300 20:37 09.05.2020
3495 Clouds 22 1010 46 10000 3.1 300 20:18 09.05.2020
3496 Clouds 22 1010 40 10000 3.1 280 19:40 09.05.2020
3497 Clouds 23 1010 40 10000 3.1 280 19:20 09.05.2020
3498 Clouds 23 1010 38 10000 2.6 300 18:58 09.05.2020
3499 Clouds 23 1011 38 10000 2.1 0 18:40 09.05.2020
3500 Clouds 23 1011 38 10000 2.1 0 18:19 09.05.2020
3501 Clouds 24 1011 38 10000 2.1 0 17:44 09.05.2020
3502 Clouds 23 1011 38 10000 2.1 0 17:23 09.05.2020
3503 Clouds 23 1012 40 10000 1.5 0 16:43 09.05.2020
3504 Clouds 24 1012 40 10000 1.5 0 16:20 09.05.2020
3505 Clouds 23 1013 46 10000 2.6 240 15:57 09.05.2020
3506 Clouds 23 1013 46 10000 1.5 0 15:39 09.05.2020
3507 Clouds 23 1013 46 10000 1.5 0 15:21 09.05.2020
3508 Clouds 23 1013 49 10000 1 0 14:43 09.05.2020
3509 Clouds 23 1013 49 10000 1 0 14:20 09.05.2020
3510 Clouds 23 1014 46 10000 2.1 260 13:58 09.05.2020
3511 Clouds 22 1014 45 10000 1.5 0 13:40 09.05.2020
3512 Clouds 22 1014 45 10000 1.5 0 13:21 09.05.2020
3513 Clouds 22 1014 49 10000 1.5 0 12:55 09.05.2020
3514 Clouds 21 1014 52 9000 1.5 0 12:37 09.05.2020
3515 Clouds 20 1014 52 9000 1.5 0 12:19 09.05.2020
3516 Clouds 19 1015 59 10000 1 0 11:42 09.05.2020
3517 Clear 18 1015 59 10000 1 0 11:19 09.05.2020
3518 Clear 17 1015 67 10000 1 0 10:47 09.05.2020
3519 Clear 16 1015 76 10000 0.5 0 10:26 09.05.2020
3520 Clear 15 1015 82 10000 0.5 0 09:58 09.05.2020
3521 Clear 15 1015 93 10000 1 0 09:39 09.05.2020
3522 Clear 14 1015 93 10000 1 0 09:19 09.05.2020
3523 Clear 13 1015 93 10000 0.5 0 08:51 09.05.2020
3524 Clear 13 1015 100 10000 0.5 0 08:33 09.05.2020
3525 Clear 11 1015 100 10000 0.5 0 07:51 09.05.2020
3526 Clear 10 1015 93 10000 0.5 0 07:33 09.05.2020
3527 Clear 9 1015 100 10000 0.5 0 06:55 09.05.2020
3528 Clear 9 1015 93 10000 0.5 0 06:26 09.05.2020
3529 Clear 9 1015 93 10000 1.5 70 05:49 09.05.2020
3530 Clear 10 1016 93 10000 1 0 04:20 09.05.2020
3531 Clear 10 1016 93 10000 1 0 03:38 09.05.2020
3532 Clear 10 1017 93 10000 1.5 70 02:42 09.05.2020
3533 Clear 11 1017 93 10000 0.5 0 01:54 09.05.2020
3534 Clear 11 1017 93 10000 0.5 0 01:54 09.05.2020
3535 Clear 12 1017 93 10000 1 290 01:25 09.05.2020
3536 Clear 12 1017 87 10000 1.5 270 00:55 09.05.2020
3537 Clear 13 1016 82 10000 1 280 00:37 09.05.2020
3538 Clear 13 1016 76 10000 0.5 0 23:54 08.05.2020
3539 Clear 14 1016 71 10000 2.1 310 23:36 08.05.2020
3540 Clear 14 1016 71 10000 2.1 310 23:36 08.05.2020
3541 Clear 14 1016 71 10000 2.1 310 23:36 08.05.2020
3542 Clear 14 1016 71 10000 2.1 310 23:18 08.05.2020
3543 Clear 16 1016 59 10000 2.1 320 22:42 08.05.2020
3544 Clear 16 1016 59 10000 2.1 320 22:20 08.05.2020
3545 Clear 17 1016 59 10000 2.6 310 21:59 08.05.2020
3546 Clear 17 1016 55 10000 3.1 320 21:41 08.05.2020
3547 Clear 18 1016 55 10000 3.1 320 21:19 08.05.2020
3548 Clear 18 1016 52 10000 3.1 320 20:59 08.05.2020
3549 Clear 19 1016 52 10000 3.6 320 20:40 08.05.2020
3550 Clouds 19 1016 52 10000 3.6 320 20:22 08.05.2020
3551 Clouds 20 1016 49 10000 3.1 280 19:45 08.05.2020
3552 Clouds 20 1016 49 10000 2.1 290 19:24 08.05.2020
3553 Clouds 20 1016 49 10000 2.1 310 18:57 08.05.2020
3554 Clouds 19 1016 52 10000 1.5 0 18:39 08.05.2020
3555 Clouds 19 1016 52 10000 1.5 0 18:21 08.05.2020
3556 Clouds 20 1017 55 10000 1.5 0 17:42 08.05.2020
3557 Clouds 20 1017 55 10000 1.5 0 17:19 08.05.2020
3558 Clouds 20 1017 55 10000 2.6 250 16:46 08.05.2020
3559 Clouds 20 1017 55 10000 2.6 260 16:27 08.05.2020
3560 Clouds 20 1018 59 10000 2.6 0 15:58 08.05.2020
3561 Clouds 20 1018 59 10000 2.6 0 15:58 08.05.2020
3562 Clouds 19 1018 63 10000 2.6 0 15:40 08.05.2020
3563 Clouds 19 1018 63 10000 2.6 0 15:18 08.05.2020
3564 Clouds 19 1018 63 10000 2.1 240 14:54 08.05.2020
3565 Clouds 18 1018 63 10000 2.1 0 14:36 08.05.2020
3566 Clouds 18 1018 63 10000 2.1 0 14:18 08.05.2020
3567 Clouds 17 1018 67 10000 2.6 260 13:40 08.05.2020
3568 Clouds 17 1018 67 10000 2.6 260 13:20 08.05.2020
3569 Clouds 16 1018 72 10000 1.5 0 12:54 08.05.2020
3570 Clouds 16 1019 72 10000 1.5 0 12:36 08.05.2020
3571 Clouds 16 1019 72 10000 1.5 0 12:36 08.05.2020
3572 Clouds 16 1019 72 10000 1.5 0 12:18 08.05.2020
3573 Clouds 15 1019 76 10000 1.5 0 11:43 08.05.2020
3574 Clouds 15 1019 76 10000 1.5 0 11:22 08.05.2020
3575 Clouds 14 1019 82 10000 1 0 10:58 08.05.2020
3576 Clouds 14 1019 82 10000 1.5 340 10:39 08.05.2020
3577 Clouds 14 1019 82 10000 1.5 340 10:18 08.05.2020
3578 Clouds 13 1019 87 10000 0.5 0 09:42 08.05.2020
3579 Clouds 13 1019 87 10000 0.5 0 09:20 08.05.2020
3580 Clouds 12 1019 87 10000 0.5 0 08:58 08.05.2020
3581 Clouds 11 1019 87 10000 1.5 110 08:39 08.05.2020
3582 Clouds 11 1019 87 10000 1.5 110 08:20 08.05.2020
3583 Clouds 10 1018 93 10000 1 40 07:40 08.05.2020
3584 Clouds 10 1018 93 10000 1 40 07:20 08.05.2020
3585 Clouds 10 1018 93 10000 0.5 0 06:48 08.05.2020
3586 Clouds 10 1018 93 10000 0.34 355 06:20 08.05.2020
3587 Clouds 11 1019 87 10000 0.5 0 05:34 08.05.2020
3588 Clouds 12 1019 87 10000 0.5 0 03:50 08.05.2020
3589 Clouds 13 1019 76 10000 1 0 02:30 08.05.2020
3590 Clouds 13 1019 71 10000 1.5 300 01:41 08.05.2020
3591 Clouds 13 1019 71 10000 1.5 300 01:21 08.05.2020
3592 Clear 14 1019 76 10000 1.5 250 00:48 08.05.2020
3593 Clear 14 1019 76 10000 0.5 0 00:27 08.05.2020
3594 Clear 14 1019 71 10000 0.5 0 23:57 07.05.2020
3595 Clear 15 1019 63 10000 1 0 23:38 07.05.2020
3596 Clear 15 1019 63 10000 1 0 23:20 07.05.2020
3597 Rain 17 1019 59 10000 1.5 190 22:42 07.05.2020
3598 Rain 17 1019 59 10000 1.5 190 22:42 07.05.2020
3599 Rain 17 1019 59 10000 1.5 190 22:21 07.05.2020
3600 Rain 18 1018 55 10000 2.1 190 21:57 07.05.2020
3601 Clear 19 1018 52 10000 2.6 200 21:39 07.05.2020
3602 Clear 19 1018 52 10000 2.6 200 21:20 07.05.2020
3603 Clear 19 1018 48 10000 1.5 0 20:57 07.05.2020
3604 Clear 20 1019 48 10000 1.5 0 20:38 07.05.2020
3605 Clear 19 1019 48 10000 1.5 0 20:19 07.05.2020
3606 Clear 20 1019 42 10000 2.1 180 19:47 07.05.2020
3607 Clear 20 1019 42 10000 2.1 180 19:23 07.05.2020
3608 Clear 20 1019 42 10000 2.6 220 18:56 07.05.2020
3609 Clear 19 1019 42 10000 2.1 180 18:38 07.05.2020
3610 Clear 20 1019 42 10000 2.1 180 18:20 07.05.2020
3611 Clear 20 1020 42 10000 1.5 0 17:41 07.05.2020
3612 Clear 19 1020 42 10000 1.5 0 17:20 07.05.2020
3613 Clear 20 1020 39 10000 3.6 220 16:43 07.05.2020
3614 Clear 20 1020 39 10000 3.6 220 16:19 07.05.2020
3615 Clear 21 1021 39 10000 3.1 200 15:57 07.05.2020
3616 Clear 19 1021 42 10000 3.6 190 15:38 07.05.2020
3617 Clear 19 1021 42 10000 3.6 190 15:18 07.05.2020
3618 Clear 19 1021 45 10000 2.6 210 14:55 07.05.2020
3619 Clear 20 1022 45 10000 2.6 200 14:37 07.05.2020
3620 Clear 19 1022 45 10000 2.6 200 14:18 07.05.2020
3621 Clear 19 1022 45 10000 2.6 190 13:41 07.05.2020
3622 Clear 19 1022 45 10000 2.6 190 13:22 07.05.2020
3623 Clear 17 1022 54 10000 3.1 210 12:42 07.05.2020
3624 Clear 15 1022 54 10000 3.1 210 12:20 07.05.2020
3625 Clear 15 1023 58 10000 1.5 0 11:40 07.05.2020
3626 Clear 15 1023 58 10000 1.5 0 11:21 07.05.2020
3627 Clear 14 1023 62 10000 2.1 180 10:57 07.05.2020
3628 Clear 14 1023 62 10000 2.1 180 10:38 07.05.2020
3629 Clear 13 1023 62 10000 2.1 180 10:19 07.05.2020
3630 Clear 12 1023 66 10000 1 0 09:40 07.05.2020
3631 Clear 12 1023 66 10000 1 0 09:20 07.05.2020
3632 Clear 11 1023 76 10000 1 0 08:54 07.05.2020
3633 Clear 10 1023 87 10000 1 80 08:36 07.05.2020
3634 Clear 9 1023 87 10000 1 80 08:18 07.05.2020
3635 Clear 8 1023 75 10000 1.5 30 07:41 07.05.2020
3636 Clear 7 1023 75 10000 1.5 30 07:21 07.05.2020
3637 Clear 7 1023 81 10000 1 110 06:38 07.05.2020
3638 Clear 7 1023 81 10000 1 110 06:19 07.05.2020
3639 Clear 8 1024 75 10000 0.5 0 04:41 07.05.2020
3640 Clear 8 1024 75 10000 1 130 03:47 07.05.2020
3641 Clear 8 1024 75 10000 1.5 120 03:20 07.05.2020
3642 Clear 9 1025 65 10000 1 120 02:36 07.05.2020
3643 Clear 9 1025 57 10000 1.5 120 01:38 07.05.2020
3644 Clear 10 1025 57 10000 1.5 120 01:20 07.05.2020
3645 Clear 10 1025 61 10000 1 120 00:43 07.05.2020
3646 Clear 10 1025 61 10000 1 120 00:23 07.05.2020
3647 Clear 11 1025 53 10000 1.5 100 23:45 06.05.2020
3648 Clear 12 1025 53 10000 1.5 100 23:23 06.05.2020
3649 Clear 12 1025 53 10000 1.5 100 22:56 06.05.2020
3650 Clear 13 1025 41 10000 1 130 22:38 06.05.2020
3651 Clear 13 1025 41 10000 1 130 22:38 06.05.2020
3652 Clear 14 1025 41 10000 1 130 22:19 06.05.2020
3653 Clear 15 1025 38 10000 0.5 0 21:55 06.05.2020
3654 Clear 15 1025 38 10000 1 0 21:37 06.05.2020
3655 Clear 15 1025 38 10000 1 0 21:18 06.05.2020
3656 Clear 16 1025 36 10000 1.5 0 20:42 06.05.2020
3657 Clear 16 1025 36 10000 1.5 0 20:22 06.05.2020
3658 Clear 17 1025 33 10000 2.1 0 19:57 06.05.2020
3659 Clear 17 1025 33 10000 2.6 170 19:38 06.05.2020
3660 Clear 17 1025 33 10000 2.6 170 19:19 06.05.2020
3661 Clear 17 1025 33 10000 2.6 0 18:58 06.05.2020
3662 Clear 17 1025 33 10000 2.6 0 18:58 06.05.2020
3663 Clear 17 1025 33 10000 2.6 200 18:38 06.05.2020
3664 Clear 17 1025 33 10000 2.6 200 18:38 06.05.2020
3665 Clear 17 1025 33 10000 2.6 200 18:20 06.05.2020
3666 Clear 18 1025 33 10000 3.1 190 17:55 06.05.2020
3667 Clear 18 1025 36 10000 2.6 190 17:37 06.05.2020
3668 Clear 18 1025 36 10000 2.6 190 17:37 06.05.2020
3669 Clear 18 1025 36 10000 2.6 190 17:37 06.05.2020
3670 Clear 18 1025 36 10000 2.6 190 17:18 06.05.2020
3671 Clear 18 1026 38 10000 2.1 0 16:58 06.05.2020
3672 Clear 18 1026 41 10000 1.5 0 16:40 06.05.2020
3673 Clear 17 1026 41 10000 1.5 0 16:20 06.05.2020
3674 Clear 17 1026 36 10000 2.1 0 15:48 06.05.2020
3675 Clear 17 1026 41 10000 1.5 0 15:23 06.05.2020
3676 Clear 16 1026 41 10000 2.1 160 14:59 06.05.2020
3677 Clear 16 1026 44 10000 2.6 0 14:39 06.05.2020
3678 Clear 16 1026 44 10000 2.6 0 14:19 06.05.2020
3679 Clear 16 1026 44 10000 2.6 0 14:19 06.05.2020
3680 Clear 16 1026 47 10000 1.5 0 13:58 06.05.2020
3681 Clear 16 1027 47 10000 1.5 0 13:39 06.05.2020
3682 Clear 15 1027 47 10000 1.5 0 13:19 06.05.2020
3683 Clear 14 1027 53 10000 2.1 0 12:43 06.05.2020
3684 Clear 11 1027 53 10000 2.1 0 12:24 06.05.2020
3685 Clear 11 1027 57 10000 1.5 0 11:42 06.05.2020
3686 Clear 11 1027 57 10000 1.5 0 11:23 06.05.2020
3687 Clear 9 1027 61 10000 1.5 0 10:58 06.05.2020
3688 Clear 10 1027 61 10000 1.5 0 10:39 06.05.2020
3689 Clear 9 1027 65 10000 1 0 10:19 06.05.2020
3690 Clear 9 1027 65 10000 1 0 09:59 06.05.2020
3691 Clear 8 1027 65 10000 0.5 0 09:38 06.05.2020
3692 Clear 8 1027 65 10000 0.5 0 09:20 06.05.2020
3693 Clear 6 1027 80 10000 0.5 0 08:43 06.05.2020
3694 Clear 6 1027 80 10000 0.5 0 08:20 06.05.2020
3695 Clear 4 1026 93 10000 0.5 0 07:56 06.05.2020
3696 Clear 4 1026 93 10000 0.5 0 07:38 06.05.2020
3697 Clear 4 1026 93 10000 0.5 0 07:18 06.05.2020
3698 Clear 4 1026 80 10000 1.5 0 06:45 06.05.2020
3699 Clear 4 1026 80 10000 1.5 0 06:20 06.05.2020
3700 Clear 4 1026 80 10000 1 0 05:38 06.05.2020
3701 Clear 5 1026 80 10000 0.5 0 04:50 06.05.2020
3702 Clear 5 1026 75 10000 1.5 0 03:50 06.05.2020
3703 Clear 6 1026 75 10000 2.1 100 03:24 06.05.2020
3704 Clear 6 1026 75 10000 1.5 0 02:43 06.05.2020
3705 Clear 6 1026 75 10000 1.5 0 02:20 06.05.2020
3706 Clear 6 1025 70 10000 3.1 90 01:42 06.05.2020
3707 Clear 7 1025 70 10000 3.1 90 00:57 06.05.2020
3708 Clear 7 1025 61 10000 3.6 90 00:37 06.05.2020
3709 Clear 7 1025 61 10000 3.6 90 00:18 06.05.2020
3710 Clear 8 1025 61 10000 3.6 90 23:40 05.05.2020
3711 Clear 9 1024 61 10000 4.1 90 23:19 05.05.2020
3712 Clear 9 1024 53 10000 2.6 90 22:42 05.05.2020
3713 Clear 10 1024 53 10000 2.6 90 22:21 05.05.2020
3714 Clear 10 1023 50 10000 2.6 90 21:59 05.05.2020
3715 Clear 11 1023 50 10000 3.6 80 21:41 05.05.2020
3716 Clear 11 1023 50 10000 3.6 80 21:21 05.05.2020
3717 Clear 12 1023 50 10000 3.6 90 20:59 05.05.2020
3718 Clouds 12 1023 50 10000 3.1 100 20:39 05.05.2020
3719 Clouds 13 1023 50 10000 3.1 100 20:19 05.05.2020
3720 Clear 13 1023 43 10000 3.1 0 19:58 05.05.2020
3721 Clouds 13 1022 43 10000 3.1 90 19:37 05.05.2020
3722 Clear 14 1022 43 10000 3.6 90 19:19 05.05.2020
3723 Clear 14 1022 43 10000 3.6 90 18:55 05.05.2020
3724 Clear 14 1022 44 10000 2.6 100 18:37 05.05.2020
3725 Clear 14 1022 44 10000 2.6 100 18:37 05.05.2020
3726 Clear 14 1022 44 10000 2.6 100 18:19 05.05.2020
3727 Clouds 14 1022 44 10000 3.1 0 17:43 05.05.2020
3728 Clouds 15 1022 44 10000 3.1 0 17:25 05.05.2020
3729 Clear 15 1023 44 10000 2.6 100 16:58 05.05.2020
3730 Clouds 14 1023 43 10000 4.1 80 16:37 05.05.2020
3731 Clouds 14 1023 43 10000 4.1 80 16:18 05.05.2020
3732 Clouds 14 1023 47 10000 4.1 80 15:55 05.05.2020
3733 Clouds 14 1023 50 10000 2.6 0 15:37 05.05.2020
3734 Clouds 14 1023 50 10000 2.6 0 15:18 05.05.2020
3735 Clouds 13 1023 50 10000 4.1 100 14:42 05.05.2020
3736 Clouds 13 1023 50 10000 4.1 100 14:24 05.05.2020
3737 Clouds 13 1023 50 10000 6.2 80 13:58 05.05.2020
3738 Clouds 13 1023 50 10000 6.2 80 13:58 05.05.2020
3739 Clouds 13 1023 50 10000 4.1 120 13:40 05.05.2020
3740 Clouds 13 1023 50 10000 4.1 120 13:21 05.05.2020
3741 Clouds 13 1023 50 10000 4.1 120 13:21 05.05.2020
3742 Clear 12 1023 50 10000 4.6 100 12:59 05.05.2020
3743 Clouds 12 1023 53 10000 4.6 90 12:39 05.05.2020
3744 Clouds 11 1023 53 10000 4.6 90 12:20 05.05.2020
3745 Clear 11 1023 53 10000 4.1 90 11:55 05.05.2020
3746 Clear 11 1023 57 10000 4.6 100 11:36 05.05.2020
3747 Clear 11 1023 57 10000 4.6 100 11:36 05.05.2020
3748 Clear 10 1023 57 10000 4.6 100 11:18 05.05.2020
3749 Clear 9 1022 61 10000 6.2 80 10:39 05.05.2020
3750 Clear 9 1022 61 10000 6.2 80 10:19 05.05.2020
3751 Clouds 9 1022 61 10000 4.1 100 09:58 05.05.2020
3752 Clouds 9 1022 70 10000 3.6 90 09:40 05.05.2020
3753 Clouds 8 1022 70 10000 4.1 80 09:22 05.05.2020
3754 Clouds 7 1022 75 10000 2.6 70 08:41 05.05.2020
3755 Clouds 7 1022 75 10000 3.6 80 08:20 05.05.2020
3756 Clouds 7 1022 75 10000 3.6 80 07:57 05.05.2020
3757 Clouds 6 1022 81 10000 1 0 07:38 05.05.2020
3758 Clouds 6 1022 81 10000 1 0 07:18 05.05.2020
3759 Clouds 6 1022 81 10000 3.1 80 06:45 05.05.2020
3760 Clouds 6 1022 81 10000 2.6 70 06:21 05.05.2020
3761 Clouds 7 1022 81 10000 3.6 90 05:36 05.05.2020
3762 Clouds 7 1022 70 10000 2.6 100 03:34 05.05.2020
3763 Clouds 8 1024 75 10000 4.6 90 01:27 05.05.2020
3764 Clear 8 1024 75 10000 4.1 80 00:50 05.05.2020
3765 Clear 8 1024 75 10000 4.1 80 00:20 05.05.2020
3766 Clear 8 1023 70 10000 4.6 80 23:43 04.05.2020
3767 Clear 9 1023 70 10000 4.6 80 23:21 04.05.2020
3768 Clear 9 1022 66 10000 4.1 70 22:56 04.05.2020
3769 Clear 9 1022 71 10000 5.1 80 22:38 04.05.2020
3770 Clear 10 1022 71 10000 5.1 80 22:19 04.05.2020
3771 Clear 10 1022 66 10000 3.6 80 21:53 04.05.2020
3772 Clear 10 1022 66 10000 3.6 80 21:53 04.05.2020
3773 Clear 10 1022 66 10000 3.6 80 21:53 04.05.2020
3774 Clear 10 1022 66 10000 3.6 80 21:52 04.05.2020
3775 Clear 10 1022 66 10000 3.6 80 21:52 04.05.2020
3776 Clear 11 1022 62 10000 5.1 70 21:30 04.05.2020
3777 Clear 11 1022 62 10000 5.1 70 21:30 04.05.2020
3778 Clear 11 1022 62 10000 5.1 70 21:30 04.05.2020
3779 Clear 11 1022 62 10000 5.1 70 21:30 04.05.2020
3780 Clear 11 1022 62 10000 5.1 70 21:30 04.05.2020
3781 Clouds 12 1021 58 10000 5.1 70 20:44 04.05.2020
3782 Clouds 13 1021 58 10000 5.1 70 20:23 04.05.2020
3783 Clouds 13 1021 58 10000 5.7 80 19:59 04.05.2020
3784 Clear 14 1021 58 10000 5.7 70 19:40 04.05.2020
3785 Clear 14 1021 58 10000 5.7 70 19:20 04.05.2020
3786 Clouds 14 1021 58 10000 5.7 70 18:55 04.05.2020
3787 Clouds 14 1021 58 10000 6.7 60 18:36 04.05.2020
3788 Clouds 15 1021 58 10000 6.7 60 18:18 04.05.2020
3789 Clouds 15 1021 58 10000 6.7 50 17:54 04.05.2020
3790 Clouds 15 1021 51 10000 3.1 80 17:36 04.05.2020
3791 Clouds 15 1021 51 10000 3.1 80 17:18 04.05.2020
3792 Clouds 15 1021 51 10000 3.1 80 17:18 04.05.2020
3793 Clouds 15 1022 51 10000 4.1 60 16:41 04.05.2020
3794 Clouds 15 1022 51 10000 4.1 60 16:20 04.05.2020
3795 Clouds 16 1022 51 10000 3.1 90 15:45 04.05.2020
3796 Clouds 15 1022 51 10000 3.1 90 15:24 04.05.2020
3797 Clouds 15 1021 54 10000 3.6 80 14:55 04.05.2020
3798 Clouds 15 1021 47 10000 5.1 40 14:35 04.05.2020
3799 Clouds 15 1021 47 10000 5.1 40 14:35 04.05.2020
3800 Clouds 15 1021 47 10000 5.1 40 14:35 04.05.2020
3801 Clouds 15 1021 47 10000 5.1 40 14:35 04.05.2020
3802 Clouds 15 1021 47 10000 5.1 40 14:35 04.05.2020
3803 Clouds 15 1021 54 10000 2.6 60 13:40 04.05.2020
3804 Clouds 15 1021 58 10000 2.6 50 12:45 04.05.2020
3805 Clouds 15 1021 58 10000 2.6 50 12:45 04.05.2020
3806 Clouds 14 1021 62 10000 4.1 40 12:45 04.05.2020
3807 Clouds 14 1021 62 10000 3.6 60 11:56 04.05.2020
3808 Clouds 14 1021 62 10000 3.6 60 11:56 04.05.2020
3809 Clouds 14 1021 62 10000 3.6 60 11:55 04.05.2020
3810 Clouds 14 1021 62 10000 3.6 60 11:54 04.05.2020
3811 Clouds 14 1021 62 10000 3.6 60 11:54 04.05.2020
3812 Clear 11 1020 87 8000 3.1 50 09:32 04.05.2020
3813 Clouds 9 1019 93 10000 3.1 40 08:32 04.05.2020
3814 Clouds 9 1019 93 10000 3.1 40 08:32 04.05.2020
3815 Clear 9 1019 93 10000 3.1 40 08:29 04.05.2020
3816 Clouds 9 1019 93 10000 3.1 40 08:26 04.05.2020
3817 Clouds 9 1019 93 10000 3.1 40 08:26 04.05.2020
3818 Clouds 8 1019 87 10000 1.5 70 07:43 04.05.2020
3819 Clouds 8 1018 87 10000 0.5 0 06:36 04.05.2020
3820 Clouds 8 1018 87 10000 0.5 0 06:36 04.05.2020
3821 Clouds 8 1018 87 10000 0.5 0 06:36 04.05.2020
3822 Clouds 8 1018 87 10000 0.5 0 06:36 04.05.2020
3823 Clouds 8 1018 87 10000 0.5 0 06:36 04.05.2020
3824 Clouds 8 1018 87 10000 0.5 0 04:55 04.05.2020
3825 Clouds 10 1018 76 10000 0.5 0 03:18 04.05.2020
3826 Clouds 10 1018 87 10000 0.5 0 02:30 04.05.2020
3827 Clouds 11 1017 87 10000 1 210 00:36 04.05.2020
3828 Clouds 11 1017 87 10000 1 210 00:36 04.05.2020
3829 Clouds 11 1017 87 10000 1.5 240 23:45 03.05.2020
3830 Clouds 11 1017 81 10000 1 0 23:24 03.05.2020
3831 Clouds 12 1016 71 10000 1.5 170 22:46 03.05.2020
3832 Clouds 12 1016 71 10000 1.5 170 22:25 03.05.2020
3833 Clouds 13 1016 71 10000 1.5 180 21:58 03.05.2020
3834 Clouds 13 1016 71 10000 1.5 220 21:40 03.05.2020
3835 Clouds 14 1016 71 10000 1.5 220 21:20 03.05.2020
3836 Clouds 14 1016 66 10000 2.1 230 20:46 03.05.2020
3837 Clouds 14 1016 66 10000 2.1 230 20:46 03.05.2020
3838 Clouds 14 1016 66 10000 2.1 230 20:46 03.05.2020
3839 Rain 15 1016 54 10000 1.5 0 20:22 03.05.2020
3840 Rain 15 1016 54 10000 1.5 0 19:50 03.05.2020
3841 Rain 15 1016 54 10000 1.5 0 19:50 03.05.2020
3842 Rain 15 1016 54 10000 0.5 0 19:32 03.05.2020
3843 Rain 15 1016 54 10000 1.5 0 19:00 03.05.2020
3844 Rain 15 1016 54 10000 1.5 0 19:00 03.05.2020
3845 Rain 15 1016 54 10000 1.5 0 19:00 03.05.2020
3846 Rain 15 1016 54 10000 1.5 0 19:00 03.05.2020
3847 Rain 15 1016 47 10000 1.5 0 18:38 03.05.2020
3848 Rain 15 1016 47 10000 1.5 0 18:38 03.05.2020
3849 Rain 15 1016 47 10000 1.5 0 18:38 03.05.2020
3850 Rain 15 1016 47 10000 1.5 0 18:38 03.05.2020
3851 Clouds 15 1016 47 10000 1.5 0 18:19 03.05.2020
3852 Clouds 15 1016 47 10000 2.6 200 18:19 03.05.2020
3853 Clouds 15 1016 44 10000 1.5 0 17:42 03.05.2020
3854 Clouds 16 1016 44 10000 1.5 0 17:22 03.05.2020
3855 Clouds 16 1016 44 10000 1.5 0 16:46 03.05.2020
3856 Clouds 16 1016 51 10000 1 0 16:21 03.05.2020
3857 Clouds 16 1016 58 10000 0.5 0 15:59 03.05.2020
3858 Clouds 17 1016 54 10000 1 0 15:41 03.05.2020
3859 Clouds 17 1016 54 10000 1 0 15:21 03.05.2020
3860 Clouds 16 1016 62 10000 1.5 0 14:59 03.05.2020
3861 Clear 15 1016 62 10000 2.1 30 14:40 03.05.2020
3862 Clear 15 1016 62 10000 2.1 30 14:40 03.05.2020
3863 Clouds 15 1016 62 10000 2.1 30 14:21 03.05.2020
3864 Clouds 14 1016 66 10000 1 0 13:55 03.05.2020
3865 Clouds 13 1016 71 10000 1 0 13:28 03.05.2020
3866 Clouds 13 1016 71 10000 1 0 13:28 03.05.2020
3867 Clouds 13 1016 71 10000 1 0 13:28 03.05.2020
3868 Clouds 13 1016 71 10000 1 0 13:28 03.05.2020
3869 Clouds 13 1016 71 10000 1 0 13:28 03.05.2020
3870 Clouds 13 1016 76 10000 0.5 0 12:45 03.05.2020
3871 Clouds 13 1016 76 9000 1 0 12:19 03.05.2020
3872 Clouds 13 1016 71 10000 1.5 0 11:56 03.05.2020
3873 Rain 12 1016 76 10000 1.5 0 11:37 03.05.2020
3874 Rain 12 1016 76 10000 1.5 0 11:19 03.05.2020
3875 Clouds 11 1016 81 6000 1.5 0 10:47 03.05.2020
3876 Clouds 11 1016 81 6000 1.5 0 10:47 03.05.2020
3877 Clouds 11 1016 81 6000 1.5 0 10:47 03.05.2020
3878 Clouds 11 1016 81 6000 1.5 0 10:47 03.05.2020
3879 Clouds 10 1015 87 10000 1 0 09:58 03.05.2020
3880 Clouds 9 1015 87 10000 0.5 0 09:37 03.05.2020
3881 Clouds 9 1015 87 10000 0.5 0 09:37 03.05.2020
3882 Clouds 8 1015 93 10000 0.5 0 08:56 03.05.2020
3883 Clouds 7 1015 93 10000 1 50 08:26 03.05.2020
3884 Clouds 5 1014 93 10000 0.5 80 07:40 03.05.2020
3885 Clouds 5 1015 100 10000 1 50 06:21 03.05.2020
3886 Clouds 5 1015 93 10000 0.5 0 05:47 03.05.2020
3887 Clouds 5 1015 93 10000 1.5 100 04:56 03.05.2020
3888 Clouds 5 1015 100 10000 1.5 100 04:27 03.05.2020
3889 Clouds 6 1015 100 10000 0.5 0 02:59 03.05.2020
3890 Clouds 6 1015 100 10000 1 150 02:24 03.05.2020
3891 Clouds 7 1014 86 0 0.39 9 01:45 03.05.2020
3892 Clouds 6 1014 93 10000 1 0 01:27 03.05.2020
3893 Clouds 7 1015 93 10000 1 160 00:55 03.05.2020
3894 Clouds 7 1015 87 10000 1.5 230 00:37 03.05.2020
3895 Clouds 8 1015 87 10000 1.5 230 00:18 03.05.2020
3896 Clouds 8 1014 76 10000 1.5 340 23:42 02.05.2020
3897 Clear 8 1014 76 10000 1.5 340 23:24 02.05.2020
3898 Clear 10 1014 71 10000 3.1 320 22:43 02.05.2020
3899 Clear 10 1014 71 10000 3.1 320 22:43 02.05.2020
3900 Clear 10 1014 71 10000 3.1 320 22:24 02.05.2020
3901 Clear 11 1014 66 10000 2.6 290 21:56 02.05.2020
3902 Clear 11 1014 62 10000 3.6 300 21:38 02.05.2020
3903 Clear 11 1014 62 10000 3.6 300 21:38 02.05.2020
3904 Clouds 12 1013 62 10000 4.1 280 21:18 02.05.2020
3905 Clouds 12 1013 62 10000 4.1 280 20:57 02.05.2020
3906 Clouds 13 1013 58 10000 5.1 290 20:37 02.05.2020
3907 Clouds 13 1013 58 10000 5.1 290 20:19 02.05.2020
3908 Clouds 13 1013 58 10000 4.6 280 19:56 02.05.2020
3909 Clouds 13 1012 62 10000 4.6 280 19:38 02.05.2020
3910 Clouds 13 1012 62 10000 4.6 280 19:18 02.05.2020
3911 Clouds 14 1012 58 10000 5.1 310 18:41 02.05.2020
3912 Clouds 13 1012 58 10000 5.1 310 18:22 02.05.2020
3913 Clouds 14 1012 62 10000 5.1 290 17:58 02.05.2020
3914 Clouds 14 1012 62 10000 5.7 320 17:39 02.05.2020
3915 Clouds 13 1012 62 10000 5.7 320 17:20 02.05.2020
3916 Clouds 13 1012 62 10000 5.1 280 16:58 02.05.2020
3917 Clouds 13 1012 62 10000 5.7 280 16:39 02.05.2020
3918 Clouds 13 1012 62 10000 5.7 280 16:21 02.05.2020
3919 Clouds 13 1011 62 10000 6.2 290 15:42 02.05.2020
3920 Clouds 13 1011 62 10000 6.2 290 15:20 02.05.2020
3921 Clouds 13 1011 62 10000 5.7 280 14:46 02.05.2020
3922 Clouds 13 1011 66 10000 5.7 270 14:28 02.05.2020
3923 Clouds 12 1010 71 10000 5.7 260 13:59 02.05.2020
3924 Clouds 13 1010 71 10000 5.7 260 13:40 02.05.2020
3925 Clouds 12 1010 71 10000 5.7 260 13:20 02.05.2020
3926 Clouds 12 1009 66 10000 3.1 310 12:43 02.05.2020
3927 Clouds 12 1009 66 10000 3.1 310 12:24 02.05.2020
3928 Clouds 11 1009 71 10000 3.1 290 11:58 02.05.2020
3929 Clouds 11 1009 71 10000 4.1 290 11:39 02.05.2020
3930 Clouds 11 1009 71 10000 4.1 290 11:21 02.05.2020
3931 Clouds 10 1008 76 10000 3.1 280 10:56 02.05.2020
3932 Clouds 10 1008 81 10000 3.1 260 10:38 02.05.2020
3933 Clouds 10 1008 81 10000 3.1 260 10:20 02.05.2020
3934 Clouds 10 1008 81 10000 3.1 260 10:20 02.05.2020
3935 Clouds 9 1008 87 10000 2.6 250 09:54 02.05.2020
3936 Clouds 9 1008 93 10000 3.6 240 09:36 02.05.2020
3937 Clouds 8 1008 93 10000 3.6 240 09:18 02.05.2020
3938 Clouds 7 1007 93 10000 1 220 08:44 02.05.2020
3939 Clouds 8 1007 93 10000 1 220 08:25 02.05.2020
3940 Clouds 7 1007 93 10000 1 0 07:47 02.05.2020
3941 Clouds 7 1006 93 10000 1.5 230 07:27 02.05.2020
3942 Clouds 7 1006 93 10000 2.1 250 06:50 02.05.2020
3943 Clouds 7 1005 93 10000 2.1 220 05:28 02.05.2020
3944 Clouds 7 1005 93 10000 2.1 230 04:47 02.05.2020
3945 Rain 7 1004 93 10000 1.5 230 04:23 02.05.2020
3946 Rain 7 1003 87 10000 1.5 220 02:44 02.05.2020
3947 Rain 7 1003 87 10000 1.5 220 02:22 02.05.2020
3948 Clouds 8 1003 75 10000 3.1 260 01:33 02.05.2020
3949 Rain 7 1003 75 10000 3.6 260 00:46 02.05.2020
3950 Clouds 7 1003 81 10000 3.1 240 00:24 02.05.2020
3951 Clouds 7 1002 81 10000 2.1 220 23:57 01.05.2020
3952 Clouds 7 1002 75 10000 2.6 240 23:38 01.05.2020
3953 Clouds 8 1002 75 10000 2.6 240 23:19 01.05.2020
3954 Rain 8 1002 70 10000 2.1 260 22:54 01.05.2020
3955 Rain 9 1001 66 10000 3.1 290 22:36 01.05.2020
3956 Rain 9 1001 66 10000 3.1 290 22:18 01.05.2020
3957 Rain 10 1001 62 10000 4.6 290 21:41 01.05.2020
3958 Rain 10 1001 62 10000 4.6 290 21:21 01.05.2020
3959 Clouds 10 1001 57 10000 5.7 280 20:58 01.05.2020
3960 Clouds 11 1001 53 10000 6.7 290 20:40 01.05.2020
3961 Clouds 11 1001 53 10000 6.7 290 20:20 01.05.2020
3962 Clouds 11 1000 57 10000 6.2 300 19:59 01.05.2020
3963 Clouds 11 1000 58 10000 7.7 280 19:41 01.05.2020
3964 Clouds 11 1000 58 10000 7.7 280 19:21 01.05.2020
3965 Clouds 11 1000 58 10000 6.7 280 18:56 01.05.2020
3966 Clouds 11 999 54 10000 7.2 280 18:37 01.05.2020
3967 Clouds 12 999 54 10000 7.2 280 18:19 01.05.2020
3968 Clouds 12 999 50 10000 8.2 270 17:41 01.05.2020
3969 Clouds 12 999 50 10000 8.2 270 17:22 01.05.2020
3970 Clouds 12 999 50 10000 7.2 280 16:57 01.05.2020
3971 Clouds 12 999 50 10000 7.2 280 16:57 01.05.2020
3972 Clouds 11 998 54 10000 6.7 270 16:39 01.05.2020
3973 Clouds 12 998 54 10000 6.7 270 16:20 01.05.2020
3974 Clouds 12 998 54 10000 7.2 280 15:57 01.05.2020
3975 Clouds 12 998 54 10000 7.2 280 15:57 01.05.2020
3976 Clouds 12 998 58 10000 7.2 290 15:39 01.05.2020
3977 Clouds 12 998 58 10000 7.2 290 15:19 01.05.2020
3978 Clouds 12 998 58 10000 7.2 290 15:19 01.05.2020
3979 Clouds 11 997 62 10000 5.1 280 14:43 01.05.2020
3980 Clouds 11 997 62 10000 5.1 280 14:24 01.05.2020
3981 Clouds 11 997 66 10000 5.7 260 13:55 01.05.2020
3982 Clouds 11 997 66 10000 6.7 260 13:36 01.05.2020
3983 Clouds 11 997 66 10000 6.7 260 13:18 01.05.2020
3984 Rain 11 997 66 10000 6.2 270 12:54 01.05.2020
3985 Rain 11 997 66 10000 6.2 290 12:36 01.05.2020
3986 Clouds 10 996 76 10000 5.1 270 12:18 01.05.2020
3987 Clouds 10 996 81 10000 5.1 280 11:41 01.05.2020
3988 Rain 10 996 81 10000 5.1 280 11:21 01.05.2020
3989 Rain 9 996 87 10000 5.7 270 10:56 01.05.2020
3990 Rain 9 995 87 10000 5.7 270 10:37 01.05.2020
3991 Clouds 9 995 87 10000 5.7 270 10:19 01.05.2020
3992 Rain 8 995 93 10000 3.6 270 09:42 01.05.2020
3993 Rain 8 995 93 10000 3.6 270 09:19 01.05.2020
3994 Rain 8 995 93 10000 2.1 250 08:47 01.05.2020
3995 Rain 8 994 93 10000 3.1 250 08:28 01.05.2020
3996 Rain 8 994 93 10000 3.1 260 07:59 01.05.2020
3997 Rain 8 994 93 8000 3.1 260 07:39 01.05.2020
3998 Rain 7 994 100 10000 3.1 260 07:18 01.05.2020
3999 Clouds 7 993 93 10000 2.6 250 06:27 01.05.2020
4000 Clouds 7 993 93 10000 2.1 260 05:21 01.05.2020
4001 Rain 7 992 93 6000 3.1 220 03:44 01.05.2020
4002 Rain 7 992 93 10000 4.1 210 02:53 01.05.2020
4003 Rain 7 992 93 7000 2.1 200 02:35 01.05.2020
4004 Rain 7 992 93 4100 2.6 210 01:53 01.05.2020
4005 Rain 7 992 93 10000 3.1 220 01:27 01.05.2020
4006 Rain 7 992 93 10000 3.1 200 00:40 01.05.2020
4007 Rain 7 992 93 10000 3.1 200 00:21 01.05.2020
4008 Rain 7 992 93 10000 3.6 210 23:57 30.04.2020
4009 Rain 7 992 93 10000 3.6 210 23:39 30.04.2020
4010 Rain 7 992 93 10000 3.6 210 23:20 30.04.2020
4011 Rain 7 992 93 10000 3.6 210 23:20 30.04.2020
4012 Rain 7 992 81 10000 3.1 210 22:56 30.04.2020
4013 Rain 7 991 81 10000 4.1 220 22:37 30.04.2020
4014 Rain 8 991 81 10000 4.1 210 22:18 30.04.2020
4015 Rain 8 991 93 10000 2.1 210 21:41 30.04.2020
4016 Rain 8 991 87 10000 3.1 260 21:21 30.04.2020
4017 Rain 8 991 87 10000 3.1 260 20:58 30.04.2020
4018 Rain 9 990 87 10000 2.6 270 20:39 30.04.2020
4019 Rain 9 990 87 10000 2.6 270 20:18 30.04.2020
4020 Rain 9 990 87 10000 2.6 270 20:18 30.04.2020
4021 Rain 9 990 87 10000 3.1 300 19:45 30.04.2020
4022 Rain 9 990 81 10000 4.6 290 19:26 30.04.2020
4023 Rain 9 990 71 10000 6.2 250 18:57 30.04.2020
4024 Rain 9 989 62 10000 5.7 260 18:39 30.04.2020
4025 Rain 11 989 71 10000 3.1 290 18:21 30.04.2020
4026 Rain 10 989 71 10000 3.1 290 17:57 30.04.2020
4027 Rain 10 989 76 10000 2.1 220 17:39 30.04.2020
4028 Rain 9 989 81 10000 2.1 210 17:20 30.04.2020
4029 Rain 9 989 81 10000 2.1 210 16:56 30.04.2020
4030 Rain 10 989 62 10000 3.6 0 16:38 30.04.2020
4031 Rain 9 989 62 10000 3.6 190 16:18 30.04.2020
4032 Rain 9 989 62 10000 4.6 190 15:44 30.04.2020
4033 Rain 10 989 62 10000 4.6 190 15:23 30.04.2020
4034 Clouds 12 989 62 10000 4.6 180 14:43 30.04.2020
4035 Clouds 12 990 66 10000 4.6 200 14:22 30.04.2020
4036 Clouds 11 990 66 10000 4.6 200 14:00 30.04.2020
4037 Clouds 11 990 76 10000 3.1 180 13:41 30.04.2020
4038 Clouds 11 990 76 10000 3.1 180 13:23 30.04.2020
4039 Clouds 11 990 66 10000 4.1 180 12:59 30.04.2020
4040 Clouds 11 990 66 10000 5.7 180 12:41 30.04.2020
4041 Clouds 11 990 66 10000 5.7 180 12:19 30.04.2020
4042 Clouds 10 990 71 10000 4.1 180 11:38 30.04.2020
4043 Clouds 10 990 71 10000 4.1 180 11:19 30.04.2020
4044 Clouds 10 991 70 10000 4.1 180 10:59 30.04.2020
4045 Clouds 9 990 75 10000 3.6 180 10:39 30.04.2020
4046 Clouds 9 990 75 10000 3.6 180 10:21 30.04.2020
4047 Rain 9 990 75 10000 4.6 170 09:56 30.04.2020
4048 Rain 9 990 70 10000 4.1 170 09:37 30.04.2020
4049 Rain 8 990 70 10000 4.1 170 09:18 30.04.2020
4050 Clouds 8 990 75 10000 4.1 160 08:44 30.04.2020
4051 Clouds 7 990 75 10000 4.1 160 08:24 30.04.2020
4052 Clouds 7 990 75 10000 2.1 0 07:44 30.04.2020
4053 Clouds 7 990 75 10000 2.1 0 07:44 30.04.2020
4054 Clouds 7 990 75 10000 2.1 0 07:25 30.04.2020
4055 Clouds 7 990 75 10000 2.6 160 06:52 30.04.2020
4056 Clouds 8 991 70 10000 3.1 180 06:18 30.04.2020
4057 Clouds 8 991 75 10000 2.1 0 05:44 30.04.2020
4058 Clouds 8 991 81 10000 3.1 180 04:36 30.04.2020
4059 Clouds 8 991 87 10000 2.6 160 03:57 30.04.2020
4060 Clouds 9 992 81 10000 2.1 150 02:46 30.04.2020
4061 Clouds 9 992 81 10000 2.1 160 02:24 30.04.2020
4062 Rain 9 992 76 10000 3.1 130 01:36 30.04.2020
4063 Clouds 9 993 76 10000 1.5 0 00:42 30.04.2020
4064 Clouds 9 993 76 10000 1.5 0 00:19 30.04.2020
4065 Clouds 9 993 75 10000 1 0 23:56 29.04.2020
4066 Clouds 9 994 66 10000 1.5 0 23:36 29.04.2020
4067 Clouds 9 994 66 10000 1.5 0 23:18 29.04.2020
4068 Clouds 9 994 81 10000 1.5 100 22:40 29.04.2020
4069 Clouds 9 994 81 10000 1.5 100 22:21 29.04.2020
4070 Clouds 9 994 66 10000 1.5 110 21:57 29.04.2020
4071 Clouds 9 994 66 10000 1.5 110 21:57 29.04.2020
4072 Clouds 11 995 57 10000 2.1 200 21:36 29.04.2020
4073 Clouds 11 995 57 10000 2.1 200 21:18 29.04.2020
4074 Clouds 12 995 62 10000 2.6 210 20:40 29.04.2020
4075 Clouds 12 995 62 10000 2.6 210 20:20 29.04.2020
4076 Clouds 12 995 66 10000 2.6 190 19:58 29.04.2020
4077 Clouds 12 996 71 10000 1.5 0 19:40 29.04.2020
4078 Clouds 12 996 71 10000 1.5 0 19:40 29.04.2020
4079 Rain 11 996 71 10000 1.5 0 19:19 29.04.2020
4080 Clouds 11 996 81 10000 2.6 0 18:43 29.04.2020
4081 Clouds 11 996 81 10000 2.6 0 18:24 29.04.2020
4082 Clouds 11 996 81 10000 3.6 130 17:57 29.04.2020
4083 Clouds 11 996 81 10000 3.6 130 17:57 29.04.2020
4084 Rain 11 996 87 10000 3.1 0 17:39 29.04.2020
4085 Rain 10 996 87 10000 3.1 0 17:20 29.04.2020
4086 Rain 9 997 93 5000 2.1 70 16:38 29.04.2020
4087 Rain 9 997 93 5000 2.1 70 16:38 29.04.2020
4088 Rain 8 997 93 5000 2.1 70 16:19 29.04.2020
4089 Rain 8 997 87 10000 2.1 100 15:57 29.04.2020
4090 Rain 9 998 81 5000 2.1 120 15:39 29.04.2020
4091 Rain 9 998 81 5000 2.1 120 15:20 29.04.2020
4092 Rain 9 998 81 5000 2.1 120 15:20 29.04.2020
4093 Rain 9 999 81 10000 3.6 120 14:56 29.04.2020
4094 Rain 9 999 81 10000 2.6 120 14:38 29.04.2020
4095 Rain 8 1000 81 10000 3.6 130 14:18 29.04.2020
4096 Clouds 8 1000 81 10000 3.1 130 13:42 29.04.2020
4097 Clouds 8 1000 81 10000 3.1 130 13:20 29.04.2020
4098 Clouds 8 1000 81 10000 3.1 130 13:20 29.04.2020
4099 Clouds 9 1000 81 10000 3.1 0 12:57 29.04.2020
4100 Clouds 8 1000 81 10000 3.6 140 12:38 29.04.2020
4101 Clouds 8 1000 81 10000 3.6 140 12:18 29.04.2020
4102 Clouds 8 1001 81 10000 3.1 130 11:40 29.04.2020
4103 Clouds 8 1001 81 10000 3.1 130 11:20 29.04.2020
4104 Clouds 8 1001 81 10000 2.6 120 10:57 29.04.2020
4105 Clouds 7 1002 81 10000 3.1 120 10:37 29.04.2020
4106 Clouds 7 1002 81 10000 3.1 120 10:37 29.04.2020
4107 Clouds 7 1002 87 10000 2.6 120 10:19 29.04.2020
4108 Clouds 7 1002 87 10000 2.1 120 09:42 29.04.2020
4109 Clouds 7 1002 87 10000 2.1 120 09:22 29.04.2020
4110 Clouds 7 1003 87 10000 1.5 0 08:55 29.04.2020
4111 Clouds 6 1003 93 10000 1 0 08:36 29.04.2020
4112 Clouds 6 1003 93 10000 1 0 08:18 29.04.2020
4113 Clouds 6 1003 93 10000 1 0 07:39 29.04.2020
4114 Rain 6 1003 93 10000 1 0 07:18 29.04.2020
4115 Rain 6 1003 93 10000 1 0 06:48 29.04.2020
4116 Clouds 6 1004 87 10000 1 0 06:30 29.04.2020
4117 Clouds 6 1005 93 10000 1.5 80 05:21 29.04.2020
4118 Clouds 6 1005 93 10000 1.5 80 05:21 29.04.2020
4119 Rain 6 1005 93 10000 2.1 70 04:21 29.04.2020
4120 Rain 6 1005 93 10000 0.5 50 03:59 29.04.2020
4121 Rain 6 1006 93 10000 1.5 70 02:39 29.04.2020
4122 Rain 6 1006 93 10000 2.1 80 01:44 29.04.2020
4123 Rain 6 1006 93 10000 1.5 70 01:20 29.04.2020
4124 Rain 6 1006 93 8000 2.1 70 00:39 29.04.2020
4125 Rain 6 1006 93 8000 2.1 70 00:19 29.04.2020
4126 Rain 6 1006 93 10000 2.1 60 23:48 28.04.2020
4127 Rain 6 1006 93 10000 1.5 70 23:23 28.04.2020
4128 Rain 6 1006 93 10000 1 80 22:40 28.04.2020
4129 Rain 6 1006 93 10000 1 80 22:22 28.04.2020
4130 Rain 7 1006 93 10000 0.5 0 21:59 28.04.2020
4131 Rain 7 1006 93 10000 1.5 0 21:41 28.04.2020
4132 Rain 7 1006 93 10000 1.5 0 21:23 28.04.2020
4133 Rain 7 1006 87 10000 1.5 0 20:59 28.04.2020
4134 Rain 7 1006 87 10000 1.5 0 20:59 28.04.2020
4135 Rain 7 1006 93 10000 1.5 0 20:40 28.04.2020
4136 Rain 8 1006 93 10000 1.5 0 20:21 28.04.2020
4137 Rain 8 1006 87 10000 1 0 19:58 28.04.2020
4138 Rain 8 1006 87 9000 1 0 19:39 28.04.2020
4139 Rain 8 1006 87 9000 1 0 19:20 28.04.2020
4140 Rain 8 1006 87 10000 1 0 18:57 28.04.2020
4141 Rain 8 1006 81 10000 1 0 18:38 28.04.2020
4142 Rain 9 1006 81 10000 1 0 18:18 28.04.2020
4143 Rain 9 1006 81 10000 1 0 17:37 28.04.2020
4144 Rain 9 1006 76 7000 1.5 0 17:19 28.04.2020
4145 Rain 9 1006 81 10000 1 0 17:19 28.04.2020
4146 Rain 9 1006 76 7000 1.5 0 16:58 28.04.2020
4147 Rain 9 1006 76 10000 3.1 90 16:39 28.04.2020
4148 Rain 10 1006 70 10000 1.5 0 16:21 28.04.2020
4149 Rain 10 1006 70 10000 1.5 0 15:56 28.04.2020
4150 Clouds 10 1006 70 10000 2.1 90 15:38 28.04.2020
4151 Clouds 10 1006 70 10000 2.1 90 15:20 28.04.2020
4152 Clouds 10 1006 66 10000 4.1 70 14:54 28.04.2020
4153 Clouds 10 1006 66 10000 4.1 70 14:36 28.04.2020
4154 Clouds 10 1006 66 10000 4.1 70 14:18 28.04.2020
4155 Clouds 9 1006 66 10000 2.6 0 13:41 28.04.2020
4156 Clouds 9 1006 66 10000 2.6 0 13:23 28.04.2020
4157 Clouds 9 1006 66 10000 2.6 0 12:58 28.04.2020
4158 Clouds 9 1006 66 10000 2.1 0 12:40 28.04.2020
4159 Clouds 9 1006 66 10000 2.1 0 12:21 28.04.2020
4160 Clouds 9 1006 70 10000 2.1 90 11:42 28.04.2020
4161 Clouds 9 1006 70 10000 2.1 90 11:21 28.04.2020
4162 Clouds 9 1006 70 10000 2.6 90 10:57 28.04.2020
4163 Clouds 8 1006 70 10000 3.1 100 10:38 28.04.2020
4164 Clouds 8 1006 70 10000 2.1 90 10:18 28.04.2020
4165 Clouds 8 1006 70 10000 2.1 90 10:18 28.04.2020
4166 Clouds 8 1006 70 10000 2.6 50 09:43 28.04.2020
4167 Clouds 8 1006 70 10000 2.6 50 09:24 28.04.2020
4168 Clouds 8 1006 70 10000 3.1 60 08:54 28.04.2020
4169 Clouds 8 1006 70 10000 3.6 60 08:36 28.04.2020
4170 Clouds 8 1006 65 10000 2.1 50 08:18 28.04.2020
4171 Clouds 8 1006 65 10000 2.1 90 07:41 28.04.2020
4172 Clouds 8 1006 65 10000 2.1 90 07:18 28.04.2020
4173 Clouds 8 1006 57 10000 2.6 80 06:39 28.04.2020
4174 Clouds 9 1006 57 10000 2.1 80 05:48 28.04.2020
4175 Clouds 9 1006 57 10000 2.1 80 05:30 28.04.2020
4176 Clouds 9 1007 57 10000 2.6 70 04:33 28.04.2020
4177 Clouds 9 1008 76 10000 2.1 70 02:38 28.04.2020
4178 Clouds 8 1008 81 10000 1 0 01:27 28.04.2020
4179 Clouds 8 1008 81 10000 0.5 0 00:59 28.04.2020
4180 Clouds 8 1008 70 10000 0.5 0 00:29 28.04.2020
4181 Clouds 9 1008 61 10000 1 0 23:49 27.04.2020
4182 Clear 10 1008 61 10000 1 240 23:26 27.04.2020
4183 Clear 10 1008 57 10000 1.5 290 22:58 27.04.2020
4184 Clouds 11 1008 53 10000 2.1 320 22:40 27.04.2020
4185 Clouds 11 1008 53 10000 2.1 320 22:22 27.04.2020
4186 Clouds 11 1007 53 10000 3.1 310 21:57 27.04.2020
4187 Clouds 12 1007 50 10000 4.1 310 21:38 27.04.2020
4188 Clouds 12 1007 50 10000 4.1 310 21:38 27.04.2020
4189 Clear 12 1007 50 10000 4.1 310 21:19 27.04.2020
4190 Clear 12 1007 47 10000 4.1 280 20:55 27.04.2020
4191 Clear 13 1007 47 10000 4.6 280 20:37 27.04.2020
4192 Clouds 13 1007 47 10000 4.6 280 20:18 27.04.2020
4193 Clouds 14 1007 44 10000 3.6 270 19:40 27.04.2020
4194 Clouds 15 1007 41 10000 4.1 270 19:22 27.04.2020
4195 Clouds 15 1007 41 10000 4.1 270 18:59 27.04.2020
4196 Clouds 15 1007 41 10000 4.1 270 18:59 27.04.2020
4197 Clouds 15 1007 41 10000 2.1 290 18:40 27.04.2020
4198 Clouds 16 1007 41 10000 2.1 290 18:19 27.04.2020
4199 Clouds 16 1007 36 10000 1 0 17:57 27.04.2020
4200 Clouds 16 1007 36 10000 2.6 230 17:38 27.04.2020
4201 Clouds 16 1007 33 10000 2.1 250 17:18 27.04.2020
4202 Clouds 15 1008 38 10000 1 0 16:40 27.04.2020
4203 Clouds 16 1008 38 10000 1 0 16:22 27.04.2020
4204 Clouds 15 1008 43 10000 1.5 0 15:57 27.04.2020
4205 Clouds 15 1008 41 10000 2.1 220 15:38 27.04.2020
4206 Clouds 15 1008 44 10000 2.1 0 15:19 27.04.2020
4207 Clouds 15 1008 44 10000 2.1 0 14:56 27.04.2020
4208 Clouds 14 1008 50 10000 1.5 0 14:38 27.04.2020
4209 Clouds 15 1008 50 10000 1.5 0 14:18 27.04.2020
4210 Clouds 15 1008 58 10000 1 0 13:42 27.04.2020
4211 Clouds 14 1008 58 10000 1 0 13:21 27.04.2020
4212 Clouds 13 1009 62 10000 2.1 260 12:57 27.04.2020
4213 Clouds 13 1009 66 10000 2.1 270 12:39 27.04.2020
4214 Clouds 12 1009 66 10000 2.1 270 12:20 27.04.2020
4215 Clouds 11 1009 71 10000 2.1 320 11:41 27.04.2020
4216 Clouds 11 1009 71 10000 2.1 320 11:21 27.04.2020
4217 Clouds 10 1009 76 10000 2.1 300 10:57 27.04.2020
4218 Clouds 10 1009 76 10000 2.1 300 10:39 27.04.2020
4219 Clouds 10 1009 76 10000 2.1 300 10:20 27.04.2020
4220 Clouds 9 1009 76 10000 3.1 320 09:44 27.04.2020
4221 Clouds 9 1009 76 10000 3.1 320 09:44 27.04.2020
4222 Clouds 9 1009 76 10000 3.1 320 09:19 27.04.2020
4223 Clouds 9 1008 76 10000 2.6 310 08:58 27.04.2020
4224 Clouds 9 1008 76 10000 3.1 320 08:40 27.04.2020
4225 Clouds 8 1008 76 10000 3.1 320 08:22 27.04.2020
4226 Clouds 8 1008 81 10000 2.6 330 07:44 27.04.2020
4227 Clouds 8 1008 81 10000 2.6 330 07:20 27.04.2020
4228 Clouds 8 1008 81 10000 2.1 330 06:47 27.04.2020
4229 Clouds 8 1008 76 10000 1.5 310 06:25 27.04.2020
4230 Clouds 9 1009 76 10000 1.5 320 05:50 27.04.2020
4231 Clouds 9 1009 76 10000 2.6 300 04:49 27.04.2020
4232 Clouds 9 1009 70 10000 2.6 300 03:49 27.04.2020
4233 Clouds 9 1009 76 10000 2.1 270 02:58 27.04.2020
4234 Clouds 9 1010 75 10000 1.5 270 01:35 27.04.2020
4235 Clouds 9 1010 70 10000 2.6 300 00:57 27.04.2020
4236 Clouds 9 1010 70 10000 2.1 290 00:20 27.04.2020
4237 Clouds 10 1010 66 10000 3.1 290 23:56 26.04.2020
4238 Clouds 10 1010 66 10000 3.1 290 23:37 26.04.2020
4239 Clouds 10 1010 66 10000 3.1 290 23:19 26.04.2020
4240 Clouds 10 1010 66 10000 2.6 300 22:58 26.04.2020
4241 Clouds 10 1010 66 10000 2.6 300 22:39 26.04.2020
4242 Clouds 10 1010 66 10000 2.6 300 22:39 26.04.2020
4243 Clouds 11 1010 66 10000 2.6 300 22:19 26.04.2020
4244 Clouds 11 1010 66 10000 3.6 290 21:57 26.04.2020
4245 Clouds 11 1010 66 10000 3.6 300 21:37 26.04.2020
4246 Rain 12 1010 66 10000 4.1 280 21:18 26.04.2020
4247 Rain 12 1010 66 10000 3.6 300 21:18 26.04.2020
4248 Rain 12 1009 58 10000 4.6 300 20:40 26.04.2020
4249 Rain 13 1009 58 10000 4.6 300 20:21 26.04.2020
4250 Rain 13 1009 58 10000 3.6 290 19:59 26.04.2020
4251 Rain 14 1009 62 10000 4.1 290 19:38 26.04.2020
4252 Rain 14 1009 62 10000 4.1 290 19:20 26.04.2020
4253 Rain 15 1009 67 10000 4.1 280 18:54 26.04.2020
4254 Rain 16 1010 62 10000 5.1 290 18:36 26.04.2020
4255 Rain 16 1010 62 10000 5.1 290 18:18 26.04.2020
4256 Rain 16 1010 63 10000 4.6 290 17:40 26.04.2020
4257 Rain 16 1010 63 10000 4.6 290 17:22 26.04.2020
4258 Clouds 17 1010 59 10000 4.1 260 16:43 26.04.2020
4259 Clouds 17 1010 59 10000 4.1 260 16:24 26.04.2020
4260 Clouds 16 1010 52 10000 4.1 270 15:59 26.04.2020
4261 Clouds 16 1010 52 10000 4.1 270 15:59 26.04.2020
4262 Clouds 17 1011 55 10000 4.1 280 15:41 26.04.2020
4263 Clouds 16 1011 55 10000 4.1 280 15:41 26.04.2020
4264 Clouds 17 1011 55 10000 4.1 280 15:22 26.04.2020
4265 Clouds 17 1011 59 10000 2.1 260 14:57 26.04.2020
4266 Rain 17 1011 55 10000 2.6 260 14:38 26.04.2020
4267 Rain 17 1011 55 10000 2.6 260 14:18 26.04.2020
4268 Rain 17 1011 59 10000 3.6 280 13:56 26.04.2020
4269 Rain 17 1011 63 10000 2.6 280 13:38 26.04.2020
4270 Rain 17 1012 63 10000 2.1 260 13:19 26.04.2020
4271 Rain 17 1012 67 10000 1.5 0 12:41 26.04.2020
4272 Rain 17 1012 67 10000 1.5 0 12:41 26.04.2020
4273 Clouds 16 1012 67 10000 1.5 0 12:22 26.04.2020
4274 Clouds 15 1012 67 10000 1.5 0 11:59 26.04.2020
4275 Clouds 15 1012 71 10000 1.5 0 11:40 26.04.2020
4276 Clouds 15 1012 71 10000 1.5 0 11:22 26.04.2020
4277 Clouds 15 1012 71 10000 1 0 10:57 26.04.2020
4278 Clouds 14 1012 71 10000 1 0 10:39 26.04.2020
4279 Clouds 14 1012 71 10000 1 0 10:21 26.04.2020
4280 Clouds 13 1012 71 10000 1 0 09:41 26.04.2020
4281 Clouds 12 1012 71 10000 1 0 09:22 26.04.2020
4282 Clouds 11 1012 76 10000 1.5 0 08:58 26.04.2020
4283 Clouds 11 1012 76 10000 1 170 08:40 26.04.2020
4284 Clouds 10 1012 76 10000 1 170 08:20 26.04.2020
4285 Clouds 10 1012 76 10000 1 170 07:46 26.04.2020
4286 Clouds 9 1012 76 10000 1 210 07:21 26.04.2020
4287 Clouds 10 1012 71 10000 1.5 200 06:44 26.04.2020
4288 Clouds 10 1012 71 10000 1.5 180 05:58 26.04.2020
4289 Clouds 10 1012 71 10000 1 250 05:39 26.04.2020
4290 Clouds 11 1012 71 10000 1 0 04:58 26.04.2020
4291 Clouds 11 1012 76 10000 1 0 04:22 26.04.2020
4292 Clear 11 1013 71 10000 0.5 170 02:51 26.04.2020
4293 Clouds 11 1013 71 10000 1 190 02:31 26.04.2020
4294 Clouds 12 1013 66 10000 1.5 220 01:46 26.04.2020
4295 Clouds 12 1013 71 10000 2.1 250 01:26 26.04.2020
4296 Clouds 12 1013 62 10000 0.5 0 00:39 26.04.2020
4297 Clouds 13 1013 62 10000 0.5 0 00:19 26.04.2020
4298 Clouds 13 1013 58 10000 0.5 0 23:39 25.04.2020
4299 Clouds 13 1013 58 10000 0.5 0 23:20 25.04.2020
4300 Clouds 14 1013 58 10000 0.5 0 22:58 25.04.2020
4301 Clouds 14 1013 54 10000 0.5 0 22:39 25.04.2020
4302 Clouds 15 1013 54 10000 0.5 0 22:19 25.04.2020
4303 Clouds 16 1012 48 10000 1.5 200 21:40 25.04.2020
4304 Clear 16 1012 48 10000 1.5 200 21:21 25.04.2020
4305 Clear 17 1012 48 10000 1.5 200 20:58 25.04.2020
4306 Clear 17 1013 45 10000 1.5 0 20:40 25.04.2020
4307 Clear 18 1013 45 10000 1.5 0 20:22 25.04.2020
4308 Clear 18 1013 42 10000 2.1 200 19:55 25.04.2020
4309 Clear 18 1013 42 10000 2.1 200 19:55 25.04.2020
4310 Clear 18 1013 39 10000 2.1 180 19:37 25.04.2020
4311 Clear 18 1013 39 10000 2.1 180 19:18 25.04.2020
4312 Clear 19 1013 42 10000 2.1 0 18:39 25.04.2020
4313 Clear 19 1013 42 10000 2.1 0 18:21 25.04.2020
4314 Clear 19 1013 42 10000 2.6 200 17:58 25.04.2020
4315 Clear 19 1014 42 10000 2.6 210 17:38 25.04.2020
4316 Clear 19 1014 42 10000 2.6 210 17:19 25.04.2020
4317 Clear 19 1014 45 10000 2.1 0 16:56 25.04.2020
4318 Clear 19 1014 42 10000 2.6 210 16:38 25.04.2020
4319 Clear 19 1014 42 10000 2.6 210 16:19 25.04.2020
4320 Clear 18 1015 48 10000 3.6 220 15:41 25.04.2020
4321 Clear 18 1015 48 10000 3.6 220 15:20 25.04.2020
4322 Clear 17 1015 48 10000 3.6 210 14:58 25.04.2020
4323 Clear 17 1015 51 10000 2.6 190 14:39 25.04.2020
4324 Clear 17 1015 51 10000 2.6 190 14:20 25.04.2020
4325 Clear 16 1015 54 10000 2.6 190 13:43 25.04.2020
4326 Clear 16 1015 54 10000 2.6 190 13:22 25.04.2020
4327 Clear 16 1015 54 10000 2.6 200 12:58 25.04.2020
4328 Clear 15 1015 58 10000 2.1 180 12:40 25.04.2020
4329 Clear 14 1015 58 10000 2.1 180 12:21 25.04.2020
4330 Clear 14 1016 58 10000 2.6 180 11:58 25.04.2020
4331 Clear 13 1016 62 10000 2.6 200 11:39 25.04.2020
4332 Clear 13 1016 62 10000 2.6 200 11:21 25.04.2020
4333 Clear 11 1016 66 10000 1.5 0 10:44 25.04.2020
4334 Clear 10 1016 66 10000 1.5 0 10:24 25.04.2020
4335 Clear 9 1016 70 10000 1 0 09:50 25.04.2020
4336 Clear 8 1016 70 10000 0.5 0 09:30 25.04.2020
4337 Clouds 7 1016 87 10000 1 40 08:59 25.04.2020
4338 Clouds 7 1015 86 10000 0.5 0 08:40 25.04.2020
4339 Clouds 6 1015 86 10000 0.5 0 08:21 25.04.2020
4340 Clouds 6 1015 93 10000 2.1 80 07:58 25.04.2020
4341 Clouds 6 1015 75 10000 0.5 0 07:39 25.04.2020
4342 Clouds 6 1015 75 10000 1 0 06:55 25.04.2020
4343 Clouds 5 1015 86 10000 0.5 0 06:36 25.04.2020
4344 Clear 6 1015 86 10000 1 0 05:40 25.04.2020
4345 Clouds 6 1015 86 10000 1 0 05:19 25.04.2020
4346 Clear 9 1016 75 10000 0.5 0 02:59 25.04.2020
4347 Clear 9 1016 61 10000 1.5 0 02:21 25.04.2020
4348 Clear 10 1016 66 10000 1 0 01:53 25.04.2020
4349 Clear 10 1016 66 10000 1 0 01:34 25.04.2020
4350 Clear 10 1016 66 10000 1 0 01:34 25.04.2020
4351 Clear 10 1015 62 10000 2.6 90 00:56 25.04.2020
4352 Clear 11 1015 62 10000 1.5 0 00:32 25.04.2020
4353 Clear 12 1015 58 10000 2.1 100 23:45 24.04.2020
4354 Clear 13 1015 54 10000 2.6 90 23:24 24.04.2020
4355 Clear 13 1015 50 10000 2.6 90 22:59 24.04.2020
4356 Clear 14 1015 44 10000 1.5 100 22:39 24.04.2020
4357 Clear 14 1015 44 10000 1.5 100 22:19 24.04.2020
4358 Clear 16 1014 36 10000 1 0 21:55 24.04.2020
4359 Clear 16 1014 36 10000 1 0 21:37 24.04.2020
4360 Clear 17 1014 34 10000 1.5 0 21:19 24.04.2020
4361 Clear 18 1014 34 10000 1.5 0 20:55 24.04.2020
4362 Clear 18 1014 34 10000 1.5 0 20:37 24.04.2020
4363 Clear 19 1014 34 10000 1.5 0 20:18 24.04.2020
4364 Clear 19 1014 37 10000 2.1 250 19:40 24.04.2020
4365 Clear 19 1014 37 10000 2.1 250 19:40 24.04.2020
4366 Clear 20 1014 34 10000 1 0 19:21 24.04.2020
4367 Clear 20 1014 34 10000 2.1 0 18:45 24.04.2020
4368 Clear 20 1014 34 10000 2.1 0 18:26 24.04.2020
4369 Clear 20 1015 37 10000 1 0 17:57 24.04.2020
4370 Clear 21 1015 34 10000 1.5 0 17:37 24.04.2020
4371 Clear 20 1015 34 10000 1.5 0 17:19 24.04.2020
4372 Clear 20 1015 34 10000 1 0 16:58 24.04.2020
4373 Clear 20 1015 34 10000 1 0 16:58 24.04.2020
4374 Clear 20 1015 37 10000 1.5 0 16:39 24.04.2020
4375 Clear 20 1015 37 10000 1.5 0 16:20 24.04.2020
4376 Fog 20 1016 34 650 1.5 0 15:42 24.04.2020
4377 Clouds 19 1016 42 10000 1.5 0 15:21 24.04.2020
4378 Clouds 19 1016 42 10000 1.5 0 14:56 24.04.2020
4379 Clouds 18 1016 39 10000 2.1 210 14:37 24.04.2020
4380 Clouds 18 1016 39 10000 2.1 210 14:18 24.04.2020
4381 Clouds 18 1017 44 10000 1.5 0 13:41 24.04.2020
4382 Clouds 18 1017 44 10000 1.5 0 13:21 24.04.2020
4383 Clouds 18 1017 44 10000 2.1 270 12:58 24.04.2020
4384 Clouds 17 1017 41 10000 1.5 0 12:40 24.04.2020
4385 Clouds 16 1017 41 10000 1.5 0 12:19 24.04.2020
4386 Clouds 14 1017 50 10000 1 0 11:43 24.04.2020
4387 Clouds 15 1017 50 10000 1 0 11:22 24.04.2020
4388 Clouds 14 1017 58 10000 1 0 10:59 24.04.2020
4389 Clouds 13 1017 62 10000 0.5 0 10:38 24.04.2020
4390 Clouds 13 1017 62 10000 0.5 0 10:20 24.04.2020
4391 Clouds 12 1017 66 10000 1 0 09:55 24.04.2020
4392 Clouds 10 1017 75 10000 1 0 09:36 24.04.2020
4393 Clouds 10 1017 75 10000 1 0 09:18 24.04.2020
4394 Clouds 7 1017 86 10000 1 50 08:42 24.04.2020
4395 Clouds 7 1017 86 10000 1 50 08:19 24.04.2020
4396 Clouds 6 1017 86 10000 1.5 60 07:47 24.04.2020
4397 Clouds 5 1016 76 0 1.19 80 07:27 24.04.2020
4398 Clouds 6 1018 93 10000 1 120 06:59 24.04.2020
4399 Clouds 6 1018 93 10000 1 0 06:41 24.04.2020
4400 Clouds 6 1018 86 10000 1 0 05:50 24.04.2020
4401 Clouds 7 1018 81 10000 0.5 0 04:48 24.04.2020
4402 Clouds 8 1019 81 10000 2.6 50 03:28 24.04.2020
4403 Clouds 9 1019 75 10000 2.1 50 02:47 24.04.2020
4404 Clouds 9 1019 76 10000 1.5 0 02:20 24.04.2020
4405 Clouds 9 1019 81 10000 2.6 60 01:37 24.04.2020
4406 Clouds 11 1019 71 10000 3.1 70 00:43 24.04.2020
4407 Clouds 11 1019 71 10000 3.1 70 00:18 24.04.2020
4408 Clouds 12 1019 66 10000 2.6 90 23:45 23.04.2020
4409 Clouds 12 1019 66 10000 2.6 90 23:26 23.04.2020
4410 Clouds 13 1019 62 10000 2.6 90 22:57 23.04.2020
4411 Clouds 13 1019 58 10000 2.1 90 22:38 23.04.2020
4412 Clouds 14 1019 58 10000 2.1 90 22:19 23.04.2020
4413 Clouds 14 1019 58 10000 3.1 80 21:56 23.04.2020
4414 Clouds 15 1019 51 10000 2.6 70 21:38 23.04.2020
4415 Clouds 15 1019 51 10000 2.6 70 21:20 23.04.2020
4416 Clouds 16 1019 51 10000 2.6 70 20:54 23.04.2020
4417 Clouds 17 1019 48 10000 3.6 60 20:36 23.04.2020
4418 Clouds 17 1019 48 10000 3.6 60 20:18 23.04.2020
4419 Clouds 18 1019 39 10000 1.5 0 19:42 23.04.2020
4420 Clouds 18 1019 39 10000 1.5 0 19:42 23.04.2020
4421 Clouds 18 1019 39 10000 1.5 0 19:22 23.04.2020
4422 Clouds 19 1019 37 10000 2.1 0 18:58 23.04.2020
4423 Clouds 19 1020 37 10000 1.5 0 18:39 23.04.2020
4424 Clouds 19 1020 37 10000 1.5 0 18:39 23.04.2020
4425 Clouds 19 1020 37 10000 1.5 0 18:21 23.04.2020
4426 Clouds 19 1020 34 10000 1.5 0 17:56 23.04.2020
4427 Clouds 20 1020 30 10000 1.5 0 17:38 23.04.2020
4428 Clouds 20 1020 30 10000 1.5 0 17:19 23.04.2020
4429 Clouds 19 1021 37 10000 2.6 70 16:43 23.04.2020
4430 Clouds 19 1021 37 10000 2.6 70 16:21 23.04.2020
4431 Clouds 19 1021 39 10000 2.1 0 15:43 23.04.2020
4432 Clouds 18 1021 39 10000 2.1 0 15:24 23.04.2020
4433 Clouds 18 1021 39 10000 3.1 90 14:59 23.04.2020
4434 Clouds 17 1022 45 10000 2.6 90 14:40 23.04.2020
4435 Clouds 17 1022 45 10000 2.6 90 14:21 23.04.2020
4436 Clouds 17 1022 42 10000 2.1 130 13:58 23.04.2020
4437 Clouds 17 1022 44 10000 2.6 60 13:38 23.04.2020
4438 Clouds 17 1022 44 10000 2.6 60 13:19 23.04.2020
4439 Clouds 17 1022 45 10000 3.1 20 12:55 23.04.2020
4440 Clouds 16 1022 51 10000 2.1 30 12:37 23.04.2020
4441 Clouds 13 1022 51 10000 2.1 30 12:19 23.04.2020
4442 Clouds 13 1022 58 10000 4.1 40 11:44 23.04.2020
4443 Clouds 13 1022 58 10000 4.1 40 11:26 23.04.2020
4444 Clouds 13 1022 62 10000 4.1 30 10:56 23.04.2020
4445 Clouds 13 1022 62 10000 4.1 30 10:56 23.04.2020
4446 Clouds 12 1022 66 10000 4.1 30 10:38 23.04.2020
4447 Clouds 12 1022 66 10000 4.1 30 10:19 23.04.2020
4448 Clouds 10 1023 76 10000 3.6 40 09:37 23.04.2020
4449 Clouds 10 1023 76 10000 3.6 40 09:18 23.04.2020
4450 Clouds 9 1022 75 0 3.11 67 08:46 23.04.2020
4451 Clouds 8 1023 87 10000 2.6 50 08:27 23.04.2020
4452 Clouds 7 1023 81 10000 3.1 40 07:44 23.04.2020
4453 Clouds 7 1023 81 10000 3.1 40 07:24 23.04.2020
4454 Clouds 7 1023 87 10000 2.1 50 06:50 23.04.2020
4455 Clouds 7 1023 81 10000 3.1 40 06:28 23.04.2020
4456 Clouds 7 1023 87 10000 3.6 50 05:31 23.04.2020
4457 Clouds 7 1023 81 10000 3.6 40 04:53 23.04.2020
4458 Clouds 8 1024 81 10000 0.5 0 02:25 23.04.2020
4459 Clouds 8 1024 81 10000 3.1 60 01:55 23.04.2020
4460 Clouds 8 1024 70 10000 4.6 30 01:33 23.04.2020
4461 Clouds 9 1023 66 10000 4.6 40 00:47 23.04.2020
4462 Clouds 9 1023 66 10000 4.6 40 00:23 23.04.2020
4463 Clouds 10 1023 57 10000 3.6 60 23:50 22.04.2020
4464 Clouds 10 1023 57 10000 3.6 60 23:25 22.04.2020
4465 Clouds 11 1023 54 10000 4.1 50 22:58 22.04.2020
4466 Clouds 11 1023 54 10000 4.1 50 22:38 22.04.2020
4467 Clouds 12 1023 54 10000 4.1 50 22:19 22.04.2020
4468 Clouds 12 1023 50 10000 4.1 60 21:56 22.04.2020
4469 Clouds 13 1022 47 10000 3.6 60 21:37 22.04.2020
4470 Clouds 13 1022 47 10000 3.6 60 21:19 22.04.2020
4471 Clouds 15 1022 41 10000 3.1 100 20:43 22.04.2020
4472 Clouds 15 1022 41 10000 3.1 100 20:43 22.04.2020
4473 Clouds 16 1022 41 10000 3.1 100 20:20 22.04.2020
4474 Clouds 17 1022 39 10000 4.6 90 19:58 22.04.2020
4475 Clouds 17 1022 42 10000 5.1 80 19:39 22.04.2020
4476 Clouds 17 1022 42 10000 5.1 80 19:39 22.04.2020
4477 Clouds 17 1022 42 10000 5.1 80 19:19 22.04.2020
4478 Clouds 18 1022 39 10000 4.1 80 18:59 22.04.2020
4479 Clouds 18 1022 39 10000 5.1 80 18:40 22.04.2020
4480 Clouds 18 1022 39 10000 5.1 80 18:22 22.04.2020
4481 Clouds 18 1022 39 10000 4.1 90 17:56 22.04.2020
4482 Clouds 19 1022 39 10000 3.6 100 17:37 22.04.2020
4483 Clouds 18 1022 39 10000 3.6 80 17:19 22.04.2020
4484 Clouds 19 1022 37 10000 5.1 80 16:42 22.04.2020
4485 Clouds 19 1022 37 10000 5.1 80 16:42 22.04.2020
4486 Clouds 19 1022 37 10000 5.1 80 16:23 22.04.2020
4487 Clouds 18 1022 39 10000 4.1 100 15:43 22.04.2020
4488 Clouds 18 1022 39 10000 4.1 100 15:25 22.04.2020
4489 Clouds 18 1022 39 10000 3.6 100 14:59 22.04.2020
4490 Clouds 18 1023 39 10000 5.1 80 14:40 22.04.2020
4491 Clouds 17 1023 39 10000 5.1 80 14:20 22.04.2020
4492 Clouds 17 1023 36 10000 4.6 80 13:56 22.04.2020
4493 Clouds 17 1023 42 10000 2.6 100 13:38 22.04.2020
4494 Clouds 17 1023 42 10000 2.6 100 13:19 22.04.2020
4495 Clouds 16 1023 51 10000 4.1 60 12:41 22.04.2020
4496 Clouds 14 1023 51 10000 4.1 60 12:22 22.04.2020
4497 Clouds 13 1023 66 10000 3.1 50 11:41 22.04.2020
4498 Clouds 13 1023 66 10000 3.1 50 11:22 22.04.2020
4499 Clouds 11 1023 71 10000 3.1 60 10:59 22.04.2020
4500 Clouds 11 1023 76 10000 4.6 40 10:40 22.04.2020
4501 Clouds 11 1023 76 10000 4.6 40 10:40 22.04.2020
4502 Clouds 11 1023 76 10000 4.6 40 10:20 22.04.2020
4503 Clouds 10 1023 81 10000 4.1 40 09:39 22.04.2020
4504 Clouds 9 1023 81 10000 4.1 40 09:21 22.04.2020
4505 Clouds 8 1023 81 10000 3.1 30 08:58 22.04.2020
4506 Clouds 7 1023 87 10000 2.6 20 08:40 22.04.2020
4507 Clouds 7 1023 87 10000 2.6 20 08:21 22.04.2020
4508 Clouds 7 1022 93 10000 2.6 10 07:53 22.04.2020
4509 Clouds 7 1022 87 10000 2.6 30 07:28 22.04.2020
4510 Clouds 6 1023 87 10000 3.1 30 06:53 22.04.2020
4511 Clouds 6 1023 87 10000 4.1 30 06:18 22.04.2020
4512 Clouds 7 1023 81 10000 5.1 40 05:37 22.04.2020
4513 Clouds 6 1023 81 10000 5.1 50 04:20 22.04.2020
4514 Clouds 6 1023 81 10000 5.1 50 04:20 22.04.2020
4515 Clouds 7 1023 81 10000 4.6 40 02:50 22.04.2020
4516 Clouds 7 1023 81 10000 3.6 60 01:52 22.04.2020
4517 Clouds 7 1023 81 10000 4.6 60 01:25 22.04.2020
4518 Clouds 8 1023 70 10000 5.1 60 00:47 22.04.2020
4519 Clouds 8 1023 70 10000 4.1 50 00:22 22.04.2020
4520 Clouds 8 1023 70 10000 4.6 60 23:59 21.04.2020
4521 Clouds 8 1023 66 10000 5.7 60 23:40 21.04.2020
4522 Clouds 8 1022 66 10000 4.6 60 23:18 21.04.2020
4523 Clouds 9 1022 61 10000 4.6 60 22:40 21.04.2020
4524 Clouds 9 1022 61 10000 4.6 60 22:21 21.04.2020
4525 Clouds 10 1022 62 10000 5.7 60 21:59 21.04.2020
4526 Clouds 10 1021 54 10000 4.6 70 21:40 21.04.2020
4527 Clear 11 1021 54 10000 4.6 70 21:22 21.04.2020
4528 Clear 12 1021 47 10000 6.2 60 20:55 21.04.2020
4529 Clear 13 1021 44 10000 6.7 60 20:36 21.04.2020
4530 Clear 13 1021 44 10000 6.7 60 20:18 21.04.2020
4531 Clear 14 1020 38 10000 5.7 70 19:40 21.04.2020
4532 Clear 15 1020 38 10000 5.7 70 19:19 21.04.2020
4533 Clear 15 1020 36 10000 6.2 80 18:57 21.04.2020
4534 Clear 16 1020 33 10000 6.7 70 18:38 21.04.2020
4535 Clear 16 1020 36 10000 6.7 70 18:18 21.04.2020
4536 Clear 17 1020 42 10000 5.7 80 17:41 21.04.2020
4537 Clear 17 1020 42 10000 5.7 80 17:41 21.04.2020
4538 Clear 17 1020 31 10000 6.2 80 17:22 21.04.2020
4539 Clear 17 1020 31 10000 6.2 80 16:59 21.04.2020
4540 Clear 17 1020 33 10000 5.1 80 16:38 21.04.2020
4541 Clear 17 1020 33 10000 5.1 80 16:38 21.04.2020
4542 Clear 17 1020 33 10000 5.1 80 16:19 21.04.2020
4543 Clear 17 1020 33 10000 5.7 80 15:56 21.04.2020
4544 Clear 17 1020 33 10000 6.7 80 15:38 21.04.2020
4545 Clear 17 1020 33 10000 6.7 80 15:19 21.04.2020
4546 Clear 16 1020 36 10000 6.2 70 14:45 21.04.2020
4547 Clear 16 1020 38 10000 5.1 0 14:25 21.04.2020
4548 Clear 16 1020 38 10000 6.7 80 13:59 21.04.2020
4549 Clear 16 1020 41 10000 6.2 80 13:38 21.04.2020
4550 Clear 15 1020 44 10000 6.7 80 13:19 21.04.2020
4551 Clear 15 1020 47 10000 6.7 60 12:40 21.04.2020
4552 Clear 14 1020 47 10000 6.7 60 12:20 21.04.2020
4553 Clear 13 1021 50 10000 5.1 70 11:58 21.04.2020
4554 Clear 13 1021 58 10000 5.1 60 11:39 21.04.2020
4555 Clear 12 1021 62 10000 4.1 70 11:20 21.04.2020
4556 Clear 13 1021 58 10000 5.1 60 11:20 21.04.2020
4557 Clear 12 1021 62 10000 4.1 70 10:59 21.04.2020
4558 Clear 11 1021 66 10000 4.1 60 10:40 21.04.2020
4559 Clear 11 1021 66 10000 4.1 60 10:22 21.04.2020
4560 Clear 10 1021 71 10000 4.1 60 09:59 21.04.2020
4561 Clear 9 1021 76 10000 4.6 50 09:37 21.04.2020
4562 Clear 9 1021 75 10000 4.6 60 09:18 21.04.2020
4563 Clear 8 1021 75 10000 4.6 60 08:46 21.04.2020
4564 Clear 7 1021 87 10000 4.6 50 08:27 21.04.2020
4565 Clear 7 1020 81 10000 4.1 60 07:56 21.04.2020
4566 Clear 6 1020 86 10000 4.6 50 07:36 21.04.2020
4567 Clear 6 1020 86 10000 4.6 50 07:18 21.04.2020
4568 Clear 6 1020 75 10000 4.6 70 06:42 21.04.2020
4569 Clear 7 1020 75 10000 4.6 70 05:51 21.04.2020
4570 Clear 7 1021 75 10000 4.6 60 05:32 21.04.2020
4571 Clear 7 1021 75 10000 4.1 50 03:47 21.04.2020
4572 Clear 7 1022 75 10000 6.7 50 02:47 21.04.2020
4573 Clear 7 1022 70 10000 4.1 60 01:32 21.04.2020
4574 Clear 7 1022 70 10000 5.1 70 00:39 21.04.2020
4575 Clear 7 1022 70 10000 5.1 70 00:19 21.04.2020
4576 Clear 7 1022 61 10000 4.6 60 23:43 20.04.2020
4577 Clear 8 1022 61 10000 4.6 60 23:21 20.04.2020
4578 Clear 8 1022 66 10000 5.1 50 22:56 20.04.2020
4579 Clear 8 1021 49 10000 4.1 70 22:36 20.04.2020
4580 Clear 9 1021 43 10000 5.1 60 22:18 20.04.2020
4581 Clear 9 1021 43 10000 5.1 60 21:54 20.04.2020
4582 Clear 10 1021 40 10000 5.7 80 21:36 20.04.2020
4583 Clear 10 1021 40 10000 5.7 80 21:18 20.04.2020
4584 Clear 11 1020 40 10000 6.7 60 20:42 20.04.2020
4585 Clear 12 1020 40 10000 6.7 60 20:20 20.04.2020
4586 Clear 12 1020 40 10000 7.2 60 19:59 20.04.2020
4587 Clear 12 1020 40 10000 7.2 60 19:59 20.04.2020
4588 Clear 13 1020 49 10000 6.2 70 19:41 20.04.2020
4589 Clear 13 1020 49 10000 6.2 70 19:22 20.04.2020
4590 Clear 13 1020 37 10000 8.2 70 18:56 20.04.2020
4591 Clear 14 1020 49 10000 7.7 80 18:38 20.04.2020
4592 Clear 14 1020 49 10000 7.7 80 18:38 20.04.2020
4593 Clear 14 1020 40 10000 7.7 80 18:19 20.04.2020
4594 Clear 14 1020 33 10000 5.7 80 17:44 20.04.2020
4595 Clear 15 1020 33 10000 5.7 80 17:23 20.04.2020
4596 Clear 15 1020 33 10000 8.2 60 16:59 20.04.2020
4597 Clear 15 1021 33 10000 8.2 60 16:41 20.04.2020
4598 Clear 15 1021 33 10000 8.2 60 16:20 20.04.2020
4599 Clear 15 1021 33 10000 5.7 70 15:55 20.04.2020
4600 Clear 15 1021 33 10000 5.1 80 15:37 20.04.2020
4601 Clear 15 1021 33 10000 5.1 80 15:19 20.04.2020
4602 Clear 15 1022 38 10000 5.7 80 14:41 20.04.2020
4603 Clear 15 1022 38 10000 5.7 80 14:19 20.04.2020
4604 Clear 15 1022 41 10000 6.2 80 13:58 20.04.2020
4605 Clear 15 1022 41 10000 4.6 90 13:38 20.04.2020
4606 Clear 14 1022 41 10000 4.6 90 13:20 20.04.2020
4607 Clear 14 1022 54 10000 4.6 60 12:44 20.04.2020
4608 Clear 13 1022 54 10000 4.6 60 12:22 20.04.2020
4609 Clear 12 1023 62 10000 5.1 40 11:55 20.04.2020
4610 Clear 12 1023 62 10000 5.1 50 11:36 20.04.2020
4611 Clear 11 1023 62 10000 5.1 50 11:18 20.04.2020
4612 Clear 10 1023 66 10000 4.1 60 10:54 20.04.2020
4613 Clear 10 1023 70 10000 4.6 60 10:36 20.04.2020
4614 Clear 9 1023 70 10000 4.6 60 10:18 20.04.2020
4615 Clear 8 1023 81 10000 5.1 50 09:41 20.04.2020
4616 Clear 7 1023 81 10000 5.1 50 09:23 20.04.2020
4617 Clear 7 1023 87 10000 3.1 40 08:56 20.04.2020
4618 Clear 6 1023 86 10000 2.6 50 08:38 20.04.2020
4619 Clear 6 1023 86 10000 2.6 50 08:18 20.04.2020
4620 Clear 5 1023 86 10000 4.6 50 07:42 20.04.2020
4621 Clear 5 1023 86 10000 4.6 50 07:20 20.04.2020
4622 Clear 5 1023 86 10000 4.6 60 06:38 20.04.2020
4623 Clear 5 1023 86 10000 5.1 50 05:58 20.04.2020
4624 Clear 6 1023 86 10000 1.5 0 04:49 20.04.2020
4625 Clear 5 1024 68 10000 1 70 02:49 20.04.2020
4626 Clear 5 1024 67 10000 1.5 0 02:27 20.04.2020
4627 Clear 6 1023 67 10000 1.5 0 01:29 20.04.2020
4628 Clear 6 1023 60 10000 1.5 0 00:45 20.04.2020
4629 Clear 7 1023 52 10000 1 0 00:21 20.04.2020
4630 Clear 8 1023 45 10000 4.1 70 23:40 19.04.2020
4631 Clear 8 1023 45 10000 4.1 70 23:21 19.04.2020
4632 Clear 8 1023 49 10000 4.1 60 22:56 19.04.2020
4633 Clear 9 1023 43 10000 5.1 70 22:37 19.04.2020
4634 Clear 9 1023 43 10000 5.1 70 22:19 19.04.2020
4635 Clear 10 1022 34 10000 4.6 80 21:42 19.04.2020
4636 Clear 11 1022 34 10000 4.6 80 21:23 19.04.2020
4637 Clear 11 1022 34 10000 4.1 80 20:58 19.04.2020
4638 Clear 12 1022 32 10000 5.7 70 20:40 19.04.2020
4639 Clear 12 1022 32 10000 5.7 70 20:40 19.04.2020
4640 Clear 13 1022 32 10000 5.7 70 20:20 19.04.2020
4641 Clear 14 1021 33 10000 3.6 0 19:56 19.04.2020
4642 Clear 14 1021 33 10000 3.6 0 19:56 19.04.2020
4643 Clear 14 1021 28 10000 3.6 90 19:38 19.04.2020
4644 Clear 15 1021 28 10000 3.6 90 19:20 19.04.2020
4645 Clear 15 1021 30 10000 5.1 80 18:56 19.04.2020
4646 Clear 15 1021 30 10000 4.6 80 18:38 19.04.2020
4647 Clouds 15 1021 30 10000 4.6 80 18:18 19.04.2020
4648 Clouds 15 1021 29 10000 3.6 0 17:56 19.04.2020
4649 Clouds 15 1021 29 10000 3.6 0 17:56 19.04.2020
4650 Clouds 16 1021 31 10000 4.6 80 17:37 19.04.2020
4651 Clouds 16 1021 31 10000 4.6 80 17:19 19.04.2020
4652 Clouds 16 1022 36 10000 3.6 0 16:40 19.04.2020
4653 Clouds 16 1022 36 10000 3.6 0 16:21 19.04.2020
4654 Clouds 16 1022 41 10000 2.6 0 15:58 19.04.2020
4655 Clouds 16 1022 41 10000 2.6 0 15:58 19.04.2020
4656 Clouds 16 1022 44 10000 4.1 80 15:39 19.04.2020
4657 Clouds 15 1022 44 10000 4.1 80 15:19 19.04.2020
4658 Clouds 15 1022 44 10000 4.1 100 14:39 19.04.2020
4659 Clouds 15 1022 44 10000 4.1 100 14:21 19.04.2020
4660 Clouds 14 1023 37 10000 3.1 90 13:56 19.04.2020
4661 Clouds 14 1023 39 10000 2.6 110 13:36 19.04.2020
4662 Clouds 14 1023 39 10000 2.6 110 13:18 19.04.2020
4663 Clouds 13 1023 57 10000 2.6 70 12:43 19.04.2020
4664 Clouds 11 1023 57 10000 2.6 70 12:24 19.04.2020
4665 Clouds 11 1023 57 10000 3.1 60 11:39 19.04.2020
4666 Clouds 10 1023 57 10000 3.1 60 11:20 19.04.2020
4667 Clouds 9 1023 61 10000 3.1 30 10:59 19.04.2020
4668 Clouds 9 1023 70 10000 2.1 30 10:41 19.04.2020
4669 Clouds 8 1023 70 10000 2.1 30 10:20 19.04.2020
4670 Clouds 8 1023 70 10000 2.6 40 09:55 19.04.2020
4671 Clear 7 1023 81 10000 2.1 30 09:36 19.04.2020
4672 Clouds 7 1023 81 10000 2.1 30 09:18 19.04.2020
4673 Clouds 6 1023 86 10000 2.1 60 08:39 19.04.2020
4674 Clouds 5 1023 93 10000 1 60 08:20 19.04.2020
4675 Clouds 5 1022 93 10000 1 0 07:45 19.04.2020
4676 Clouds 5 1022 93 10000 1 0 07:25 19.04.2020
4677 Clouds 5 1022 93 10000 1.5 70 06:55 19.04.2020
4678 Clouds 5 1022 93 10000 2.6 70 06:19 19.04.2020
4679 Clouds 6 1021 88 0 3.08 75 04:56 19.04.2020
4680 Clouds 6 1022 87 10000 3.1 70 03:24 19.04.2020
4681 Clouds 7 1022 81 10000 2.6 90 02:22 19.04.2020
4682 Clouds 7 1021 75 10000 2.1 90 01:39 19.04.2020
4683 Clouds 8 1021 75 10000 2.1 90 01:19 19.04.2020
4684 Clouds 8 1021 66 10000 1.5 0 00:40 19.04.2020
4685 Clouds 8 1021 66 10000 1.5 0 00:19 19.04.2020
4686 Clouds 9 1021 76 10000 1 0 23:41 18.04.2020
4687 Clouds 9 1021 76 10000 1 0 23:19 18.04.2020
4688 Clouds 9 1021 70 10000 1.5 0 22:43 18.04.2020
4689 Clouds 10 1020 70 10000 1 0 22:23 18.04.2020
4690 Clouds 10 1020 70 10000 1 0 21:58 18.04.2020
4691 Clouds 9 1020 76 10000 0.5 0 21:39 18.04.2020
4692 Clouds 10 1020 76 10000 0.5 0 21:21 18.04.2020
4693 Clouds 10 1020 76 10000 0.5 100 20:56 18.04.2020
4694 Clouds 10 1020 70 10000 1 0 20:37 18.04.2020
4695 Clouds 10 1019 61 0 0.45 35 20:18 18.04.2020
4696 Clouds 10 1020 70 10000 1 0 19:40 18.04.2020
4697 Clouds 10 1020 70 10000 1 0 19:22 18.04.2020
4698 Clouds 10 1020 70 10000 0.5 0 18:39 18.04.2020
4699 Clouds 10 1020 70 10000 0.5 0 18:20 18.04.2020
4700 Clouds 10 1020 76 10000 1.5 0 17:56 18.04.2020
4701 Clouds 10 1020 70 10000 2.6 60 17:38 18.04.2020
4702 Clouds 9 1020 70 10000 2.6 60 17:18 18.04.2020
4703 Clouds 9 1020 81 10000 3.1 50 16:42 18.04.2020
4704 Clouds 9 1020 81 10000 3.1 50 16:22 18.04.2020
4705 Clouds 9 1020 81 10000 2.1 70 15:55 18.04.2020
4706 Rain 9 1020 81 10000 3.1 50 15:37 18.04.2020
4707 Rain 9 1020 81 10000 2.6 60 15:19 18.04.2020
4708 Rain 9 1020 81 8000 2.1 90 14:42 18.04.2020
4709 Rain 9 1020 81 8000 2.1 90 14:19 18.04.2020
4710 Rain 8 1020 70 10000 1.5 0 13:43 18.04.2020
4711 Rain 8 1020 70 10000 1.5 0 13:43 18.04.2020
4712 Rain 9 1020 70 10000 1.5 0 13:21 18.04.2020
4713 Clouds 9 1020 65 10000 1 0 12:43 18.04.2020
4714 Clouds 9 1020 65 10000 1 0 12:25 18.04.2020
4715 Rain 8 1019 65 10000 1 0 11:59 18.04.2020
4716 Rain 8 1019 70 10000 2.1 0 11:40 18.04.2020
4717 Rain 8 1019 70 10000 2.1 0 11:21 18.04.2020
4718 Rain 8 1019 70 10000 1.5 0 10:54 18.04.2020
4719 Rain 7 1019 70 10000 1 0 10:36 18.04.2020
4720 Rain 7 1019 70 10000 1 0 10:18 18.04.2020
4721 Rain 7 1019 75 10000 2.1 80 09:40 18.04.2020
4722 Clouds 6 1019 75 10000 2.1 80 09:20 18.04.2020
4723 Clouds 6 1018 80 10000 3.6 60 08:43 18.04.2020
4724 Clouds 6 1018 80 10000 3.6 60 08:22 18.04.2020
4725 Clouds 6 1018 80 10000 1.5 0 07:49 18.04.2020
4726 Clouds 5 1018 80 10000 1.5 0 07:29 18.04.2020
4727 Clouds 6 1018 75 10000 1 0 06:49 18.04.2020
4728 Clouds 6 1018 75 10000 1.5 0 05:49 18.04.2020
4729 Clouds 6 1018 75 10000 1.5 0 04:56 18.04.2020
4730 Clouds 6 1018 75 10000 2.1 80 04:31 18.04.2020
4731 Clouds 6 1018 81 10000 2.1 70 03:34 18.04.2020
4732 Rain 6 1019 80 10000 3.6 80 02:42 18.04.2020
4733 Rain 6 1019 80 10000 3.6 80 02:21 18.04.2020
4734 Rain 6 1019 75 10000 3.1 0 01:45 18.04.2020
4735 Rain 6 1019 75 10000 3.1 0 01:22 18.04.2020
4736 Clouds 7 1019 65 10000 4.6 80 00:24 18.04.2020
4737 Clouds 7 1019 65 10000 4.6 80 00:24 18.04.2020
4738 Clouds 7 1018 65 10000 2.6 90 23:59 17.04.2020
4739 Clouds 7 1018 61 10000 4.6 70 23:40 17.04.2020
4740 Clouds 7 1018 61 10000 5.7 80 23:20 17.04.2020
4741 Clouds 7 1018 61 10000 5.7 80 22:58 17.04.2020
4742 Clouds 7 1018 61 10000 5.7 80 22:58 17.04.2020
4743 Clouds 7 1017 61 10000 6.7 70 22:40 17.04.2020
4744 Clouds 7 1017 61 10000 6.7 70 22:20 17.04.2020
4745 Clouds 8 1017 61 10000 5.7 80 21:58 17.04.2020
4746 Clouds 8 1017 57 10000 6.2 80 21:39 17.04.2020
4747 Clear 9 1017 57 10000 6.2 80 21:19 17.04.2020
4748 Clear 9 1017 53 10000 5.7 80 20:55 17.04.2020
4749 Clear 10 1017 57 10000 5.1 80 20:36 17.04.2020
4750 Clear 10 1017 57 10000 5.1 80 20:18 17.04.2020
4751 Clear 12 1017 50 10000 5.1 90 19:44 17.04.2020
4752 Clear 12 1017 50 10000 5.1 90 19:24 17.04.2020
4753 Clear 13 1018 47 10000 5.7 90 18:47 17.04.2020
4754 Clear 13 1018 47 10000 5.7 90 18:25 17.04.2020
4755 Clear 14 1018 50 10000 3.6 0 17:58 17.04.2020
4756 Clear 14 1018 47 10000 4.1 100 17:37 17.04.2020
4757 Clear 14 1018 47 10000 4.1 100 17:37 17.04.2020
4758 Clear 15 1018 47 10000 4.6 90 17:19 17.04.2020
4759 Clear 15 1018 47 10000 4.1 100 16:44 17.04.2020
4760 Clear 14 1018 47 10000 4.1 100 16:23 17.04.2020
4761 Clear 14 1018 47 10000 4.1 100 16:23 17.04.2020
4762 Clear 14 1019 54 10000 4.6 90 15:55 17.04.2020
4763 Clear 14 1019 50 10000 5.7 70 15:37 17.04.2020
4764 Clouds 14 1019 50 10000 5.7 70 15:18 17.04.2020
4765 Clouds 14 1019 54 10000 4.1 90 14:40 17.04.2020
4766 Clear 14 1019 54 10000 4.1 90 14:40 17.04.2020
4767 Clear 14 1019 54 10000 4.1 90 14:22 17.04.2020
4768 Clear 14 1019 58 10000 6.7 80 13:56 17.04.2020
4769 Clear 13 1019 58 10000 5.1 80 13:37 17.04.2020
4770 Clear 13 1019 58 10000 5.1 80 13:18 17.04.2020
4771 Clear 13 1019 58 10000 5.1 80 13:18 17.04.2020
4772 Clear 13 1019 62 10000 5.1 90 12:45 17.04.2020
4773 Clouds 12 1019 62 10000 4.6 80 12:24 17.04.2020
4774 Clouds 12 1019 66 10000 4.1 90 11:42 17.04.2020
4775 Clouds 11 1019 66 10000 4.1 90 11:20 17.04.2020
4776 Clouds 11 1019 66 10000 4.1 90 11:20 17.04.2020
4777 Clouds 11 1019 71 10000 5.1 80 10:56 17.04.2020
4778 Clouds 10 1019 71 10000 4.1 80 10:38 17.04.2020
4779 Clouds 10 1019 76 10000 3.6 70 10:19 17.04.2020
4780 Clouds 9 1020 76 10000 3.1 80 09:41 17.04.2020
4781 Clouds 9 1020 76 10000 3.1 80 09:22 17.04.2020
4782 Clouds 8 1020 81 10000 1 0 08:58 17.04.2020
4783 Clouds 8 1020 81 10000 1 0 08:39 17.04.2020
4784 Clouds 8 1020 81 10000 1.5 0 08:19 17.04.2020
4785 Clouds 7 1019 87 10000 2.6 80 07:44 17.04.2020
4786 Clouds 7 1019 87 10000 2.6 60 07:22 17.04.2020
4787 Clouds 7 1019 87 10000 0.5 60 06:45 17.04.2020
4788 Clouds 7 1019 87 10000 1 0 06:22 17.04.2020
4789 Clouds 8 1019 81 10000 3.1 80 04:46 17.04.2020
4790 Clouds 8 1019 81 10000 4.6 80 03:19 17.04.2020
4791 Clouds 8 1019 57 10000 4.1 70 01:58 17.04.2020
4792 Clouds 8 1019 49 10000 4.6 70 01:27 17.04.2020
4793 Clouds 9 1018 43 10000 4.1 80 00:45 17.04.2020
4794 Clouds 9 1018 49 10000 3.6 60 00:18 17.04.2020
4795 Clouds 10 1018 46 10000 3.1 60 23:40 16.04.2020
4796 Clouds 10 1018 60 10000 3.1 70 23:22 16.04.2020
4797 Clouds 11 1017 60 10000 3.1 70 22:56 16.04.2020
4798 Clouds 11 1017 60 10000 3.1 70 22:37 16.04.2020
4799 Clouds 11 1017 46 10000 4.1 70 22:19 16.04.2020
4800 Clouds 12 1017 43 10000 4.6 60 21:41 16.04.2020
4801 Clear 13 1016 53 10000 4.1 60 21:20 16.04.2020
4802 Clear 14 1016 53 10000 5.1 70 20:58 16.04.2020
4803 Clear 15 1016 53 10000 5.1 70 20:39 16.04.2020
4804 Clear 16 1016 33 10000 3.6 80 20:19 16.04.2020
4805 Clear 16 1016 33 10000 3.1 90 19:54 16.04.2020
4806 Clear 17 1016 31 10000 3.1 90 19:36 16.04.2020
4807 Clear 18 1016 31 10000 3.1 90 19:18 16.04.2020
4808 Clear 18 1016 27 10000 3.6 80 18:41 16.04.2020
4809 Clear 18 1016 27 10000 3.6 80 18:21 16.04.2020
4810 Clear 19 1016 24 10000 3.1 90 17:56 16.04.2020
4811 Clear 19 1016 24 10000 3.1 90 17:38 16.04.2020
4812 Clear 19 1016 24 10000 2.6 100 17:18 16.04.2020
4813 Clear 19 1016 25 10000 3.6 80 16:42 16.04.2020
4814 Clear 19 1016 38 10000 3.6 80 16:20 16.04.2020
4815 Clear 19 1016 29 10000 4.1 60 15:45 16.04.2020
4816 Clear 18 1016 39 10000 2.6 90 15:20 16.04.2020
4817 Clear 18 1016 31 10000 3.1 100 14:58 16.04.2020
4818 Clear 18 1016 31 10000 3.1 100 14:39 16.04.2020
4819 Clear 18 1016 34 10000 2.6 0 14:20 16.04.2020
4820 Clear 17 1016 36 10000 2.6 0 13:57 16.04.2020
4821 Clear 17 1016 36 10000 2.6 0 13:37 16.04.2020
4822 Clear 17 1016 36 10000 2.6 0 13:37 16.04.2020
4823 Clear 17 1016 36 10000 2.6 0 13:37 16.04.2020
4824 Clear 17 1016 36 10000 3.1 0 13:19 16.04.2020
4825 Clear 17 1016 36 10000 3.6 100 12:56 16.04.2020
4826 Clear 16 1016 36 10000 3.6 100 12:37 16.04.2020
4827 Clear 15 1016 36 10000 3.6 0 12:18 16.04.2020
4828 Clear 14 1016 44 10000 3.1 90 11:54 16.04.2020
4829 Clear 14 1016 44 10000 3.1 90 11:36 16.04.2020
4830 Clear 14 1016 51 10000 3.6 50 11:18 16.04.2020
4831 Clear 13 1016 54 10000 3.1 50 10:39 16.04.2020
4832 Clear 12 1016 62 10000 3.6 50 10:19 16.04.2020
4833 Clear 11 1016 66 10000 4.1 40 09:58 16.04.2020
4834 Clear 10 1016 66 10000 4.1 40 09:38 16.04.2020
4835 Clouds 9 1016 70 10000 1.5 0 09:19 16.04.2020
4836 Clouds 7 1016 75 10000 2.1 40 08:42 16.04.2020
4837 Clouds 6 1016 65 10000 2.1 40 08:23 16.04.2020
4838 Clouds 6 1016 80 10000 1 90 07:46 16.04.2020
4839 Clouds 6 1016 80 10000 1 90 07:46 16.04.2020
4840 Clouds 5 1016 80 10000 0.5 0 07:26 16.04.2020
4841 Clouds 6 1017 80 10000 1 90 06:45 16.04.2020
4842 Clouds 6 1017 75 10000 1 90 06:26 16.04.2020
4843 Clouds 6 1017 75 10000 2.1 90 05:37 16.04.2020
4844 Clouds 6 1018 80 10000 1 80 03:59 16.04.2020
4845 Clouds 7 1018 81 10000 0.5 0 03:23 16.04.2020
4846 Clouds 7 1018 80 10000 1 100 02:47 16.04.2020
4847 Clouds 7 1018 75 10000 1 0 02:28 16.04.2020
4848 Clouds 8 1018 70 10000 1 0 01:19 16.04.2020
4849 Clouds 8 1018 70 10000 1 190 00:34 16.04.2020
4850 Clouds 9 1018 66 10000 0.5 240 23:59 15.04.2020
4851 Clouds 9 1018 66 10000 0.5 240 23:59 15.04.2020
4852 Clouds 10 1018 66 10000 0.5 240 23:41 15.04.2020
4853 Clouds 10 1019 40 10000 0.5 0 23:21 15.04.2020
4854 Clouds 11 1019 46 10000 1 0 22:41 15.04.2020
4855 Clouds 12 1019 44 10000 2.1 300 22:22 15.04.2020
4856 Clouds 12 1018 41 10000 2.1 330 21:59 15.04.2020
4857 Clouds 12 1018 41 10000 2.1 330 21:41 15.04.2020
4858 Clouds 14 1018 42 10000 1.5 290 21:22 15.04.2020
4859 Clouds 15 1019 42 10000 2.1 270 20:58 15.04.2020
4860 Clouds 15 1019 42 10000 2.1 270 20:40 15.04.2020
4861 Clouds 16 1019 42 10000 1.5 270 20:21 15.04.2020
4862 Clouds 16 1019 42 10000 1.5 270 20:21 15.04.2020
4863 Clouds 16 1019 27 10000 1.5 0 19:45 15.04.2020
4864 Clouds 17 1019 27 10000 1 0 19:21 15.04.2020
4865 Clouds 17 1020 42 10000 1.5 0 18:56 15.04.2020
4866 Clouds 17 1020 42 10000 2.6 250 18:38 15.04.2020
4867 Clouds 18 1020 28 10000 2.6 250 18:20 15.04.2020
4868 Clouds 18 1020 28 10000 1.5 0 17:40 15.04.2020
4869 Clouds 18 1020 28 10000 1.5 0 17:40 15.04.2020
4870 Clouds 18 1021 29 10000 1.5 0 17:21 15.04.2020
4871 Clouds 18 1021 28 10000 1.5 0 16:58 15.04.2020
4872 Clouds 18 1021 28 10000 1.5 0 16:40 15.04.2020
4873 Clouds 18 1021 36 10000 1.5 0 16:20 15.04.2020
4874 Clouds 18 1022 36 10000 1 0 15:59 15.04.2020
4875 Clouds 18 1022 36 10000 1 0 15:59 15.04.2020
4876 Clouds 18 1022 36 10000 1 0 15:40 15.04.2020
4877 Clouds 18 1022 36 10000 1 0 15:40 15.04.2020
4878 Clouds 17 1022 38 10000 1 0 15:20 15.04.2020
4879 Clouds 16 1022 38 10000 1.5 0 14:59 15.04.2020
4880 Clouds 16 1022 38 10000 1.5 0 14:40 15.04.2020
4881 Clouds 16 1023 44 10000 1 0 14:22 15.04.2020
4882 Clouds 16 1023 47 10000 1.5 0 13:58 15.04.2020
4883 Clouds 15 1023 47 10000 1.5 0 13:39 15.04.2020
4884 Clouds 15 1023 50 10000 1.5 0 13:21 15.04.2020
4885 Clouds 14 1023 50 10000 1.5 0 12:57 15.04.2020
4886 Clouds 14 1023 50 10000 1.5 0 12:39 15.04.2020
4887 Clouds 12 1024 53 10000 1.5 0 12:21 15.04.2020
4888 Clouds 11 1024 57 10000 1 0 11:45 15.04.2020
4889 Clouds 11 1024 66 10000 1 0 11:25 15.04.2020
4890 Clouds 10 1024 70 10000 1 0 10:58 15.04.2020
4891 Clouds 9 1024 70 10000 1 0 10:37 15.04.2020
4892 Clouds 9 1024 75 10000 1 0 10:19 15.04.2020
4893 Clouds 8 1024 80 10000 0.5 0 09:55 15.04.2020
4894 Clouds 7 1024 80 10000 0.5 0 09:37 15.04.2020
4895 Clouds 5 1024 80 10000 0.5 0 09:18 15.04.2020
4896 Clouds 4 1024 64 10000 0.5 50 08:41 15.04.2020
4897 Clouds 3 1024 64 10000 0.5 0 08:21 15.04.2020
4898 Clouds 2 1024 64 10000 0.5 0 07:56 15.04.2020
4899 Clouds 2 1024 64 10000 0.5 0 07:36 15.04.2020
4900 Clouds 3 1024 64 10000 1.5 140 06:49 15.04.2020
4901 Clouds 3 1024 62 10000 1.5 140 06:20 15.04.2020
4902 Clouds 3 1024 93 10000 1 110 05:22 15.04.2020
4903 Clouds 4 1025 93 10000 1.5 110 04:45 15.04.2020
4904 Clouds 4 1025 86 10000 0.5 0 03:51 15.04.2020
4905 Clouds 4 1025 93 10000 1.5 150 03:20 15.04.2020
4906 Clouds 4 1025 86 10000 1 0 02:39 15.04.2020
4907 Clouds 5 1025 86 10000 1.5 160 01:48 15.04.2020
4908 Clouds 5 1025 75 10000 0.5 0 01:22 15.04.2020
4909 Drizzle 6 1025 70 10000 1 280 00:37 15.04.2020
4910 Clouds 6 1026 70 10000 1.5 260 00:19 15.04.2020
4911 Clouds 6 1026 70 10000 1 250 23:55 14.04.2020
4912 Clouds 7 1026 70 10000 1 250 23:36 14.04.2020
4913 Clouds 7 1026 65 10000 1 250 23:18 14.04.2020
4914 Clouds 7 1026 65 10000 1 250 23:18 14.04.2020
4915 Clouds 7 1026 65 10000 1 170 22:55 14.04.2020
4916 Clouds 7 1026 65 10000 1 170 22:37 14.04.2020
4917 Clouds 8 1026 61 10000 1.5 180 22:18 14.04.2020
4918 Clouds 8 1026 57 10000 1.5 190 21:55 14.04.2020
4919 Clouds 9 1026 46 10000 1.5 180 21:37 14.04.2020
4920 Clouds 10 1026 46 10000 1.5 180 21:18 14.04.2020
4921 Clouds 11 1026 43 10000 1 0 20:40 14.04.2020
4922 Clouds 11 1026 43 10000 1 0 20:40 14.04.2020
4923 Clouds 12 1026 40 10000 1 0 20:22 14.04.2020
4924 Clouds 12 1026 40 10000 1.5 0 19:58 14.04.2020
4925 Clouds 12 1026 40 10000 1.5 0 19:39 14.04.2020
4926 Clouds 13 1026 40 10000 2.1 230 19:20 14.04.2020
4927 Clouds 13 1026 40 10000 2.1 260 18:55 14.04.2020
4928 Clouds 13 1026 40 10000 2.1 260 18:37 14.04.2020
4929 Clouds 13 1027 40 10000 1 0 18:18 14.04.2020
4930 Clouds 13 1027 43 10000 1.5 0 17:55 14.04.2020
4931 Clouds 13 1027 43 10000 2.1 240 17:36 14.04.2020
4932 Clouds 13 1027 43 10000 2.1 240 17:18 14.04.2020
4933 Clouds 13 1027 36 10000 2.1 250 16:41 14.04.2020
4934 Clouds 13 1027 43 10000 1.5 0 16:22 14.04.2020
4935 Clouds 12 1028 36 10000 1.5 0 15:57 14.04.2020
4936 Clouds 12 1028 34 10000 1.5 0 15:38 14.04.2020
4937 Clear 12 1028 40 10000 2.6 0 15:19 14.04.2020
4938 Clear 12 1028 40 10000 1.5 0 14:57 14.04.2020
4939 Clear 11 1028 40 10000 1.5 0 14:39 14.04.2020
4940 Clear 11 1029 40 10000 2.6 240 14:21 14.04.2020
4941 Clear 10 1029 52 10000 1.5 0 13:44 14.04.2020
4942 Clear 10 1029 52 10000 2.1 290 13:24 14.04.2020
4943 Clear 9 1030 56 7000 2.6 240 12:56 14.04.2020
4944 Clear 9 1030 56 7000 2.6 240 12:38 14.04.2020
4945 Clear 8 1030 52 10000 2.1 0 12:19 14.04.2020
4946 Clear 8 1030 56 10000 2.1 260 11:41 14.04.2020
4947 Clear 8 1030 56 10000 2.1 260 11:41 14.04.2020
4948 Clear 7 1030 56 10000 1.5 0 11:22 14.04.2020
4949 Clear 6 1030 60 10000 1 0 10:56 14.04.2020
4950 Clear 6 1030 60 10000 1 0 10:38 14.04.2020
4951 Clear 5 1031 65 10000 1 0 10:19 14.04.2020
4952 Clear 4 1030 74 10000 1 0 09:42 14.04.2020
4953 Clear 3 1030 86 10000 1 0 09:22 14.04.2020
4954 Clear 2 1030 73 10000 1.5 110 08:56 14.04.2020
4955 Clear 1 1030 73 10000 1.5 110 08:36 14.04.2020
4956 Clear 1 1030 73 10000 1.5 110 08:36 14.04.2020
4957 Clear 0 1030 86 10000 1.5 90 08:18 14.04.2020
4958 Clear 0 1030 86 10000 1 100 07:49 14.04.2020
4959 Clear 0 1030 92 10000 1 50 07:26 14.04.2020
4960 Clear 0 1030 92 10000 0.5 0 06:45 14.04.2020
4961 Clear 0 1030 92 10000 0.5 0 06:45 14.04.2020
4962 Clouds 0 1030 73 10000 1 100 05:43 14.04.2020
4963 Clouds 0 1030 73 10000 1 100 05:43 14.04.2020
4964 Clear 4 1032 69 0 1.44 82 03:28 14.04.2020
4965 Clear 2 1031 74 10000 1 160 02:33 14.04.2020
4966 Clear 3 1031 69 10000 2.1 70 01:27 14.04.2020
4967 Clear 3 1031 64 10000 2.6 70 00:50 14.04.2020
4968 Clear 4 1031 69 10000 2.6 70 00:24 14.04.2020
4969 Clear 4 1031 69 10000 2.6 70 23:57 13.04.2020
4970 Clear 4 1031 69 10000 2.6 70 23:37 13.04.2020
4971 Clear 4 1031 64 10000 2.6 80 23:18 13.04.2020
4972 Clear 5 1031 60 10000 2.6 70 22:42 13.04.2020
4973 Clear 5 1031 60 10000 3.6 70 22:22 13.04.2020
4974 Clear 6 1030 56 10000 1.5 0 21:58 13.04.2020
4975 Clear 6 1030 56 10000 1.5 0 21:39 13.04.2020
4976 Clear 7 1030 48 10000 2.1 80 21:20 13.04.2020
4977 Clear 7 1030 49 10000 2.6 80 20:57 13.04.2020
4978 Clear 8 1030 49 10000 2.6 80 20:38 13.04.2020
4979 Clear 8 1030 49 10000 2.6 80 20:38 13.04.2020
4980 Clear 8 1030 49 10000 4.1 70 20:19 13.04.2020
4981 Clear 9 1030 49 10000 3.6 80 19:57 13.04.2020
4982 Clear 9 1029 46 10000 4.1 70 19:36 13.04.2020
4983 Clear 9 1029 46 10000 4.1 70 19:18 13.04.2020
4984 Clear 10 1029 43 10000 4.6 50 18:54 13.04.2020
4985 Clear 10 1029 43 10000 4.6 50 18:36 13.04.2020
4986 Clear 10 1029 39 10000 4.1 70 18:18 13.04.2020
4987 Clear 10 1030 43 10000 5.1 50 17:55 13.04.2020
4988 Clear 10 1030 43 10000 5.1 50 17:36 13.04.2020
4989 Clear 10 1030 46 10000 3.6 80 17:18 13.04.2020
4990 Clear 10 1030 46 10000 4.6 70 16:55 13.04.2020
4991 Clear 10 1030 46 10000 4.6 70 16:36 13.04.2020
4992 Clear 10 1030 46 10000 4.6 70 16:36 13.04.2020
4993 Clouds 10 1030 43 10000 5.7 50 16:18 13.04.2020
4994 Clouds 10 1030 43 10000 5.7 50 16:18 13.04.2020
4995 Clouds 10 1030 45 10000 4.1 80 15:43 13.04.2020
4996 Clouds 9 1030 45 10000 4.6 70 15:25 13.04.2020
4997 Clouds 10 1030 45 10000 5.7 70 14:56 13.04.2020
4998 Clouds 9 1030 45 10000 5.7 70 14:38 13.04.2020
4999 Clouds 9 1030 45 10000 5.1 70 14:20 13.04.2020
5000 Clear 9 1030 49 10000 4.6 80 13:55 13.04.2020
5001 Clear 9 1030 49 10000 4.6 80 13:55 13.04.2020
5002 Clear 9 1030 49 10000 4.6 80 13:37 13.04.2020
5003 Clear 9 1030 49 10000 4.6 80 13:37 13.04.2020
5004 Clear 8 1030 45 10000 5.7 60 13:19 13.04.2020
5005 Clouds 8 1030 48 10000 6.7 60 12:57 13.04.2020
5006 Clouds 8 1030 48 10000 6.7 60 12:57 13.04.2020
5007 Clouds 8 1030 48 10000 6.7 60 12:38 13.04.2020
5008 Clouds 8 1030 45 10000 6.2 70 12:19 13.04.2020
5009 Clouds 7 1030 48 10000 6.2 70 11:44 13.04.2020
5010 Clouds 7 1029 52 10000 7.2 60 11:19 13.04.2020
5011 Clear 7 1029 48 10000 6.2 60 10:56 13.04.2020
5012 Clear 7 1029 48 10000 6.2 60 10:38 13.04.2020
5013 Clear 6 1029 52 10000 6.2 60 10:20 13.04.2020
5014 Clear 6 1028 56 10000 5.1 60 09:55 13.04.2020
5015 Clear 6 1028 56 10000 5.1 60 09:55 13.04.2020
5016 Clear 6 1028 56 10000 5.1 60 09:36 13.04.2020
5017 Clouds 6 1028 60 10000 5.1 60 09:18 13.04.2020
5018 Clouds 5 1028 56 10000 5.7 60 08:42 13.04.2020
5019 Clouds 5 1028 56 10000 5.7 60 08:42 13.04.2020
5020 Clouds 5 1027 60 10000 5.1 60 08:24 13.04.2020
5021 Clouds 5 1026 60 10000 5.7 60 07:42 13.04.2020
5022 Clouds 5 1026 60 10000 4.6 70 07:24 13.04.2020
5023 Clouds 5 1026 60 10000 6.2 60 06:47 13.04.2020
5024 Clouds 5 1025 60 10000 5.7 60 06:25 13.04.2020
5025 Clouds 5 1025 65 10000 5.1 50 05:32 13.04.2020
5026 Clouds 5 1024 60 10000 6.2 60 04:53 13.04.2020
5027 Clouds 6 1024 63 10000 7.7 50 04:24 13.04.2020
5028 Clouds 6 1024 63 10000 8.2 60 03:48 13.04.2020
5029 Rain 7 1023 75 10000 8.2 50 02:59 13.04.2020
5030 Rain 7 1023 75 10000 8.2 50 02:37 13.04.2020
5031 Rain 7 1022 81 10000 6.2 60 01:43 13.04.2020
5032 Rain 7 1021 75 10000 7.7 50 01:25 13.04.2020
5033 Rain 8 1020 75 10000 6.7 60 00:42 13.04.2020
5034 Rain 8 1020 70 10000 7.7 60 00:20 13.04.2020
5035 Clouds 8 1019 70 10000 8.7 50 23:48 12.04.2020
5036 Rain 9 1018 70 10000 7.2 60 23:23 12.04.2020
5037 Clouds 9 1018 81 10000 8.7 60 22:58 12.04.2020
5038 Rain 9 1018 81 10000 8.7 60 22:37 12.04.2020
5039 Rain 10 1017 81 10000 7.2 60 22:19 12.04.2020
5040 Rain 10 1016 81 10000 8.7 60 21:40 12.04.2020
5041 Rain 11 1015 81 6000 6.7 60 21:21 12.04.2020
5042 Rain 12 1015 71 10000 5.7 70 20:58 12.04.2020
5043 Rain 12 1015 71 10000 5.7 70 20:39 12.04.2020
5044 Rain 12 1015 71 10000 5.7 70 20:39 12.04.2020
5045 Rain 13 1014 71 10000 5.7 70 20:21 12.04.2020
5046 Rain 13 1014 76 10000 6.7 60 19:55 12.04.2020
5047 Rain 14 1013 77 10000 5.1 60 19:36 12.04.2020
5048 Rain 14 1013 77 10000 5.1 60 19:18 12.04.2020
5049 Rain 16 1013 67 10000 3.6 80 18:40 12.04.2020
5050 Clouds 17 1012 63 10000 4.1 60 18:21 12.04.2020
5051 Clouds 17 1012 63 10000 4.1 60 17:57 12.04.2020
5052 Clouds 17 1012 63 10000 4.1 60 17:38 12.04.2020
5053 Clouds 18 1013 63 10000 1 0 17:19 12.04.2020
5054 Clouds 18 1013 59 10000 2.1 50 16:56 12.04.2020
5055 Clouds 18 1013 59 10000 2.1 50 16:37 12.04.2020
5056 Clouds 18 1013 63 10000 1 0 16:19 12.04.2020
5057 Clouds 18 1013 67 10000 1.5 0 15:42 12.04.2020
5058 Clouds 18 1013 63 10000 1.5 0 15:22 12.04.2020
5059 Clouds 18 1013 67 10000 1 0 14:41 12.04.2020
5060 Clouds 17 1013 67 10000 1.5 0 14:22 12.04.2020
5061 Clouds 17 1013 72 10000 1 0 13:58 12.04.2020
5062 Clouds 17 1013 72 10000 1 0 13:40 12.04.2020
5063 Clouds 17 1013 67 10000 1 0 13:21 12.04.2020
5064 Clouds 16 1013 77 10000 1 0 12:47 12.04.2020
5065 Clouds 15 1014 82 10000 1.5 0 12:22 12.04.2020
5066 Clouds 14 1014 82 10000 2.1 240 11:59 12.04.2020
5067 Clouds 14 1014 82 10000 2.1 240 11:38 12.04.2020
5068 Clouds 14 1014 82 10000 1.5 0 11:19 12.04.2020
5069 Clouds 13 1014 93 10000 0.5 0 10:56 12.04.2020
5070 Clouds 13 1014 93 10000 0.5 0 10:38 12.04.2020
5071 Clouds 12 1014 93 8000 1 0 10:20 12.04.2020
5072 Clouds 12 1015 100 9000 0.5 0 09:56 12.04.2020
5073 Clouds 11 1015 100 9000 0.5 0 09:37 12.04.2020
5074 Clouds 10 1015 93 8000 1 0 09:19 12.04.2020
5075 Clouds 9 1015 100 7000 1.5 290 08:50 12.04.2020
5076 Clouds 9 1015 100 7000 1.5 290 08:50 12.04.2020
5077 Clouds 9 1015 100 8000 1 0 08:30 12.04.2020
5078 Clouds 9 1015 93 8000 1.5 120 07:47 12.04.2020
5079 Clouds 8 1015 100 8000 1 0 07:19 12.04.2020
5080 Clouds 8 1016 93 7000 1.5 110 06:54 12.04.2020
5081 Fog 8 1016 100 10000 0.5 0 06:26 12.04.2020
5082 Fog 8 1016 100 10000 0.5 340 05:42 12.04.2020
5083 Clouds 8 1018 100 6000 0.5 0 04:26 12.04.2020
5084 Mist 9 1019 100 2400 1 100 03:29 12.04.2020
5085 Clear 9 1019 100 6000 0.5 0 02:48 12.04.2020
5086 Fog 9 1019 93 750 0.5 130 02:27 12.04.2020
5087 Clear 9 1020 93 9000 1 140 01:22 12.04.2020
5088 Clear 9 1020 93 9000 1 140 01:22 12.04.2020
5089 Clear 10 1020 93 8000 1 130 00:43 12.04.2020
5090 Clear 10 1020 93 10000 0.5 130 00:21 12.04.2020
5091 Clear 10 1020 93 10000 0.5 130 00:21 12.04.2020
5092 Clear 11 1020 87 10000 0.5 0 23:47 11.04.2020
5093 Clear 11 1020 87 10000 1 0 23:26 11.04.2020
5094 Clear 12 1021 82 10000 1 0 22:58 11.04.2020
5095 Clear 12 1021 82 10000 1 0 22:37 11.04.2020
5096 Clear 12 1021 76 10000 1.5 290 22:18 11.04.2020
5097 Clear 13 1021 76 10000 2.6 270 21:54 11.04.2020
5098 Clear 13 1021 76 10000 2.6 270 21:36 11.04.2020
5099 Clouds 14 1021 72 10000 3.1 300 21:18 11.04.2020
5100 Clouds 15 1021 67 10000 3.6 310 20:55 11.04.2020
5101 Clouds 16 1021 67 10000 3.6 310 20:36 11.04.2020
5102 Clouds 16 1021 63 10000 3.6 290 20:18 11.04.2020
5103 Clouds 17 1021 59 10000 5.1 290 19:54 11.04.2020
5104 Clouds 17 1021 59 10000 5.1 290 19:54 11.04.2020
5105 Clouds 17 1021 59 10000 5.1 290 19:36 11.04.2020
5106 Clouds 18 1021 59 10000 4.1 290 19:18 11.04.2020
5107 Clouds 18 1021 55 10000 4.6 270 18:55 11.04.2020
5108 Clouds 18 1021 55 10000 4.6 270 18:36 11.04.2020
5109 Clouds 19 1021 55 10000 4.1 300 18:18 11.04.2020
5110 Clouds 19 1021 55 10000 4.6 310 17:56 11.04.2020
5111 Clouds 19 1021 55 10000 4.6 310 17:36 11.04.2020
5112 Clouds 19 1021 55 10000 4.1 300 17:18 11.04.2020
5113 Clouds 19 1021 59 10000 3.6 280 16:42 11.04.2020
5114 Clouds 19 1022 59 10000 4.1 280 16:21 11.04.2020
5115 Clouds 20 1022 55 10000 4.1 290 15:40 11.04.2020
5116 Clouds 20 1022 59 10000 4.1 260 15:20 11.04.2020
5117 Clouds 19 1022 63 10000 4.1 270 14:57 11.04.2020
5118 Clouds 19 1022 63 10000 4.1 270 14:57 11.04.2020
5119 Clouds 19 1022 63 10000 4.1 270 14:39 11.04.2020
5120 Clouds 19 1022 63 10000 3.6 270 14:20 11.04.2020
5121 Clouds 19 1022 63 10000 3.6 270 14:20 11.04.2020
5122 Clouds 19 1023 63 10000 4.1 270 13:41 11.04.2020
5123 Clouds 19 1023 59 10000 3.1 280 13:23 11.04.2020
5124 Clouds 18 1023 63 10000 3.1 280 12:57 11.04.2020
5125 Clouds 18 1023 63 10000 3.1 280 12:37 11.04.2020
5126 Clouds 16 1023 63 10000 2.6 290 12:18 11.04.2020
5127 Clouds 16 1023 59 10000 1.5 0 11:41 11.04.2020
5128 Clouds 16 1023 67 10000 1 0 11:20 11.04.2020
5129 Clouds 16 1023 67 10000 1.5 0 10:56 11.04.2020
5130 Clouds 15 1023 67 10000 1.5 0 10:37 11.04.2020
5131 Clouds 15 1023 67 10000 1.5 0 10:18 11.04.2020
5132 Clouds 14 1022 71 10000 1.5 0 09:41 11.04.2020
5133 Clouds 12 1022 76 10000 1.5 0 09:23 11.04.2020
5134 Clouds 12 1022 76 10000 3.1 270 08:59 11.04.2020
5135 Clouds 11 1022 76 10000 3.1 270 08:41 11.04.2020
5136 Clouds 11 1022 76 10000 1.5 0 08:23 11.04.2020
5137 Clouds 11 1021 76 10000 2.1 190 07:42 11.04.2020
5138 Clouds 11 1021 76 10000 1.5 0 07:23 11.04.2020
5139 Clouds 11 1022 66 10000 2.1 190 06:37 11.04.2020
5140 Clouds 12 1022 71 10000 2.1 180 05:57 11.04.2020
5141 Clouds 13 1022 62 10000 1.5 0 04:26 11.04.2020
5142 Clouds 13 1022 67 10000 1 0 02:53 11.04.2020
5143 Rain 14 1023 76 10000 3.1 60 01:27 11.04.2020
5144 Rain 14 1023 67 10000 3.6 300 00:57 11.04.2020
5145 Rain 15 1023 67 10000 3.6 300 00:38 11.04.2020
5146 Rain 15 1023 63 10000 1 0 00:18 11.04.2020
5147 Rain 15 1023 59 10000 1.5 310 23:42 10.04.2020
5148 Rain 16 1022 77 10000 2.6 340 23:19 10.04.2020
5149 Rain 16 1022 67 10000 3.6 0 22:58 10.04.2020
5150 Rain 17 1022 67 10000 3.6 0 22:38 10.04.2020
5151 Rain 17 1022 52 10000 1 0 22:20 10.04.2020
5152 Rain 17 1021 52 10000 1 0 21:42 10.04.2020
5153 Rain 17 1021 52 10000 1 0 21:42 10.04.2020
5154 Rain 18 1021 52 10000 1 0 21:21 10.04.2020
5155 Rain 18 1021 49 10000 1.5 0 20:59 10.04.2020
5156 Rain 19 1021 49 10000 1.5 0 20:40 10.04.2020
5157 Rain 20 1021 46 10000 2.1 140 20:20 10.04.2020
5158 Rain 20 1022 46 10000 2.1 140 19:56 10.04.2020
5159 Rain 20 1022 46 10000 2.1 140 19:38 10.04.2020
5160 Rain 21 1022 46 10000 2.1 0 19:19 10.04.2020
5161 Rain 21 1022 46 10000 2.6 160 18:56 10.04.2020
5162 Rain 21 1022 46 10000 2.6 160 18:38 10.04.2020
5163 Clouds 21 1022 46 10000 2.6 160 18:20 10.04.2020
5164 Clouds 21 1022 46 10000 3.1 160 17:57 10.04.2020
5165 Clouds 21 1022 46 10000 3.1 160 17:39 10.04.2020
5166 Clouds 21 1022 46 10000 3.1 170 17:19 10.04.2020
5167 Clouds 21 1022 46 10000 3.1 170 16:45 10.04.2020
5168 Clouds 21 1023 46 10000 3.1 180 16:24 10.04.2020
5169 Clouds 20 1023 49 10000 2.1 170 15:59 10.04.2020
5170 Clouds 20 1023 49 10000 2.1 170 15:39 10.04.2020
5171 Clouds 20 1023 49 10000 2.1 0 15:21 10.04.2020
5172 Clouds 19 1023 49 10000 3.1 150 14:59 10.04.2020
5173 Clouds 19 1023 49 10000 3.1 150 14:40 10.04.2020
5174 Clouds 19 1024 52 10000 2.1 0 14:22 10.04.2020
5175 Clouds 18 1024 55 10000 2.1 170 13:49 10.04.2020
5176 Clouds 17 1024 55 10000 2.6 170 13:23 10.04.2020
5177 Clouds 16 1024 55 10000 2.1 170 12:59 10.04.2020
5178 Clouds 16 1024 55 10000 2.1 170 12:41 10.04.2020
5179 Clouds 15 1025 59 10000 2.1 170 12:21 10.04.2020
5180 Clouds 14 1025 58 10000 2.1 160 11:43 10.04.2020
5181 Clouds 13 1025 67 10000 1.5 40 11:24 10.04.2020
5182 Clouds 13 1025 71 10000 1 20 10:59 10.04.2020
5183 Clouds 12 1025 71 10000 1 20 10:41 10.04.2020
5184 Clouds 11 1025 76 10000 1.5 40 10:22 10.04.2020
5185 Clouds 10 1025 81 10000 2.1 40 09:43 10.04.2020
5186 Clouds 9 1025 87 10000 2.6 40 09:23 10.04.2020
5187 Clouds 9 1025 81 10000 1.5 0 08:50 10.04.2020
5188 Clouds 8 1025 87 10000 1 60 08:27 10.04.2020
5189 Clouds 8 1025 87 10000 1.5 60 07:58 10.04.2020
5190 Clouds 8 1025 87 10000 1.5 60 07:40 10.04.2020
5191 Clouds 8 1025 93 10000 1.5 110 07:21 10.04.2020
5192 Clouds 8 1025 87 10000 2.1 50 06:39 10.04.2020
5193 Clouds 8 1025 87 10000 1.5 0 06:21 10.04.2020
5194 Clouds 8 1025 87 10000 2.1 50 05:30 10.04.2020
5195 Clouds 8 1025 87 10000 2.6 40 04:55 10.04.2020
5196 Clouds 9 1025 81 10000 2.1 30 03:35 10.04.2020
5197 Rain 9 1026 81 10000 1 0 02:51 10.04.2020
5198 Rain 9 1026 81 10000 1 0 02:33 10.04.2020
5199 Clouds 10 1026 76 10000 2.6 40 01:47 10.04.2020
5200 Clouds 10 1026 81 10000 1.5 50 01:27 10.04.2020
5201 Clouds 10 1026 76 10000 1 0 00:46 10.04.2020
5202 Clouds 10 1026 76 10000 3.1 40 00:20 10.04.2020
5203 Clouds 11 1026 81 10000 2.1 60 23:42 09.04.2020
5204 Clouds 11 1026 81 10000 1.5 50 23:24 09.04.2020
5205 Clouds 11 1026 76 10000 1.5 0 22:57 09.04.2020
5206 Clouds 11 1026 76 10000 1.5 0 22:39 09.04.2020
5207 Clouds 12 1025 76 10000 2.6 70 22:21 09.04.2020
5208 Clouds 12 1025 71 10000 2.6 60 21:38 09.04.2020
5209 Clouds 13 1025 67 10000 2.1 70 21:20 09.04.2020
5210 Clouds 13 1025 67 10000 3.1 90 20:47 09.04.2020
5211 Clouds 14 1025 62 10000 4.6 90 20:23 09.04.2020
5212 Clouds 15 1025 67 10000 3.1 80 19:59 09.04.2020
5213 Clouds 15 1025 63 10000 3.6 80 19:38 09.04.2020
5214 Clouds 16 1025 63 10000 3.6 80 19:20 09.04.2020
5215 Clouds 16 1025 59 10000 3.6 80 18:42 09.04.2020
5216 Clouds 17 1025 59 10000 3.6 80 18:20 09.04.2020
5217 Clouds 17 1025 59 10000 4.1 90 17:43 09.04.2020
5218 Clouds 17 1025 59 10000 3.6 80 17:25 09.04.2020
5219 Clouds 17 1026 59 10000 3.1 0 17:00 09.04.2020
5220 Clouds 17 1026 59 10000 3.1 0 16:39 09.04.2020
5221 Clouds 17 1026 59 10000 3.6 90 16:19 09.04.2020
5222 Clouds 16 1026 59 10000 4.1 70 15:56 09.04.2020
5223 Clouds 16 1026 59 10000 4.1 70 15:37 09.04.2020
5224 Clouds 16 1026 59 10000 3.1 80 15:18 09.04.2020
5225 Clouds 16 1026 59 10000 4.1 60 14:42 09.04.2020
5226 Clouds 16 1026 63 10000 3.1 70 14:21 09.04.2020
5227 Clouds 16 1026 63 10000 3.6 80 13:56 09.04.2020
5228 Clouds 16 1026 63 10000 3.6 80 13:38 09.04.2020
5229 Clouds 15 1026 63 10000 2.6 80 13:19 09.04.2020
5230 Clouds 15 1026 59 10000 3.1 80 12:43 09.04.2020
5231 Clouds 13 1026 59 10000 2.6 0 12:23 09.04.2020
5232 Clouds 13 1026 62 10000 3.1 60 11:59 09.04.2020
5233 Clouds 13 1026 62 10000 3.1 60 11:40 09.04.2020
5234 Clouds 13 1026 67 10000 2.6 80 11:20 09.04.2020
5235 Clouds 12 1026 62 10000 2.1 70 10:57 09.04.2020
5236 Clouds 12 1026 62 10000 2.1 70 10:38 09.04.2020
5237 Clouds 12 1026 66 10000 2.6 60 10:19 09.04.2020
5238 Clouds 11 1026 71 10000 1 0 09:55 09.04.2020
5239 Clouds 11 1026 71 10000 1 0 09:37 09.04.2020
5240 Clouds 11 1026 71 10000 1 0 09:37 09.04.2020
5241 Clouds 10 1025 87 10000 1.5 70 09:19 09.04.2020
5242 Clouds 9 1025 93 10000 1 100 08:43 09.04.2020
5243 Clouds 8 1025 93 10000 1 80 08:23 09.04.2020
5244 Clouds 8 1025 93 10000 0.5 0 07:52 09.04.2020
5245 Clouds 8 1025 93 10000 0.5 0 07:24 09.04.2020
5246 Clouds 8 1025 87 10000 0.5 0 06:51 09.04.2020
5247 Clouds 8 1025 87 10000 1.5 40 05:56 09.04.2020
5248 Clouds 8 1025 87 10000 1.5 40 05:37 09.04.2020
5249 Clouds 9 1025 87 10000 1 60 03:20 09.04.2020
5250 Clouds 9 1025 81 10000 0.5 0 02:21 09.04.2020
5251 Clouds 9 1025 87 10000 1 0 01:39 09.04.2020
5252 Clouds 10 1025 71 10000 1 40 01:19 09.04.2020
5253 Clouds 10 1025 71 10000 0.5 0 00:38 09.04.2020
5254 Clear 11 1025 71 10000 1 0 00:18 09.04.2020
5255 Clear 11 1025 66 10000 1.5 30 23:44 08.04.2020
5256 Clear 12 1025 62 10000 2.1 20 23:24 08.04.2020
5257 Clear 12 1025 62 10000 2.1 10 22:57 08.04.2020
5258 Clear 12 1025 58 10000 2.6 330 22:39 08.04.2020
5259 Clear 13 1025 58 10000 2.6 330 22:21 08.04.2020
5260 Clear 13 1024 54 10000 3.1 310 21:55 08.04.2020
5261 Clouds 14 1024 58 10000 3.1 320 21:37 08.04.2020
5262 Clouds 15 1024 51 10000 4.6 300 21:19 08.04.2020
5263 Haze 16 1023 52 3800 1.5 230 20:41 08.04.2020
5264 Haze 16 1023 52 3800 1.5 230 20:22 08.04.2020
5265 Haze 16 1023 52 4200 2.1 250 19:59 08.04.2020
5266 Haze 17 1023 52 4200 2.1 250 19:40 08.04.2020
5267 Clouds 18 1023 45 10000 1.5 0 19:21 08.04.2020
5268 Haze 18 1023 45 5000 2.1 230 18:55 08.04.2020
5269 Haze 18 1023 45 5000 2.1 230 18:55 08.04.2020
5270 Haze 18 1023 45 5000 2.1 230 18:36 08.04.2020
5271 Haze 19 1024 45 2100 1.5 0 18:18 08.04.2020
5272 Haze 19 1024 45 2100 1.5 0 17:42 08.04.2020
5273 Clouds 19 1024 48 10000 2.1 290 17:20 08.04.2020
5274 Clouds 19 1024 48 10000 2.1 290 16:56 08.04.2020
5275 Clouds 19 1024 48 10000 1 0 16:37 08.04.2020
5276 Clouds 19 1024 48 10000 1 0 16:19 08.04.2020
5277 Haze 19 1025 48 4900 2.6 250 15:38 08.04.2020
5278 Clouds 18 1025 45 10000 2.1 0 15:20 08.04.2020
5279 Clouds 18 1025 45 10000 2.1 0 14:55 08.04.2020
5280 Clouds 18 1025 45 10000 2.1 0 14:55 08.04.2020
5281 Clouds 18 1025 45 10000 2.1 0 14:55 08.04.2020
5282 Clouds 18 1025 45 10000 2.1 0 14:37 08.04.2020
5283 Clouds 18 1025 51 10000 3.1 270 14:19 08.04.2020
5284 Clouds 18 1025 48 10000 2.6 220 13:44 08.04.2020
5285 Clouds 17 1025 48 10000 3.1 240 13:21 08.04.2020
5286 Fog 17 1026 45 400 3.1 240 12:43 08.04.2020
5287 Clouds 15 1026 51 10000 1.5 0 12:19 08.04.2020
5288 Rain 15 1026 54 250 2.1 220 11:59 08.04.2020
5289 Rain 15 1026 54 250 2.1 220 11:41 08.04.2020
5290 Clouds 14 1026 62 10000 1 0 11:22 08.04.2020
5291 Clouds 13 1026 71 10000 1 0 10:57 08.04.2020
5292 Clouds 13 1026 66 10000 0.5 0 10:39 08.04.2020
5293 Clouds 12 1026 66 10000 0.5 0 10:20 08.04.2020
5294 Clouds 11 1026 76 10000 1 0 09:55 08.04.2020
5295 Clouds 10 1026 76 10000 1 0 09:37 08.04.2020
5296 Clouds 9 1026 87 10000 1 150 09:18 08.04.2020
5297 Clouds 8 1026 87 10000 1.5 150 08:42 08.04.2020
5298 Clouds 8 1026 87 10000 0.5 0 08:23 08.04.2020
5299 Clouds 8 1025 87 10000 0.5 0 07:45 08.04.2020
5300 Clouds 8 1025 87 10000 0.5 0 07:25 08.04.2020
5301 Clouds 8 1025 87 10000 1 0 06:56 08.04.2020
5302 Clouds 8 1026 87 10000 1.5 110 05:56 08.04.2020
5303 Clouds 8 1026 87 10000 1.5 90 03:49 08.04.2020
5304 Clouds 9 1027 81 10000 1 0 02:49 08.04.2020
5305 Clouds 9 1027 75 10000 0.5 0 02:19 08.04.2020
5306 Clouds 9 1027 81 10000 2.1 110 01:43 08.04.2020
5307 Clouds 9 1027 81 10000 2.1 110 01:22 08.04.2020
5308 Clouds 9 1027 76 10000 1.04 151 00:41 08.04.2020
5309 Clouds 9 1027 76 10000 1 230 00:21 08.04.2020
5310 Clouds 10 1027 66 10000 1.5 120 23:39 07.04.2020
5311 Clouds 10 1027 66 10000 1.5 100 23:20 07.04.2020
5312 Clouds 11 1027 71 10000 1.5 100 22:57 07.04.2020
5313 Clouds 11 1027 71 10000 1.5 100 22:38 07.04.2020
5314 Clouds 12 1027 66 10000 1.5 130 22:19 07.04.2020
5315 Clouds 12 1026 54 10000 1 0 21:56 07.04.2020
5316 Clouds 12 1026 54 10000 1 0 21:56 07.04.2020
5317 Clouds 13 1026 50 10000 1 210 21:37 07.04.2020
5318 Clouds 13 1026 50 10000 1 210 21:18 07.04.2020
5319 Clouds 14 1026 50 10000 2.6 230 20:55 07.04.2020
5320 Clouds 14 1026 50 10000 2.6 230 20:55 07.04.2020
5321 Clouds 15 1026 51 10000 3.1 240 20:36 07.04.2020
5322 Clouds 15 1026 51 10000 3.1 240 20:18 07.04.2020
5323 Clouds 16 1027 51 10000 2.6 220 19:55 07.04.2020
5324 Clouds 16 1027 44 10000 3.6 220 19:36 07.04.2020
5325 Clouds 16 1027 44 10000 3.6 220 19:18 07.04.2020
5326 Clouds 17 1027 48 10000 3.1 200 18:41 07.04.2020
5327 Clouds 17 1027 44 10000 4.1 220 18:21 07.04.2020
5328 Clouds 17 1027 44 10000 4.1 220 18:21 07.04.2020
5329 Clouds 17 1027 44 10000 4.1 220 17:56 07.04.2020
5330 Clouds 17 1027 42 10000 3.6 200 17:37 07.04.2020
5331 Clouds 17 1027 42 10000 3.6 200 17:19 07.04.2020
5332 Clouds 17 1028 44 10000 2.6 0 16:44 07.04.2020
5333 Clouds 17 1028 41 10000 3.1 200 16:26 07.04.2020
5334 Clouds 17 1028 41 10000 3.1 200 16:26 07.04.2020
5335 Clouds 17 1028 41 10000 3.1 200 15:46 07.04.2020
5336 Clouds 16 1029 44 10000 3.1 190 15:26 07.04.2020
5337 Clouds 15 1029 41 10000 3.1 190 14:56 07.04.2020
5338 Clouds 15 1029 41 10000 3.1 190 14:38 07.04.2020
5339 Clouds 15 1029 38 10000 2.6 0 14:19 07.04.2020
5340 Clouds 15 1029 41 10000 3.1 180 13:42 07.04.2020
5341 Clouds 15 1029 41 10000 3.1 180 13:42 07.04.2020
5342 Clouds 15 1029 41 10000 3.1 180 13:19 07.04.2020
5343 Clouds 14 1030 47 10000 3.1 0 12:57 07.04.2020
5344 Clouds 14 1030 47 10000 3.1 0 12:38 07.04.2020
5345 Clouds 12 1030 58 10000 2.1 170 12:20 07.04.2020
5346 Clouds 12 1030 57 10000 2.1 200 11:57 07.04.2020
5347 Clouds 12 1030 57 10000 2.1 200 11:39 07.04.2020
5348 Clouds 11 1030 66 10000 2.1 200 11:19 07.04.2020
5349 Clouds 9 1030 70 10000 2.6 190 10:39 07.04.2020
5350 Clouds 9 1030 75 10000 2.1 180 10:20 07.04.2020
5351 Clouds 9 1030 75 10000 2.1 180 10:20 07.04.2020
5352 Clouds 8 1030 75 10000 1 0 09:56 07.04.2020
5353 Clouds 6 1030 75 10000 1 0 09:37 07.04.2020
5354 Clouds 5 1030 86 10000 1 90 09:18 07.04.2020
5355 -273 0 0 0 0 0 08:39 07.04.2020
5356 Clouds 4 1029 93 10000 1 60 08:20 07.04.2020
5357 Clouds 3 1029 93 10000 1 140 07:44 07.04.2020
5358 Clouds 3 1029 64 10000 1 130 07:26 07.04.2020
5359 Clouds 3 1029 64 10000 1.5 110 06:52 07.04.2020
5360 Clear 3 1029 65 10000 1 130 06:26 07.04.2020
5361 Clear 4 1028 86 10000 1 130 05:54 07.04.2020
5362 Clear 4 1028 80 10000 1.5 160 05:25 07.04.2020
5363 Clear 5 1028 80 10000 1 0 03:36 07.04.2020
5364 Clear 5 1027 75 10000 1.5 140 03:18 07.04.2020
5365 Clear 5 1027 80 10000 1.5 170 02:36 07.04.2020
5366 Clear 5 1027 75 10000 1.5 0 01:34 07.04.2020
5367 Clear 6 1026 80 10000 2.1 140 00:54 07.04.2020
5368 Clear 7 1025 75 10000 1.5 170 00:25 07.04.2020
5369 Clear 7 1025 75 10000 2.1 180 23:41 06.04.2020
5370 Clear 7 1025 75 10000 1 0 23:21 06.04.2020
5371 Clear 8 1024 75 10000 2.1 170 22:54 06.04.2020
5372 Clear 8 1024 65 10000 1.5 150 22:36 06.04.2020
5373 Clear 8 1024 65 10000 1.5 150 22:36 06.04.2020
5374 Clear 8 1024 65 10000 1.5 150 22:18 06.04.2020
5375 Clear 9 1023 53 10000 0.5 0 21:42 06.04.2020
5376 Clouds 10 1023 50 10000 1.5 290 21:20 06.04.2020
5377 Clouds 11 1022 53 10000 3.1 290 20:57 06.04.2020
5378 Clouds 12 1022 53 10000 3.1 290 20:39 06.04.2020
5379 Clouds 12 1022 50 10000 4.6 290 20:21 06.04.2020
5380 Clouds 12 1021 47 10000 4.6 290 19:57 06.04.2020
5381 Clouds 12 1021 47 10000 4.6 290 19:38 06.04.2020
5382 Clouds 13 1020 47 10000 4.6 290 19:20 06.04.2020
5383 Clouds 13 1020 47 10000 5.7 280 18:42 06.04.2020
5384 Clouds 13 1019 47 10000 5.1 290 18:23 06.04.2020
5385 Clouds 14 1019 47 10000 6.2 280 17:57 06.04.2020
5386 Clouds 14 1019 47 10000 6.2 280 17:38 06.04.2020
5387 Clouds 14 1018 50 10000 5.7 290 17:18 06.04.2020
5388 Clouds 14 1018 50 10000 5.7 280 16:47 06.04.2020
5389 Clouds 14 1018 50 10000 5.7 250 16:29 06.04.2020
5390 Rain 13 1016 58 10000 5.7 300 14:46 06.04.2020
5391 Rain 13 1016 58 10000 5.7 300 14:46 06.04.2020
5392 Rain 13 1016 58 10000 5.7 300 14:46 06.04.2020
5393 Rain 13 1016 58 10000 5.7 300 14:46 06.04.2020
5394 Rain 13 1016 58 10000 5.7 300 14:46 06.04.2020
5395 Rain 12 1015 58 10000 6.7 240 13:44 06.04.2020
5396 Rain 13 1014 62 10000 5.7 240 13:21 06.04.2020
5397 Rain 12 1014 62 10000 8.2 250 12:46 06.04.2020
5398 Rain 12 1014 62 10000 8.2 250 12:46 06.04.2020
5399 Rain 12 1014 62 10000 8.2 250 12:45 06.04.2020
5400 Rain 12 1014 62 10000 8.2 250 12:45 06.04.2020
5401 Rain 12 1013 58 10000 6.7 220 12:19 06.04.2020
5402 Rain 12 1013 58 10000 6.7 220 12:19 06.04.2020
5403 Rain 12 1013 58 10000 6.7 220 12:19 06.04.2020
5404 Clouds 12 1013 62 10000 7.2 230 11:40 06.04.2020
5405 Clouds 12 1012 66 10000 7.2 230 10:55 06.04.2020
5406 Clouds 12 1012 66 10000 5.1 230 10:37 06.04.2020
5407 Clouds 12 1011 71 10000 4.6 210 10:19 06.04.2020
5408 Clouds 11 1011 76 10000 4.1 220 09:38 06.04.2020
5409 Clouds 11 1011 76 10000 4.1 220 09:38 06.04.2020
5410 Clouds 11 1011 76 10000 4.1 220 09:38 06.04.2020
5411 Rain 10 1010 81 10000 2.6 220 09:18 06.04.2020
5412 Rain 10 1009 87 10000 2.1 200 08:41 06.04.2020
5413 Rain 10 1009 87 10000 2.1 200 08:41 06.04.2020
5414 Rain 10 1009 87 10000 2.1 200 08:41 06.04.2020
5415 Rain 10 1009 87 10000 2.1 200 08:41 06.04.2020
5416 Rain 10 1009 87 10000 2.1 200 08:41 06.04.2020
5417 Clouds 10 1009 87 10000 2.1 200 07:56 06.04.2020
5418 Clouds 10 1009 87 10000 2.1 200 07:56 06.04.2020
5419 Clouds 10 1009 87 10000 2.1 200 07:56 06.04.2020
5420 Clouds 10 1007 87 10000 1.5 210 07:20 06.04.2020
5421 Rain 11 1007 81 10000 4.1 240 06:26 06.04.2020
5422 Rain 11 1006 87 10000 5.1 200 05:42 06.04.2020
5423 Rain 13 1005 71 10000 5.1 180 03:29 06.04.2020
5424 Clouds 14 1004 58 10000 5.7 180 02:49 06.04.2020
5425 Clouds 15 1005 51 10000 3.6 170 01:52 06.04.2020
5426 Clouds 15 1005 51 10000 3.6 0 00:51 06.04.2020
5427 Clouds 15 1005 51 10000 3.6 0 00:27 06.04.2020
5428 Clouds 15 1005 51 10000 3.6 0 00:27 06.04.2020
5429 Clouds 15 1005 48 10000 3.6 160 23:50 05.04.2020
5430 Clouds 15 1005 48 10000 3.6 160 23:31 05.04.2020
5431 Clouds 15 1005 48 10000 3.6 160 23:31 05.04.2020
5432 Clouds 15 1005 48 10000 3.6 160 23:31 05.04.2020
5433 Clouds 15 1005 48 10000 3.6 150 22:56 05.04.2020
5434 Clouds 16 1005 45 10000 3.6 160 22:38 05.04.2020
5435 Clouds 16 1006 45 10000 4.6 170 22:19 05.04.2020
5436 Clouds 16 1006 45 10000 4.6 170 21:58 05.04.2020
5437 Clouds 16 1006 45 10000 4.6 170 21:39 05.04.2020
5438 Clouds 17 1005 42 10000 5.1 160 21:21 05.04.2020
5439 Clouds 17 1005 42 10000 5.1 160 21:21 05.04.2020
5440 Clouds 18 1005 39 10000 4.1 150 20:20 05.04.2020
5441 Clouds 18 1005 39 10000 4.1 150 19:41 05.04.2020
5442 Clouds 19 1005 37 10000 3.6 160 19:22 05.04.2020
5443 Clouds 19 1006 37 10000 4.1 160 18:45 05.04.2020
5444 Clouds 19 1006 37 10000 4.1 160 18:45 05.04.2020
5445 Clouds 19 1006 37 10000 4.1 160 18:45 05.04.2020
5446 Clouds 19 1006 37 10000 4.6 150 17:58 05.04.2020
5447 Clouds 19 1007 34 10000 6.7 140 17:39 05.04.2020
5448 Clouds 19 1007 37 10000 5.1 150 17:20 05.04.2020
5449 Clouds 19 1008 34 10000 6.2 150 16:44 05.04.2020
5450 Clouds 19 1008 34 10000 6.2 150 16:44 05.04.2020
5451 Clouds 19 1008 34 10000 6.2 150 16:44 05.04.2020
5452 Clouds 19 1008 34 10000 6.2 150 16:44 05.04.2020
5453 Clouds 19 1008 34 10000 6.2 150 16:44 05.04.2020
5454 Clouds 19 1008 34 10000 5.7 140 16:18 05.04.2020
5455 Clouds 18 1008 34 10000 5.1 140 15:43 05.04.2020
5456 Clouds 18 1009 34 10000 4.6 140 15:24 05.04.2020
5457 Clouds 17 1009 36 10000 4.6 140 14:47 05.04.2020
5458 Clouds 17 1009 36 10000 4.6 140 14:47 05.04.2020
5459 Clouds 17 1009 36 10000 4.6 140 14:47 05.04.2020
5460 Clouds 17 1009 36 10000 4.6 140 14:47 05.04.2020
5461 Clouds 17 1009 36 10000 4.6 140 14:47 05.04.2020
5462 Clouds 16 1010 41 10000 4.1 140 13:45 05.04.2020
5463 Clouds 15 1011 44 10000 3.6 150 12:56 05.04.2020
5464 Clouds 14 1011 44 10000 5.1 150 11:58 05.04.2020
5465 Clouds 13 1012 44 10000 5.1 150 11:58 05.04.2020
5466 Clouds 13 1012 44 10000 5.1 150 11:58 05.04.2020
5467 Clouds 14 1011 44 10000 5.1 150 11:58 05.04.2020
5468 Clouds 13 1012 44 10000 5.1 150 11:37 05.04.2020
5469 Clouds 13 1012 50 10000 4.1 0 11:18 05.04.2020
5470 Clouds 12 1012 47 10000 3.6 150 10:42 05.04.2020
5471 Clouds 11 1012 50 10000 4.1 140 10:19 05.04.2020
5472 Clouds 11 1012 50 10000 4.1 140 10:19 05.04.2020
5473 Clouds 10 1013 53 10000 3.6 150 09:44 05.04.2020
5474 Clouds 9 1013 53 10000 3.6 150 09:25 05.04.2020
5475 Clouds 9 1013 53 10000 3.6 150 09:25 05.04.2020
5476 Clouds 9 1013 53 10000 3.6 150 09:24 05.04.2020
5477 Clouds 9 1013 53 10000 3.6 150 09:24 05.04.2020
5478 Clear 7 1013 61 10000 3.1 140 07:44 05.04.2020
5479 Clear 7 1013 61 10000 3.1 140 07:44 05.04.2020
5480 Clear 7 1015 74 10000 3.1 120 04:52 05.04.2020
5481 Clear 7 1015 74 10000 3.1 120 04:52 05.04.2020
5482 Clear 8 1016 74 10000 3.1 140 03:34 05.04.2020
5483 Clouds 8 1016 65 10000 2.6 0 02:52 05.04.2020
5484 Clouds 8 1017 57 10000 2.6 140 01:48 05.04.2020
5485 Clouds 8 1017 57 10000 2.6 140 01:48 05.04.2020
5486 Clouds 8 1017 57 10000 2.6 140 01:30 05.04.2020
5487 Clouds 8 1017 57 10000 2.6 140 01:30 05.04.2020
5488 Clouds 9 1017 57 10000 2.6 150 00:46 05.04.2020
5489 Clouds 9 1017 61 10000 2.1 140 00:22 05.04.2020
5490 Clouds 9 1017 61 10000 2.1 140 23:56 04.04.2020
5491 Clouds 9 1017 61 10000 2.6 150 23:37 04.04.2020
5492 Clouds 10 1017 61 10000 1.5 0 23:19 04.04.2020
5493 Clouds 10 1017 57 10000 1.5 0 22:41 04.04.2020
5494 Clouds 10 1016 62 10000 1 0 22:22 04.04.2020
5495 Clouds 11 1016 62 10000 1 0 21:59 04.04.2020
5496 Clouds 11 1016 62 10000 1 0 21:40 04.04.2020
5497 Clouds 11 1016 58 10000 2.1 150 21:20 04.04.2020
5498 Clouds 12 1016 58 10000 2.1 150 20:59 04.04.2020
5499 Clouds 12 1016 54 10000 2.1 160 20:41 04.04.2020
5500 Clouds 13 1016 54 10000 3.1 180 20:22 04.04.2020
5501 Clouds 13 1016 54 10000 3.1 180 19:57 04.04.2020
5502 Clouds 13 1016 50 10000 3.1 180 19:37 04.04.2020
5503 Clouds 13 1016 54 10000 3.6 180 19:19 04.04.2020
5504 Clouds 13 1016 54 10000 3.6 180 18:56 04.04.2020
5505 Clouds 13 1016 58 10000 2.6 180 18:38 04.04.2020
5506 Clouds 13 1016 62 10000 2.6 160 18:19 04.04.2020
5507 Clouds 13 1017 62 10000 3.1 0 17:56 04.04.2020
5508 Clouds 13 1017 62 10000 3.1 0 17:38 04.04.2020
5509 Rain 12 1017 66 10000 3.1 180 17:18 04.04.2020
5510 Clouds 12 1017 66 10000 4.1 180 16:42 04.04.2020
5511 Clouds 12 1017 66 10000 3.1 180 16:22 04.04.2020
5512 Clouds 12 1018 71 10000 3.6 180 15:55 04.04.2020
5513 Clouds 12 1018 71 10000 3.6 180 15:36 04.04.2020
5514 Clouds 11 1018 66 10000 4.1 180 15:18 04.04.2020
5515 Clouds 11 1018 66 10000 3.6 180 14:42 04.04.2020
5516 Clouds 11 1018 66 10000 3.1 180 14:22 04.04.2020
5517 Clouds 11 1018 71 10000 2.6 0 13:56 04.04.2020
5518 Clouds 11 1018 71 10000 2.6 0 13:37 04.04.2020
5519 Rain 11 1018 71 10000 2.6 180 13:19 04.04.2020
5520 Clouds 11 1019 71 10000 2.1 170 12:44 04.04.2020
5521 Clouds 10 1019 76 10000 2.1 180 12:23 04.04.2020
5522 Clouds 9 1019 76 10000 2.1 180 11:58 04.04.2020
5523 Clouds 9 1018 81 10000 2.1 170 11:38 04.04.2020
5524 Clouds 8 1018 81 10000 2.6 170 11:19 04.04.2020
5525 Clouds 8 1018 81 10000 2.6 170 10:55 04.04.2020
5526 Clouds 7 1018 81 10000 2.1 180 10:37 04.04.2020
5527 Clouds 7 1018 87 10000 1.5 0 10:18 04.04.2020
5528 Clouds 7 1018 87 10000 1.5 0 09:54 04.04.2020
5529 Clouds 6 1018 87 10000 1.5 0 09:36 04.04.2020
5530 Clouds 6 1018 87 10000 1 0 09:18 04.04.2020
5531 Clouds 5 1018 93 10000 1 0 08:38 04.04.2020
5532 Clouds 5 1018 93 10000 1.5 0 08:20 04.04.2020
5533 Clouds 5 1017 86 10000 1 0 07:44 04.04.2020
5534 Clouds 5 1017 86 10000 1 0 07:26 04.04.2020
5535 Clouds 5 1018 93 10000 1.5 0 06:47 04.04.2020
5536 Clouds 5 1017 93 10000 1 0 06:18 04.04.2020
5537 Clouds 5 1017 86 10000 1 0 05:41 04.04.2020
5538 Clouds 5 1017 86 10000 1 0 05:23 04.04.2020
5539 Clouds 6 1018 93 10000 1.5 150 04:27 04.04.2020
5540 Clouds 6 1018 86 10000 1 0 03:49 04.04.2020
5541 Clouds 7 1018 81 10000 1.5 160 02:50 04.04.2020
5542 Clouds 7 1018 81 10000 1.5 160 02:32 04.04.2020
5543 Clouds 7 1018 81 10000 1.5 160 01:53 04.04.2020
5544 Clouds 7 1018 81 10000 1.5 180 01:25 04.04.2020
5545 Clouds 8 1017 75 10000 1.5 0 00:48 04.04.2020
5546 Clouds 8 1017 75 10000 1.5 0 00:28 04.04.2020
5547 Clouds 8 1017 70 10000 2.1 170 23:39 03.04.2020
5548 Clouds 8 1017 70 10000 2.1 180 23:21 03.04.2020
5549 Clouds 8 1017 70 10000 2.1 180 22:57 03.04.2020
5550 Clouds 8 1017 75 10000 1.5 170 22:39 03.04.2020
5551 Clouds 8 1017 75 10000 1 140 22:18 03.04.2020
5552 Clouds 8 1017 70 10000 1 190 21:43 03.04.2020
5553 Clouds 8 1017 61 10000 1.5 250 21:24 03.04.2020
5554 Clouds 9 1017 61 10000 1.5 250 20:57 03.04.2020
5555 Clouds 9 1017 61 10000 1.5 250 20:57 03.04.2020
5556 Clouds 9 1017 61 10000 1 0 20:37 03.04.2020
5557 Clouds 9 1017 57 10000 2.1 300 20:19 03.04.2020
5558 Clouds 10 1017 57 10000 2.1 300 19:57 03.04.2020
5559 Clouds 10 1017 53 10000 3.1 290 19:38 03.04.2020
5560 Clouds 10 1017 53 10000 3.1 290 19:38 03.04.2020
5561 Clouds 10 1017 53 10000 4.1 290 19:20 03.04.2020
5562 Clouds 10 1017 53 10000 4.1 290 18:58 03.04.2020
5563 Clouds 10 1016 61 10000 4.6 280 18:40 03.04.2020
5564 Clouds 11 1016 61 10000 4.6 270 18:22 03.04.2020
5565 Clouds 11 1016 57 10000 4.1 280 17:54 03.04.2020
5566 Clouds 11 1016 57 10000 4.1 280 17:36 03.04.2020
5567 Clouds 11 1016 57 10000 5.7 270 17:18 03.04.2020
5568 Clouds 11 1016 53 10000 5.7 270 16:42 03.04.2020
5569 Clouds 11 1016 53 10000 5.1 260 16:21 03.04.2020
5570 Clouds 11 1016 53 10000 5.1 260 15:58 03.04.2020
5571 Clouds 11 1017 50 10000 6.2 260 15:38 03.04.2020
5572 Clouds 10 1017 53 10000 5.7 270 15:19 03.04.2020
5573 Clouds 10 1017 57 10000 6.7 280 14:41 03.04.2020
5574 Clouds 10 1017 57 10000 6.7 280 14:41 03.04.2020
5575 Clouds 10 1017 57 10000 6.7 280 14:41 03.04.2020
5576 Clouds 10 1017 57 10000 6.7 280 14:22 03.04.2020
5577 Clouds 10 1017 57 10000 6.7 280 13:59 03.04.2020
5578 Clouds 9 1017 57 10000 6.7 280 13:40 03.04.2020
5579 Clouds 9 1017 66 10000 6.2 260 13:22 03.04.2020
5580 Clouds 9 1017 70 10000 6.2 260 12:43 03.04.2020
5581 Clouds 8 1017 70 10000 4.6 270 12:20 03.04.2020
5582 Clouds 8 1017 70 10000 4.6 270 11:57 03.04.2020
5583 Clouds 8 1016 75 10000 5.1 260 11:39 03.04.2020
5584 Clouds 7 1016 81 10000 3.6 260 11:20 03.04.2020
5585 Clouds 7 1016 81 10000 3.6 260 10:59 03.04.2020
5586 Rain 7 1016 87 10000 2.6 240 10:38 03.04.2020
5587 Clouds 7 1016 87 10000 2.6 220 10:20 03.04.2020
5588 Clouds 7 1016 87 10000 2.6 220 09:59 03.04.2020
5589 Clouds 6 1016 81 10000 2.6 240 09:40 03.04.2020
5590 Clouds 6 1016 81 10000 2.6 240 09:40 03.04.2020
5591 Clouds 6 1016 87 10000 2.1 230 09:21 03.04.2020
5592 Clouds 6 1016 87 10000 2.1 230 08:55 03.04.2020
5593 Clouds 5 1016 86 10000 1 0 08:37 03.04.2020
5594 Clouds 5 1016 86 10000 1 0 08:37 03.04.2020
5595 Clouds 5 1015 86 10000 1.5 230 08:18 03.04.2020
5596 Snow 5 1015 86 10000 1 0 07:46 03.04.2020
5597 Snow 5 1015 86 10000 1 0 07:27 03.04.2020
5598 Clouds 5 1015 86 10000 2.6 240 06:40 03.04.2020
5599 Clouds 5 1015 86 10000 1.5 230 06:21 03.04.2020
5600 Clouds 5 1015 80 10000 1.5 250 05:34 03.04.2020
5601 Clouds 5 1015 80 10000 1.5 280 03:40 03.04.2020
5602 Clouds 6 1015 75 10000 2.1 280 02:55 03.04.2020
5603 Clouds 5 1015 75 10000 4.1 290 01:53 03.04.2020
5604 Clouds 5 1015 75 10000 3.1 290 01:18 03.04.2020
5605 Clouds 6 1015 70 10000 3.6 290 00:34 03.04.2020
5606 Clouds 6 1015 65 10000 4.6 290 23:57 02.04.2020
5607 Clouds 6 1015 65 10000 4.6 290 23:39 02.04.2020
5608 Clouds 6 1014 65 10000 5.7 280 23:19 02.04.2020
5609 Clouds 6 1014 65 10000 5.7 280 23:19 02.04.2020
5610 Clouds 7 1014 61 10000 5.1 290 22:43 02.04.2020
5611 Clouds 7 1014 61 10000 5.1 290 22:25 02.04.2020
5612 Clouds 7 1014 61 10000 4.6 290 21:59 02.04.2020
5613 Clouds 7 1014 61 10000 4.6 290 21:37 02.04.2020
5614 Clouds 7 1014 61 10000 5.1 290 21:19 02.04.2020
5615 Clouds 8 1014 61 10000 5.1 290 20:55 02.04.2020
5616 Clouds 8 1014 61 10000 5.1 300 20:37 02.04.2020
5617 Clouds 8 1014 61 10000 5.1 300 20:18 02.04.2020
5618 Clouds 9 1013 66 10000 6.7 310 19:42 02.04.2020
5619 Clouds 9 1013 70 10000 6.7 300 19:20 02.04.2020
5620 Clouds 10 1013 61 10000 7.7 290 18:56 02.04.2020
5621 Clouds 10 1013 61 10000 7.7 290 18:38 02.04.2020
5622 Clouds 10 1013 57 10000 8.7 280 18:19 02.04.2020
5623 Clouds 10 1013 62 10000 6.2 280 17:43 02.04.2020
5624 Clouds 11 1013 62 10000 6.2 280 17:24 02.04.2020
5625 Clouds 11 1013 61 10000 8.7 280 16:58 02.04.2020
5626 Clouds 11 1013 62 10000 8.2 290 16:40 02.04.2020
5627 Clouds 11 1013 62 10000 8.7 280 16:22 02.04.2020
5628 Clouds 11 1013 62 10000 8.7 280 15:57 02.04.2020
5629 Clouds 11 1013 71 10000 9.3 290 15:39 02.04.2020
5630 Clouds 11 1013 93 10000 8.7 290 15:19 02.04.2020
5631 Clouds 10 1013 93 10000 8.7 290 14:57 02.04.2020
5632 Drizzle 10 1013 87 2600 10.3 280 14:38 02.04.2020
5633 Rain 10 1013 81 9000 9.8 280 14:18 02.04.2020
5634 Rain 10 1013 81 9000 9.8 280 14:18 02.04.2020
5635 Rain 10 1013 81 10000 8.7 280 13:54 02.04.2020
5636 Rain 10 1013 81 10000 8.7 280 13:54 02.04.2020
5637 Rain 10 1013 81 10000 8.7 280 13:36 02.04.2020
5638 Rain 10 1013 87 10000 8.2 270 13:18 02.04.2020
5639 Clouds 9 1013 87 10000 7.2 270 12:44 02.04.2020
5640 Rain 9 1014 93 4000 7.2 270 12:19 02.04.2020
5641 Drizzle 9 1014 93 3900 7.2 260 11:57 02.04.2020
5642 Drizzle 9 1014 93 3900 7.2 260 11:39 02.04.2020
5643 Rain 8 1014 81 10000 8.2 270 11:20 02.04.2020
5644 Rain 8 1014 81 10000 8.2 270 10:56 02.04.2020
5645 Clouds 8 1014 87 10000 7.7 270 10:37 02.04.2020
5646 Clouds 8 1014 87 10000 6.7 270 10:19 02.04.2020
5647 Clouds 8 1014 87 10000 6.7 270 10:19 02.04.2020
5648 Clouds 8 1014 87 10000 6.7 270 09:58 02.04.2020
5649 Clouds 8 1014 87 10000 6.7 270 09:58 02.04.2020
5650 Clouds 8 1014 87 10000 5.7 260 09:39 02.04.2020
5651 Clouds 8 1015 93 10000 5.7 260 09:19 02.04.2020
5652 Clouds 7 1015 93 10000 4.6 250 08:47 02.04.2020
5653 Clouds 7 1015 93 10000 4.6 250 08:27 02.04.2020
5654 Clouds 7 1015 93 10000 4.1 240 07:45 02.04.2020
5655 Clouds 7 1016 93 10000 5.1 270 07:21 02.04.2020
5656 Clouds 7 1016 93 10000 5.1 270 06:59 02.04.2020
5657 Clouds 7 1016 93 10000 4.6 270 06:22 02.04.2020
5658 Rain 7 1017 93 10000 4.6 260 05:45 02.04.2020
5659 Rain 7 1017 93 10000 4.1 270 04:47 02.04.2020
5660 Clouds 7 1019 81 10000 3.1 280 02:18 02.04.2020
5661 Clouds 7 1019 81 10000 4.1 290 00:54 02.04.2020
5662 Clouds 7 1019 81 10000 4.1 290 00:31 02.04.2020
5663 Clouds 7 1020 81 10000 4.1 290 23:59 01.04.2020
5664 Clouds 7 1020 81 10000 2.6 280 23:37 01.04.2020
5665 Clouds 7 1020 81 10000 3.6 280 23:18 01.04.2020
5666 Clouds 7 1020 81 10000 2.6 270 22:41 01.04.2020
5667 Clouds 7 1020 75 10000 3.1 280 22:22 01.04.2020
5668 Clouds 7 1020 75 10000 3.1 280 21:58 01.04.2020
5669 Clouds 7 1020 75 10000 3.1 280 21:58 01.04.2020
5670 Clouds 7 1020 75 10000 4.6 280 21:39 01.04.2020
5671 Clouds 7 1020 75 10000 5.7 290 21:19 01.04.2020
5672 Clouds 7 1020 75 10000 5.7 290 20:55 01.04.2020
5673 Clouds 7 1020 75 10000 5.7 290 20:55 01.04.2020
5674 Clouds 7 1020 75 10000 4.6 300 20:37 01.04.2020
5675 Clouds 8 1020 65 10000 5.7 310 20:18 01.04.2020
5676 Clouds 8 1020 65 10000 5.7 310 20:18 01.04.2020
5677 Clouds 8 1021 65 10000 5.7 300 19:43 01.04.2020
5678 Clouds 8 1021 70 10000 6.2 290 19:22 01.04.2020
5679 Clouds 8 1021 70 10000 6.2 290 18:59 01.04.2020
5680 Clouds 8 1021 70 10000 6.2 290 18:59 01.04.2020
5681 Clouds 8 1021 70 10000 6.2 290 18:59 01.04.2020
5682 Clouds 8 1021 70 10000 6.2 290 18:59 01.04.2020
5683 Clouds 8 1021 65 10000 6.2 300 18:40 01.04.2020
5684 Clouds 8 1021 70 10000 5.1 290 18:21 01.04.2020
5685 Clouds 8 1021 65 10000 7.2 290 17:56 01.04.2020
5686 Clouds 8 1021 65 10000 7.2 290 17:56 01.04.2020
5687 Clouds 8 1021 65 10000 7.2 290 17:36 01.04.2020
5688 Clouds 9 1022 61 10000 7.2 290 17:18 01.04.2020
5689 Clouds 9 1022 65 10000 6.2 290 16:43 01.04.2020
5690 Clouds 9 1022 65 10000 6.2 290 16:43 01.04.2020
5691 Clouds 9 1022 65 10000 5.7 300 16:25 01.04.2020
5692 Clouds 9 1022 65 10000 5.7 300 15:59 01.04.2020
5693 Clouds 8 1023 70 10000 3.1 310 15:41 01.04.2020
5694 Rain 8 1023 70 9000 5.7 340 15:22 01.04.2020
5695 Rain 8 1023 70 9000 5.7 340 14:58 01.04.2020
5696 Clouds 8 1023 53 10000 4.6 300 14:39 01.04.2020
5697 Clouds 8 1023 53 10000 4.6 300 14:20 01.04.2020
5698 Clouds 8 1023 53 10000 4.6 300 13:58 01.04.2020
5699 Clouds 8 1023 52 10000 4.1 310 13:38 01.04.2020
5700 Clouds 8 1024 61 10000 4.1 310 13:19 01.04.2020
5701 Clouds 8 1024 81 10000 3.1 300 12:56 01.04.2020
5702 Clouds 8 1024 81 10000 3.1 300 12:36 01.04.2020
5703 Clouds 7 1024 87 10000 2.6 280 12:18 01.04.2020
5704 Clouds 7 1024 81 10000 2.6 270 11:42 01.04.2020
5705 Clouds 7 1025 81 10000 2.6 270 11:23 01.04.2020
5706 Clouds 6 1025 81 10000 2.6 270 10:58 01.04.2020
5707 Clouds 6 1025 81 10000 2.6 270 10:38 01.04.2020
5708 Rain 6 1025 81 10000 5.1 290 10:19 01.04.2020
5709 Rain 6 1025 81 10000 5.1 290 09:57 01.04.2020
5710 Rain 6 1025 81 10000 5.1 290 09:57 01.04.2020
5711 Clouds 6 1025 87 10000 2.1 260 09:38 01.04.2020
5712 Clouds 6 1025 87 10000 1.5 260 09:18 01.04.2020
5713 Clouds 6 1025 87 10000 2.6 280 08:40 01.04.2020
5714 Clouds 6 1025 87 10000 2.6 280 08:18 01.04.2020
5715 Clouds 6 1025 87 10000 2.1 270 07:43 01.04.2020
5716 Clouds 6 1026 93 10000 1 220 07:21 01.04.2020
5717 Clouds 6 1026 93 10000 1.5 200 06:48 01.04.2020
5718 Clouds 6 1026 93 10000 1 0 06:24 01.04.2020
5719 Clouds 6 1026 93 10000 1 0 05:56 01.04.2020
5720 Clouds 6 1027 93 10000 1.5 200 04:32 01.04.2020
5721 Clouds 6 1028 86 10000 1.5 0 03:30 01.04.2020
5722 Clouds 6 1028 81 10000 1 0 02:49 01.04.2020
5723 Clouds 6 1029 81 10000 1 230 01:57 01.04.2020
5724 Clouds 6 1029 81 10000 1.5 250 01:38 01.04.2020
5725 Clouds 6 1029 81 10000 1 250 01:18 01.04.2020
5726 Clouds 6 1030 81 10000 1.5 300 00:45 01.04.2020
5727 Clouds 6 1030 75 10000 1.5 0 00:20 01.04.2020
5728 Clouds 6 1030 75 10000 1.5 290 23:42 31.03.2020
5729 Clouds 7 1031 75 10000 2.6 290 23:23 31.03.2020
5730 Clouds 7 1031 75 10000 2.6 300 22:58 31.03.2020
5731 Clouds 7 1031 75 10000 2.6 300 22:37 31.03.2020
5732 Clouds 7 1031 70 10000 3.1 290 22:19 31.03.2020
5733 Clouds 7 1031 65 10000 3.1 300 21:56 31.03.2020
5734 Clouds 7 1031 65 10000 3.1 300 21:37 31.03.2020
5735 Clouds 7 1031 70 10000 2.6 290 21:19 31.03.2020
5736 Clouds 7 1031 70 10000 2.6 290 20:55 31.03.2020
5737 Clouds 8 1031 70 10000 2.6 310 20:36 31.03.2020
5738 Clouds 8 1031 70 10000 2.6 310 20:18 31.03.2020
5739 Clouds 8 1032 61 10000 1 0 19:41 31.03.2020
5740 Clouds 9 1032 61 10000 1 0 19:22 31.03.2020
5741 Clouds 9 1032 57 10000 1 0 18:56 31.03.2020
5742 Clouds 9 1032 57 10000 1 0 18:37 31.03.2020
5743 Clouds 9 1032 57 10000 1 0 18:18 31.03.2020
5744 Clouds 9 1032 57 10000 2.1 50 17:54 31.03.2020
5745 Clouds 9 1032 57 10000 2.1 50 17:36 31.03.2020
5746 Clouds 9 1032 57 10000 2.1 50 17:36 31.03.2020
5747 Clouds 9 1033 57 10000 2.1 70 17:18 31.03.2020
5748 Clouds 9 1033 61 10000 3.1 40 16:39 31.03.2020
5749 Clouds 9 1034 61 10000 2.6 60 16:19 31.03.2020
5750 Clouds 9 1034 61 10000 2.6 60 15:57 31.03.2020
5751 Clouds 9 1034 61 10000 2.6 60 15:39 31.03.2020
5752 Clouds 8 1034 61 10000 3.1 50 15:20 31.03.2020
5753 Clouds 8 1034 61 10000 3.1 50 14:56 31.03.2020
5754 Clouds 8 1035 65 10000 3.1 50 14:38 31.03.2020
5755 Clouds 8 1035 61 10000 4.1 40 14:20 31.03.2020
5756 Clouds 8 1035 70 10000 4.1 50 13:42 31.03.2020
5757 Clouds 8 1035 70 10000 5.1 40 13:19 31.03.2020
5758 Clouds 7 1035 65 10000 4.1 50 12:55 31.03.2020
5759 Clouds 7 1035 65 10000 4.1 50 12:37 31.03.2020
5760 Clouds 7 1035 65 10000 5.7 50 12:18 31.03.2020
5761 Clouds 7 1035 65 10000 5.1 40 11:39 31.03.2020
5762 Clouds 6 1035 81 10000 2.6 80 11:20 31.03.2020
5763 Clouds 6 1035 81 10000 2.6 80 10:58 31.03.2020
5764 Clouds 6 1035 81 10000 4.6 30 10:39 31.03.2020
5765 Clouds 6 1035 81 10000 2.1 10 10:21 31.03.2020
5766 Clouds 6 1035 81 10000 2.1 10 09:56 31.03.2020
5767 Clouds 5 1036 86 10000 4.1 20 09:37 31.03.2020
5768 Clouds 5 1036 86 10000 4.1 20 09:37 31.03.2020
5769 Clouds 5 1036 86 10000 4.1 20 09:37 31.03.2020
5770 Clouds 5 1036 86 10000 3.1 10 09:19 31.03.2020
5771 Clouds 4 1036 86 10000 2.1 10 08:55 31.03.2020
5772 Clouds 4 1036 86 10000 2.1 10 08:37 31.03.2020
5773 Clouds 4 1035 93 10000 2.1 50 08:18 31.03.2020
5774 Clouds 4 1035 93 10000 2.1 50 08:18 31.03.2020
5775 Clouds 4 1035 86 10000 1.5 50 07:44 31.03.2020
5776 Clouds 4 1035 86 10000 1.5 50 07:44 31.03.2020
5777 Clouds 4 1035 86 10000 3.6 30 07:25 31.03.2020
5778 Clouds 4 1035 86 10000 3.6 30 06:59 31.03.2020
5779 Rain 4 1035 86 10000 4.6 50 06:41 31.03.2020
5780 Rain 4 1035 86 10000 2.6 10 05:44 31.03.2020
5781 Rain 4 1035 93 10000 3.1 20 05:24 31.03.2020
5782 Clouds 4 1035 80 10000 3.6 10 02:56 31.03.2020
5783 Clouds 5 1035 75 10000 4.6 10 01:47 31.03.2020
5784 Clouds 5 1035 75 10000 4.1 10 01:19 31.03.2020
5785 Clouds 5 1035 77 10000 4.1 20 00:43 31.03.2020
5786 Clouds 5 1035 65 10000 3.6 10 00:20 31.03.2020
5787 Clouds 6 1035 60 10000 3.6 30 23:40 30.03.2020
5788 Clouds 6 1035 60 10000 4.6 20 23:20 30.03.2020
5789 Clouds 6 1035 56 10000 5.1 20 22:57 30.03.2020
5790 -273 0 0 0 0 0 22:38 30.03.2020
5791 Clouds 7 1035 56 10000 5.1 20 22:18 30.03.2020
5792 Clouds 7 1035 56 10000 5.1 20 21:57 30.03.2020
5793 Clouds 7 1035 52 10000 5.7 20 21:37 30.03.2020
5794 Clouds 8 1035 52 10000 6.2 30 21:19 30.03.2020
5795 Clouds 8 1035 52 10000 6.2 30 20:56 30.03.2020
5796 Clouds 8 1035 49 10000 6.2 30 20:37 30.03.2020
5797 Clouds 8 1035 49 10000 6.2 20 20:19 30.03.2020
5798 Clouds 9 1035 59 10000 6.2 30 19:41 30.03.2020
5799 Clouds 9 1035 59 10000 6.2 30 19:41 30.03.2020
5800 Clouds 9 1035 59 10000 5.7 30 19:22 30.03.2020
5801 Clouds 9 1035 59 10000 5.7 30 19:22 30.03.2020
5802 Clouds 9 1035 59 10000 5.7 30 18:57 30.03.2020
5803 Clouds 9 1035 59 10000 7.2 20 18:39 30.03.2020
5804 Clouds 9 1035 59 10000 7.2 20 18:39 30.03.2020
5805 Clouds 9 1035 56 10000 6.7 20 18:21 30.03.2020
5806 Clouds 9 1035 56 10000 6.7 20 17:57 30.03.2020
5807 Clouds 9 1035 56 10000 4.6 360 17:39 30.03.2020
5808 Clouds 9 1035 56 10000 5.7 10 17:19 30.03.2020
5809 Clouds 9 1035 56 10000 4.6 10 16:56 30.03.2020
5810 Clouds 9 1035 56 10000 5.7 10 16:56 30.03.2020
5811 Clouds 9 1035 56 10000 4.6 10 16:38 30.03.2020
5812 Clouds 9 1036 56 10000 5.1 10 16:19 30.03.2020
5813 Clouds 9 1036 56 10000 5.1 10 15:54 30.03.2020
5814 Clouds 9 1036 56 10000 4.6 20 15:36 30.03.2020
5815 Clouds 9 1036 58 10000 5.7 20 15:18 30.03.2020
5816 Clouds 9 1036 58 10000 5.7 40 14:40 30.03.2020
5817 Clouds 9 1036 61 10000 3.6 10 14:19 30.03.2020
5818 Clouds 9 1036 61 10000 3.6 10 13:59 30.03.2020
5819 Clouds 8 1037 61 10000 4.1 360 13:40 30.03.2020
5820 Clouds 8 1037 65 10000 5.1 350 13:21 30.03.2020
5821 Clouds 8 1037 65 10000 5.1 350 12:56 30.03.2020
5822 Clouds 7 1037 65 10000 4.6 340 12:37 30.03.2020
5823 Clouds 7 1037 65 10000 4.6 340 12:19 30.03.2020
5824 Clouds 7 1037 65 10000 4.6 340 11:55 30.03.2020
5825 Clouds 7 1037 65 10000 4.6 340 11:55 30.03.2020
5826 Clouds 7 1037 65 10000 2.6 320 11:37 30.03.2020
5827 Clouds 7 1038 63 10000 3.1 320 11:18 30.03.2020
5828 Clouds 6 1038 65 10000 2.6 330 10:39 30.03.2020
5829 Clouds 6 1038 63 10000 1.5 0 10:21 30.03.2020
5830 Clouds 6 1038 63 10000 1.5 0 10:21 30.03.2020
5831 Clouds 5 1038 63 10000 1.5 0 09:54 30.03.2020
5832 Clouds 5 1038 80 10000 2.74 358 09:36 30.03.2020
5833 Clouds 4 1038 75 10000 3.1 340 09:18 30.03.2020
5834 Clouds 4 1038 86 10000 0.5 0 08:40 30.03.2020
5835 Clouds 3 1039 75 10000 4.1 340 08:21 30.03.2020
5836 Clouds 3 1038 80 10000 0.5 0 07:48 30.03.2020
5837 Clouds 3 1038 80 10000 0.5 0 07:25 30.03.2020
5838 Clouds 3 1039 75 10000 3.6 340 06:47 30.03.2020
5839 Clouds 3 1039 75 10000 3.6 340 06:29 30.03.2020
5840 Clouds 2 1039 86 10000 1 120 05:46 30.03.2020
5841 Clouds 2 1040 77 10000 1 160 04:40 30.03.2020
5842 Clouds 2 1040 74 10000 0.5 0 04:20 30.03.2020
5843 Clouds 2 1042 74 10000 0.5 0 02:52 30.03.2020
5844 Clouds 2 1042 74 10000 0.5 0 01:58 30.03.2020
5845 Clouds 2 1042 64 10000 1 0 01:18 30.03.2020
5846 Clear 2 1043 64 10000 2.1 340 00:29 30.03.2020
5847 Clouds 2 1043 69 10000 2.6 320 23:57 29.03.2020
5848 Clouds 2 1043 69 10000 2.6 320 23:57 29.03.2020
5849 Clouds 2 1043 64 10000 2.6 340 23:39 29.03.2020
5850 Clouds 2 1043 59 10000 3.6 360 23:20 29.03.2020
5851 Clouds 3 1043 59 10000 3.6 360 22:55 29.03.2020
5852 Clouds 3 1043 59 10000 3.6 360 22:55 29.03.2020
5853 Clouds 3 1044 55 10000 3.6 10 22:55 29.03.2020
5854 Clouds 3 1044 55 10000 3.6 10 22:37 29.03.2020
5855 Clouds 3 1044 55 10000 3.6 10 22:37 29.03.2020
5856 Clouds 3 1044 60 10000 3.1 10 22:18 29.03.2020
5857 Clouds 4 1044 60 10000 5.7 30 21:38 29.03.2020
5858 Clouds 4 1044 56 10000 7.2 20 21:20 29.03.2020
5859 Clouds 4 1044 56 10000 7.2 20 20:56 29.03.2020
5860 Clouds 4 1044 56 10000 7.2 20 20:37 29.03.2020
5861 Clouds 4 1044 56 10000 7.2 20 20:37 29.03.2020
5862 Clouds 5 1044 56 10000 8.2 20 20:19 29.03.2020
5863 Clouds 5 1044 56 10000 8.2 20 20:19 29.03.2020
5864 Clouds 5 1044 56 10000 7.7 30 19:57 29.03.2020
5865 Clouds 5 1044 56 10000 7.7 30 19:57 29.03.2020
5866 Clouds 5 1044 56 10000 7.7 30 19:39 29.03.2020
5867 Clouds 5 1044 56 10000 7.7 30 19:39 29.03.2020
5868 Clouds 5 1044 60 10000 7.2 40 19:21 29.03.2020
5869 Clouds 6 1043 52 10000 8.2 40 18:57 29.03.2020
5870 Clouds 6 1043 52 10000 8.2 40 18:38 29.03.2020
5871 Clouds 6 1043 52 10000 8.2 30 18:19 29.03.2020
5872 Clouds 6 1043 48 10000 7.7 30 17:55 29.03.2020
5873 Clouds 6 1043 48 10000 7.7 30 17:37 29.03.2020
5874 Clouds 7 1043 48 10000 8.2 20 17:18 29.03.2020
5875 Clouds 7 1043 48 10000 8.2 20 16:56 29.03.2020
5876 Clouds 7 1043 39 10000 8.2 20 16:38 29.03.2020
5877 Clouds 7 1043 42 10000 8.7 30 16:18 29.03.2020
5878 Clouds 7 1044 45 10000 7.2 40 15:41 29.03.2020
5879 Clouds 7 1044 52 10000 8.2 30 15:23 29.03.2020
5880 Clouds 7 1044 52 10000 8.2 30 15:23 29.03.2020
5881 Clouds 7 1044 52 10000 8.2 30 14:57 29.03.2020
5882 Clouds 7 1044 52 10000 8.7 30 14:39 29.03.2020
5883 Clouds 7 1044 45 10000 9.3 50 14:20 29.03.2020
5884 Clouds 6 1044 48 10000 8.2 50 13:57 29.03.2020
5885 Clouds 7 1044 48 10000 8.2 50 13:39 29.03.2020
5886 Clouds 6 1044 48 10000 8.7 50 13:19 29.03.2020
5887 Clouds 6 1044 52 10000 9.3 40 12:55 29.03.2020
5888 Clouds 7 1044 52 10000 9.3 40 12:37 29.03.2020
5889 Clouds 6 1044 56 10000 8.2 40 12:18 29.03.2020
5890 Clouds 6 1044 56 10000 10.3 40 11:40 29.03.2020
5891 Clouds 5 1043 56 10000 9.3 40 11:21 29.03.2020
5892 Clouds 5 1043 56 10000 9.3 40 10:59 29.03.2020
5893 Clouds 4 1043 60 10000 9.3 30 10:38 29.03.2020
5894 Clouds 4 1043 55 10000 8.7 30 10:18 29.03.2020
5895 Clear 4 1042 55 10000 6.7 40 09:40 29.03.2020
5896 Clouds 3 1042 64 10000 7.2 30 09:20 29.03.2020
5897 Clouds 3 1042 64 10000 7.2 30 08:54 29.03.2020
5898 Clear 2 1042 64 10000 7.2 30 08:28 29.03.2020
5899 Clouds 2 1041 59 10000 6.7 20 07:59 29.03.2020
5900 Clouds 2 1041 59 10000 6.7 20 07:40 29.03.2020
5901 Clouds 2 1041 59 10000 5.7 20 07:20 29.03.2020
5902 Clear 3 1041 55 10000 6.2 20 04:59 29.03.2020
5903 Clouds 3 1041 59 10000 7.7 30 03:55 29.03.2020
5904 Clouds 3 1041 59 10000 5.7 30 03:26 29.03.2020
5905 Clouds 3 1040 74 10000 8.2 30 01:51 29.03.2020
5906 Clouds 3 1040 69 10000 6.2 30 01:23 29.03.2020
5907 Clouds 3 1040 69 10000 6.2 30 00:55 29.03.2020
5908 Clouds 3 1040 69 10000 6.7 30 00:31 29.03.2020
5909 Clouds 3 1039 69 10000 9.3 30 23:43 28.03.2020
5910 Clouds 3 1039 69 10000 9.3 30 23:43 28.03.2020
5911 Clouds 3 1039 69 10000 8.7 30 23:24 28.03.2020
5912 Clouds 4 1039 64 10000 7.2 20 22:58 28.03.2020
5913 Clouds 4 1039 64 10000 7.2 20 22:38 28.03.2020
5914 Clouds 4 1038 69 10000 7.2 40 22:20 28.03.2020
5915 Clouds 4 1038 60 10000 7.2 30 21:43 28.03.2020
5916 Clouds 4 1038 60 10000 7.2 30 21:24 28.03.2020
5917 Clouds 4 1038 60 10000 8.7 20 20:59 28.03.2020
5918 Clouds 5 1038 60 10000 7.2 30 20:41 28.03.2020
5919 Clouds 5 1037 65 10000 7.7 30 20:23 28.03.2020
5920 Clouds 5 1037 65 10000 7.7 30 19:57 28.03.2020
5921 Clouds 6 1037 60 10000 7.7 40 19:38 28.03.2020
5922 Clouds 6 1037 60 10000 7.7 40 19:38 28.03.2020
5923 Clouds 6 1036 56 10000 10.3 30 19:20 28.03.2020
5924 Clouds 6 1036 56 10000 7.2 20 18:56 28.03.2020
5925 Clouds 7 1036 56 10000 7.2 20 18:38 28.03.2020
5926 Clouds 7 1036 56 10000 7.2 20 18:38 28.03.2020
5927 Clouds 7 1036 52 10000 8.7 40 18:19 28.03.2020
5928 Clouds 8 1035 49 10000 10.3 30 17:38 28.03.2020
5929 Clouds 8 1035 53 10000 8.7 40 17:20 28.03.2020
5930 Clouds 9 1035 49 10000 8.7 30 16:42 28.03.2020
5931 Clouds 9 1035 53 10000 8.2 40 16:20 28.03.2020
5932 Clouds 9 1035 57 10000 9.3 30 15:56 28.03.2020
5933 Clouds 9 1035 57 10000 9.3 30 15:38 28.03.2020
5934 Clouds 9 1034 57 10000 8.2 40 15:19 28.03.2020
5935 Clouds 10 1034 57 10000 7.2 50 14:43 28.03.2020
5936 Clouds 10 1034 53 10000 7.7 20 14:22 28.03.2020
5937 Clouds 10 1034 49 10000 7.7 20 13:57 28.03.2020
5938 Clouds 10 1034 53 10000 6.7 50 13:37 28.03.2020
5939 Clouds 10 1034 53 10000 7.7 40 13:18 28.03.2020
5940 Clouds 10 1034 53 10000 7.7 40 13:18 28.03.2020
5941 Clouds 10 1034 57 10000 7.7 50 12:38 28.03.2020
5942 Clouds 9 1034 61 10000 7.7 50 12:19 28.03.2020
5943 Clouds 9 1034 65 10000 7.7 40 11:42 28.03.2020
5944 Clouds 9 1034 65 10000 7.7 40 11:42 28.03.2020
5945 Clouds 9 1033 61 10000 7.2 50 11:21 28.03.2020
5946 Clouds 8 1033 61 10000 8.2 40 10:44 28.03.2020
5947 Clouds 8 1033 61 10000 8.2 40 10:25 28.03.2020
5948 Clouds 8 1033 61 10000 9.3 40 09:59 28.03.2020
5949 Clouds 7 1033 70 10000 8.7 40 09:40 28.03.2020
5950 Clouds 7 1032 70 10000 8.2 40 09:21 28.03.2020
5951 Clouds 7 1032 70 10000 6.7 40 08:43 28.03.2020
5952 Clouds 6 1032 70 10000 6.7 40 08:24 28.03.2020
5953 Clouds 6 1032 70 10000 4.1 50 07:53 28.03.2020
5954 Clouds 6 1032 75 10000 3.6 30 07:35 28.03.2020
5955 Clouds 6 1031 75 10000 6.2 30 06:52 28.03.2020
5956 Clouds 5 1031 81 10000 6.2 50 06:23 28.03.2020
5957 Clouds 6 1030 81 10000 6.2 50 05:26 28.03.2020
5958 Clouds 5 1030 81 10000 6.2 40 04:53 28.03.2020
5959 Clouds 5 1030 81 10000 6.2 40 04:35 28.03.2020
5960 Clouds 4 1030 80 10000 2.6 20 02:50 28.03.2020
5961 Clear 4 1030 68 10000 2.6 40 01:47 28.03.2020
5962 Clear 4 1030 68 10000 2.6 40 01:23 28.03.2020
5963 Clear 4 1030 74 10000 4.1 50 00:49 28.03.2020
5964 Clear 4 1030 59 10000 2.6 60 00:24 28.03.2020
5965 Clear 4 1030 55 10000 3.6 60 23:44 27.03.2020
5966 Clear 4 1030 48 10000 1.5 0 23:25 27.03.2020
5967 Clear 5 1029 48 10000 3.1 70 22:57 27.03.2020
5968 Clear 5 1029 48 10000 3.1 70 22:39 27.03.2020
5969 Clear 5 1029 45 10000 5.7 40 22:20 27.03.2020
5970 Clear 6 1029 45 10000 5.7 40 21:57 27.03.2020
5971 Clear 6 1029 45 10000 5.7 50 21:38 27.03.2020
5972 Clear 6 1028 45 10000 4.6 50 21:20 27.03.2020
5973 Clear 7 1028 45 10000 4.6 50 20:55 27.03.2020
5974 Clear 7 1028 42 10000 3.6 50 20:37 27.03.2020
5975 Clear 8 1028 39 10000 3.6 60 20:18 27.03.2020
5976 Clear 9 1027 36 10000 5.1 50 19:42 27.03.2020
5977 Clear 10 1027 37 10000 3.6 70 19:23 27.03.2020
5978 Clear 10 1027 37 10000 3.6 70 18:56 27.03.2020
5979 Clear 11 1027 34 10000 4.6 60 18:38 27.03.2020
5980 Clear 11 1027 34 10000 4.6 60 18:38 27.03.2020
5981 Clear 11 1027 40 10000 5.1 50 18:19 27.03.2020
5982 Clear 12 1026 40 10000 6.2 50 17:40 27.03.2020
5983 Clear 12 1026 40 10000 5.7 50 17:20 27.03.2020
5984 Clear 12 1027 46 10000 4.1 70 16:54 27.03.2020
5985 Clear 12 1027 46 10000 4.1 70 16:36 27.03.2020
5986 Clear 12 1027 40 10000 5.1 70 16:18 27.03.2020
5987 Clear 12 1027 40 10000 3.6 70 15:41 27.03.2020
5988 Clear 12 1027 37 10000 5.1 50 15:23 27.03.2020
5989 Clear 12 1027 34 10000 6.2 50 14:46 27.03.2020
5990 Clear 12 1026 34 0 1.34 318 14:25 27.03.2020
5991 Clear 12 1027 32 10000 5.1 40 13:56 27.03.2020
5992 Clear 11 1027 37 10000 5.1 20 13:37 27.03.2020
5993 Clear 11 1027 37 10000 5.1 20 13:37 27.03.2020
5994 Clear 10 1028 43 10000 4.1 20 13:19 27.03.2020
5995 Clear 10 1028 49 10000 2.6 10 12:51 27.03.2020
5996 Clear 9 1028 43 10000 1.5 0 12:21 27.03.2020
5997 Clear 10 1028 52 10000 2.1 120 11:59 27.03.2020
5998 Clear 9 1028 52 10000 2.1 120 11:41 27.03.2020
5999 Clear 9 1028 56 10000 2.1 110 11:41 27.03.2020
6000 Clear 8 1028 56 10000 2.1 110 11:22 27.03.2020
6001 Clear 8 1028 56 10000 2.1 70 10:54 27.03.2020
6002 Clear 8 1028 56 10000 2.1 70 10:54 27.03.2020
6003 Clear 7 1028 56 10000 2.1 70 10:36 27.03.2020
6004 Clear 6 1028 60 10000 2.1 50 10:18 27.03.2020
6005 Clear 6 1028 60 10000 2.1 50 09:55 27.03.2020
6006 Clear 5 1027 65 10000 2.1 40 09:36 27.03.2020
6007 Clear 4 1027 74 10000 2.1 40 09:18 27.03.2020
6008 Clear 3 1027 80 7000 1 30 08:54 27.03.2020
6009 Clear 3 1027 80 7000 1 30 08:36 27.03.2020
6010 Clear 2 1027 86 6000 2.1 60 08:18 27.03.2020
6011 Clear 1 1027 73 7000 2.6 60 07:43 27.03.2020
6012 Clear 1 1026 73 7000 3.1 50 07:21 27.03.2020
6013 Clear 1 1026 86 10000 1.5 50 06:41 27.03.2020
6014 Clear 1 1026 73 10000 1.5 70 06:18 27.03.2020
6015 Clear 2 1026 86 10000 1 0 03:42 27.03.2020
6016 Clear 3 1026 69 10000 0.5 0 02:19 27.03.2020
6017 Clear 4 1026 64 10000 2.1 80 01:19 27.03.2020
6018 Clear 5 1026 64 10000 1.5 70 00:43 27.03.2020
6019 Clear 5 1026 56 10000 1.5 30 00:19 27.03.2020
6020 Clear 6 1025 56 10000 1.5 90 23:40 26.03.2020
6021 Clear 6 1025 48 10000 1.5 100 23:18 26.03.2020
6022 Clear 6 1025 52 10000 2.6 60 22:57 26.03.2020
6023 Clear 7 1025 52 10000 2.6 60 22:36 26.03.2020
6024 Clear 7 1025 52 10000 3.6 60 22:18 26.03.2020
6025 Clear 7 1025 52 10000 3.6 60 22:18 26.03.2020
6026 Clear 8 1025 52 10000 3.1 70 21:40 26.03.2020
6027 Clear 9 1025 52 10000 4.1 50 21:21 26.03.2020
6028 Clear 9 1025 52 10000 4.1 50 20:59 26.03.2020
6029 Clear 10 1025 55 10000 4.6 40 20:39 26.03.2020
6030 Clear 11 1025 43 10000 3.6 40 20:21 26.03.2020
6031 Clear 11 1025 43 10000 3.6 40 19:58 26.03.2020
6032 Clear 11 1024 37 10000 2.1 90 19:40 26.03.2020
6033 Clear 12 1024 32 10000 1.5 0 19:21 26.03.2020
6034 Clear 13 1024 32 10000 2.6 110 18:58 26.03.2020
6035 Clear 13 1024 32 10000 2.6 110 18:40 26.03.2020
6036 Clear 14 1024 28 10000 1.5 0 18:21 26.03.2020
6037 Clear 15 1024 24 10000 2.6 90 17:44 26.03.2020
6038 Clear 15 1024 24 10000 2.6 90 17:44 26.03.2020
6039 Clear 15 1024 19 10000 2.6 90 17:20 26.03.2020
6040 Clear 15 1024 19 10000 2.6 90 16:57 26.03.2020
6041 Clear 16 1024 19 10000 2.6 90 16:38 26.03.2020
6042 Clear 15 1024 18 10000 2.1 80 16:18 26.03.2020
6043 Clear 15 1024 18 10000 2.1 80 15:54 26.03.2020
6044 Clear 16 1024 16 10000 2.1 90 15:36 26.03.2020
6045 Clear 16 1024 16 10000 2.6 110 15:18 26.03.2020
6046 Clear 15 1024 15 10000 1.5 0 14:42 26.03.2020
6047 Clear 16 1025 16 10000 2.1 0 14:24 26.03.2020
6048 Clear 15 1025 16 10000 2.1 0 13:54 26.03.2020
6049 Clear 15 1025 17 10000 3.1 100 13:36 26.03.2020
6050 Clear 15 1025 24 10000 2.6 80 13:18 26.03.2020
6051 Clear 14 1025 32 10000 2.1 80 12:38 26.03.2020
6052 Clear 14 1025 34 10000 2.6 350 12:20 26.03.2020
6053 Clear 13 1025 40 10000 1.5 0 11:46 26.03.2020
6054 Clear 12 1025 40 10000 1 0 11:22 26.03.2020
6055 Clear 10 1025 46 10000 1 0 10:56 26.03.2020
6056 Clear 10 1025 46 10000 1 0 10:56 26.03.2020
6057 Clear 10 1025 46 10000 1 0 10:38 26.03.2020
6058 Clear 10 1025 49 10000 1.5 20 10:19 26.03.2020
6059 Clear 8 1025 50 10000 0.5 0 09:44 26.03.2020
6060 Clear 6 1025 50 10000 0.5 0 09:20 26.03.2020
6061 Clear 4 1025 74 10000 2.6 30 08:55 26.03.2020
6062 Clear 4 1025 74 10000 2.6 30 08:37 26.03.2020
6063 Clear 2 1025 80 10000 1 0 08:18 26.03.2020
6064 Clear 2 1025 74 10000 1 0 07:44 26.03.2020
6065 Clear 2 1025 80 10000 2.6 110 07:21 26.03.2020
6066 Clear 2 1025 67 10000 1.5 100 06:56 26.03.2020
6067 Clear 3 1024 69 10000 1 70 05:59 26.03.2020
6068 Clear 3 1024 64 10000 0.5 0 04:33 26.03.2020
6069 Clear 4 1024 69 10000 1 100 03:44 26.03.2020
6070 Clear 4 1024 86 10000 1.5 110 02:55 26.03.2020
6071 Clear 6 1024 56 10000 1 90 01:50 26.03.2020
6072 Clear 6 1024 65 10000 1.5 110 00:52 26.03.2020
6073 Clear 7 1024 56 10000 1 90 23:59 25.03.2020
6074 Clear 7 1024 56 10000 1 90 23:40 25.03.2020
6075 Clear 8 1024 56 10000 1.5 90 23:20 25.03.2020
6076 Clear 8 1024 60 10000 2.1 100 22:40 25.03.2020
6077 Clear 9 1024 52 10000 1.5 100 22:21 25.03.2020
6078 Clear 9 1024 52 10000 1.5 100 21:56 25.03.2020
6079 Clear 9 1024 52 10000 1.5 110 21:37 25.03.2020
6080 Clear 10 1023 43 10000 1 120 21:19 25.03.2020
6081 Clear 11 1023 43 10000 1 120 20:54 25.03.2020
6082 Clear 12 1023 34 10000 1 130 20:36 25.03.2020
6083 Clear 13 1023 32 10000 1 0 20:18 25.03.2020
6084 Clear 14 1023 30 10000 1 0 19:42 25.03.2020
6085 Clear 15 1023 30 10000 1 0 19:22 25.03.2020
6086 Clear 15 1022 30 10000 1.5 0 18:56 25.03.2020
6087 Clear 16 1022 30 10000 1.5 0 18:37 25.03.2020
6088 Clear 17 1022 29 10000 1.5 0 18:19 25.03.2020
6089 Clear 17 1022 26 10000 2.1 200 17:54 25.03.2020
6090 Clear 16 1022 26 10000 2.1 200 17:36 25.03.2020
6091 Clear 17 1023 29 10000 2.1 190 17:18 25.03.2020
6092 Clear 17 1023 29 10000 2.6 190 16:41 25.03.2020
6093 Clear 17 1023 38 10000 2.6 200 16:22 25.03.2020
6094 Clear 17 1023 38 10000 2.6 200 16:21 25.03.2020
6095 Clear 17 1023 36 10000 2.1 200 15:44 25.03.2020
6096 Fog 17 1023 38 650 1.5 0 15:21 25.03.2020
6097 Fog 17 1023 38 650 1.5 0 14:59 25.03.2020
6098 Clear 17 1023 38 10000 2.1 180 14:40 25.03.2020
6099 Clouds 15 1023 38 10000 2.6 210 14:20 25.03.2020
6100 Clouds 15 1023 41 10000 2.6 160 13:46 25.03.2020
6101 Clouds 15 1023 41 10000 2.6 160 13:25 25.03.2020
6102 Clouds 13 1024 47 10000 2.1 0 12:54 25.03.2020
6103 Clouds 13 1024 47 10000 2.1 0 12:36 25.03.2020
6104 Clouds 14 1024 47 10000 1.5 0 12:18 25.03.2020
6105 Clouds 13 1024 50 10000 2.1 160 11:41 25.03.2020
6106 Clouds 13 1024 50 10000 2.1 180 11:21 25.03.2020
6107 Clouds 10 1024 53 10000 2.1 160 10:59 25.03.2020
6108 Clouds 10 1024 53 10000 2.1 160 10:59 25.03.2020
6109 Clouds 10 1024 53 10000 2.1 160 10:40 25.03.2020
6110 Clouds 11 1024 50 10000 2.1 0 10:19 25.03.2020
6111 Clouds 10 1024 49 10000 1.5 0 09:58 25.03.2020
6112 Clouds 9 1024 49 10000 1.5 0 09:39 25.03.2020
6113 Clouds 9 1024 52 10000 1.5 0 09:21 25.03.2020
6114 Clouds 7 1024 60 10000 1 150 08:43 25.03.2020
6115 Clouds 6 1024 60 10000 1 150 08:25 25.03.2020
6116 Clouds 6 1024 60 10000 1 150 08:25 25.03.2020
6117 Clouds 5 1024 60 10000 1 0 07:58 25.03.2020
6118 Clouds 6 1023 56 10000 0.5 0 07:38 25.03.2020
6119 Clouds 6 1023 56 10000 1 0 07:18 25.03.2020
6120 Clouds 6 1023 60 10000 1.5 0 06:43 25.03.2020
6121 Clouds 6 1023 61 10000 2.1 160 06:25 25.03.2020
6122 Clouds 7 1023 61 10000 2.1 160 05:47 25.03.2020
6123 Clouds 8 1023 70 10000 1.5 0 04:46 25.03.2020
6124 Clouds 8 1023 70 10000 1.5 0 03:58 25.03.2020
6125 Clouds 8 1023 70 10000 1 0 03:34 25.03.2020
6126 Clouds 10 1022 71 10000 2.1 170 01:41 25.03.2020
6127 Clouds 10 1022 71 10000 2.1 170 01:41 25.03.2020
6128 Clouds 10 1022 71 10000 2.1 170 01:41 25.03.2020
6129 Clouds 11 1022 66 10000 2.1 170 00:51 25.03.2020
6130 Clouds 11 1022 66 10000 2.1 170 00:32 25.03.2020
6131 Clouds 11 1022 71 10000 2.1 170 23:59 24.03.2020
6132 Clouds 12 1022 71 10000 2.1 170 23:40 24.03.2020
6133 Clouds 12 1022 66 10000 2.1 0 23:20 24.03.2020
6134 Clouds 12 1022 71 10000 2.6 170 22:55 24.03.2020
6135 Clouds 12 1022 71 10000 2.6 170 22:36 24.03.2020
6136 Clouds 13 1022 66 10000 2.6 170 22:18 24.03.2020
6137 Clouds 13 1021 66 10000 2.6 180 21:42 24.03.2020
6138 Clouds 13 1021 66 10000 2.6 170 21:19 24.03.2020
6139 Clouds 13 1021 66 10000 2.6 170 20:59 24.03.2020
6140 Clouds 14 1021 62 10000 2.1 170 20:40 24.03.2020
6141 Clouds 14 1021 62 10000 3.1 170 20:22 24.03.2020
6142 Clouds 15 1021 62 10000 2.6 170 19:48 24.03.2020
6143 Clouds 15 1021 62 10000 2.6 170 19:48 24.03.2020
6144 Clouds 15 1021 62 10000 3.1 180 19:22 24.03.2020
6145 Clouds 15 1021 62 10000 3.1 180 18:59 24.03.2020
6146 Clouds 16 1020 62 10000 3.1 180 18:39 24.03.2020
6147 Clouds 16 1020 59 10000 2.6 180 18:20 24.03.2020
6148 Clouds 16 1020 59 10000 3.6 180 17:56 24.03.2020
6149 Clouds 16 1020 59 10000 3.6 180 17:56 24.03.2020
6150 Clouds 16 1020 59 10000 3.6 180 17:38 24.03.2020
6151 Clouds 16 1020 55 10000 4.1 190 17:20 24.03.2020
6152 Clouds 16 1021 55 10000 4.1 190 16:56 24.03.2020
6153 Clouds 16 1021 55 10000 4.1 190 16:37 24.03.2020
6154 Clouds 16 1021 55 10000 4.1 180 16:19 24.03.2020
6155 Clouds 16 1021 55 10000 4.6 180 15:42 24.03.2020
6156 Clouds 16 1021 55 10000 4.6 180 15:24 24.03.2020
6157 Clouds 16 1022 55 10000 3.1 180 14:44 24.03.2020
6158 Clouds 15 1022 58 10000 4.1 180 14:22 24.03.2020
6159 Clouds 15 1022 58 10000 4.1 180 13:59 24.03.2020
6160 Clouds 15 1022 54 10000 4.1 180 13:40 24.03.2020
6161 Clouds 14 1022 58 10000 3.6 190 13:22 24.03.2020
6162 Clouds 13 1023 58 10000 3.6 180 12:42 24.03.2020
6163 Clouds 13 1023 58 10000 4.1 190 12:24 24.03.2020
6164 Clouds 12 1023 57 10000 2.1 170 11:42 24.03.2020
6165 Clear 9 1023 57 10000 3.6 190 11:22 24.03.2020
6166 Clear 9 1023 61 10000 2.6 170 10:59 24.03.2020
6167 Clear 9 1023 61 10000 2.6 170 10:41 24.03.2020
6168 Clear 8 1023 61 10000 2.6 170 10:18 24.03.2020
6169 Clear 7 1023 77 10000 2.1 150 09:46 24.03.2020
6170 Clear 6 1023 77 10000 2.1 150 09:27 24.03.2020
6171 Clear 5 1023 65 10000 2.1 170 08:57 24.03.2020
6172 Clear 5 1023 69 10000 2.1 160 08:38 24.03.2020
6173 Clouds 4 1023 69 10000 2.6 150 08:19 24.03.2020
6174 Clouds 3 1023 64 10000 2.1 170 07:44 24.03.2020
6175 Clouds 3 1022 64 10000 2.6 160 07:22 24.03.2020
6176 Clouds 3 1022 64 10000 2.6 160 07:22 24.03.2020
6177 Clouds 3 1022 64 10000 2.6 150 06:40 24.03.2020
6178 Clouds 3 1023 60 10000 1.5 0 06:21 24.03.2020
6179 Clouds 3 1023 60 10000 2.1 130 04:52 24.03.2020
6180 Clouds 4 1024 64 10000 1 0 03:32 24.03.2020
6181 Clouds 4 1024 60 10000 2.1 150 02:43 24.03.2020
6182 Clouds 5 1024 65 10000 3.1 140 00:57 24.03.2020
6183 Clouds 5 1025 65 10000 2.6 130 00:28 24.03.2020
6184 Clouds 6 1025 60 10000 2.1 140 23:58 23.03.2020
6185 Clouds 6 1024 56 10000 2.6 140 23:38 23.03.2020
6186 Clouds 6 1024 56 10000 2.6 140 23:19 23.03.2020
6187 Clouds 7 1024 56 10000 1.5 0 22:44 23.03.2020
6188 Clouds 7 1024 52 10000 1.5 0 22:23 23.03.2020
6189 Clouds 8 1024 52 10000 1.5 0 21:55 23.03.2020
6190 Clouds 8 1024 52 10000 1.5 0 21:37 23.03.2020
6191 Clouds 8 1024 49 10000 1.5 0 21:18 23.03.2020
6192 Clouds 9 1024 45 10000 1.5 0 20:42 23.03.2020
6193 Clouds 9 1024 45 10000 1.5 0 20:24 23.03.2020
6194 Clouds 9 1024 49 10000 2.1 120 19:56 23.03.2020
6195 Clouds 10 1024 43 10000 2.6 140 19:37 23.03.2020
6196 Clouds 10 1024 40 10000 2.1 140 19:19 23.03.2020
6197 Clouds 11 1024 37 10000 2.1 170 18:44 23.03.2020
6198 Clouds 12 1024 37 10000 2.6 190 18:25 23.03.2020
6199 Clouds 12 1024 35 10000 3.1 150 17:59 23.03.2020
6200 Clouds 12 1024 35 10000 3.1 150 17:41 23.03.2020
6201 Clouds 13 1024 35 10000 2.6 0 17:19 23.03.2020
6202 Clouds 12 1024 37 10000 3.1 170 16:44 23.03.2020
6203 Clouds 13 1024 35 10000 3.1 170 16:25 23.03.2020
6204 Clouds 12 1024 35 10000 3.1 170 15:58 23.03.2020
6205 Clouds 12 1024 34 10000 3.6 190 15:39 23.03.2020
6206 Clouds 12 1025 34 10000 3.6 180 15:18 23.03.2020
6207 Clouds 12 1025 37 10000 3.1 160 14:37 23.03.2020
6208 Clouds 12 1025 37 10000 3.1 160 14:37 23.03.2020
6209 Clouds 11 1025 37 10000 3.1 160 14:19 23.03.2020
6210 Clouds 11 1025 37 10000 3.1 160 13:57 23.03.2020
6211 Clouds 11 1025 43 10000 3.1 0 13:38 23.03.2020
6212 Clouds 10 1025 46 10000 3.1 170 13:20 23.03.2020
6213 Clouds 9 1026 49 10000 3.6 180 12:43 23.03.2020
6214 Clouds 9 1026 52 10000 3.1 170 12:23 23.03.2020
6215 Clouds 8 1026 52 10000 2.6 160 11:56 23.03.2020
6216 Clouds 7 1026 52 10000 2.6 160 11:37 23.03.2020
6217 Clouds 6 1026 56 10000 3.1 160 11:18 23.03.2020
6218 Clouds 5 1027 60 10000 3.1 150 10:41 23.03.2020
6219 Clouds 5 1027 56 10000 2.6 160 10:23 23.03.2020
6220 Clouds 4 1027 56 10000 2.6 160 09:59 23.03.2020
6221 Clouds 4 1026 60 10000 2.6 140 09:40 23.03.2020
6222 Clouds 3 1026 60 10000 2.1 140 09:19 23.03.2020
6223 Clouds 3 1026 74 10000 1 0 08:38 23.03.2020
6224 Clear 1 1027 78 10000 1.5 40 08:20 23.03.2020
6225 Clear 1 1027 78 10000 1 0 07:51 23.03.2020
6226 Clear 0 1027 78 10000 1 0 07:33 23.03.2020
6227 Clear 0 1027 80 10000 1 160 06:55 23.03.2020
6228 Clear 0 1027 74 10000 0.5 0 06:33 23.03.2020
6229 Clear 0 1027 74 10000 1 0 05:43 23.03.2020
6230 Clear 1 1026 69 10000 2.1 130 03:54 23.03.2020
6231 Clear 2 1027 64 10000 1.5 0 02:44 23.03.2020
6232 Clear 2 1027 64 10000 2.1 120 01:42 23.03.2020
6233 Clear 2 1028 69 10000 2.1 110 00:45 23.03.2020
6234 Clear 3 1028 74 10000 1.5 0 23:58 22.03.2020
6235 Clear 3 1028 74 10000 1.5 0 23:40 22.03.2020
6236 Clear 3 1028 73 10000 3.6 110 23:22 22.03.2020
6237 Clear 4 1028 69 10000 1.5 0 22:40 22.03.2020
6238 Clear 4 1028 65 10000 2.6 100 22:20 22.03.2020
6239 Clear 5 1028 73 10000 2.6 80 21:40 22.03.2020
6240 Clear 5 1028 73 10000 2.6 80 21:21 22.03.2020
6241 Clear 5 1028 73 10000 2.6 80 20:58 22.03.2020
6242 Clear 5 1028 73 10000 4.1 80 20:40 22.03.2020
6243 Clear 6 1028 75 10000 3.6 90 20:21 22.03.2020
6244 Clouds 7 1028 67 10000 3.6 90 19:56 22.03.2020
6245 Clouds 7 1028 67 10000 4.1 80 19:37 22.03.2020
6246 Clouds 8 1028 49 10000 2.1 90 19:19 22.03.2020
6247 Clouds 9 1028 49 10000 2.6 90 18:56 22.03.2020
6248 Clouds 9 1028 49 10000 2.6 90 18:38 22.03.2020
6249 Clouds 10 1027 46 10000 4.1 90 18:18 22.03.2020
6250 Clouds 10 1027 46 10000 4.6 90 17:56 22.03.2020
6251 Clouds 10 1027 46 10000 4.6 90 17:37 22.03.2020
6252 Clouds 11 1027 43 10000 2.1 90 17:19 22.03.2020
6253 Clouds 11 1027 40 10000 3.1 90 16:54 22.03.2020
6254 Clouds 11 1027 40 10000 3.1 90 16:36 22.03.2020
6255 Clouds 11 1027 40 10000 3.1 90 16:36 22.03.2020
6256 Clouds 10 1027 43 10000 2.1 110 16:18 22.03.2020
6257 Clouds 10 1028 40 10000 2.6 130 15:39 22.03.2020
6258 Clouds 10 1028 49 10000 3.1 100 14:48 22.03.2020
6259 Clouds 10 1029 51 10000 3.6 80 14:20 22.03.2020
6260 Clouds 9 1029 51 10000 3.6 80 13:58 22.03.2020
6261 Clouds 9 1029 51 10000 3.1 90 13:40 22.03.2020
6262 Clouds 9 1029 52 10000 3.1 90 13:19 22.03.2020
6263 Clouds 8 1029 48 10000 3.6 60 12:47 22.03.2020
6264 Clouds 8 1029 56 10000 2.6 0 12:23 22.03.2020
6265 Clouds 7 1029 56 10000 3.1 0 11:58 22.03.2020
6266 Clouds 7 1029 56 10000 3.1 0 11:39 22.03.2020
6267 Clouds 6 1029 60 10000 3.6 100 11:21 22.03.2020
6268 Clouds 6 1029 65 10000 3.1 100 10:44 22.03.2020
6269 Clouds 5 1029 65 10000 3.1 100 10:24 22.03.2020
6270 Clouds 5 1029 65 10000 3.1 100 10:24 22.03.2020
6271 Clouds 5 1029 65 10000 2.1 100 10:00 22.03.2020
6272 Clouds 5 1029 69 10000 2.1 110 09:40 22.03.2020
6273 Clouds 4 1029 80 10000 1.5 100 09:19 22.03.2020
6274 Clouds 3 1029 74 10000 1.5 0 08:42 22.03.2020
6275 Clouds 3 1029 74 10000 1.5 0 08:24 22.03.2020
6276 Clouds 2 1029 85 10000 2.1 100 07:50 22.03.2020
6277 Clouds 2 1029 80 10000 1 70 07:22 22.03.2020
6278 Clouds 2 1028 80 10000 2.1 50 05:57 22.03.2020
6279 Clouds 2 1028 80 10000 2.1 60 05:21 22.03.2020
6280 Clouds 2 1029 86 10000 2.6 70 02:58 22.03.2020
6281 Clouds 3 1028 74 10000 3.1 90 01:22 22.03.2020
6282 Clouds 3 1028 74 10000 3.1 90 00:41 22.03.2020
6283 Clouds 3 1028 74 10000 2.6 90 00:23 22.03.2020
6284 Clouds 3 1028 69 10000 2.1 100 23:41 21.03.2020
6285 Clouds 3 1028 69 10000 2.1 100 23:41 21.03.2020
6286 Clouds 3 1028 69 10000 1 0 23:19 21.03.2020
6287 Clouds 3 1028 74 10000 2.1 100 22:38 21.03.2020
6288 Clouds 4 1028 69 10000 3.1 90 22:20 21.03.2020
6289 Clouds 4 1028 69 10000 3.1 90 21:59 21.03.2020
6290 Clouds 4 1028 69 10000 4.1 80 21:40 21.03.2020
6291 Clouds 4 1027 69 10000 3.6 80 21:22 21.03.2020
6292 Clouds 4 1027 64 10000 3.1 80 20:46 21.03.2020
6293 Clear 4 1027 56 10000 3.6 90 20:23 21.03.2020
6294 Clear 5 1027 56 10000 3.6 90 19:57 21.03.2020
6295 Clear 5 1027 56 10000 4.6 100 19:39 21.03.2020
6296 Clear 5 1026 56 10000 4.1 100 19:21 21.03.2020
6297 Clear 6 1026 52 10000 5.1 100 18:54 21.03.2020
6298 Clear 6 1026 52 10000 5.1 100 18:36 21.03.2020
6299 Clear 6 1026 48 10000 4.6 90 18:18 21.03.2020
6300 Clear 7 1026 39 10000 5.7 100 17:42 21.03.2020
6301 Clear 8 1026 39 10000 4.6 100 17:23 21.03.2020
6302 Clear 8 1026 34 10000 4.6 100 16:57 21.03.2020
6303 Clear 8 1026 34 10000 4.6 100 16:38 21.03.2020
6304 Clear 9 1027 34 10000 3.6 110 16:18 21.03.2020
6305 Clear 9 1027 31 10000 4.6 0 15:41 21.03.2020
6306 Clear 9 1027 34 10000 4.1 100 15:23 21.03.2020
6307 Clear 9 1027 34 10000 4.1 100 14:58 21.03.2020
6308 Clear 9 1027 34 10000 4.6 110 14:40 21.03.2020
6309 Clouds 9 1027 39 10000 4.6 110 14:20 21.03.2020
6310 Clouds 9 1027 39 10000 4.6 110 13:59 21.03.2020
6311 Clouds 9 1028 39 10000 5.1 0 13:40 21.03.2020
6312 Clouds 9 1028 39 10000 5.1 90 13:21 21.03.2020
6313 Clouds 9 1028 39 10000 5.1 90 13:21 21.03.2020
6314 Clouds 9 1028 39 10000 5.1 90 12:58 21.03.2020
6315 Clouds 9 1028 36 10000 4.6 100 12:37 21.03.2020
6316 Clouds 8 1029 42 10000 4.6 100 12:19 21.03.2020
6317 Clouds 8 1029 49 10000 4.1 110 11:56 21.03.2020
6318 Clouds 8 1029 49 10000 4.1 110 11:37 21.03.2020
6319 Clouds 7 1029 52 10000 3.6 110 11:18 21.03.2020
6320 Clouds 7 1029 74 10000 4.1 0 10:56 21.03.2020
6321 Clouds 7 1029 74 10000 4.1 0 10:38 21.03.2020
6322 Clouds 6 1029 74 10000 5.1 90 10:19 21.03.2020
6323 Clouds 6 1029 74 10000 5.1 90 09:55 21.03.2020
6324 Clouds 5 1029 70 10000 4.6 100 09:36 21.03.2020
6325 Clouds 5 1029 74 10000 4.1 100 09:18 21.03.2020
6326 Clouds 5 1029 74 10000 6.2 90 08:42 21.03.2020
6327 Clouds 4 1029 78 10000 6.2 90 08:23 21.03.2020
6328 Clouds 3 1029 69 10000 5.1 90 07:42 21.03.2020
6329 Clouds 3 1029 84 10000 5.7 90 07:23 21.03.2020
6330 Clouds 3 1030 69 10000 4.1 90 06:46 21.03.2020
6331 Clouds 3 1030 69 10000 5.1 90 06:27 21.03.2020
6332 Clouds 3 1030 84 10000 3.6 90 05:46 21.03.2020
6333 Clouds 3 1030 84 10000 3.1 90 04:42 21.03.2020
6334 Clouds 3 1031 84 10000 4.1 80 02:40 21.03.2020
6335 Clear 3 1031 83 10000 4.1 70 02:18 21.03.2020
6336 Clouds 3 1031 83 10000 4.1 70 01:31 21.03.2020
6337 Clouds 3 1032 83 10000 4.1 80 00:47 21.03.2020
6338 Clouds 3 1032 83 10000 4.1 80 00:24 21.03.2020
6339 Clouds 3 1033 83 10000 3.1 80 23:48 20.03.2020
6340 Rain 4 1033 83 10000 3.6 70 23:24 20.03.2020
6341 Clouds 4 1032 78 10000 3.1 70 22:55 20.03.2020
6342 Clouds 4 1032 78 10000 3.1 70 22:36 20.03.2020
6343 Clouds 4 1032 78 10000 3.1 80 22:18 20.03.2020
6344 Clear 4 1032 69 10000 4.1 70 21:54 20.03.2020
6345 Clear 4 1032 69 10000 4.1 70 21:36 20.03.2020
6346 Clear 5 1032 69 10000 4.1 70 21:18 20.03.2020
6347 Clear 5 1032 60 10000 3.6 70 20:41 20.03.2020
6348 Clear 6 1032 60 10000 4.1 70 20:21 20.03.2020
6349 Clear 6 1032 60 10000 4.1 70 19:58 20.03.2020
6350 Clear 6 1032 60 10000 3.6 70 19:39 20.03.2020
6351 Clear 6 1032 52 10000 5.1 70 19:18 20.03.2020
6352 Clouds 7 1032 49 10000 4.6 80 18:39 20.03.2020
6353 Clouds 7 1032 49 10000 4.6 80 18:39 20.03.2020
6354 Clear 8 1032 49 10000 4.1 80 18:20 20.03.2020
6355 Clouds 8 1032 49 10000 5.7 70 17:56 20.03.2020
6356 Clouds 8 1032 49 10000 5.7 70 17:38 20.03.2020
6357 Clear 9 1032 42 10000 5.7 60 17:19 20.03.2020
6358 Clear 9 1032 42 10000 6.2 60 16:42 20.03.2020
6359 Clear 9 1032 39 10000 7.2 60 16:21 20.03.2020
6360 Clear 9 1032 39 10000 7.2 60 15:56 20.03.2020
6361 Clear 9 1032 43 10000 6.2 70 15:37 20.03.2020
6362 Clear 9 1032 42 10000 6.2 80 15:19 20.03.2020
6363 Clouds 9 1032 43 10000 7.7 60 14:42 20.03.2020
6364 Clouds 9 1032 45 10000 6.7 60 14:21 20.03.2020
6365 Clouds 9 1033 49 10000 8.2 50 13:50 20.03.2020
6366 Clouds 9 1033 49 10000 5.7 70 13:26 20.03.2020
6367 Clouds 9 1033 49 10000 7.7 60 12:59 20.03.2020
6368 Clouds 9 1033 49 10000 7.7 60 12:38 20.03.2020
6369 Clouds 8 1033 50 10000 8.2 50 12:20 20.03.2020
6370 Clouds 8 1033 61 10000 7.2 50 11:40 20.03.2020
6371 Clouds 7 1033 65 10000 4.6 80 11:21 20.03.2020
6372 Clouds 7 1033 75 10000 6.7 60 10:57 20.03.2020
6373 Clouds 7 1033 75 10000 6.7 60 10:57 20.03.2020
6374 Clouds 7 1033 75 10000 6.7 60 10:38 20.03.2020
6375 Clouds 6 1033 75 10000 5.1 60 10:18 20.03.2020
6376 Clouds 6 1032 80 10000 6.2 50 09:46 20.03.2020
6377 Clear 5 1032 80 10000 5.1 60 09:21 20.03.2020
6378 Clear 4 1032 80 10000 5.1 60 08:58 20.03.2020
6379 Clouds 4 1032 86 10000 4.6 50 08:39 20.03.2020
6380 Clouds 3 1032 86 10000 4.1 40 08:19 20.03.2020
6381 Clouds 3 1031 86 10000 3.6 50 07:43 20.03.2020
6382 Clouds 3 1031 86 10000 3.6 40 07:25 20.03.2020
6383 Clouds 3 1031 86 10000 4.1 50 06:42 20.03.2020
6384 Clouds 3 1031 86 10000 2.6 60 06:22 20.03.2020
6385 Clouds 4 1030 86 10000 3.1 40 04:48 20.03.2020
6386 Clouds 4 1030 80 10000 2.6 50 02:54 20.03.2020
6387 Clouds 5 1030 64 10000 2.1 80 01:50 20.03.2020
6388 Clouds 5 1030 75 10000 1.5 70 00:45 20.03.2020
6389 Clouds 5 1030 80 10000 1.5 70 00:24 20.03.2020
6390 Clouds 5 1030 81 10000 1.5 50 23:42 19.03.2020
6391 Clouds 5 1030 75 10000 1 50 23:23 19.03.2020
6392 Clouds 6 1029 75 10000 2.6 20 22:54 19.03.2020
6393 Clouds 6 1029 75 10000 2.6 20 22:36 19.03.2020
6394 Clouds 6 1029 75 10000 2.1 340 22:18 19.03.2020
6395 Clouds 6 1029 70 10000 2.1 340 21:39 19.03.2020
6396 Clouds 6 1029 70 10000 2.6 350 21:20 19.03.2020
6397 Clouds 6 1029 53 10000 2.6 340 20:54 19.03.2020
6398 Clouds 6 1029 53 10000 2.6 340 20:36 19.03.2020
6399 Clouds 6 1029 53 10000 2.6 340 20:36 19.03.2020
6400 Clouds 7 1028 48 10000 1.5 100 20:18 19.03.2020
6401 Clouds 7 1028 45 10000 1 0 19:39 19.03.2020
6402 Clouds 7 1028 45 10000 1.5 0 19:21 19.03.2020
6403 Clouds 7 1028 45 10000 1.5 0 18:59 19.03.2020
6404 Clouds 8 1027 49 10000 1 0 18:41 19.03.2020
6405 Clouds 8 1027 42 10000 1.5 0 18:22 19.03.2020
6406 Clouds 8 1027 39 10000 2.1 50 17:55 19.03.2020
6407 Clouds 9 1028 36 10000 1.5 0 17:37 19.03.2020
6408 Clouds 9 1028 36 10000 1.5 0 17:18 19.03.2020
6409 Clouds 9 1028 39 10000 1.5 0 16:42 19.03.2020
6410 Clouds 9 1028 45 10000 2.6 20 16:21 19.03.2020
6411 Clouds 9 1028 42 10000 2.6 360 15:44 19.03.2020
6412 Clouds 9 1028 42 10000 1.5 0 15:24 19.03.2020
6413 Clouds 9 1028 42 10000 1 0 14:43 19.03.2020
6414 Clouds 9 1028 45 10000 1 0 14:23 19.03.2020
6415 Clouds 9 1028 45 10000 1 0 13:59 19.03.2020
6416 Clouds 9 1028 45 10000 1 0 13:37 19.03.2020
6417 Clouds 8 1028 52 10000 1.5 0 13:18 19.03.2020
6418 Clouds 8 1029 45 10000 2.1 40 12:41 19.03.2020
6419 Clouds 8 1029 45 10000 1 0 12:23 19.03.2020
6420 Clouds 8 1029 65 10000 1.5 0 11:58 19.03.2020
6421 Clouds 8 1029 65 10000 1.5 0 11:58 19.03.2020
6422 Clouds 7 1029 65 10000 1.5 0 11:40 19.03.2020
6423 Clouds 7 1028 70 10000 1.5 0 11:22 19.03.2020
6424 Clouds 7 1028 87 10000 1 0 10:42 19.03.2020
6425 Clouds 6 1028 87 10000 0.5 0 10:21 19.03.2020
6426 Clouds 6 1028 87 10000 0.5 0 09:58 19.03.2020
6427 Clouds 6 1028 93 10000 0.5 0 09:38 19.03.2020
6428 Clouds 5 1028 100 10000 0.5 0 09:19 19.03.2020
6429 Clouds 5 1027 93 10000 0.5 90 08:45 19.03.2020
6430 Clouds 4 1027 93 10000 1 80 08:21 19.03.2020
6431 Clouds 4 1027 93 10000 0.5 100 07:47 19.03.2020
6432 Clouds 4 1027 93 10000 0.5 100 07:28 19.03.2020
6433 Clouds 4 1027 93 10000 0.5 0 06:49 19.03.2020
6434 Clouds 4 1026 93 10000 1 120 05:52 19.03.2020
6435 Clouds 4 1026 93 10000 1 150 04:59 19.03.2020
6436 Clouds 4 1026 93 10000 1 150 04:40 19.03.2020
6437 Clouds 4 1026 93 10000 0.5 180 02:50 19.03.2020
6438 Clouds 5 1026 93 10000 1 130 01:25 19.03.2020
6439 Clouds 5 1026 86 10000 0.5 300 00:32 19.03.2020
6440 Clouds 5 1026 81 10000 1.5 320 23:57 18.03.2020
6441 Rain 5 1026 81 10000 1 320 23:30 18.03.2020
6442 Clouds 6 1026 81 10000 1 290 22:58 18.03.2020
6443 Clouds 6 1026 81 10000 1 290 22:39 18.03.2020
6444 Clouds 6 1026 81 10000 2.1 280 22:21 18.03.2020
6445 Clouds 6 1026 81 10000 2.6 300 21:42 18.03.2020
6446 Clouds 6 1026 87 10000 1.5 290 21:22 18.03.2020
6447 Clouds 6 1026 87 10000 1.5 290 20:59 18.03.2020
6448 Clouds 6 1026 87 10000 1.5 290 20:59 18.03.2020
6449 Clouds 6 1025 81 10000 2.6 280 20:40 18.03.2020
6450 Clouds 6 1025 81 10000 2.6 280 20:40 18.03.2020
6451 Clouds 6 1025 81 10000 2.6 290 20:20 18.03.2020
6452 Clouds 6 1025 81 10000 2.6 290 19:58 18.03.2020
6453 Clouds 6 1025 75 10000 2.6 300 19:39 18.03.2020
6454 Clouds 7 1024 75 10000 3.1 290 19:20 18.03.2020
6455 Clouds 7 1024 70 10000 3.1 280 18:41 18.03.2020
6456 Clouds 7 1024 75 10000 3.1 280 18:21 18.03.2020
6457 Clouds 7 1024 75 10000 3.1 280 18:21 18.03.2020
6458 Clouds 7 1024 70 10000 2.6 290 17:59 18.03.2020
6459 Clouds 7 1024 70 10000 2.6 290 17:40 18.03.2020
6460 Clouds 7 1024 70 10000 3.1 280 17:21 18.03.2020
6461 Clouds 7 1024 75 10000 2.6 300 16:58 18.03.2020
6462 Clouds 7 1024 75 10000 2.6 300 16:39 18.03.2020
6463 Clouds 7 1024 75 10000 2.6 290 16:20 18.03.2020
6464 Rain 7 1024 81 10000 2.6 290 15:45 18.03.2020
6465 Clouds 7 1024 87 10000 3.1 280 15:20 18.03.2020
6466 Rain 7 1024 87 10000 3.6 280 14:45 18.03.2020
6467 Rain 7 1024 75 10000 4.6 290 14:22 18.03.2020
6468 Rain 7 1024 75 10000 4.6 290 13:59 18.03.2020
6469 Rain 7 1024 75 10000 3.1 290 13:37 18.03.2020
6470 Rain 7 1024 81 10000 3.1 280 13:19 18.03.2020
6471 Rain 7 1024 87 10000 2.6 290 12:41 18.03.2020
6472 Rain 7 1024 87 10000 3.6 270 12:20 18.03.2020
6473 Rain 7 1024 93 10000 3.1 290 11:40 18.03.2020
6474 Rain 6 1024 93 10000 2.6 290 11:21 18.03.2020
6475 Rain 6 1023 93 10000 2.1 290 10:58 18.03.2020
6476 Rain 6 1023 93 10000 2.1 290 10:39 18.03.2020
6477 Rain 6 1023 93 10000 2.1 280 10:20 18.03.2020
6478 Rain 6 1023 93 10000 2.1 280 09:56 18.03.2020
6479 Drizzle 6 1023 93 6000 2.1 280 09:38 18.03.2020
6480 Clouds 6 1022 93 10000 1.5 290 09:20 18.03.2020
6481 Clouds 6 1022 87 10000 2.6 300 08:39 18.03.2020
6482 Rain 6 1022 93 10000 4.1 300 08:21 18.03.2020
6483 Rain 6 1021 93 10000 3.1 290 07:49 18.03.2020
6484 Rain 6 1021 93 10000 3.1 290 07:30 18.03.2020
6485 Rain 7 1021 100 6000 4.1 300 06:50 18.03.2020
6486 Rain 7 1021 100 5000 3.1 290 06:24 18.03.2020
6487 Rain 7 1020 100 10000 3.6 290 05:35 18.03.2020
6488 Rain 8 1019 100 10000 6.2 290 04:27 18.03.2020
6489 Rain 10 1018 93 7000 6.2 210 02:49 18.03.2020
6490 Drizzle 11 1018 93 5000 6.7 220 01:48 18.03.2020
6491 Rain 11 1018 93 10000 7.2 220 01:27 18.03.2020
6492 Rain 12 1019 81 10000 6.7 210 00:25 18.03.2020
6493 Rain 12 1019 81 10000 7.7 210 23:51 17.03.2020
6494 Rain 12 1019 81 10000 7.2 200 23:28 17.03.2020
6495 Rain 12 1019 81 10000 7.2 200 22:59 17.03.2020
6496 Clouds 12 1019 81 10000 7.2 200 22:40 17.03.2020
6497 Clouds 12 1019 81 10000 6.2 200 22:22 17.03.2020
6498 Clouds 12 1019 81 10000 6.7 200 21:40 17.03.2020
6499 Clouds 12 1019 81 10000 6.7 200 21:21 17.03.2020
6500 Clouds 12 1020 81 10000 6.7 210 20:41 17.03.2020
6501 Clouds 12 1020 81 10000 7.2 210 20:22 17.03.2020
6502 Clouds 12 1020 81 10000 7.2 210 19:59 17.03.2020
6503 Clouds 12 1019 76 10000 6.2 210 19:40 17.03.2020
6504 Clouds 13 1020 76 10000 9.3 220 19:18 17.03.2020
6505 Clouds 13 1019 71 10000 6.7 210 18:56 17.03.2020
6506 Clouds 13 1019 71 10000 6.7 210 18:37 17.03.2020
6507 Clouds 13 1019 71 10000 6.7 210 18:37 17.03.2020
6508 Clouds 13 1019 71 10000 6.7 210 18:19 17.03.2020
6509 Clouds 13 1020 76 10000 5.7 200 17:40 17.03.2020
6510 Clouds 13 1020 76 10000 5.7 200 17:40 17.03.2020
6511 Clouds 13 1020 71 10000 7.7 210 17:21 17.03.2020
6512 Clouds 14 1021 67 10000 8.2 220 16:55 17.03.2020
6513 Clouds 14 1021 67 10000 8.2 220 16:37 17.03.2020
6514 Clouds 14 1021 71 10000 8.2 220 16:18 17.03.2020
6515 Clouds 14 1021 67 10000 6.2 220 15:43 17.03.2020
6516 Clouds 14 1021 67 10000 6.7 220 15:19 17.03.2020
6517 Clouds 14 1022 62 10000 6.7 210 14:42 17.03.2020
6518 Clouds 14 1022 67 10000 6.7 210 14:21 17.03.2020
6519 Clouds 14 1022 67 10000 7.2 210 13:44 17.03.2020
6520 Clouds 13 1023 67 10000 5.7 220 13:26 17.03.2020
6521 Clouds 13 1023 67 10000 5.7 220 12:58 17.03.2020
6522 Clouds 13 1023 67 10000 5.7 220 12:58 17.03.2020
6523 Clouds 13 1022 71 10000 5.7 220 12:39 17.03.2020
6524 Clouds 12 1023 76 10000 6.2 220 12:21 17.03.2020
6525 Clouds 12 1023 81 10000 3.6 200 11:45 17.03.2020
6526 Clouds 12 1022 81 10000 4.6 210 11:27 17.03.2020
6527 Clouds 12 1022 81 10000 4.6 210 11:27 17.03.2020
6528 Clouds 11 1022 81 10000 4.1 200 10:58 17.03.2020
6529 Clouds 11 1022 81 10000 4.1 200 10:37 17.03.2020
6530 Clouds 11 1022 87 10000 3.6 200 10:19 17.03.2020
6531 Clouds 10 1022 87 10000 3.6 200 09:55 17.03.2020
6532 Clouds 10 1022 93 10000 3.1 190 09:36 17.03.2020
6533 Clouds 10 1022 87 10000 4.1 200 09:18 17.03.2020
6534 Clouds 9 1022 87 10000 4.1 210 08:42 17.03.2020
6535 Clouds 9 1022 87 10000 2.1 200 08:21 17.03.2020
6536 Clouds 9 1021 87 10000 3.6 200 07:49 17.03.2020
6537 Rain 9 1021 87 10000 3.6 200 07:24 17.03.2020
6538 Rain 9 1021 87 10000 4.1 200 06:53 17.03.2020
6539 Clouds 9 1021 87 10000 4.1 200 06:27 17.03.2020
6540 Clouds 9 1020 87 10000 4.1 200 05:38 17.03.2020
6541 Rain 8 1020 81 10000 5.1 210 03:36 17.03.2020
6542 Clouds 8 1020 81 10000 4.6 200 02:31 17.03.2020
6543 Clouds 8 1020 75 10000 4.1 200 01:39 17.03.2020
6544 Clouds 8 1020 70 10000 4.1 200 00:54 17.03.2020
6545 Clouds 8 1020 75 10000 4.1 190 00:19 17.03.2020
6546 Clouds 8 1021 75 10000 4.1 200 23:38 16.03.2020
6547 Clouds 8 1021 75 10000 4.1 200 23:19 16.03.2020
6548 Clouds 8 1021 65 10000 3.6 190 22:38 16.03.2020
6549 Clouds 8 1020 65 10000 3.6 190 22:20 16.03.2020
6550 Clouds 8 1020 65 10000 3.6 190 22:20 16.03.2020
6551 Clouds 8 1020 65 10000 4.6 200 21:45 16.03.2020
6552 Clouds 8 1020 65 10000 4.6 200 21:27 16.03.2020
6553 Clouds 8 1020 61 10000 4.6 200 20:59 16.03.2020
6554 Clouds 8 1020 61 10000 3.1 200 20:39 16.03.2020
6555 Clouds 8 1020 50 10000 5.1 210 20:20 16.03.2020
6556 Clouds 8 1020 50 10000 4.6 210 19:46 16.03.2020
6557 Clouds 9 1020 50 10000 4.6 220 19:24 16.03.2020
6558 Clouds 9 1020 50 10000 5.1 220 18:59 16.03.2020
6559 Clouds 9 1020 50 10000 5.1 220 18:39 16.03.2020
6560 Clouds 9 1020 49 10000 6.2 220 18:19 16.03.2020
6561 Clouds 10 1020 45 10000 5.7 220 17:46 16.03.2020
6562 Clouds 10 1020 53 10000 5.7 210 17:25 16.03.2020
6563 Clouds 10 1020 53 10000 4.6 220 16:56 16.03.2020
6564 Clouds 10 1020 53 10000 4.6 220 16:37 16.03.2020
6565 Clouds 10 1020 53 10000 3.6 200 16:19 16.03.2020
6566 Clouds 10 1020 57 10000 4.6 210 15:42 16.03.2020
6567 Clouds 10 1020 53 10000 5.7 210 15:23 16.03.2020
6568 Clouds 10 1020 53 10000 5.7 210 15:23 16.03.2020
6569 Clouds 11 1020 61 10000 5.1 220 14:45 16.03.2020
6570 Clouds 10 1020 53 10000 4.1 220 14:20 16.03.2020
6571 Clouds 10 1020 53 10000 4.6 250 13:45 16.03.2020
6572 Clouds 10 1020 53 10000 4.6 250 13:26 16.03.2020
6573 Clouds 10 1021 57 10000 5.1 250 12:56 16.03.2020
6574 Clouds 9 1021 65 10000 3.6 260 12:37 16.03.2020
6575 Clouds 9 1020 65 10000 4.1 230 12:19 16.03.2020
6576 Clouds 9 1020 70 10000 4.1 240 11:42 16.03.2020
6577 Clouds 8 1020 75 10000 3.6 260 11:20 16.03.2020
6578 Clouds 8 1020 81 10000 3.6 240 10:43 16.03.2020
6579 Clouds 7 1020 87 10000 2.6 240 10:24 16.03.2020
6580 Clouds 6 1019 87 10000 3.1 240 09:47 16.03.2020
6581 Clouds 6 1019 87 10000 3.1 240 09:28 16.03.2020
6582 Clouds 5 1019 93 10000 3.6 240 08:59 16.03.2020
6583 Clouds 5 1019 93 10000 1.5 220 08:27 16.03.2020
6584 Clouds 5 1018 86 10000 2.1 220 07:56 16.03.2020
6585 Clouds 5 1018 86 10000 2.6 240 07:38 16.03.2020
6586 Clouds 5 1017 86 10000 2.1 250 07:18 16.03.2020
6587 Rain 5 1017 81 10000 2.1 250 06:27 16.03.2020
6588 Rain 5 1016 87 10000 2.6 250 05:54 16.03.2020
6589 Clouds 6 1015 81 10000 3.6 280 03:31 16.03.2020
6590 Clouds 6 1013 81 10000 4.6 300 01:20 16.03.2020
6591 Clouds 6 1013 75 10000 4.6 300 00:43 16.03.2020
6592 Clouds 6 1012 75 10000 5.1 290 23:49 15.03.2020
6593 Clouds 6 1012 75 10000 3.6 290 23:21 15.03.2020
6594 Clouds 6 1011 81 10000 3.6 280 22:56 15.03.2020
6595 Clouds 6 1011 81 10000 3.6 280 22:37 15.03.2020
6596 Clouds 6 1011 81 10000 4.1 280 22:19 15.03.2020
6597 Clouds 6 1010 81 10000 4.6 270 21:39 15.03.2020
6598 Clouds 6 1010 75 10000 3.6 270 21:19 15.03.2020
6599 Clouds 6 1009 81 10000 3.6 270 20:43 15.03.2020
6600 Clouds 7 1009 75 10000 4.6 290 20:22 15.03.2020
6601 Clouds 7 1009 75 10000 4.6 290 19:58 15.03.2020
6602 Clouds 7 1008 70 10000 5.1 290 19:40 15.03.2020
6603 Clouds 7 1008 70 10000 6.2 290 19:22 15.03.2020
6604 Clouds 8 1007 70 10000 6.2 270 18:57 15.03.2020
6605 Clouds 8 1007 70 10000 6.2 270 18:38 15.03.2020
6606 Clouds 8 1006 70 10000 6.7 260 18:20 15.03.2020
6607 Rain 9 1006 66 10000 6.7 280 17:42 15.03.2020
6608 Rain 9 1006 66 10000 5.7 290 17:22 15.03.2020
6609 Clouds 9 1005 66 10000 6.2 280 16:59 15.03.2020
6610 Clouds 9 1005 66 10000 6.2 280 16:41 15.03.2020
6611 Clouds 9 1004 70 10000 6.2 270 16:22 15.03.2020
6612 Clouds 9 1004 70 10000 6.2 270 15:56 15.03.2020
6613 Clouds 9 1004 70 10000 6.2 270 15:38 15.03.2020
6614 Clouds 8 1004 75 10000 5.7 270 15:19 15.03.2020
6615 Clouds 9 1004 75 10000 4.6 270 14:40 15.03.2020
6616 Rain 9 1003 70 10000 6.7 280 14:22 15.03.2020
6617 Rain 9 1003 70 10000 6.7 280 13:56 15.03.2020
6618 Rain 9 1003 76 10000 4.6 230 13:38 15.03.2020
6619 Rain 9 1003 76 10000 4.1 220 13:18 15.03.2020
6620 Clouds 9 1003 76 10000 4.1 210 12:40 15.03.2020
6621 Clouds 9 1002 87 10000 3.6 210 12:22 15.03.2020
6622 Rain 8 1002 87 10000 3.1 200 11:44 15.03.2020
6623 Rain 8 1002 81 10000 3.1 200 11:25 15.03.2020
6624 Clouds 8 1002 81 10000 3.6 190 10:59 15.03.2020
6625 Clouds 8 1002 81 10000 3.6 190 10:40 15.03.2020
6626 Clouds 8 1002 81 10000 3.6 200 10:22 15.03.2020
6627 Clouds 8 1002 81 10000 3.6 200 09:59 15.03.2020
6628 Clouds 8 1001 87 10000 3.6 200 09:38 15.03.2020
6629 Clouds 8 1001 93 10000 3.6 200 09:19 15.03.2020
6630 Clouds 8 1001 87 10000 3.1 200 08:41 15.03.2020
6631 Rain 7 1001 87 10000 3.6 200 08:19 15.03.2020
6632 Rain 7 1001 93 10000 3.6 200 07:48 15.03.2020
6633 Rain 7 1000 100 10000 3.6 200 07:22 15.03.2020
6634 Rain 7 1000 93 9000 3.1 190 06:43 15.03.2020
6635 Rain 8 1000 93 10000 3.6 200 05:48 15.03.2020
6636 Rain 8 1001 93 2300 5.1 200 04:56 15.03.2020
6637 Rain 9 1001 93 2300 5.1 200 04:37 15.03.2020
6638 Rain 9 1001 93 10000 4.1 190 04:18 15.03.2020
6639 Rain 10 1002 81 10000 5.1 190 02:54 15.03.2020
6640 Rain 10 1002 87 10000 5.7 190 02:21 15.03.2020
6641 Rain 10 1003 81 10000 6.2 190 00:57 15.03.2020
6642 Rain 10 1003 81 10000 6.2 190 00:39 15.03.2020
6643 Rain 10 1003 81 10000 5.7 190 00:18 15.03.2020
6644 Clouds 10 1003 76 10000 5.7 190 23:38 14.03.2020
6645 Clouds 10 1004 76 10000 5.1 190 23:19 14.03.2020
6646 Clouds 10 1004 76 10000 5.7 190 22:55 14.03.2020
6647 Clouds 10 1004 76 10000 5.7 190 22:55 14.03.2020
6648 Clouds 10 1004 76 10000 5.7 190 22:37 14.03.2020
6649 Clouds 10 1004 76 10000 3.6 190 22:19 14.03.2020
6650 Clouds 10 1004 76 10000 3.6 190 21:54 14.03.2020
6651 Clouds 10 1005 81 10000 4.1 190 21:36 14.03.2020
6652 Clouds 10 1005 81 10000 4.1 180 21:18 14.03.2020
6653 Clouds 10 1006 81 10000 5.1 180 20:55 14.03.2020
6654 Clouds 10 1006 81 10000 5.1 180 20:36 14.03.2020
6655 Clouds 10 1006 81 10000 4.6 200 20:18 14.03.2020
6656 Clouds 10 1006 81 10000 4.6 200 19:40 14.03.2020
6657 Clouds 10 1006 81 10000 4.6 200 19:20 14.03.2020
6658 Clouds 10 1006 81 10000 3.6 190 18:39 14.03.2020
6659 Rain 10 1007 81 10000 3.1 190 18:20 14.03.2020
6660 Rain 10 1007 87 10000 2.6 190 17:42 14.03.2020
6661 Rain 10 1008 87 10000 3.1 210 17:21 14.03.2020
6662 Rain 10 1008 76 10000 5.7 210 16:58 14.03.2020
6663 Rain 10 1008 76 10000 5.7 210 16:38 14.03.2020
6664 Clouds 11 1008 71 10000 6.2 220 16:18 14.03.2020
6665 Clouds 11 1008 76 10000 3.6 200 15:28 14.03.2020
6666 Clouds 11 1008 76 10000 4.1 190 14:59 14.03.2020
6667 Clouds 11 1008 76 10000 4.1 190 14:59 14.03.2020
6668 Clouds 11 1009 71 10000 4.1 210 14:39 14.03.2020
6669 Rain 11 1009 81 10000 6.2 220 14:20 14.03.2020
6670 Rain 11 1009 81 10000 6.2 220 13:56 14.03.2020
6671 Clouds 11 1009 71 10000 4.6 200 13:38 14.03.2020
6672 Clouds 11 1009 76 10000 3.6 200 13:19 14.03.2020
6673 Clouds 11 1010 76 10000 4.6 200 12:44 14.03.2020
6674 Clouds 10 1010 81 10000 3.6 200 12:25 14.03.2020
6675 Clouds 9 1010 87 10000 3.1 200 11:45 14.03.2020
6676 Clouds 9 1010 93 10000 3.1 190 11:25 14.03.2020
6677 Clouds 8 1010 93 10000 3.6 180 10:54 14.03.2020
6678 Clouds 8 1010 93 10000 3.6 180 10:54 14.03.2020
6679 Clouds 8 1010 93 10000 3.6 180 10:36 14.03.2020
6680 Clouds 8 1010 93 10000 2.1 180 10:18 14.03.2020
6681 Clouds 7 1010 93 10000 2.6 180 09:41 14.03.2020
6682 Rain 7 1010 93 10000 2.1 170 09:21 14.03.2020
6683 Rain 6 1010 100 10000 2.1 170 08:46 14.03.2020
6684 Rain 6 1010 100 10000 2.1 170 08:46 14.03.2020
6685 Rain 6 1010 100 10000 2.1 170 08:26 14.03.2020
6686 Clouds 6 1010 93 10000 2.6 150 07:40 14.03.2020
6687 Rain 6 1010 93 10000 3.6 140 07:21 14.03.2020
6688 Rain 6 1010 93 10000 3.1 150 06:55 14.03.2020
6689 Rain 6 1010 93 10000 3.1 150 06:34 14.03.2020
6690 Rain 5 1012 87 10000 2.6 140 04:55 14.03.2020
6691 Clouds 5 1012 81 10000 3.1 130 03:34 14.03.2020
6692 Clouds 5 1013 81 10000 2.6 120 02:48 14.03.2020
6693 Clouds 5 1014 81 10000 1.5 0 01:46 14.03.2020
6694 Clouds 5 1015 81 10000 2.1 0 00:34 14.03.2020
6695 Clouds 5 1015 86 10000 2.1 110 23:42 13.03.2020
6696 Clouds 5 1015 86 10000 2.1 110 23:23 13.03.2020
6697 Rain 5 1016 87 10000 2.6 0 22:44 13.03.2020
6698 Rain 5 1016 81 10000 2.6 110 22:22 13.03.2020
6699 Clouds 5 1016 87 10000 2.1 0 21:41 13.03.2020
6700 Clouds 6 1016 87 10000 2.6 90 21:19 13.03.2020
6701 Rain 6 1016 93 10000 2.1 100 20:42 13.03.2020
6702 Rain 6 1016 87 10000 1.5 0 20:22 13.03.2020
6703 Rain 6 1016 87 10000 1.5 0 19:57 13.03.2020
6704 Rain 6 1016 87 10000 1.5 0 19:39 13.03.2020
6705 Rain 7 1017 93 9000 1.5 0 19:18 13.03.2020
6706 Rain 7 1017 87 9000 2.1 210 18:40 13.03.2020
6707 Rain 7 1017 87 10000 2.1 210 18:22